<?xml version="1.0" encoding="UTF-8" standalone="no" ?>
<gpx xmlns="http://www.topografix.com/GPX/1/1" xmlns:xsi="http://www.w3.org/2001/XMLSchema-instance" xsi:schemaLocation="http://www.topografix.com/GPX/1/1 http://www.topografix.com/GPX/1/1/gpx.xsd" version="1.1" creator="VisuGPX - https://www.visugpx.com">
  <metadata>
    <name>LOZERIENNE 06-05-2023</name>
  </metadata>
  <trk>
    <name><![CDATA[LOZERIENNE 06-05-2023]]></name>
    <trkseg>
      <trkpt lat="44.30959" lon="3.17382">
        <ele>876</ele>
        <time>2023-05-06T07:07:54Z</time>
      </trkpt>
      <trkpt lat="44.30959" lon="3.17382">
        <ele>876</ele>
        <time>2023-05-06T07:08:02Z</time>
      </trkpt>
      <trkpt lat="44.30956" lon="3.1738">
        <ele>876.20001220703</ele>
        <time>2023-05-06T07:08:04Z</time>
      </trkpt>
      <trkpt lat="44.30952" lon="3.17377">
        <ele>876.40002441406</ele>
        <time>2023-05-06T07:08:07Z</time>
      </trkpt>
      <trkpt lat="44.30946" lon="3.1738">
        <ele>876.59997558594</ele>
        <time>2023-05-06T07:08:11Z</time>
      </trkpt>
      <trkpt lat="44.30945" lon="3.17381">
        <ele>876.79998779297</ele>
        <time>2023-05-06T07:08:12Z</time>
      </trkpt>
      <trkpt lat="44.30941" lon="3.17388">
        <ele>876.79998779297</ele>
        <time>2023-05-06T07:08:16Z</time>
      </trkpt>
      <trkpt lat="44.30938" lon="3.17404">
        <ele>876.79998779297</ele>
        <time>2023-05-06T07:08:21Z</time>
      </trkpt>
      <trkpt lat="44.30935" lon="3.17406">
        <ele>876.79998779297</ele>
        <time>2023-05-06T07:08:22Z</time>
      </trkpt>
      <trkpt lat="44.30921" lon="3.17409">
        <ele>876.79998779297</ele>
        <time>2023-05-06T07:08:26Z</time>
      </trkpt>
      <trkpt lat="44.309" lon="3.1741">
        <ele>876.40002441406</ele>
        <time>2023-05-06T07:08:31Z</time>
      </trkpt>
      <trkpt lat="44.30886" lon="3.17411">
        <ele>876</ele>
        <time>2023-05-06T07:08:34Z</time>
      </trkpt>
      <trkpt lat="44.30847" lon="3.17411">
        <ele>875</ele>
        <time>2023-05-06T07:08:41Z</time>
      </trkpt>
      <trkpt lat="44.30837" lon="3.17404">
        <ele>874.59997558594</ele>
        <time>2023-05-06T07:08:43Z</time>
      </trkpt>
      <trkpt lat="44.30833" lon="3.17397">
        <ele>874.40002441406</ele>
        <time>2023-05-06T07:08:44Z</time>
      </trkpt>
      <trkpt lat="44.30829" lon="3.1739">
        <ele>874.20001220703</ele>
        <time>2023-05-06T07:08:45Z</time>
      </trkpt>
      <trkpt lat="44.30819" lon="3.17366">
        <ele>873.79998779297</ele>
        <time>2023-05-06T07:08:48Z</time>
      </trkpt>
      <trkpt lat="44.308" lon="3.17315">
        <ele>872.79998779297</ele>
        <time>2023-05-06T07:08:54Z</time>
      </trkpt>
      <trkpt lat="44.30781" lon="3.17253">
        <ele>872</ele>
        <time>2023-05-06T07:09:01Z</time>
      </trkpt>
      <trkpt lat="44.30771" lon="3.17198">
        <ele>871.40002441406</ele>
        <time>2023-05-06T07:09:07Z</time>
      </trkpt>
      <trkpt lat="44.30767" lon="3.1715">
        <ele>870.79998779297</ele>
        <time>2023-05-06T07:09:12Z</time>
      </trkpt>
      <trkpt lat="44.30762" lon="3.17089">
        <ele>870</ele>
        <time>2023-05-06T07:09:18Z</time>
      </trkpt>
      <trkpt lat="44.30755" lon="3.17014">
        <ele>869.20001220703</ele>
        <time>2023-05-06T07:09:25Z</time>
      </trkpt>
      <trkpt lat="44.30753" lon="3.16982">
        <ele>869</ele>
        <time>2023-05-06T07:09:28Z</time>
      </trkpt>
      <trkpt lat="44.30753" lon="3.16907">
        <ele>868.40002441406</ele>
        <time>2023-05-06T07:09:35Z</time>
      </trkpt>
      <trkpt lat="44.3075" lon="3.16827">
        <ele>867.40002441406</ele>
        <time>2023-05-06T07:09:43Z</time>
      </trkpt>
      <trkpt lat="44.30737" lon="3.16751">
        <ele>866.79998779297</ele>
        <time>2023-05-06T07:09:51Z</time>
      </trkpt>
      <trkpt lat="44.30735" lon="3.16741">
        <ele>866.59997558594</ele>
        <time>2023-05-06T07:09:52Z</time>
      </trkpt>
      <trkpt lat="44.3072" lon="3.16661">
        <ele>865.79998779297</ele>
        <time>2023-05-06T07:10:00Z</time>
      </trkpt>
      <trkpt lat="44.30701" lon="3.16587">
        <ele>864.79998779297</ele>
        <time>2023-05-06T07:10:07Z</time>
      </trkpt>
      <trkpt lat="44.30698" lon="3.16576">
        <ele>864.59997558594</ele>
        <time>2023-05-06T07:10:08Z</time>
      </trkpt>
      <trkpt lat="44.30673" lon="3.16497">
        <ele>863.59997558594</ele>
        <time>2023-05-06T07:10:15Z</time>
      </trkpt>
      <trkpt lat="44.30669" lon="3.16486">
        <ele>863.40002441406</ele>
        <time>2023-05-06T07:10:16Z</time>
      </trkpt>
      <trkpt lat="44.30661" lon="3.16464">
        <ele>863.20001220703</ele>
        <time>2023-05-06T07:10:18Z</time>
      </trkpt>
      <trkpt lat="44.30649" lon="3.16448">
        <ele>862.79998779297</ele>
        <time>2023-05-06T07:10:20Z</time>
      </trkpt>
      <trkpt lat="44.30626" lon="3.16435">
        <ele>862.59997558594</ele>
        <time>2023-05-06T07:10:23Z</time>
      </trkpt>
      <trkpt lat="44.30585" lon="3.16414">
        <ele>862</ele>
        <time>2023-05-06T07:10:29Z</time>
      </trkpt>
      <trkpt lat="44.30555" lon="3.16398">
        <ele>861.59997558594</ele>
        <time>2023-05-06T07:10:34Z</time>
      </trkpt>
      <trkpt lat="44.3053" lon="3.1638">
        <ele>861.20001220703</ele>
        <time>2023-05-06T07:10:39Z</time>
      </trkpt>
      <trkpt lat="44.30507" lon="3.16354">
        <ele>861</ele>
        <time>2023-05-06T07:10:45Z</time>
      </trkpt>
      <trkpt lat="44.30499" lon="3.16341">
        <ele>861.20001220703</ele>
        <time>2023-05-06T07:10:48Z</time>
      </trkpt>
      <trkpt lat="44.30492" lon="3.16328">
        <ele>861.20001220703</ele>
        <time>2023-05-06T07:10:51Z</time>
      </trkpt>
      <trkpt lat="44.30479" lon="3.16301">
        <ele>861.59997558594</ele>
        <time>2023-05-06T07:10:57Z</time>
      </trkpt>
      <trkpt lat="44.30466" lon="3.16281">
        <ele>861.79998779297</ele>
        <time>2023-05-06T07:11:01Z</time>
      </trkpt>
      <trkpt lat="44.30455" lon="3.16267">
        <ele>862</ele>
        <time>2023-05-06T07:11:04Z</time>
      </trkpt>
      <trkpt lat="44.30441" lon="3.16253">
        <ele>862</ele>
        <time>2023-05-06T07:11:08Z</time>
      </trkpt>
      <trkpt lat="44.30432" lon="3.16246">
        <ele>862</ele>
        <time>2023-05-06T07:11:10Z</time>
      </trkpt>
      <trkpt lat="44.30422" lon="3.16241">
        <ele>862</ele>
        <time>2023-05-06T07:11:12Z</time>
      </trkpt>
      <trkpt lat="44.30406" lon="3.16238">
        <ele>862</ele>
        <time>2023-05-06T07:11:15Z</time>
      </trkpt>
      <trkpt lat="44.30368" lon="3.1623">
        <ele>861.59997558594</ele>
        <time>2023-05-06T07:11:21Z</time>
      </trkpt>
      <trkpt lat="44.30331" lon="3.16215">
        <ele>860.79998779297</ele>
        <time>2023-05-06T07:11:26Z</time>
      </trkpt>
      <trkpt lat="44.30314" lon="3.16205">
        <ele>860.40002441406</ele>
        <time>2023-05-06T07:11:28Z</time>
      </trkpt>
      <trkpt lat="44.30305" lon="3.16198">
        <ele>860.20001220703</ele>
        <time>2023-05-06T07:11:29Z</time>
      </trkpt>
      <trkpt lat="44.30298" lon="3.16188">
        <ele>860</ele>
        <time>2023-05-06T07:11:30Z</time>
      </trkpt>
      <trkpt lat="44.30285" lon="3.16167">
        <ele>859.59997558594</ele>
        <time>2023-05-06T07:11:32Z</time>
      </trkpt>
      <trkpt lat="44.30278" lon="3.16158">
        <ele>859.40002441406</ele>
        <time>2023-05-06T07:11:33Z</time>
      </trkpt>
      <trkpt lat="44.30258" lon="3.1613">
        <ele>859</ele>
        <time>2023-05-06T07:11:36Z</time>
      </trkpt>
      <trkpt lat="44.30245" lon="3.161">
        <ele>858.59997558594</ele>
        <time>2023-05-06T07:11:39Z</time>
      </trkpt>
      <trkpt lat="44.3024" lon="3.16079">
        <ele>858.40002441406</ele>
        <time>2023-05-06T07:11:41Z</time>
      </trkpt>
      <trkpt lat="44.30237" lon="3.16061">
        <ele>858.20001220703</ele>
        <time>2023-05-06T07:11:43Z</time>
      </trkpt>
      <trkpt lat="44.30225" lon="3.16008">
        <ele>857.20001220703</ele>
        <time>2023-05-06T07:11:49Z</time>
      </trkpt>
      <trkpt lat="44.30218" lon="3.15991">
        <ele>857</ele>
        <time>2023-05-06T07:11:51Z</time>
      </trkpt>
      <trkpt lat="44.30208" lon="3.15967">
        <ele>856.79998779297</ele>
        <time>2023-05-06T07:11:54Z</time>
      </trkpt>
      <trkpt lat="44.30186" lon="3.15928">
        <ele>856.20001220703</ele>
        <time>2023-05-06T07:11:59Z</time>
      </trkpt>
      <trkpt lat="44.30175" lon="3.15905">
        <ele>855.79998779297</ele>
        <time>2023-05-06T07:12:02Z</time>
      </trkpt>
      <trkpt lat="44.30168" lon="3.15891">
        <ele>855.79998779297</ele>
        <time>2023-05-06T07:12:04Z</time>
      </trkpt>
      <trkpt lat="44.30146" lon="3.15861">
        <ele>855.20001220703</ele>
        <time>2023-05-06T07:12:09Z</time>
      </trkpt>
      <trkpt lat="44.30119" lon="3.15823">
        <ele>854.40002441406</ele>
        <time>2023-05-06T07:12:14Z</time>
      </trkpt>
      <trkpt lat="44.30094" lon="3.15791">
        <ele>853.79998779297</ele>
        <time>2023-05-06T07:12:18Z</time>
      </trkpt>
      <trkpt lat="44.30082" lon="3.15773">
        <ele>853.40002441406</ele>
        <time>2023-05-06T07:12:20Z</time>
      </trkpt>
      <trkpt lat="44.30051" lon="3.15723">
        <ele>852.59997558594</ele>
        <time>2023-05-06T07:12:26Z</time>
      </trkpt>
      <trkpt lat="44.30025" lon="3.15679">
        <ele>852</ele>
        <time>2023-05-06T07:12:32Z</time>
      </trkpt>
      <trkpt lat="44.3" lon="3.15652">
        <ele>851.59997558594</ele>
        <time>2023-05-06T07:12:37Z</time>
      </trkpt>
      <trkpt lat="44.29969" lon="3.15628">
        <ele>851.40002441406</ele>
        <time>2023-05-06T07:12:43Z</time>
      </trkpt>
      <trkpt lat="44.29927" lon="3.15604">
        <ele>850.79998779297</ele>
        <time>2023-05-06T07:12:50Z</time>
      </trkpt>
      <trkpt lat="44.29915" lon="3.15597">
        <ele>850.59997558594</ele>
        <time>2023-05-06T07:12:52Z</time>
      </trkpt>
      <trkpt lat="44.29904" lon="3.15585">
        <ele>850.59997558594</ele>
        <time>2023-05-06T07:12:54Z</time>
      </trkpt>
      <trkpt lat="44.299" lon="3.15578">
        <ele>850.40002441406</ele>
        <time>2023-05-06T07:12:55Z</time>
      </trkpt>
      <trkpt lat="44.29893" lon="3.15564">
        <ele>850.40002441406</ele>
        <time>2023-05-06T07:12:57Z</time>
      </trkpt>
      <trkpt lat="44.2989" lon="3.15557">
        <ele>850.40002441406</ele>
        <time>2023-05-06T07:12:58Z</time>
      </trkpt>
      <trkpt lat="44.2988" lon="3.15531">
        <ele>850.59997558594</ele>
        <time>2023-05-06T07:13:02Z</time>
      </trkpt>
      <trkpt lat="44.29874" lon="3.15518">
        <ele>850.59997558594</ele>
        <time>2023-05-06T07:13:04Z</time>
      </trkpt>
      <trkpt lat="44.29871" lon="3.15513">
        <ele>850.59997558594</ele>
        <time>2023-05-06T07:13:05Z</time>
      </trkpt>
      <trkpt lat="44.29855" lon="3.15493">
        <ele>850.59997558594</ele>
        <time>2023-05-06T07:13:09Z</time>
      </trkpt>
      <trkpt lat="44.29825" lon="3.15451">
        <ele>850.40002441406</ele>
        <time>2023-05-06T07:13:17Z</time>
      </trkpt>
      <trkpt lat="44.29798" lon="3.15414">
        <ele>850.40002441406</ele>
        <time>2023-05-06T07:13:24Z</time>
      </trkpt>
      <trkpt lat="44.29794" lon="3.15399">
        <ele>850.59997558594</ele>
        <time>2023-05-06T07:13:27Z</time>
      </trkpt>
      <trkpt lat="44.29799" lon="3.15377">
        <ele>851</ele>
        <time>2023-05-06T07:13:32Z</time>
      </trkpt>
      <trkpt lat="44.29808" lon="3.15345">
        <ele>851.20001220703</ele>
        <time>2023-05-06T07:13:38Z</time>
      </trkpt>
      <trkpt lat="44.29814" lon="3.15334">
        <ele>851.40002441406</ele>
        <time>2023-05-06T07:13:40Z</time>
      </trkpt>
      <trkpt lat="44.29824" lon="3.15321">
        <ele>851.40002441406</ele>
        <time>2023-05-06T07:13:43Z</time>
      </trkpt>
      <trkpt lat="44.29835" lon="3.1531">
        <ele>851.59997558594</ele>
        <time>2023-05-06T07:13:46Z</time>
      </trkpt>
      <trkpt lat="44.29843" lon="3.15304">
        <ele>851.59997558594</ele>
        <time>2023-05-06T07:13:48Z</time>
      </trkpt>
      <trkpt lat="44.29867" lon="3.15282">
        <ele>852.20001220703</ele>
        <time>2023-05-06T07:13:55Z</time>
      </trkpt>
      <trkpt lat="44.29884" lon="3.15268">
        <ele>853</ele>
        <time>2023-05-06T07:14:01Z</time>
      </trkpt>
      <trkpt lat="44.29908" lon="3.15241">
        <ele>854</ele>
        <time>2023-05-06T07:14:10Z</time>
      </trkpt>
      <trkpt lat="44.29936" lon="3.15209">
        <ele>854.59997558594</ele>
        <time>2023-05-06T07:14:19Z</time>
      </trkpt>
      <trkpt lat="44.29959" lon="3.15181">
        <ele>854.79998779297</ele>
        <time>2023-05-06T07:14:26Z</time>
      </trkpt>
      <trkpt lat="44.29977" lon="3.15157">
        <ele>855</ele>
        <time>2023-05-06T07:14:32Z</time>
      </trkpt>
      <trkpt lat="44.29979" lon="3.15139">
        <ele>855.40002441406</ele>
        <time>2023-05-06T07:14:36Z</time>
      </trkpt>
      <trkpt lat="44.29974" lon="3.1512">
        <ele>856</ele>
        <time>2023-05-06T07:14:41Z</time>
      </trkpt>
      <trkpt lat="44.29965" lon="3.15098">
        <ele>856.79998779297</ele>
        <time>2023-05-06T07:14:48Z</time>
      </trkpt>
      <trkpt lat="44.29958" lon="3.15072">
        <ele>857.79998779297</ele>
        <time>2023-05-06T07:14:56Z</time>
      </trkpt>
      <trkpt lat="44.29955" lon="3.15042">
        <ele>858.79998779297</ele>
        <time>2023-05-06T07:15:04Z</time>
      </trkpt>
      <trkpt lat="44.29954" lon="3.15018">
        <ele>859</ele>
        <time>2023-05-06T07:15:09Z</time>
      </trkpt>
      <trkpt lat="44.29947" lon="3.14986">
        <ele>859.59997558594</ele>
        <time>2023-05-06T07:15:16Z</time>
      </trkpt>
      <trkpt lat="44.29935" lon="3.14944">
        <ele>860.20001220703</ele>
        <time>2023-05-06T07:15:25Z</time>
      </trkpt>
      <trkpt lat="44.29931" lon="3.14919">
        <ele>860.40002441406</ele>
        <time>2023-05-06T07:15:31Z</time>
      </trkpt>
      <trkpt lat="44.29932" lon="3.1489">
        <ele>860.79998779297</ele>
        <time>2023-05-06T07:15:37Z</time>
      </trkpt>
      <trkpt lat="44.29934" lon="3.1487">
        <ele>861.20001220703</ele>
        <time>2023-05-06T07:15:42Z</time>
      </trkpt>
      <trkpt lat="44.29931" lon="3.14869">
        <ele>861.20001220703</ele>
        <time>2023-05-06T07:15:43Z</time>
      </trkpt>
      <trkpt lat="44.29916" lon="3.14875">
        <ele>862</ele>
        <time>2023-05-06T07:15:48Z</time>
      </trkpt>
      <trkpt lat="44.29893" lon="3.14889">
        <ele>862.79998779297</ele>
        <time>2023-05-06T07:15:56Z</time>
      </trkpt>
      <trkpt lat="44.29862" lon="3.14907">
        <ele>864.20001220703</ele>
        <time>2023-05-06T07:16:07Z</time>
      </trkpt>
      <trkpt lat="44.29841" lon="3.14918">
        <ele>865.40002441406</ele>
        <time>2023-05-06T07:16:15Z</time>
      </trkpt>
      <trkpt lat="44.29822" lon="3.14929">
        <ele>866.40002441406</ele>
        <time>2023-05-06T07:16:22Z</time>
      </trkpt>
      <trkpt lat="44.29809" lon="3.14936">
        <ele>867.20001220703</ele>
        <time>2023-05-06T07:16:27Z</time>
      </trkpt>
      <trkpt lat="44.29787" lon="3.1495">
        <ele>868.40002441406</ele>
        <time>2023-05-06T07:16:36Z</time>
      </trkpt>
      <trkpt lat="44.29776" lon="3.14962">
        <ele>869.40002441406</ele>
        <time>2023-05-06T07:16:41Z</time>
      </trkpt>
      <trkpt lat="44.29777" lon="3.14979">
        <ele>869.79998779297</ele>
        <time>2023-05-06T07:16:45Z</time>
      </trkpt>
      <trkpt lat="44.29783" lon="3.14993">
        <ele>870.40002441406</ele>
        <time>2023-05-06T07:16:49Z</time>
      </trkpt>
      <trkpt lat="44.29789" lon="3.15007">
        <ele>870.79998779297</ele>
        <time>2023-05-06T07:16:53Z</time>
      </trkpt>
      <trkpt lat="44.29787" lon="3.15011">
        <ele>870.79998779297</ele>
        <time>2023-05-06T07:16:54Z</time>
      </trkpt>
      <trkpt lat="44.29777" lon="3.15015">
        <ele>871</ele>
        <time>2023-05-06T07:16:57Z</time>
      </trkpt>
      <trkpt lat="44.29763" lon="3.15022">
        <ele>871.20001220703</ele>
        <time>2023-05-06T07:17:01Z</time>
      </trkpt>
      <trkpt lat="44.29762" lon="3.15027">
        <ele>871.40002441406</ele>
        <time>2023-05-06T07:17:02Z</time>
      </trkpt>
      <trkpt lat="44.29766" lon="3.15035">
        <ele>871.40002441406</ele>
        <time>2023-05-06T07:17:04Z</time>
      </trkpt>
      <trkpt lat="44.29769" lon="3.15038">
        <ele>871.59997558594</ele>
        <time>2023-05-06T07:17:05Z</time>
      </trkpt>
      <trkpt lat="44.29784" lon="3.15046">
        <ele>872</ele>
        <time>2023-05-06T07:17:09Z</time>
      </trkpt>
      <trkpt lat="44.29793" lon="3.15051">
        <ele>872.20001220703</ele>
        <time>2023-05-06T07:17:11Z</time>
      </trkpt>
      <trkpt lat="44.29808" lon="3.1506">
        <ele>872.20001220703</ele>
        <time>2023-05-06T07:17:14Z</time>
      </trkpt>
      <trkpt lat="44.29818" lon="3.15059">
        <ele>872.40002441406</ele>
        <time>2023-05-06T07:17:16Z</time>
      </trkpt>
      <trkpt lat="44.29827" lon="3.15058">
        <ele>872.40002441406</ele>
        <time>2023-05-06T07:17:18Z</time>
      </trkpt>
      <trkpt lat="44.29835" lon="3.15064">
        <ele>872.59997558594</ele>
        <time>2023-05-06T07:17:20Z</time>
      </trkpt>
      <trkpt lat="44.29838" lon="3.15071">
        <ele>872.40002441406</ele>
        <time>2023-05-06T07:17:21Z</time>
      </trkpt>
      <trkpt lat="44.29838" lon="3.15079">
        <ele>872.40002441406</ele>
        <time>2023-05-06T07:17:22Z</time>
      </trkpt>
      <trkpt lat="44.29836" lon="3.15097">
        <ele>872.40002441406</ele>
        <time>2023-05-06T07:17:24Z</time>
      </trkpt>
      <trkpt lat="44.29832" lon="3.15109">
        <ele>872.20001220703</ele>
        <time>2023-05-06T07:17:26Z</time>
      </trkpt>
      <trkpt lat="44.29829" lon="3.15114">
        <ele>872.20001220703</ele>
        <time>2023-05-06T07:17:27Z</time>
      </trkpt>
      <trkpt lat="44.29824" lon="3.15119">
        <ele>872</ele>
        <time>2023-05-06T07:17:28Z</time>
      </trkpt>
      <trkpt lat="44.29812" lon="3.1513">
        <ele>871.79998779297</ele>
        <time>2023-05-06T07:17:30Z</time>
      </trkpt>
      <trkpt lat="44.298" lon="3.15146">
        <ele>871</ele>
        <time>2023-05-06T07:17:33Z</time>
      </trkpt>
      <trkpt lat="44.29798" lon="3.15156">
        <ele>870.40002441406</ele>
        <time>2023-05-06T07:17:35Z</time>
      </trkpt>
      <trkpt lat="44.298" lon="3.1516">
        <ele>870.20001220703</ele>
        <time>2023-05-06T07:17:36Z</time>
      </trkpt>
      <trkpt lat="44.29803" lon="3.15163">
        <ele>869.79998779297</ele>
        <time>2023-05-06T07:17:37Z</time>
      </trkpt>
      <trkpt lat="44.29811" lon="3.1517">
        <ele>869.20001220703</ele>
        <time>2023-05-06T07:17:39Z</time>
      </trkpt>
      <trkpt lat="44.2982" lon="3.15177">
        <ele>868.79998779297</ele>
        <time>2023-05-06T07:17:41Z</time>
      </trkpt>
      <trkpt lat="44.29833" lon="3.15194">
        <ele>868</ele>
        <time>2023-05-06T07:17:44Z</time>
      </trkpt>
      <trkpt lat="44.29856" lon="3.15224">
        <ele>867.40002441406</ele>
        <time>2023-05-06T07:17:48Z</time>
      </trkpt>
      <trkpt lat="44.2986" lon="3.15231">
        <ele>867.40002441406</ele>
        <time>2023-05-06T07:17:49Z</time>
      </trkpt>
      <trkpt lat="44.29865" lon="3.15242">
        <ele>867.40002441406</ele>
        <time>2023-05-06T07:17:51Z</time>
      </trkpt>
      <trkpt lat="44.29865" lon="3.15256">
        <ele>867.20001220703</ele>
        <time>2023-05-06T07:17:54Z</time>
      </trkpt>
      <trkpt lat="44.2986" lon="3.15265">
        <ele>867.20001220703</ele>
        <time>2023-05-06T07:17:56Z</time>
      </trkpt>
      <trkpt lat="44.29853" lon="3.15271">
        <ele>867</ele>
        <time>2023-05-06T07:17:58Z</time>
      </trkpt>
      <trkpt lat="44.29839" lon="3.15274">
        <ele>866.79998779297</ele>
        <time>2023-05-06T07:18:01Z</time>
      </trkpt>
      <trkpt lat="44.29835" lon="3.15274">
        <ele>866.59997558594</ele>
        <time>2023-05-06T07:18:02Z</time>
      </trkpt>
      <trkpt lat="44.29822" lon="3.15282">
        <ele>866</ele>
        <time>2023-05-06T07:18:06Z</time>
      </trkpt>
      <trkpt lat="44.2982" lon="3.15284">
        <ele>865.79998779297</ele>
        <time>2023-05-06T07:18:07Z</time>
      </trkpt>
      <trkpt lat="44.29815" lon="3.15284">
        <ele>865.40002441406</ele>
        <time>2023-05-06T07:18:09Z</time>
      </trkpt>
      <trkpt lat="44.29813" lon="3.1528">
        <ele>865.20001220703</ele>
        <time>2023-05-06T07:18:10Z</time>
      </trkpt>
      <trkpt lat="44.29812" lon="3.1526">
        <ele>864.20001220703</ele>
        <time>2023-05-06T07:18:14Z</time>
      </trkpt>
      <trkpt lat="44.29806" lon="3.15249">
        <ele>863.59997558594</ele>
        <time>2023-05-06T07:18:17Z</time>
      </trkpt>
      <trkpt lat="44.29794" lon="3.15248">
        <ele>862.79998779297</ele>
        <time>2023-05-06T07:18:20Z</time>
      </trkpt>
      <trkpt lat="44.29785" lon="3.15248">
        <ele>862.40002441406</ele>
        <time>2023-05-06T07:18:22Z</time>
      </trkpt>
      <trkpt lat="44.29776" lon="3.15246">
        <ele>862.20001220703</ele>
        <time>2023-05-06T07:18:24Z</time>
      </trkpt>
      <trkpt lat="44.29771" lon="3.15244">
        <ele>862</ele>
        <time>2023-05-06T07:18:25Z</time>
      </trkpt>
      <trkpt lat="44.29757" lon="3.15239">
        <ele>861.40002441406</ele>
        <time>2023-05-06T07:18:28Z</time>
      </trkpt>
      <trkpt lat="44.29748" lon="3.1524">
        <ele>861</ele>
        <time>2023-05-06T07:18:30Z</time>
      </trkpt>
      <trkpt lat="44.29741" lon="3.15251">
        <ele>860.59997558594</ele>
        <time>2023-05-06T07:18:33Z</time>
      </trkpt>
      <trkpt lat="44.29743" lon="3.15263">
        <ele>860.40002441406</ele>
        <time>2023-05-06T07:18:36Z</time>
      </trkpt>
      <trkpt lat="44.29756" lon="3.15272">
        <ele>860.20001220703</ele>
        <time>2023-05-06T07:18:40Z</time>
      </trkpt>
      <trkpt lat="44.29774" lon="3.15285">
        <ele>860</ele>
        <time>2023-05-06T07:18:47Z</time>
      </trkpt>
      <trkpt lat="44.2979" lon="3.15301">
        <ele>859.79998779297</ele>
        <time>2023-05-06T07:18:54Z</time>
      </trkpt>
      <trkpt lat="44.29789" lon="3.15311">
        <ele>859.59997558594</ele>
        <time>2023-05-06T07:18:57Z</time>
      </trkpt>
      <trkpt lat="44.29787" lon="3.15313">
        <ele>859.40002441406</ele>
        <time>2023-05-06T07:18:58Z</time>
      </trkpt>
      <trkpt lat="44.29785" lon="3.15315">
        <ele>859.40002441406</ele>
        <time>2023-05-06T07:18:59Z</time>
      </trkpt>
      <trkpt lat="44.29777" lon="3.15318">
        <ele>859.20001220703</ele>
        <time>2023-05-06T07:19:02Z</time>
      </trkpt>
      <trkpt lat="44.29758" lon="3.15325">
        <ele>859</ele>
        <time>2023-05-06T07:19:09Z</time>
      </trkpt>
      <trkpt lat="44.29745" lon="3.15335">
        <ele>858.79998779297</ele>
        <time>2023-05-06T07:19:15Z</time>
      </trkpt>
      <trkpt lat="44.29731" lon="3.1534">
        <ele>858.79998779297</ele>
        <time>2023-05-06T07:19:20Z</time>
      </trkpt>
      <trkpt lat="44.29728" lon="3.15339">
        <ele>859</ele>
        <time>2023-05-06T07:19:21Z</time>
      </trkpt>
      <trkpt lat="44.29726" lon="3.15331">
        <ele>858.79998779297</ele>
        <time>2023-05-06T07:19:23Z</time>
      </trkpt>
      <trkpt lat="44.29732" lon="3.1531">
        <ele>858.40002441406</ele>
        <time>2023-05-06T07:19:27Z</time>
      </trkpt>
      <trkpt lat="44.29735" lon="3.15298">
        <ele>858</ele>
        <time>2023-05-06T07:19:29Z</time>
      </trkpt>
      <trkpt lat="44.29733" lon="3.15287">
        <ele>857.59997558594</ele>
        <time>2023-05-06T07:19:31Z</time>
      </trkpt>
      <trkpt lat="44.29725" lon="3.15285">
        <ele>857.40002441406</ele>
        <time>2023-05-06T07:19:33Z</time>
      </trkpt>
      <trkpt lat="44.29716" lon="3.15295">
        <ele>857.40002441406</ele>
        <time>2023-05-06T07:19:36Z</time>
      </trkpt>
      <trkpt lat="44.29703" lon="3.15304">
        <ele>857.40002441406</ele>
        <time>2023-05-06T07:19:41Z</time>
      </trkpt>
      <trkpt lat="44.29694" lon="3.15304">
        <ele>857.40002441406</ele>
        <time>2023-05-06T07:19:44Z</time>
      </trkpt>
      <trkpt lat="44.29692" lon="3.15302">
        <ele>857.40002441406</ele>
        <time>2023-05-06T07:19:45Z</time>
      </trkpt>
      <trkpt lat="44.29684" lon="3.15284">
        <ele>857.20001220703</ele>
        <time>2023-05-06T07:19:51Z</time>
      </trkpt>
      <trkpt lat="44.29684" lon="3.15278">
        <ele>856.79998779297</ele>
        <time>2023-05-06T07:19:53Z</time>
      </trkpt>
      <trkpt lat="44.29682" lon="3.15271">
        <ele>856.59997558594</ele>
        <time>2023-05-06T07:19:55Z</time>
      </trkpt>
      <trkpt lat="44.29673" lon="3.15252">
        <ele>856</ele>
        <time>2023-05-06T07:20:00Z</time>
      </trkpt>
      <trkpt lat="44.29669" lon="3.15248">
        <ele>855.59997558594</ele>
        <time>2023-05-06T07:20:02Z</time>
      </trkpt>
      <trkpt lat="44.29666" lon="3.15247">
        <ele>855.40002441406</ele>
        <time>2023-05-06T07:20:04Z</time>
      </trkpt>
      <trkpt lat="44.29661" lon="3.15255">
        <ele>855.59997558594</ele>
        <time>2023-05-06T07:20:09Z</time>
      </trkpt>
      <trkpt lat="44.29662" lon="3.15269">
        <ele>856.40002441406</ele>
        <time>2023-05-06T07:20:15Z</time>
      </trkpt>
      <trkpt lat="44.29665" lon="3.15287">
        <ele>856.59997558594</ele>
        <time>2023-05-06T07:20:22Z</time>
      </trkpt>
      <trkpt lat="44.29661" lon="3.15299">
        <ele>857</ele>
        <time>2023-05-06T07:20:27Z</time>
      </trkpt>
      <trkpt lat="44.29651" lon="3.15312">
        <ele>857.40002441406</ele>
        <time>2023-05-06T07:20:34Z</time>
      </trkpt>
      <trkpt lat="44.29646" lon="3.15315">
        <ele>857.59997558594</ele>
        <time>2023-05-06T07:20:37Z</time>
      </trkpt>
      <trkpt lat="44.29643" lon="3.15313">
        <ele>857.59997558594</ele>
        <time>2023-05-06T07:20:39Z</time>
      </trkpt>
      <trkpt lat="44.29629" lon="3.15307">
        <ele>858</ele>
        <time>2023-05-06T07:20:46Z</time>
      </trkpt>
      <trkpt lat="44.2961" lon="3.153">
        <ele>858.59997558594</ele>
        <time>2023-05-06T07:20:54Z</time>
      </trkpt>
      <trkpt lat="44.29594" lon="3.15295">
        <ele>859.20001220703</ele>
        <time>2023-05-06T07:21:01Z</time>
      </trkpt>
      <trkpt lat="44.29579" lon="3.15288">
        <ele>859.79998779297</ele>
        <time>2023-05-06T07:21:08Z</time>
      </trkpt>
      <trkpt lat="44.29558" lon="3.15285">
        <ele>860.79998779297</ele>
        <time>2023-05-06T07:21:17Z</time>
      </trkpt>
      <trkpt lat="44.29555" lon="3.15289">
        <ele>861.20001220703</ele>
        <time>2023-05-06T07:21:19Z</time>
      </trkpt>
      <trkpt lat="44.29555" lon="3.15292">
        <ele>861.20001220703</ele>
        <time>2023-05-06T07:21:20Z</time>
      </trkpt>
      <trkpt lat="44.2956" lon="3.15309">
        <ele>861.79998779297</ele>
        <time>2023-05-06T07:21:25Z</time>
      </trkpt>
      <trkpt lat="44.29565" lon="3.15333">
        <ele>862.20001220703</ele>
        <time>2023-05-06T07:21:30Z</time>
      </trkpt>
      <trkpt lat="44.29568" lon="3.15348">
        <ele>862.20001220703</ele>
        <time>2023-05-06T07:21:32Z</time>
      </trkpt>
      <trkpt lat="44.29571" lon="3.15365">
        <ele>862.20001220703</ele>
        <time>2023-05-06T07:21:34Z</time>
      </trkpt>
      <trkpt lat="44.29577" lon="3.15418">
        <ele>862</ele>
        <time>2023-05-06T07:21:39Z</time>
      </trkpt>
      <trkpt lat="44.29589" lon="3.15496">
        <ele>861.59997558594</ele>
        <time>2023-05-06T07:21:46Z</time>
      </trkpt>
      <trkpt lat="44.29591" lon="3.15507">
        <ele>861.59997558594</ele>
        <time>2023-05-06T07:21:47Z</time>
      </trkpt>
      <trkpt lat="44.29603" lon="3.1558">
        <ele>861.59997558594</ele>
        <time>2023-05-06T07:21:54Z</time>
      </trkpt>
      <trkpt lat="44.29616" lon="3.15656">
        <ele>861.40002441406</ele>
        <time>2023-05-06T07:22:02Z</time>
      </trkpt>
      <trkpt lat="44.29622" lon="3.15705">
        <ele>861.20001220703</ele>
        <time>2023-05-06T07:22:08Z</time>
      </trkpt>
      <trkpt lat="44.29622" lon="3.15764">
        <ele>861.20001220703</ele>
        <time>2023-05-06T07:22:16Z</time>
      </trkpt>
      <trkpt lat="44.29622" lon="3.15772">
        <ele>861.20001220703</ele>
        <time>2023-05-06T07:22:17Z</time>
      </trkpt>
      <trkpt lat="44.29618" lon="3.15794">
        <ele>861.20001220703</ele>
        <time>2023-05-06T07:22:20Z</time>
      </trkpt>
      <trkpt lat="44.2961" lon="3.15808">
        <ele>861.20001220703</ele>
        <time>2023-05-06T07:22:22Z</time>
      </trkpt>
      <trkpt lat="44.29606" lon="3.15814">
        <ele>861.20001220703</ele>
        <time>2023-05-06T07:22:23Z</time>
      </trkpt>
      <trkpt lat="44.296" lon="3.15819">
        <ele>861.20001220703</ele>
        <time>2023-05-06T07:22:24Z</time>
      </trkpt>
      <trkpt lat="44.29574" lon="3.15844">
        <ele>861</ele>
        <time>2023-05-06T07:22:29Z</time>
      </trkpt>
      <trkpt lat="44.29551" lon="3.15873">
        <ele>860.79998779297</ele>
        <time>2023-05-06T07:22:35Z</time>
      </trkpt>
      <trkpt lat="44.29519" lon="3.159">
        <ele>860.59997558594</ele>
        <time>2023-05-06T07:22:43Z</time>
      </trkpt>
      <trkpt lat="44.29482" lon="3.15927">
        <ele>860.59997558594</ele>
        <time>2023-05-06T07:22:52Z</time>
      </trkpt>
      <trkpt lat="44.29466" lon="3.15931">
        <ele>860.79998779297</ele>
        <time>2023-05-06T07:22:56Z</time>
      </trkpt>
      <trkpt lat="44.29448" lon="3.15912">
        <ele>861</ele>
        <time>2023-05-06T07:23:01Z</time>
      </trkpt>
      <trkpt lat="44.2942" lon="3.15878">
        <ele>861</ele>
        <time>2023-05-06T07:23:08Z</time>
      </trkpt>
      <trkpt lat="44.29402" lon="3.15843">
        <ele>861</ele>
        <time>2023-05-06T07:23:13Z</time>
      </trkpt>
      <trkpt lat="44.29387" lon="3.15811">
        <ele>861</ele>
        <time>2023-05-06T07:23:17Z</time>
      </trkpt>
      <trkpt lat="44.29377" lon="3.15793">
        <ele>861</ele>
        <time>2023-05-06T07:23:19Z</time>
      </trkpt>
      <trkpt lat="44.29367" lon="3.15775">
        <ele>861.20001220703</ele>
        <time>2023-05-06T07:23:21Z</time>
      </trkpt>
      <trkpt lat="44.29358" lon="3.15765">
        <ele>861.40002441406</ele>
        <time>2023-05-06T07:23:23Z</time>
      </trkpt>
      <trkpt lat="44.29355" lon="3.15768">
        <ele>861.40002441406</ele>
        <time>2023-05-06T07:23:25Z</time>
      </trkpt>
      <trkpt lat="44.29356" lon="3.15776">
        <ele>861.59997558594</ele>
        <time>2023-05-06T07:23:27Z</time>
      </trkpt>
      <trkpt lat="44.29352" lon="3.15777">
        <ele>861.59997558594</ele>
        <time>2023-05-06T07:23:29Z</time>
      </trkpt>
      <trkpt lat="44.29342" lon="3.1577">
        <ele>861.59997558594</ele>
        <time>2023-05-06T07:23:33Z</time>
      </trkpt>
      <trkpt lat="44.29333" lon="3.15765">
        <ele>861.40002441406</ele>
        <time>2023-05-06T07:23:38Z</time>
      </trkpt>
      <trkpt lat="44.29318" lon="3.15755">
        <ele>861.40002441406</ele>
        <time>2023-05-06T07:23:43Z</time>
      </trkpt>
      <trkpt lat="44.29299" lon="3.15728">
        <ele>861.20001220703</ele>
        <time>2023-05-06T07:23:50Z</time>
      </trkpt>
      <trkpt lat="44.29286" lon="3.15703">
        <ele>861.59997558594</ele>
        <time>2023-05-06T07:23:56Z</time>
      </trkpt>
      <trkpt lat="44.2928" lon="3.15692">
        <ele>861.79998779297</ele>
        <time>2023-05-06T07:23:58Z</time>
      </trkpt>
      <trkpt lat="44.29275" lon="3.15687">
        <ele>861.79998779297</ele>
        <time>2023-05-06T07:24:00Z</time>
      </trkpt>
      <trkpt lat="44.2927" lon="3.15683">
        <ele>862.20001220703</ele>
        <time>2023-05-06T07:24:04Z</time>
      </trkpt>
      <trkpt lat="44.29268" lon="3.15684">
        <ele>862.20001220703</ele>
        <time>2023-05-06T07:24:06Z</time>
      </trkpt>
      <trkpt lat="44.29264" lon="3.15692">
        <ele>862.20001220703</ele>
        <time>2023-05-06T07:24:12Z</time>
      </trkpt>
      <trkpt lat="44.29264" lon="3.15692">
        <ele>862.40002441406</ele>
        <time>2023-05-06T07:24:17Z</time>
      </trkpt>
      <trkpt lat="44.29264" lon="3.15692">
        <ele>862.59997558594</ele>
        <time>2023-05-06T07:24:25Z</time>
      </trkpt>
      <trkpt lat="44.29264" lon="3.15692">
        <ele>862.79998779297</ele>
        <time>2023-05-06T07:24:36Z</time>
      </trkpt>
      <trkpt lat="44.29263" lon="3.15695">
        <ele>862.79998779297</ele>
        <time>2023-05-06T07:24:41Z</time>
      </trkpt>
      <trkpt lat="44.29262" lon="3.15697">
        <ele>862.59997558594</ele>
        <time>2023-05-06T07:24:42Z</time>
      </trkpt>
      <trkpt lat="44.29262" lon="3.15706">
        <ele>862.20001220703</ele>
        <time>2023-05-06T07:24:47Z</time>
      </trkpt>
      <trkpt lat="44.29263" lon="3.15714">
        <ele>862</ele>
        <time>2023-05-06T07:24:53Z</time>
      </trkpt>
      <trkpt lat="44.29263" lon="3.15714">
        <ele>861.79998779297</ele>
        <time>2023-05-06T07:24:59Z</time>
      </trkpt>
      <trkpt lat="44.29263" lon="3.15714">
        <ele>861.40002441406</ele>
        <time>2023-05-06T07:25:17Z</time>
      </trkpt>
      <trkpt lat="44.29263" lon="3.15717">
        <ele>861</ele>
        <time>2023-05-06T07:25:32Z</time>
      </trkpt>
      <trkpt lat="44.29265" lon="3.15733">
        <ele>861.20001220703</ele>
        <time>2023-05-06T07:25:38Z</time>
      </trkpt>
      <trkpt lat="44.29266" lon="3.15737">
        <ele>861</ele>
        <time>2023-05-06T07:25:42Z</time>
      </trkpt>
      <trkpt lat="44.29266" lon="3.15739">
        <ele>860.79998779297</ele>
        <time>2023-05-06T07:25:56Z</time>
      </trkpt>
      <trkpt lat="44.29266" lon="3.15755">
        <ele>860.79998779297</ele>
        <time>2023-05-06T07:26:01Z</time>
      </trkpt>
      <trkpt lat="44.29268" lon="3.15776">
        <ele>860.79998779297</ele>
        <time>2023-05-06T07:26:06Z</time>
      </trkpt>
      <trkpt lat="44.29269" lon="3.15801">
        <ele>860.79998779297</ele>
        <time>2023-05-06T07:26:14Z</time>
      </trkpt>
      <trkpt lat="44.2927" lon="3.15818">
        <ele>860.59997558594</ele>
        <time>2023-05-06T07:26:19Z</time>
      </trkpt>
      <trkpt lat="44.29272" lon="3.15834">
        <ele>860.79998779297</ele>
        <time>2023-05-06T07:26:24Z</time>
      </trkpt>
      <trkpt lat="44.29272" lon="3.15854">
        <ele>860.59997558594</ele>
        <time>2023-05-06T07:26:30Z</time>
      </trkpt>
      <trkpt lat="44.29271" lon="3.15881">
        <ele>860.40002441406</ele>
        <time>2023-05-06T07:26:38Z</time>
      </trkpt>
      <trkpt lat="44.29269" lon="3.1591">
        <ele>860.79998779297</ele>
        <time>2023-05-06T07:26:46Z</time>
      </trkpt>
      <trkpt lat="44.29265" lon="3.15936">
        <ele>861</ele>
        <time>2023-05-06T07:26:53Z</time>
      </trkpt>
      <trkpt lat="44.2926" lon="3.15956">
        <ele>861</ele>
        <time>2023-05-06T07:26:59Z</time>
      </trkpt>
      <trkpt lat="44.29254" lon="3.15981">
        <ele>861.40002441406</ele>
        <time>2023-05-06T07:27:07Z</time>
      </trkpt>
      <trkpt lat="44.29251" lon="3.15998">
        <ele>861.59997558594</ele>
        <time>2023-05-06T07:27:14Z</time>
      </trkpt>
      <trkpt lat="44.29249" lon="3.16012">
        <ele>861.79998779297</ele>
        <time>2023-05-06T07:27:21Z</time>
      </trkpt>
      <trkpt lat="44.29247" lon="3.16023">
        <ele>861.79998779297</ele>
        <time>2023-05-06T07:27:25Z</time>
      </trkpt>
      <trkpt lat="44.29246" lon="3.16024">
        <ele>861.79998779297</ele>
        <time>2023-05-06T07:27:26Z</time>
      </trkpt>
      <trkpt lat="44.29235" lon="3.1603">
        <ele>862</ele>
        <time>2023-05-06T07:27:32Z</time>
      </trkpt>
      <trkpt lat="44.29222" lon="3.16036">
        <ele>862</ele>
        <time>2023-05-06T07:27:37Z</time>
      </trkpt>
      <trkpt lat="44.292" lon="3.16051">
        <ele>862.20001220703</ele>
        <time>2023-05-06T07:27:45Z</time>
      </trkpt>
      <trkpt lat="44.29179" lon="3.16063">
        <ele>862.20001220703</ele>
        <time>2023-05-06T07:27:51Z</time>
      </trkpt>
      <trkpt lat="44.29151" lon="3.16076">
        <ele>862</ele>
        <time>2023-05-06T07:27:58Z</time>
      </trkpt>
      <trkpt lat="44.29132" lon="3.16082">
        <ele>862</ele>
        <time>2023-05-06T07:28:03Z</time>
      </trkpt>
      <trkpt lat="44.29101" lon="3.16092">
        <ele>861.59997558594</ele>
        <time>2023-05-06T07:28:11Z</time>
      </trkpt>
      <trkpt lat="44.29073" lon="3.161">
        <ele>861.40002441406</ele>
        <time>2023-05-06T07:28:18Z</time>
      </trkpt>
      <trkpt lat="44.29059" lon="3.16104">
        <ele>861.40002441406</ele>
        <time>2023-05-06T07:28:22Z</time>
      </trkpt>
      <trkpt lat="44.29058" lon="3.16106">
        <ele>861.40002441406</ele>
        <time>2023-05-06T07:28:23Z</time>
      </trkpt>
      <trkpt lat="44.29057" lon="3.16111">
        <ele>861.59997558594</ele>
        <time>2023-05-06T07:28:24Z</time>
      </trkpt>
      <trkpt lat="44.29061" lon="3.1612">
        <ele>861.79998779297</ele>
        <time>2023-05-06T07:28:26Z</time>
      </trkpt>
      <trkpt lat="44.29083" lon="3.16154">
        <ele>862</ele>
        <time>2023-05-06T07:28:33Z</time>
      </trkpt>
      <trkpt lat="44.29105" lon="3.1619">
        <ele>862</ele>
        <time>2023-05-06T07:28:39Z</time>
      </trkpt>
      <trkpt lat="44.29108" lon="3.16196">
        <ele>862</ele>
        <time>2023-05-06T07:28:40Z</time>
      </trkpt>
      <trkpt lat="44.29122" lon="3.16229">
        <ele>862.20001220703</ele>
        <time>2023-05-06T07:28:45Z</time>
      </trkpt>
      <trkpt lat="44.29125" lon="3.16236">
        <ele>862.40002441406</ele>
        <time>2023-05-06T07:28:46Z</time>
      </trkpt>
      <trkpt lat="44.29134" lon="3.16264">
        <ele>862.59997558594</ele>
        <time>2023-05-06T07:28:50Z</time>
      </trkpt>
      <trkpt lat="44.29141" lon="3.16285">
        <ele>862.79998779297</ele>
        <time>2023-05-06T07:28:53Z</time>
      </trkpt>
      <trkpt lat="44.29145" lon="3.16298">
        <ele>863</ele>
        <time>2023-05-06T07:28:55Z</time>
      </trkpt>
      <trkpt lat="44.29147" lon="3.16304">
        <ele>863</ele>
        <time>2023-05-06T07:28:56Z</time>
      </trkpt>
      <trkpt lat="44.29159" lon="3.16339">
        <ele>863.59997558594</ele>
        <time>2023-05-06T07:29:02Z</time>
      </trkpt>
      <trkpt lat="44.29164" lon="3.16355">
        <ele>863.79998779297</ele>
        <time>2023-05-06T07:29:05Z</time>
      </trkpt>
      <trkpt lat="44.2917" lon="3.16371">
        <ele>864.20001220703</ele>
        <time>2023-05-06T07:29:08Z</time>
      </trkpt>
      <trkpt lat="44.29179" lon="3.16398">
        <ele>864.59997558594</ele>
        <time>2023-05-06T07:29:13Z</time>
      </trkpt>
      <trkpt lat="44.29184" lon="3.1641">
        <ele>864.79998779297</ele>
        <time>2023-05-06T07:29:15Z</time>
      </trkpt>
      <trkpt lat="44.29195" lon="3.16447">
        <ele>865.20001220703</ele>
        <time>2023-05-06T07:29:21Z</time>
      </trkpt>
      <trkpt lat="44.29197" lon="3.16453">
        <ele>865.40002441406</ele>
        <time>2023-05-06T07:29:22Z</time>
      </trkpt>
      <trkpt lat="44.29208" lon="3.16494">
        <ele>865.79998779297</ele>
        <time>2023-05-06T07:29:29Z</time>
      </trkpt>
      <trkpt lat="44.29212" lon="3.16514">
        <ele>866</ele>
        <time>2023-05-06T07:29:34Z</time>
      </trkpt>
      <trkpt lat="44.29211" lon="3.16518">
        <ele>866</ele>
        <time>2023-05-06T07:29:35Z</time>
      </trkpt>
      <trkpt lat="44.29206" lon="3.16521">
        <ele>866</ele>
        <time>2023-05-06T07:29:37Z</time>
      </trkpt>
      <trkpt lat="44.29202" lon="3.16522">
        <ele>866</ele>
        <time>2023-05-06T07:29:38Z</time>
      </trkpt>
      <trkpt lat="44.29195" lon="3.16529">
        <ele>866</ele>
        <time>2023-05-06T07:29:40Z</time>
      </trkpt>
      <trkpt lat="44.29188" lon="3.1654">
        <ele>866</ele>
        <time>2023-05-06T07:29:42Z</time>
      </trkpt>
      <trkpt lat="44.29184" lon="3.16551">
        <ele>866</ele>
        <time>2023-05-06T07:29:44Z</time>
      </trkpt>
      <trkpt lat="44.2918" lon="3.16572">
        <ele>866</ele>
        <time>2023-05-06T07:29:48Z</time>
      </trkpt>
      <trkpt lat="44.29175" lon="3.16597">
        <ele>866</ele>
        <time>2023-05-06T07:29:53Z</time>
      </trkpt>
      <trkpt lat="44.29169" lon="3.16607">
        <ele>865.79998779297</ele>
        <time>2023-05-06T07:29:56Z</time>
      </trkpt>
      <trkpt lat="44.29167" lon="3.16613">
        <ele>865.79998779297</ele>
        <time>2023-05-06T07:29:57Z</time>
      </trkpt>
      <trkpt lat="44.29165" lon="3.16618">
        <ele>865.59997558594</ele>
        <time>2023-05-06T07:29:58Z</time>
      </trkpt>
      <trkpt lat="44.29155" lon="3.1664">
        <ele>865.40002441406</ele>
        <time>2023-05-06T07:30:02Z</time>
      </trkpt>
      <trkpt lat="44.29144" lon="3.16661">
        <ele>864.59997558594</ele>
        <time>2023-05-06T07:30:07Z</time>
      </trkpt>
      <trkpt lat="44.29126" lon="3.16692">
        <ele>864</ele>
        <time>2023-05-06T07:30:14Z</time>
      </trkpt>
      <trkpt lat="44.29109" lon="3.16722">
        <ele>863.59997558594</ele>
        <time>2023-05-06T07:30:21Z</time>
      </trkpt>
      <trkpt lat="44.29092" lon="3.16752">
        <ele>863.59997558594</ele>
        <time>2023-05-06T07:30:28Z</time>
      </trkpt>
      <trkpt lat="44.29073" lon="3.16782">
        <ele>863.20001220703</ele>
        <time>2023-05-06T07:30:35Z</time>
      </trkpt>
      <trkpt lat="44.29054" lon="3.16811">
        <ele>862.79998779297</ele>
        <time>2023-05-06T07:30:42Z</time>
      </trkpt>
      <trkpt lat="44.29041" lon="3.16842">
        <ele>863</ele>
        <time>2023-05-06T07:30:48Z</time>
      </trkpt>
      <trkpt lat="44.2903" lon="3.16861">
        <ele>863</ele>
        <time>2023-05-06T07:30:52Z</time>
      </trkpt>
      <trkpt lat="44.29023" lon="3.1687">
        <ele>863.20001220703</ele>
        <time>2023-05-06T07:30:54Z</time>
      </trkpt>
      <trkpt lat="44.29019" lon="3.16874">
        <ele>863.20001220703</ele>
        <time>2023-05-06T07:30:55Z</time>
      </trkpt>
      <trkpt lat="44.29011" lon="3.16881">
        <ele>863.20001220703</ele>
        <time>2023-05-06T07:30:57Z</time>
      </trkpt>
      <trkpt lat="44.29005" lon="3.16891">
        <ele>863</ele>
        <time>2023-05-06T07:30:59Z</time>
      </trkpt>
      <trkpt lat="44.29005" lon="3.16905">
        <ele>863.20001220703</ele>
        <time>2023-05-06T07:31:01Z</time>
      </trkpt>
      <trkpt lat="44.29006" lon="3.16911">
        <ele>863.20001220703</ele>
        <time>2023-05-06T07:31:02Z</time>
      </trkpt>
      <trkpt lat="44.2901" lon="3.16918">
        <ele>863.20001220703</ele>
        <time>2023-05-06T07:31:03Z</time>
      </trkpt>
      <trkpt lat="44.29011" lon="3.16933">
        <ele>863.20001220703</ele>
        <time>2023-05-06T07:31:05Z</time>
      </trkpt>
      <trkpt lat="44.29007" lon="3.16949">
        <ele>863</ele>
        <time>2023-05-06T07:31:07Z</time>
      </trkpt>
      <trkpt lat="44.29003" lon="3.16955">
        <ele>863</ele>
        <time>2023-05-06T07:31:08Z</time>
      </trkpt>
      <trkpt lat="44.28997" lon="3.1696">
        <ele>863</ele>
        <time>2023-05-06T07:31:09Z</time>
      </trkpt>
      <trkpt lat="44.28974" lon="3.16975">
        <ele>862.79998779297</ele>
        <time>2023-05-06T07:31:13Z</time>
      </trkpt>
      <trkpt lat="44.28935" lon="3.16996">
        <ele>862.59997558594</ele>
        <time>2023-05-06T07:31:19Z</time>
      </trkpt>
      <trkpt lat="44.28904" lon="3.17014">
        <ele>862.40002441406</ele>
        <time>2023-05-06T07:31:24Z</time>
      </trkpt>
      <trkpt lat="44.289" lon="3.17017">
        <ele>862.40002441406</ele>
        <time>2023-05-06T07:31:25Z</time>
      </trkpt>
      <trkpt lat="44.28892" lon="3.17027">
        <ele>862.59997558594</ele>
        <time>2023-05-06T07:31:28Z</time>
      </trkpt>
      <trkpt lat="44.28886" lon="3.17051">
        <ele>863</ele>
        <time>2023-05-06T07:31:33Z</time>
      </trkpt>
      <trkpt lat="44.28886" lon="3.17065">
        <ele>863</ele>
        <time>2023-05-06T07:31:37Z</time>
      </trkpt>
      <trkpt lat="44.28886" lon="3.17079">
        <ele>862.79998779297</ele>
        <time>2023-05-06T07:31:40Z</time>
      </trkpt>
      <trkpt lat="44.28885" lon="3.17085">
        <ele>862.79998779297</ele>
        <time>2023-05-06T07:31:41Z</time>
      </trkpt>
      <trkpt lat="44.28885" lon="3.17091">
        <ele>862.59997558594</ele>
        <time>2023-05-06T07:31:42Z</time>
      </trkpt>
      <trkpt lat="44.28886" lon="3.17103">
        <ele>862.79998779297</ele>
        <time>2023-05-06T07:31:44Z</time>
      </trkpt>
      <trkpt lat="44.28888" lon="3.17109">
        <ele>862.59997558594</ele>
        <time>2023-05-06T07:31:45Z</time>
      </trkpt>
      <trkpt lat="44.28895" lon="3.17157">
        <ele>862.79998779297</ele>
        <time>2023-05-06T07:31:52Z</time>
      </trkpt>
      <trkpt lat="44.28899" lon="3.17182">
        <ele>863</ele>
        <time>2023-05-06T07:31:56Z</time>
      </trkpt>
      <trkpt lat="44.28905" lon="3.17201">
        <ele>863</ele>
        <time>2023-05-06T07:31:59Z</time>
      </trkpt>
      <trkpt lat="44.28917" lon="3.17238">
        <ele>863.20001220703</ele>
        <time>2023-05-06T07:32:05Z</time>
      </trkpt>
      <trkpt lat="44.2892" lon="3.17244">
        <ele>863.20001220703</ele>
        <time>2023-05-06T07:32:06Z</time>
      </trkpt>
      <trkpt lat="44.28935" lon="3.1727">
        <ele>863</ele>
        <time>2023-05-06T07:32:10Z</time>
      </trkpt>
      <trkpt lat="44.28962" lon="3.17311">
        <ele>862.40002441406</ele>
        <time>2023-05-06T07:32:15Z</time>
      </trkpt>
      <trkpt lat="44.28992" lon="3.17356">
        <ele>861.79998779297</ele>
        <time>2023-05-06T07:32:21Z</time>
      </trkpt>
      <trkpt lat="44.2902" lon="3.17393">
        <ele>861.59997558594</ele>
        <time>2023-05-06T07:32:27Z</time>
      </trkpt>
      <trkpt lat="44.2904" lon="3.17437">
        <ele>861.40002441406</ele>
        <time>2023-05-06T07:32:33Z</time>
      </trkpt>
      <trkpt lat="44.29066" lon="3.17488">
        <ele>861</ele>
        <time>2023-05-06T07:32:40Z</time>
      </trkpt>
      <trkpt lat="44.29084" lon="3.1753">
        <ele>860.40002441406</ele>
        <time>2023-05-06T07:32:45Z</time>
      </trkpt>
      <trkpt lat="44.29097" lon="3.17556">
        <ele>860</ele>
        <time>2023-05-06T07:32:48Z</time>
      </trkpt>
      <trkpt lat="44.29103" lon="3.17564">
        <ele>859.79998779297</ele>
        <time>2023-05-06T07:32:49Z</time>
      </trkpt>
      <trkpt lat="44.2912" lon="3.17588">
        <ele>859.40002441406</ele>
        <time>2023-05-06T07:32:52Z</time>
      </trkpt>
      <trkpt lat="44.29128" lon="3.17607">
        <ele>859.20001220703</ele>
        <time>2023-05-06T07:32:54Z</time>
      </trkpt>
      <trkpt lat="44.29139" lon="3.17641">
        <ele>859.20001220703</ele>
        <time>2023-05-06T07:32:58Z</time>
      </trkpt>
      <trkpt lat="44.29141" lon="3.17648">
        <ele>859.20001220703</ele>
        <time>2023-05-06T07:32:59Z</time>
      </trkpt>
      <trkpt lat="44.2915" lon="3.17678">
        <ele>859</ele>
        <time>2023-05-06T07:33:04Z</time>
      </trkpt>
      <trkpt lat="44.29164" lon="3.17714">
        <ele>859</ele>
        <time>2023-05-06T07:33:11Z</time>
      </trkpt>
      <trkpt lat="44.29171" lon="3.1774">
        <ele>859</ele>
        <time>2023-05-06T07:33:16Z</time>
      </trkpt>
      <trkpt lat="44.2918" lon="3.17765">
        <ele>858.59997558594</ele>
        <time>2023-05-06T07:33:21Z</time>
      </trkpt>
      <trkpt lat="44.29183" lon="3.17776">
        <ele>858.40002441406</ele>
        <time>2023-05-06T07:33:23Z</time>
      </trkpt>
      <trkpt lat="44.29187" lon="3.17788">
        <ele>858.40002441406</ele>
        <time>2023-05-06T07:33:25Z</time>
      </trkpt>
      <trkpt lat="44.29189" lon="3.17793">
        <ele>858.40002441406</ele>
        <time>2023-05-06T07:33:26Z</time>
      </trkpt>
      <trkpt lat="44.29196" lon="3.17821">
        <ele>858.59997558594</ele>
        <time>2023-05-06T07:33:31Z</time>
      </trkpt>
      <trkpt lat="44.29196" lon="3.17827">
        <ele>858.40002441406</ele>
        <time>2023-05-06T07:33:32Z</time>
      </trkpt>
      <trkpt lat="44.29203" lon="3.1785">
        <ele>858.20001220703</ele>
        <time>2023-05-06T07:33:36Z</time>
      </trkpt>
      <trkpt lat="44.29212" lon="3.17875">
        <ele>858.20001220703</ele>
        <time>2023-05-06T07:33:41Z</time>
      </trkpt>
      <trkpt lat="44.29213" lon="3.17881">
        <ele>858.20001220703</ele>
        <time>2023-05-06T07:33:42Z</time>
      </trkpt>
      <trkpt lat="44.29213" lon="3.17893">
        <ele>858</ele>
        <time>2023-05-06T07:33:44Z</time>
      </trkpt>
      <trkpt lat="44.29213" lon="3.179">
        <ele>858.20001220703</ele>
        <time>2023-05-06T07:33:45Z</time>
      </trkpt>
      <trkpt lat="44.29213" lon="3.1792">
        <ele>858</ele>
        <time>2023-05-06T07:33:48Z</time>
      </trkpt>
      <trkpt lat="44.29213" lon="3.17926">
        <ele>858</ele>
        <time>2023-05-06T07:33:49Z</time>
      </trkpt>
      <trkpt lat="44.29213" lon="3.17932">
        <ele>858</ele>
        <time>2023-05-06T07:33:50Z</time>
      </trkpt>
      <trkpt lat="44.29214" lon="3.17949">
        <ele>857.79998779297</ele>
        <time>2023-05-06T07:33:53Z</time>
      </trkpt>
      <trkpt lat="44.2922" lon="3.17972">
        <ele>857.59997558594</ele>
        <time>2023-05-06T07:33:58Z</time>
      </trkpt>
      <trkpt lat="44.29223" lon="3.17988">
        <ele>857.79998779297</ele>
        <time>2023-05-06T07:34:02Z</time>
      </trkpt>
      <trkpt lat="44.29221" lon="3.17994">
        <ele>857.79998779297</ele>
        <time>2023-05-06T07:34:04Z</time>
      </trkpt>
      <trkpt lat="44.29216" lon="3.17998">
        <ele>857.79998779297</ele>
        <time>2023-05-06T07:34:06Z</time>
      </trkpt>
      <trkpt lat="44.29208" lon="3.18002">
        <ele>857.59997558594</ele>
        <time>2023-05-06T07:34:08Z</time>
      </trkpt>
      <trkpt lat="44.29186" lon="3.18014">
        <ele>857.40002441406</ele>
        <time>2023-05-06T07:34:13Z</time>
      </trkpt>
      <trkpt lat="44.29181" lon="3.18017">
        <ele>857.40002441406</ele>
        <time>2023-05-06T07:34:14Z</time>
      </trkpt>
      <trkpt lat="44.29156" lon="3.18038">
        <ele>857.20001220703</ele>
        <time>2023-05-06T07:34:19Z</time>
      </trkpt>
      <trkpt lat="44.29121" lon="3.18063">
        <ele>856.40002441406</ele>
        <time>2023-05-06T07:34:25Z</time>
      </trkpt>
      <trkpt lat="44.29079" lon="3.18094">
        <ele>856</ele>
        <time>2023-05-06T07:34:31Z</time>
      </trkpt>
      <trkpt lat="44.29036" lon="3.18138">
        <ele>855.40002441406</ele>
        <time>2023-05-06T07:34:37Z</time>
      </trkpt>
      <trkpt lat="44.28997" lon="3.18181">
        <ele>854.79998779297</ele>
        <time>2023-05-06T07:34:42Z</time>
      </trkpt>
      <trkpt lat="44.2898" lon="3.18193">
        <ele>854.59997558594</ele>
        <time>2023-05-06T07:34:44Z</time>
      </trkpt>
      <trkpt lat="44.28963" lon="3.18202">
        <ele>854.59997558594</ele>
        <time>2023-05-06T07:34:46Z</time>
      </trkpt>
      <trkpt lat="44.28938" lon="3.18217">
        <ele>854.40002441406</ele>
        <time>2023-05-06T07:34:49Z</time>
      </trkpt>
      <trkpt lat="44.2893" lon="3.18219">
        <ele>854.40002441406</ele>
        <time>2023-05-06T07:34:50Z</time>
      </trkpt>
      <trkpt lat="44.28898" lon="3.18229">
        <ele>854.20001220703</ele>
        <time>2023-05-06T07:34:55Z</time>
      </trkpt>
      <trkpt lat="44.28882" lon="3.18236">
        <ele>854.59997558594</ele>
        <time>2023-05-06T07:34:58Z</time>
      </trkpt>
      <trkpt lat="44.28872" lon="3.1824">
        <ele>854.79998779297</ele>
        <time>2023-05-06T07:35:00Z</time>
      </trkpt>
      <trkpt lat="44.2885" lon="3.18253">
        <ele>854.59997558594</ele>
        <time>2023-05-06T07:35:06Z</time>
      </trkpt>
      <trkpt lat="44.28826" lon="3.18268">
        <ele>853.79998779297</ele>
        <time>2023-05-06T07:35:13Z</time>
      </trkpt>
      <trkpt lat="44.28802" lon="3.18282">
        <ele>853.20001220703</ele>
        <time>2023-05-06T07:35:20Z</time>
      </trkpt>
      <trkpt lat="44.2878" lon="3.18301">
        <ele>852.59997558594</ele>
        <time>2023-05-06T07:35:27Z</time>
      </trkpt>
      <trkpt lat="44.28759" lon="3.18326">
        <ele>851.79998779297</ele>
        <time>2023-05-06T07:35:34Z</time>
      </trkpt>
      <trkpt lat="44.28739" lon="3.18346">
        <ele>850.79998779297</ele>
        <time>2023-05-06T07:35:41Z</time>
      </trkpt>
      <trkpt lat="44.28721" lon="3.18369">
        <ele>850.20001220703</ele>
        <time>2023-05-06T07:35:48Z</time>
      </trkpt>
      <trkpt lat="44.28698" lon="3.184">
        <ele>851.40002441406</ele>
        <time>2023-05-06T07:35:55Z</time>
      </trkpt>
      <trkpt lat="44.28681" lon="3.18419">
        <ele>852</ele>
        <time>2023-05-06T07:36:00Z</time>
      </trkpt>
      <trkpt lat="44.28678" lon="3.18423">
        <ele>852</ele>
        <time>2023-05-06T07:36:01Z</time>
      </trkpt>
      <trkpt lat="44.28651" lon="3.18455">
        <ele>853.20001220703</ele>
        <time>2023-05-06T07:36:09Z</time>
      </trkpt>
      <trkpt lat="44.28633" lon="3.18476">
        <ele>854.20001220703</ele>
        <time>2023-05-06T07:36:15Z</time>
      </trkpt>
      <trkpt lat="44.2861" lon="3.18506">
        <ele>855</ele>
        <time>2023-05-06T07:36:23Z</time>
      </trkpt>
      <trkpt lat="44.28587" lon="3.18536">
        <ele>856.59997558594</ele>
        <time>2023-05-06T07:36:31Z</time>
      </trkpt>
      <trkpt lat="44.28566" lon="3.18564">
        <ele>857.59997558594</ele>
        <time>2023-05-06T07:36:39Z</time>
      </trkpt>
      <trkpt lat="44.28552" lon="3.18582">
        <ele>858.40002441406</ele>
        <time>2023-05-06T07:36:45Z</time>
      </trkpt>
      <trkpt lat="44.2854" lon="3.18593">
        <ele>858.59997558594</ele>
        <time>2023-05-06T07:36:50Z</time>
      </trkpt>
      <trkpt lat="44.28522" lon="3.18614">
        <ele>859.59997558594</ele>
        <time>2023-05-06T07:36:57Z</time>
      </trkpt>
      <trkpt lat="44.28515" lon="3.18632">
        <ele>860.59997558594</ele>
        <time>2023-05-06T07:37:02Z</time>
      </trkpt>
      <trkpt lat="44.28513" lon="3.18635">
        <ele>860.79998779297</ele>
        <time>2023-05-06T07:37:03Z</time>
      </trkpt>
      <trkpt lat="44.28499" lon="3.18662">
        <ele>861.59997558594</ele>
        <time>2023-05-06T07:37:11Z</time>
      </trkpt>
      <trkpt lat="44.28488" lon="3.18687">
        <ele>862</ele>
        <time>2023-05-06T07:37:18Z</time>
      </trkpt>
      <trkpt lat="44.28487" lon="3.18723">
        <ele>863.20001220703</ele>
        <time>2023-05-06T07:37:25Z</time>
      </trkpt>
      <trkpt lat="44.28486" lon="3.18751">
        <ele>864</ele>
        <time>2023-05-06T07:37:30Z</time>
      </trkpt>
      <trkpt lat="44.28483" lon="3.18757">
        <ele>864.20001220703</ele>
        <time>2023-05-06T07:37:31Z</time>
      </trkpt>
      <trkpt lat="44.28479" lon="3.18764">
        <ele>864.20001220703</ele>
        <time>2023-05-06T07:37:32Z</time>
      </trkpt>
      <trkpt lat="44.28462" lon="3.18782">
        <ele>864.40002441406</ele>
        <time>2023-05-06T07:37:35Z</time>
      </trkpt>
      <trkpt lat="44.2845" lon="3.18793">
        <ele>864.59997558594</ele>
        <time>2023-05-06T07:37:37Z</time>
      </trkpt>
      <trkpt lat="44.28432" lon="3.18804">
        <ele>864.79998779297</ele>
        <time>2023-05-06T07:37:40Z</time>
      </trkpt>
      <trkpt lat="44.28382" lon="3.18822">
        <ele>865.20001220703</ele>
        <time>2023-05-06T07:37:47Z</time>
      </trkpt>
      <trkpt lat="44.28346" lon="3.18828">
        <ele>865</ele>
        <time>2023-05-06T07:37:51Z</time>
      </trkpt>
      <trkpt lat="44.28336" lon="3.18827">
        <ele>865</ele>
        <time>2023-05-06T07:37:52Z</time>
      </trkpt>
      <trkpt lat="44.28326" lon="3.18828">
        <ele>864.79998779297</ele>
        <time>2023-05-06T07:37:53Z</time>
      </trkpt>
      <trkpt lat="44.28305" lon="3.18835">
        <ele>864.79998779297</ele>
        <time>2023-05-06T07:37:55Z</time>
      </trkpt>
      <trkpt lat="44.28268" lon="3.18862">
        <ele>864.20001220703</ele>
        <time>2023-05-06T07:37:59Z</time>
      </trkpt>
      <trkpt lat="44.28255" lon="3.18877">
        <ele>864.20001220703</ele>
        <time>2023-05-06T07:38:01Z</time>
      </trkpt>
      <trkpt lat="44.2825" lon="3.18886">
        <ele>864</ele>
        <time>2023-05-06T07:38:02Z</time>
      </trkpt>
      <trkpt lat="44.28245" lon="3.18894">
        <ele>863.79998779297</ele>
        <time>2023-05-06T07:38:03Z</time>
      </trkpt>
      <trkpt lat="44.28231" lon="3.18903">
        <ele>863.59997558594</ele>
        <time>2023-05-06T07:38:05Z</time>
      </trkpt>
      <trkpt lat="44.28199" lon="3.18915">
        <ele>863</ele>
        <time>2023-05-06T07:38:09Z</time>
      </trkpt>
      <trkpt lat="44.28155" lon="3.1894">
        <ele>862</ele>
        <time>2023-05-06T07:38:14Z</time>
      </trkpt>
      <trkpt lat="44.2812" lon="3.18972">
        <ele>861</ele>
        <time>2023-05-06T07:38:18Z</time>
      </trkpt>
      <trkpt lat="44.28113" lon="3.18984">
        <ele>860.59997558594</ele>
        <time>2023-05-06T07:38:19Z</time>
      </trkpt>
      <trkpt lat="44.28106" lon="3.18997">
        <ele>860.40002441406</ele>
        <time>2023-05-06T07:38:20Z</time>
      </trkpt>
      <trkpt lat="44.28097" lon="3.19026">
        <ele>859.79998779297</ele>
        <time>2023-05-06T07:38:22Z</time>
      </trkpt>
      <trkpt lat="44.28087" lon="3.19091">
        <ele>858.40002441406</ele>
        <time>2023-05-06T07:38:26Z</time>
      </trkpt>
      <trkpt lat="44.28084" lon="3.1915">
        <ele>857</ele>
        <time>2023-05-06T07:38:30Z</time>
      </trkpt>
      <trkpt lat="44.28082" lon="3.19164">
        <ele>856.59997558594</ele>
        <time>2023-05-06T07:38:31Z</time>
      </trkpt>
      <trkpt lat="44.28073" lon="3.1919">
        <ele>855.79998779297</ele>
        <time>2023-05-06T07:38:33Z</time>
      </trkpt>
      <trkpt lat="44.28045" lon="3.19262">
        <ele>854.20001220703</ele>
        <time>2023-05-06T07:38:39Z</time>
      </trkpt>
      <trkpt lat="44.2802" lon="3.1933">
        <ele>852.79998779297</ele>
        <time>2023-05-06T07:38:45Z</time>
      </trkpt>
      <trkpt lat="44.28004" lon="3.19387">
        <ele>851.59997558594</ele>
        <time>2023-05-06T07:38:50Z</time>
      </trkpt>
      <trkpt lat="44.28003" lon="3.19398">
        <ele>851.40002441406</ele>
        <time>2023-05-06T07:38:51Z</time>
      </trkpt>
      <trkpt lat="44.28003" lon="3.1941">
        <ele>851.20001220703</ele>
        <time>2023-05-06T07:38:52Z</time>
      </trkpt>
      <trkpt lat="44.28004" lon="3.19444">
        <ele>850.59997558594</ele>
        <time>2023-05-06T07:38:55Z</time>
      </trkpt>
      <trkpt lat="44.28007" lon="3.19492">
        <ele>849.79998779297</ele>
        <time>2023-05-06T07:39:00Z</time>
      </trkpt>
      <trkpt lat="44.28011" lon="3.19526">
        <ele>849.40002441406</ele>
        <time>2023-05-06T07:39:05Z</time>
      </trkpt>
      <trkpt lat="44.28018" lon="3.19555">
        <ele>849</ele>
        <time>2023-05-06T07:39:11Z</time>
      </trkpt>
      <trkpt lat="44.28023" lon="3.19589">
        <ele>848.59997558594</ele>
        <time>2023-05-06T07:39:18Z</time>
      </trkpt>
      <trkpt lat="44.28027" lon="3.19624">
        <ele>848.40002441406</ele>
        <time>2023-05-06T07:39:25Z</time>
      </trkpt>
      <trkpt lat="44.2803" lon="3.19661">
        <ele>848.20001220703</ele>
        <time>2023-05-06T07:39:32Z</time>
      </trkpt>
      <trkpt lat="44.28031" lon="3.19684">
        <ele>848</ele>
        <time>2023-05-06T07:39:37Z</time>
      </trkpt>
      <trkpt lat="44.28036" lon="3.19715">
        <ele>848.20001220703</ele>
        <time>2023-05-06T07:39:44Z</time>
      </trkpt>
      <trkpt lat="44.28039" lon="3.19738">
        <ele>848.40002441406</ele>
        <time>2023-05-06T07:39:50Z</time>
      </trkpt>
      <trkpt lat="44.28043" lon="3.19764">
        <ele>848.59997558594</ele>
        <time>2023-05-06T07:39:57Z</time>
      </trkpt>
      <trkpt lat="44.28048" lon="3.19795">
        <ele>849.20001220703</ele>
        <time>2023-05-06T07:40:06Z</time>
      </trkpt>
      <trkpt lat="44.28051" lon="3.19815">
        <ele>849.79998779297</ele>
        <time>2023-05-06T07:40:12Z</time>
      </trkpt>
      <trkpt lat="44.28048" lon="3.19837">
        <ele>850.20001220703</ele>
        <time>2023-05-06T07:40:18Z</time>
      </trkpt>
      <trkpt lat="44.28041" lon="3.19864">
        <ele>850.79998779297</ele>
        <time>2023-05-06T07:40:25Z</time>
      </trkpt>
      <trkpt lat="44.28032" lon="3.19886">
        <ele>851</ele>
        <time>2023-05-06T07:40:32Z</time>
      </trkpt>
      <trkpt lat="44.28017" lon="3.19907">
        <ele>851.40002441406</ele>
        <time>2023-05-06T07:40:39Z</time>
      </trkpt>
      <trkpt lat="44.28008" lon="3.19929">
        <ele>851.79998779297</ele>
        <time>2023-05-06T07:40:45Z</time>
      </trkpt>
      <trkpt lat="44.28002" lon="3.19948">
        <ele>852.20001220703</ele>
        <time>2023-05-06T07:40:50Z</time>
      </trkpt>
      <trkpt lat="44.27992" lon="3.19976">
        <ele>852.40002441406</ele>
        <time>2023-05-06T07:40:58Z</time>
      </trkpt>
      <trkpt lat="44.27985" lon="3.2">
        <ele>852.40002441406</ele>
        <time>2023-05-06T07:41:04Z</time>
      </trkpt>
      <trkpt lat="44.2798" lon="3.20023">
        <ele>852.59997558594</ele>
        <time>2023-05-06T07:41:08Z</time>
      </trkpt>
      <trkpt lat="44.27978" lon="3.20029">
        <ele>852.59997558594</ele>
        <time>2023-05-06T07:41:09Z</time>
      </trkpt>
      <trkpt lat="44.27972" lon="3.20055">
        <ele>852.79998779297</ele>
        <time>2023-05-06T07:41:14Z</time>
      </trkpt>
      <trkpt lat="44.2796" lon="3.2009">
        <ele>853</ele>
        <time>2023-05-06T07:41:21Z</time>
      </trkpt>
      <trkpt lat="44.27941" lon="3.2011">
        <ele>853</ele>
        <time>2023-05-06T07:41:26Z</time>
      </trkpt>
      <trkpt lat="44.27933" lon="3.20119">
        <ele>852.59997558594</ele>
        <time>2023-05-06T07:41:28Z</time>
      </trkpt>
      <trkpt lat="44.2793" lon="3.20124">
        <ele>852.40002441406</ele>
        <time>2023-05-06T07:41:29Z</time>
      </trkpt>
      <trkpt lat="44.27922" lon="3.20141">
        <ele>852</ele>
        <time>2023-05-06T07:41:33Z</time>
      </trkpt>
      <trkpt lat="44.27912" lon="3.20164">
        <ele>852</ele>
        <time>2023-05-06T07:41:39Z</time>
      </trkpt>
      <trkpt lat="44.27899" lon="3.20199">
        <ele>851.79998779297</ele>
        <time>2023-05-06T07:41:48Z</time>
      </trkpt>
      <trkpt lat="44.27893" lon="3.20225">
        <ele>851.20001220703</ele>
        <time>2023-05-06T07:41:55Z</time>
      </trkpt>
      <trkpt lat="44.27887" lon="3.20264">
        <ele>851.59997558594</ele>
        <time>2023-05-06T07:42:04Z</time>
      </trkpt>
      <trkpt lat="44.27878" lon="3.20289">
        <ele>851.79998779297</ele>
        <time>2023-05-06T07:42:12Z</time>
      </trkpt>
      <trkpt lat="44.27872" lon="3.20304">
        <ele>852</ele>
        <time>2023-05-06T07:42:17Z</time>
      </trkpt>
      <trkpt lat="44.27859" lon="3.20327">
        <ele>853</ele>
        <time>2023-05-06T07:42:25Z</time>
      </trkpt>
      <trkpt lat="44.27842" lon="3.20347">
        <ele>853.79998779297</ele>
        <time>2023-05-06T07:42:33Z</time>
      </trkpt>
      <trkpt lat="44.27834" lon="3.20358">
        <ele>854.20001220703</ele>
        <time>2023-05-06T07:42:38Z</time>
      </trkpt>
      <trkpt lat="44.27827" lon="3.2037">
        <ele>854.79998779297</ele>
        <time>2023-05-06T07:42:43Z</time>
      </trkpt>
      <trkpt lat="44.27822" lon="3.20387">
        <ele>855.79998779297</ele>
        <time>2023-05-06T07:42:48Z</time>
      </trkpt>
      <trkpt lat="44.2782" lon="3.20413">
        <ele>857.20001220703</ele>
        <time>2023-05-06T07:42:56Z</time>
      </trkpt>
      <trkpt lat="44.27819" lon="3.20429">
        <ele>858.20001220703</ele>
        <time>2023-05-06T07:43:01Z</time>
      </trkpt>
      <trkpt lat="44.2782" lon="3.20455">
        <ele>860.40002441406</ele>
        <time>2023-05-06T07:43:10Z</time>
      </trkpt>
      <trkpt lat="44.27822" lon="3.20478">
        <ele>862.59997558594</ele>
        <time>2023-05-06T07:43:19Z</time>
      </trkpt>
      <trkpt lat="44.27822" lon="3.2048">
        <ele>862.79998779297</ele>
        <time>2023-05-06T07:43:20Z</time>
      </trkpt>
      <trkpt lat="44.27822" lon="3.20484">
        <ele>863.40002441406</ele>
        <time>2023-05-06T07:43:22Z</time>
      </trkpt>
      <trkpt lat="44.27822" lon="3.20491">
        <ele>864</ele>
        <time>2023-05-06T07:43:25Z</time>
      </trkpt>
      <trkpt lat="44.27823" lon="3.20498">
        <ele>864.79998779297</ele>
        <time>2023-05-06T07:43:28Z</time>
      </trkpt>
      <trkpt lat="44.27823" lon="3.20504">
        <ele>865.59997558594</ele>
        <time>2023-05-06T07:43:31Z</time>
      </trkpt>
      <trkpt lat="44.27823" lon="3.20521">
        <ele>867.20001220703</ele>
        <time>2023-05-06T07:43:38Z</time>
      </trkpt>
      <trkpt lat="44.27823" lon="3.20532">
        <ele>868.59997558594</ele>
        <time>2023-05-06T07:43:44Z</time>
      </trkpt>
      <trkpt lat="44.27823" lon="3.20551">
        <ele>870.79998779297</ele>
        <time>2023-05-06T07:43:53Z</time>
      </trkpt>
      <trkpt lat="44.27822" lon="3.20565">
        <ele>872.40002441406</ele>
        <time>2023-05-06T07:44:00Z</time>
      </trkpt>
      <trkpt lat="44.27822" lon="3.20583">
        <ele>874.40002441406</ele>
        <time>2023-05-06T07:44:09Z</time>
      </trkpt>
      <trkpt lat="44.27822" lon="3.20595">
        <ele>875.79998779297</ele>
        <time>2023-05-06T07:44:15Z</time>
      </trkpt>
      <trkpt lat="44.27822" lon="3.20598">
        <ele>876.20001220703</ele>
        <time>2023-05-06T07:44:17Z</time>
      </trkpt>
      <trkpt lat="44.27822" lon="3.20612">
        <ele>877.79998779297</ele>
        <time>2023-05-06T07:44:24Z</time>
      </trkpt>
      <trkpt lat="44.27822" lon="3.20614">
        <ele>878</ele>
        <time>2023-05-06T07:44:25Z</time>
      </trkpt>
      <trkpt lat="44.27823" lon="3.20624">
        <ele>879</ele>
        <time>2023-05-06T07:44:29Z</time>
      </trkpt>
      <trkpt lat="44.27827" lon="3.20645">
        <ele>881.40002441406</ele>
        <time>2023-05-06T07:44:39Z</time>
      </trkpt>
      <trkpt lat="44.27829" lon="3.2066">
        <ele>882.79998779297</ele>
        <time>2023-05-06T07:44:46Z</time>
      </trkpt>
      <trkpt lat="44.27831" lon="3.20672">
        <ele>884.20001220703</ele>
        <time>2023-05-06T07:44:52Z</time>
      </trkpt>
      <trkpt lat="44.27833" lon="3.20688">
        <ele>885.59997558594</ele>
        <time>2023-05-06T07:44:59Z</time>
      </trkpt>
      <trkpt lat="44.27833" lon="3.20692">
        <ele>886</ele>
        <time>2023-05-06T07:45:01Z</time>
      </trkpt>
      <trkpt lat="44.27833" lon="3.20699">
        <ele>886.59997558594</ele>
        <time>2023-05-06T07:45:04Z</time>
      </trkpt>
      <trkpt lat="44.27832" lon="3.20714">
        <ele>888.40002441406</ele>
        <time>2023-05-06T07:45:11Z</time>
      </trkpt>
      <trkpt lat="44.27832" lon="3.20731">
        <ele>890</ele>
        <time>2023-05-06T07:45:19Z</time>
      </trkpt>
      <trkpt lat="44.27831" lon="3.20746">
        <ele>891.40002441406</ele>
        <time>2023-05-06T07:45:26Z</time>
      </trkpt>
      <trkpt lat="44.27829" lon="3.20762">
        <ele>892.79998779297</ele>
        <time>2023-05-06T07:45:33Z</time>
      </trkpt>
      <trkpt lat="44.27827" lon="3.20777">
        <ele>894</ele>
        <time>2023-05-06T07:45:40Z</time>
      </trkpt>
      <trkpt lat="44.27825" lon="3.20795">
        <ele>895.20001220703</ele>
        <time>2023-05-06T07:45:48Z</time>
      </trkpt>
      <trkpt lat="44.27822" lon="3.20795">
        <ele>895.40002441406</ele>
        <time>2023-05-06T07:45:50Z</time>
      </trkpt>
      <trkpt lat="44.2782" lon="3.20793">
        <ele>895.79998779297</ele>
        <time>2023-05-06T07:45:52Z</time>
      </trkpt>
      <trkpt lat="44.27817" lon="3.20792">
        <ele>896</ele>
        <time>2023-05-06T07:45:54Z</time>
      </trkpt>
      <trkpt lat="44.27812" lon="3.20792">
        <ele>896.20001220703</ele>
        <time>2023-05-06T07:45:57Z</time>
      </trkpt>
      <trkpt lat="44.27805" lon="3.20797">
        <ele>896.79998779297</ele>
        <time>2023-05-06T07:46:02Z</time>
      </trkpt>
      <trkpt lat="44.27796" lon="3.20804">
        <ele>896.79998779297</ele>
        <time>2023-05-06T07:46:08Z</time>
      </trkpt>
      <trkpt lat="44.27792" lon="3.20806">
        <ele>897</ele>
        <time>2023-05-06T07:46:10Z</time>
      </trkpt>
      <trkpt lat="44.27789" lon="3.20809">
        <ele>897</ele>
        <time>2023-05-06T07:46:12Z</time>
      </trkpt>
      <trkpt lat="44.2778" lon="3.20821">
        <ele>897</ele>
        <time>2023-05-06T07:46:18Z</time>
      </trkpt>
      <trkpt lat="44.27769" lon="3.20825">
        <ele>897</ele>
        <time>2023-05-06T07:46:25Z</time>
      </trkpt>
      <trkpt lat="44.27754" lon="3.20827">
        <ele>897</ele>
        <time>2023-05-06T07:46:33Z</time>
      </trkpt>
      <trkpt lat="44.27743" lon="3.20833">
        <ele>897.40002441406</ele>
        <time>2023-05-06T07:46:39Z</time>
      </trkpt>
      <trkpt lat="44.27722" lon="3.20833">
        <ele>897.59997558594</ele>
        <time>2023-05-06T07:46:47Z</time>
      </trkpt>
      <trkpt lat="44.27703" lon="3.20835">
        <ele>897.59997558594</ele>
        <time>2023-05-06T07:46:55Z</time>
      </trkpt>
      <trkpt lat="44.277" lon="3.20836">
        <ele>897.40002441406</ele>
        <time>2023-05-06T07:46:56Z</time>
      </trkpt>
      <trkpt lat="44.27695" lon="3.20841">
        <ele>897.59997558594</ele>
        <time>2023-05-06T07:46:58Z</time>
      </trkpt>
      <trkpt lat="44.27684" lon="3.20844">
        <ele>897.79998779297</ele>
        <time>2023-05-06T07:47:03Z</time>
      </trkpt>
      <trkpt lat="44.27676" lon="3.20844">
        <ele>898.20001220703</ele>
        <time>2023-05-06T07:47:08Z</time>
      </trkpt>
      <trkpt lat="44.2766" lon="3.20848">
        <ele>900</ele>
        <time>2023-05-06T07:47:14Z</time>
      </trkpt>
      <trkpt lat="44.27648" lon="3.20854">
        <ele>900.79998779297</ele>
        <time>2023-05-06T07:47:20Z</time>
      </trkpt>
      <trkpt lat="44.27639" lon="3.20861">
        <ele>901.20001220703</ele>
        <time>2023-05-06T07:47:25Z</time>
      </trkpt>
      <trkpt lat="44.27627" lon="3.20868">
        <ele>901.59997558594</ele>
        <time>2023-05-06T07:47:31Z</time>
      </trkpt>
      <trkpt lat="44.27609" lon="3.2088">
        <ele>901.59997558594</ele>
        <time>2023-05-06T07:47:37Z</time>
      </trkpt>
      <trkpt lat="44.27589" lon="3.20887">
        <ele>901.79998779297</ele>
        <time>2023-05-06T07:47:43Z</time>
      </trkpt>
      <trkpt lat="44.27572" lon="3.20896">
        <ele>901.79998779297</ele>
        <time>2023-05-06T07:47:48Z</time>
      </trkpt>
      <trkpt lat="44.27559" lon="3.20902">
        <ele>901.59997558594</ele>
        <time>2023-05-06T07:47:51Z</time>
      </trkpt>
      <trkpt lat="44.27553" lon="3.20904">
        <ele>901.40002441406</ele>
        <time>2023-05-06T07:47:52Z</time>
      </trkpt>
      <trkpt lat="44.27532" lon="3.20916">
        <ele>900.59997558594</ele>
        <time>2023-05-06T07:47:56Z</time>
      </trkpt>
      <trkpt lat="44.2751" lon="3.20937">
        <ele>899.20001220703</ele>
        <time>2023-05-06T07:48:01Z</time>
      </trkpt>
      <trkpt lat="44.27484" lon="3.20953">
        <ele>898</ele>
        <time>2023-05-06T07:48:06Z</time>
      </trkpt>
      <trkpt lat="44.27465" lon="3.20961">
        <ele>897</ele>
        <time>2023-05-06T07:48:09Z</time>
      </trkpt>
      <trkpt lat="44.27445" lon="3.20965">
        <ele>895.79998779297</ele>
        <time>2023-05-06T07:48:12Z</time>
      </trkpt>
      <trkpt lat="44.27431" lon="3.20966">
        <ele>894.79998779297</ele>
        <time>2023-05-06T07:48:14Z</time>
      </trkpt>
      <trkpt lat="44.27424" lon="3.20963">
        <ele>894.40002441406</ele>
        <time>2023-05-06T07:48:15Z</time>
      </trkpt>
      <trkpt lat="44.27418" lon="3.20958">
        <ele>893.79998779297</ele>
        <time>2023-05-06T07:48:16Z</time>
      </trkpt>
      <trkpt lat="44.27407" lon="3.20944">
        <ele>893</ele>
        <time>2023-05-06T07:48:18Z</time>
      </trkpt>
      <trkpt lat="44.27402" lon="3.20938">
        <ele>892.79998779297</ele>
        <time>2023-05-06T07:48:19Z</time>
      </trkpt>
      <trkpt lat="44.27381" lon="3.20931">
        <ele>893.40002441406</ele>
        <time>2023-05-06T07:48:22Z</time>
      </trkpt>
      <trkpt lat="44.27356" lon="3.20909">
        <ele>894.20001220703</ele>
        <time>2023-05-06T07:48:26Z</time>
      </trkpt>
      <trkpt lat="44.27351" lon="3.209">
        <ele>894.20001220703</ele>
        <time>2023-05-06T07:48:27Z</time>
      </trkpt>
      <trkpt lat="44.27339" lon="3.20884">
        <ele>894</ele>
        <time>2023-05-06T07:48:29Z</time>
      </trkpt>
      <trkpt lat="44.27332" lon="3.20879">
        <ele>893.79998779297</ele>
        <time>2023-05-06T07:48:30Z</time>
      </trkpt>
      <trkpt lat="44.27299" lon="3.2086">
        <ele>893</ele>
        <time>2023-05-06T07:48:34Z</time>
      </trkpt>
      <trkpt lat="44.27291" lon="3.20852">
        <ele>892.79998779297</ele>
        <time>2023-05-06T07:48:35Z</time>
      </trkpt>
      <trkpt lat="44.27277" lon="3.20836">
        <ele>892.20001220703</ele>
        <time>2023-05-06T07:48:37Z</time>
      </trkpt>
      <trkpt lat="44.27256" lon="3.20814">
        <ele>891.20001220703</ele>
        <time>2023-05-06T07:48:40Z</time>
      </trkpt>
      <trkpt lat="44.27244" lon="3.20798">
        <ele>890.40002441406</ele>
        <time>2023-05-06T07:48:42Z</time>
      </trkpt>
      <trkpt lat="44.27234" lon="3.20776">
        <ele>889.59997558594</ele>
        <time>2023-05-06T07:48:44Z</time>
      </trkpt>
      <trkpt lat="44.27211" lon="3.20722">
        <ele>887.79998779297</ele>
        <time>2023-05-06T07:48:48Z</time>
      </trkpt>
      <trkpt lat="44.27188" lon="3.20664">
        <ele>886.20001220703</ele>
        <time>2023-05-06T07:48:52Z</time>
      </trkpt>
      <trkpt lat="44.27182" lon="3.20654">
        <ele>886</ele>
        <time>2023-05-06T07:48:53Z</time>
      </trkpt>
      <trkpt lat="44.27171" lon="3.20632">
        <ele>885.79998779297</ele>
        <time>2023-05-06T07:48:56Z</time>
      </trkpt>
      <trkpt lat="44.27167" lon="3.20624">
        <ele>885.59997558594</ele>
        <time>2023-05-06T07:48:57Z</time>
      </trkpt>
      <trkpt lat="44.27163" lon="3.20608">
        <ele>885.20001220703</ele>
        <time>2023-05-06T07:48:59Z</time>
      </trkpt>
      <trkpt lat="44.27166" lon="3.20581">
        <ele>884.40002441406</ele>
        <time>2023-05-06T07:49:02Z</time>
      </trkpt>
      <trkpt lat="44.27171" lon="3.20535">
        <ele>883.20001220703</ele>
        <time>2023-05-06T07:49:06Z</time>
      </trkpt>
      <trkpt lat="44.27178" lon="3.20478">
        <ele>881.79998779297</ele>
        <time>2023-05-06T07:49:10Z</time>
      </trkpt>
      <trkpt lat="44.27184" lon="3.20401">
        <ele>880</ele>
        <time>2023-05-06T07:49:15Z</time>
      </trkpt>
      <trkpt lat="44.2719" lon="3.20331">
        <ele>878.20001220703</ele>
        <time>2023-05-06T07:49:20Z</time>
      </trkpt>
      <trkpt lat="44.27197" lon="3.20273">
        <ele>876.59997558594</ele>
        <time>2023-05-06T07:49:25Z</time>
      </trkpt>
      <trkpt lat="44.27198" lon="3.2025">
        <ele>875.79998779297</ele>
        <time>2023-05-06T07:49:28Z</time>
      </trkpt>
      <trkpt lat="44.27198" lon="3.20243">
        <ele>875.59997558594</ele>
        <time>2023-05-06T07:49:29Z</time>
      </trkpt>
      <trkpt lat="44.27196" lon="3.20236">
        <ele>875.40002441406</ele>
        <time>2023-05-06T07:49:30Z</time>
      </trkpt>
      <trkpt lat="44.27189" lon="3.20217">
        <ele>874.59997558594</ele>
        <time>2023-05-06T07:49:33Z</time>
      </trkpt>
      <trkpt lat="44.27182" lon="3.20197">
        <ele>874</ele>
        <time>2023-05-06T07:49:36Z</time>
      </trkpt>
      <trkpt lat="44.2718" lon="3.2019">
        <ele>873.59997558594</ele>
        <time>2023-05-06T07:49:37Z</time>
      </trkpt>
      <trkpt lat="44.27181" lon="3.20181">
        <ele>873.40002441406</ele>
        <time>2023-05-06T07:49:38Z</time>
      </trkpt>
      <trkpt lat="44.27177" lon="3.20169">
        <ele>872.79998779297</ele>
        <time>2023-05-06T07:49:40Z</time>
      </trkpt>
      <trkpt lat="44.27168" lon="3.20162">
        <ele>872.20001220703</ele>
        <time>2023-05-06T07:49:42Z</time>
      </trkpt>
      <trkpt lat="44.27161" lon="3.20158">
        <ele>871.79998779297</ele>
        <time>2023-05-06T07:49:43Z</time>
      </trkpt>
      <trkpt lat="44.27154" lon="3.20155">
        <ele>871.59997558594</ele>
        <time>2023-05-06T07:49:44Z</time>
      </trkpt>
      <trkpt lat="44.27131" lon="3.20147">
        <ele>870.59997558594</ele>
        <time>2023-05-06T07:49:47Z</time>
      </trkpt>
      <trkpt lat="44.27115" lon="3.20141">
        <ele>869.79998779297</ele>
        <time>2023-05-06T07:49:49Z</time>
      </trkpt>
      <trkpt lat="44.27107" lon="3.2014">
        <ele>869.40002441406</ele>
        <time>2023-05-06T07:49:50Z</time>
      </trkpt>
      <trkpt lat="44.27094" lon="3.20139">
        <ele>868.79998779297</ele>
        <time>2023-05-06T07:49:52Z</time>
      </trkpt>
      <trkpt lat="44.27082" lon="3.20141">
        <ele>868</ele>
        <time>2023-05-06T07:49:54Z</time>
      </trkpt>
      <trkpt lat="44.27077" lon="3.20142">
        <ele>867.79998779297</ele>
        <time>2023-05-06T07:49:55Z</time>
      </trkpt>
      <trkpt lat="44.27066" lon="3.20143">
        <ele>867.40002441406</ele>
        <time>2023-05-06T07:49:57Z</time>
      </trkpt>
      <trkpt lat="44.27055" lon="3.20147">
        <ele>866.79998779297</ele>
        <time>2023-05-06T07:49:59Z</time>
      </trkpt>
      <trkpt lat="44.27046" lon="3.20151">
        <ele>866.20001220703</ele>
        <time>2023-05-06T07:50:01Z</time>
      </trkpt>
      <trkpt lat="44.2704" lon="3.20154">
        <ele>866</ele>
        <time>2023-05-06T07:50:02Z</time>
      </trkpt>
      <trkpt lat="44.27031" lon="3.20162">
        <ele>865.59997558594</ele>
        <time>2023-05-06T07:50:04Z</time>
      </trkpt>
      <trkpt lat="44.27027" lon="3.20166">
        <ele>865.40002441406</ele>
        <time>2023-05-06T07:50:05Z</time>
      </trkpt>
      <trkpt lat="44.27023" lon="3.20171">
        <ele>865</ele>
        <time>2023-05-06T07:50:06Z</time>
      </trkpt>
      <trkpt lat="44.27013" lon="3.20187">
        <ele>864.20001220703</ele>
        <time>2023-05-06T07:50:09Z</time>
      </trkpt>
      <trkpt lat="44.27002" lon="3.20197">
        <ele>863.20001220703</ele>
        <time>2023-05-06T07:50:12Z</time>
      </trkpt>
      <trkpt lat="44.26998" lon="3.20199">
        <ele>863</ele>
        <time>2023-05-06T07:50:13Z</time>
      </trkpt>
      <trkpt lat="44.26982" lon="3.20202">
        <ele>862.20001220703</ele>
        <time>2023-05-06T07:50:17Z</time>
      </trkpt>
      <trkpt lat="44.26977" lon="3.20203">
        <ele>862</ele>
        <time>2023-05-06T07:50:18Z</time>
      </trkpt>
      <trkpt lat="44.26959" lon="3.2021">
        <ele>861.20001220703</ele>
        <time>2023-05-06T07:50:23Z</time>
      </trkpt>
      <trkpt lat="44.26944" lon="3.20212">
        <ele>860.20001220703</ele>
        <time>2023-05-06T07:50:28Z</time>
      </trkpt>
      <trkpt lat="44.26933" lon="3.20214">
        <ele>859.40002441406</ele>
        <time>2023-05-06T07:50:34Z</time>
      </trkpt>
      <trkpt lat="44.26931" lon="3.20214">
        <ele>859.40002441406</ele>
        <time>2023-05-06T07:50:35Z</time>
      </trkpt>
      <trkpt lat="44.26928" lon="3.20214">
        <ele>859.20001220703</ele>
        <time>2023-05-06T07:50:37Z</time>
      </trkpt>
      <trkpt lat="44.26924" lon="3.20215">
        <ele>859.20001220703</ele>
        <time>2023-05-06T07:50:39Z</time>
      </trkpt>
      <trkpt lat="44.26922" lon="3.20217">
        <ele>859</ele>
        <time>2023-05-06T07:50:41Z</time>
      </trkpt>
      <trkpt lat="44.2692" lon="3.20222">
        <ele>858.79998779297</ele>
        <time>2023-05-06T07:50:43Z</time>
      </trkpt>
      <trkpt lat="44.2692" lon="3.20226">
        <ele>858.79998779297</ele>
        <time>2023-05-06T07:50:44Z</time>
      </trkpt>
      <trkpt lat="44.26921" lon="3.20259">
        <ele>858.79998779297</ele>
        <time>2023-05-06T07:50:51Z</time>
      </trkpt>
      <trkpt lat="44.26921" lon="3.20281">
        <ele>859.20001220703</ele>
        <time>2023-05-06T07:50:57Z</time>
      </trkpt>
      <trkpt lat="44.26919" lon="3.20297">
        <ele>859.40002441406</ele>
        <time>2023-05-06T07:51:04Z</time>
      </trkpt>
      <trkpt lat="44.26913" lon="3.20307">
        <ele>859.59997558594</ele>
        <time>2023-05-06T07:51:10Z</time>
      </trkpt>
      <trkpt lat="44.26898" lon="3.20311">
        <ele>860</ele>
        <time>2023-05-06T07:51:18Z</time>
      </trkpt>
      <trkpt lat="44.26889" lon="3.20317">
        <ele>860.40002441406</ele>
        <time>2023-05-06T07:51:24Z</time>
      </trkpt>
      <trkpt lat="44.26875" lon="3.2033">
        <ele>861</ele>
        <time>2023-05-06T07:51:33Z</time>
      </trkpt>
      <trkpt lat="44.26862" lon="3.20339">
        <ele>861.79998779297</ele>
        <time>2023-05-06T07:51:41Z</time>
      </trkpt>
      <trkpt lat="44.2685" lon="3.20344">
        <ele>862.79998779297</ele>
        <time>2023-05-06T07:51:48Z</time>
      </trkpt>
      <trkpt lat="44.26847" lon="3.20346">
        <ele>862.79998779297</ele>
        <time>2023-05-06T07:51:50Z</time>
      </trkpt>
      <trkpt lat="44.26843" lon="3.20352">
        <ele>863.40002441406</ele>
        <time>2023-05-06T07:51:54Z</time>
      </trkpt>
      <trkpt lat="44.26846" lon="3.20365">
        <ele>863.59997558594</ele>
        <time>2023-05-06T07:51:59Z</time>
      </trkpt>
      <trkpt lat="44.26852" lon="3.20392">
        <ele>864</ele>
        <time>2023-05-06T07:52:05Z</time>
      </trkpt>
      <trkpt lat="44.26855" lon="3.20421">
        <ele>864.20001220703</ele>
        <time>2023-05-06T07:52:10Z</time>
      </trkpt>
      <trkpt lat="44.26856" lon="3.20434">
        <ele>864.20001220703</ele>
        <time>2023-05-06T07:52:12Z</time>
      </trkpt>
      <trkpt lat="44.26864" lon="3.20484">
        <ele>864.59997558594</ele>
        <time>2023-05-06T07:52:19Z</time>
      </trkpt>
      <trkpt lat="44.26875" lon="3.20552">
        <ele>864.79998779297</ele>
        <time>2023-05-06T07:52:28Z</time>
      </trkpt>
      <trkpt lat="44.26875" lon="3.20589">
        <ele>864.79998779297</ele>
        <time>2023-05-06T07:52:33Z</time>
      </trkpt>
      <trkpt lat="44.26873" lon="3.20603">
        <ele>864.79998779297</ele>
        <time>2023-05-06T07:52:35Z</time>
      </trkpt>
      <trkpt lat="44.26867" lon="3.20622">
        <ele>864.79998779297</ele>
        <time>2023-05-06T07:52:38Z</time>
      </trkpt>
      <trkpt lat="44.26861" lon="3.20639">
        <ele>865</ele>
        <time>2023-05-06T07:52:41Z</time>
      </trkpt>
      <trkpt lat="44.26858" lon="3.20656">
        <ele>865</ele>
        <time>2023-05-06T07:52:44Z</time>
      </trkpt>
      <trkpt lat="44.26859" lon="3.20667">
        <ele>865.20001220703</ele>
        <time>2023-05-06T07:52:46Z</time>
      </trkpt>
      <trkpt lat="44.26867" lon="3.20705">
        <ele>865.40002441406</ele>
        <time>2023-05-06T07:52:54Z</time>
      </trkpt>
      <trkpt lat="44.26881" lon="3.20727">
        <ele>865.79998779297</ele>
        <time>2023-05-06T07:53:00Z</time>
      </trkpt>
      <trkpt lat="44.26901" lon="3.20746">
        <ele>866.20001220703</ele>
        <time>2023-05-06T07:53:07Z</time>
      </trkpt>
      <trkpt lat="44.26929" lon="3.20766">
        <ele>867.20001220703</ele>
        <time>2023-05-06T07:53:16Z</time>
      </trkpt>
      <trkpt lat="44.26952" lon="3.20782">
        <ele>868.20001220703</ele>
        <time>2023-05-06T07:53:24Z</time>
      </trkpt>
      <trkpt lat="44.26969" lon="3.20801">
        <ele>868.79998779297</ele>
        <time>2023-05-06T07:53:31Z</time>
      </trkpt>
      <trkpt lat="44.26991" lon="3.20826">
        <ele>870.20001220703</ele>
        <time>2023-05-06T07:53:40Z</time>
      </trkpt>
      <trkpt lat="44.27011" lon="3.20842">
        <ele>871.40002441406</ele>
        <time>2023-05-06T07:53:48Z</time>
      </trkpt>
      <trkpt lat="44.27037" lon="3.20853">
        <ele>873.40002441406</ele>
        <time>2023-05-06T07:53:57Z</time>
      </trkpt>
      <trkpt lat="44.2706" lon="3.20867">
        <ele>875</ele>
        <time>2023-05-06T07:54:05Z</time>
      </trkpt>
      <trkpt lat="44.27081" lon="3.2088">
        <ele>876.59997558594</ele>
        <time>2023-05-06T07:54:13Z</time>
      </trkpt>
      <trkpt lat="44.27103" lon="3.20888">
        <ele>878.40002441406</ele>
        <time>2023-05-06T07:54:21Z</time>
      </trkpt>
      <trkpt lat="44.27123" lon="3.20894">
        <ele>879.59997558594</ele>
        <time>2023-05-06T07:54:28Z</time>
      </trkpt>
      <trkpt lat="44.2714" lon="3.209">
        <ele>880.79998779297</ele>
        <time>2023-05-06T07:54:35Z</time>
      </trkpt>
      <trkpt lat="44.27157" lon="3.20907">
        <ele>881.79998779297</ele>
        <time>2023-05-06T07:54:41Z</time>
      </trkpt>
      <trkpt lat="44.27179" lon="3.20915">
        <ele>883</ele>
        <time>2023-05-06T07:54:49Z</time>
      </trkpt>
      <trkpt lat="44.27192" lon="3.20921">
        <ele>884</ele>
        <time>2023-05-06T07:54:56Z</time>
      </trkpt>
      <trkpt lat="44.27192" lon="3.20921">
        <ele>885.40002441406</ele>
        <time>2023-05-06T07:55:09Z</time>
      </trkpt>
      <trkpt lat="44.27192" lon="3.20921">
        <ele>887.20001220703</ele>
        <time>2023-05-06T07:55:27Z</time>
      </trkpt>
      <trkpt lat="44.27192" lon="3.20921">
        <ele>888.20001220703</ele>
        <time>2023-05-06T07:55:37Z</time>
      </trkpt>
      <trkpt lat="44.27192" lon="3.20921">
        <ele>888.20001220703</ele>
        <time>2023-05-06T07:55:39Z</time>
      </trkpt>
      <trkpt lat="44.27197" lon="3.20922">
        <ele>888.40002441406</ele>
        <time>2023-05-06T07:55:42Z</time>
      </trkpt>
      <trkpt lat="44.27214" lon="3.20929">
        <ele>888.59997558594</ele>
        <time>2023-05-06T07:55:48Z</time>
      </trkpt>
      <trkpt lat="44.27244" lon="3.20952">
        <ele>889.59997558594</ele>
        <time>2023-05-06T07:55:58Z</time>
      </trkpt>
      <trkpt lat="44.27266" lon="3.2097">
        <ele>890.40002441406</ele>
        <time>2023-05-06T07:56:06Z</time>
      </trkpt>
      <trkpt lat="44.27289" lon="3.20988">
        <ele>891.20001220703</ele>
        <time>2023-05-06T07:56:14Z</time>
      </trkpt>
      <trkpt lat="44.27307" lon="3.21007">
        <ele>892</ele>
        <time>2023-05-06T07:56:21Z</time>
      </trkpt>
      <trkpt lat="44.27317" lon="3.21023">
        <ele>892.40002441406</ele>
        <time>2023-05-06T07:56:27Z</time>
      </trkpt>
      <trkpt lat="44.27318" lon="3.21026">
        <ele>892.40002441406</ele>
        <time>2023-05-06T07:56:28Z</time>
      </trkpt>
      <trkpt lat="44.27317" lon="3.21034">
        <ele>892.59997558594</ele>
        <time>2023-05-06T07:56:31Z</time>
      </trkpt>
      <trkpt lat="44.27316" lon="3.21036">
        <ele>892.59997558594</ele>
        <time>2023-05-06T07:56:32Z</time>
      </trkpt>
      <trkpt lat="44.27313" lon="3.21038">
        <ele>892.40002441406</ele>
        <time>2023-05-06T07:56:35Z</time>
      </trkpt>
      <trkpt lat="44.2731" lon="3.2104">
        <ele>892.20001220703</ele>
        <time>2023-05-06T07:56:39Z</time>
      </trkpt>
      <trkpt lat="44.27311" lon="3.21042">
        <ele>892.20001220703</ele>
        <time>2023-05-06T07:56:40Z</time>
      </trkpt>
      <trkpt lat="44.27309" lon="3.21046">
        <ele>892.20001220703</ele>
        <time>2023-05-06T07:56:46Z</time>
      </trkpt>
      <trkpt lat="44.27309" lon="3.21046">
        <ele>892.40002441406</ele>
        <time>2023-05-06T07:56:59Z</time>
      </trkpt>
      <trkpt lat="44.27309" lon="3.21046">
        <ele>892.59997558594</ele>
        <time>2023-05-06T07:57:16Z</time>
      </trkpt>
      <trkpt lat="44.27309" lon="3.21045">
        <ele>892.59997558594</ele>
        <time>2023-05-06T07:57:42Z</time>
      </trkpt>
      <trkpt lat="44.27309" lon="3.21046">
        <ele>892.59997558594</ele>
        <time>2023-05-06T07:58:05Z</time>
      </trkpt>
      <trkpt lat="44.27309" lon="3.21046">
        <ele>892.59997558594</ele>
        <time>2023-05-06T07:58:28Z</time>
      </trkpt>
      <trkpt lat="44.27309" lon="3.21046">
        <ele>892.59997558594</ele>
        <time>2023-05-06T07:58:50Z</time>
      </trkpt>
      <trkpt lat="44.27309" lon="3.21046">
        <ele>892.59997558594</ele>
        <time>2023-05-06T07:59:12Z</time>
      </trkpt>
      <trkpt lat="44.27309" lon="3.21047">
        <ele>892.79998779297</ele>
        <time>2023-05-06T07:59:37Z</time>
      </trkpt>
      <trkpt lat="44.27309" lon="3.21047">
        <ele>892.79998779297</ele>
        <time>2023-05-06T07:59:58Z</time>
      </trkpt>
      <trkpt lat="44.27309" lon="3.21047">
        <ele>892.79998779297</ele>
        <time>2023-05-06T08:00:16Z</time>
      </trkpt>
      <trkpt lat="44.27309" lon="3.21047">
        <ele>892.79998779297</ele>
        <time>2023-05-06T08:00:36Z</time>
      </trkpt>
      <trkpt lat="44.27309" lon="3.21047">
        <ele>893</ele>
        <time>2023-05-06T08:01:03Z</time>
      </trkpt>
      <trkpt lat="44.27309" lon="3.21047">
        <ele>893.20001220703</ele>
        <time>2023-05-06T08:01:30Z</time>
      </trkpt>
      <trkpt lat="44.27309" lon="3.21047">
        <ele>893.20001220703</ele>
        <time>2023-05-06T08:01:48Z</time>
      </trkpt>
      <trkpt lat="44.27309" lon="3.21046">
        <ele>893.40002441406</ele>
        <time>2023-05-06T08:02:13Z</time>
      </trkpt>
      <trkpt lat="44.27309" lon="3.21046">
        <ele>893.59997558594</ele>
        <time>2023-05-06T08:02:35Z</time>
      </trkpt>
      <trkpt lat="44.27308" lon="3.21047">
        <ele>893.59997558594</ele>
        <time>2023-05-06T08:02:55Z</time>
      </trkpt>
      <trkpt lat="44.27308" lon="3.21047">
        <ele>893.79998779297</ele>
        <time>2023-05-06T08:03:18Z</time>
      </trkpt>
      <trkpt lat="44.27308" lon="3.21048">
        <ele>893.79998779297</ele>
        <time>2023-05-06T08:03:41Z</time>
      </trkpt>
      <trkpt lat="44.27309" lon="3.21047">
        <ele>894</ele>
        <time>2023-05-06T08:04:04Z</time>
      </trkpt>
      <trkpt lat="44.27309" lon="3.21047">
        <ele>894</ele>
        <time>2023-05-06T08:04:30Z</time>
      </trkpt>
      <trkpt lat="44.27309" lon="3.21047">
        <ele>894</ele>
        <time>2023-05-06T08:04:48Z</time>
      </trkpt>
      <trkpt lat="44.27309" lon="3.21047">
        <ele>894</ele>
        <time>2023-05-06T08:05:02Z</time>
      </trkpt>
      <trkpt lat="44.27309" lon="3.21047">
        <ele>894.20001220703</ele>
        <time>2023-05-06T08:05:16Z</time>
      </trkpt>
      <trkpt lat="44.27309" lon="3.21047">
        <ele>894.20001220703</ele>
        <time>2023-05-06T08:05:31Z</time>
      </trkpt>
      <trkpt lat="44.27309" lon="3.21047">
        <ele>894.20001220703</ele>
        <time>2023-05-06T08:05:46Z</time>
      </trkpt>
      <trkpt lat="44.2731" lon="3.21047">
        <ele>894.20001220703</ele>
        <time>2023-05-06T08:06:03Z</time>
      </trkpt>
      <trkpt lat="44.2731" lon="3.21047">
        <ele>894.40002441406</ele>
        <time>2023-05-06T08:06:22Z</time>
      </trkpt>
      <trkpt lat="44.2731" lon="3.21047">
        <ele>894.40002441406</ele>
        <time>2023-05-06T08:06:41Z</time>
      </trkpt>
      <trkpt lat="44.27309" lon="3.21047">
        <ele>894.59997558594</ele>
        <time>2023-05-06T08:06:57Z</time>
      </trkpt>
      <trkpt lat="44.27309" lon="3.21047">
        <ele>894.59997558594</ele>
        <time>2023-05-06T08:07:13Z</time>
      </trkpt>
      <trkpt lat="44.27309" lon="3.21047">
        <ele>894.79998779297</ele>
        <time>2023-05-06T08:07:33Z</time>
      </trkpt>
      <trkpt lat="44.27309" lon="3.21047">
        <ele>894.79998779297</ele>
        <time>2023-05-06T08:07:53Z</time>
      </trkpt>
      <trkpt lat="44.27309" lon="3.21047">
        <ele>895</ele>
        <time>2023-05-06T08:08:10Z</time>
      </trkpt>
      <trkpt lat="44.27309" lon="3.21047">
        <ele>895</ele>
        <time>2023-05-06T08:08:28Z</time>
      </trkpt>
      <trkpt lat="44.27308" lon="3.21047">
        <ele>895</ele>
        <time>2023-05-06T08:08:43Z</time>
      </trkpt>
      <trkpt lat="44.27308" lon="3.21047">
        <ele>895</ele>
        <time>2023-05-06T08:08:56Z</time>
      </trkpt>
      <trkpt lat="44.27308" lon="3.21047">
        <ele>895</ele>
        <time>2023-05-06T08:09:11Z</time>
      </trkpt>
      <trkpt lat="44.27308" lon="3.21047">
        <ele>895</ele>
        <time>2023-05-06T08:09:31Z</time>
      </trkpt>
      <trkpt lat="44.27308" lon="3.21047">
        <ele>895</ele>
        <time>2023-05-06T08:09:54Z</time>
      </trkpt>
      <trkpt lat="44.27308" lon="3.21046">
        <ele>895.20001220703</ele>
        <time>2023-05-06T08:10:10Z</time>
      </trkpt>
      <trkpt lat="44.27308" lon="3.21046">
        <ele>895.20001220703</ele>
        <time>2023-05-06T08:10:23Z</time>
      </trkpt>
      <trkpt lat="44.27308" lon="3.21046">
        <ele>895.20001220703</ele>
        <time>2023-05-06T08:10:38Z</time>
      </trkpt>
      <trkpt lat="44.27308" lon="3.21046">
        <ele>895.40002441406</ele>
        <time>2023-05-06T08:10:56Z</time>
      </trkpt>
      <trkpt lat="44.27308" lon="3.21046">
        <ele>895.59997558594</ele>
        <time>2023-05-06T08:11:13Z</time>
      </trkpt>
      <trkpt lat="44.27308" lon="3.21047">
        <ele>895.79998779297</ele>
        <time>2023-05-06T08:11:30Z</time>
      </trkpt>
      <trkpt lat="44.27308" lon="3.21047">
        <ele>895.79998779297</ele>
        <time>2023-05-06T08:11:41Z</time>
      </trkpt>
      <trkpt lat="44.27308" lon="3.21046">
        <ele>896.20001220703</ele>
        <time>2023-05-06T08:11:49Z</time>
      </trkpt>
      <trkpt lat="44.27309" lon="3.21045">
        <ele>896.40002441406</ele>
        <time>2023-05-06T08:11:59Z</time>
      </trkpt>
      <trkpt lat="44.27311" lon="3.21045">
        <ele>896.59997558594</ele>
        <time>2023-05-06T08:12:01Z</time>
      </trkpt>
      <trkpt lat="44.27311" lon="3.21045">
        <ele>896.59997558594</ele>
        <time>2023-05-06T08:12:04Z</time>
      </trkpt>
      <trkpt lat="44.27314" lon="3.21051">
        <ele>897</ele>
        <time>2023-05-06T08:12:12Z</time>
      </trkpt>
      <trkpt lat="44.27315" lon="3.21054">
        <ele>897.20001220703</ele>
        <time>2023-05-06T08:12:14Z</time>
      </trkpt>
      <trkpt lat="44.27318" lon="3.21057">
        <ele>897.20001220703</ele>
        <time>2023-05-06T08:12:17Z</time>
      </trkpt>
      <trkpt lat="44.27322" lon="3.21057">
        <ele>897</ele>
        <time>2023-05-06T08:12:21Z</time>
      </trkpt>
      <trkpt lat="44.27333" lon="3.21062">
        <ele>897</ele>
        <time>2023-05-06T08:12:26Z</time>
      </trkpt>
      <trkpt lat="44.27346" lon="3.21072">
        <ele>897</ele>
        <time>2023-05-06T08:12:30Z</time>
      </trkpt>
      <trkpt lat="44.27368" lon="3.21092">
        <ele>896.79998779297</ele>
        <time>2023-05-06T08:12:35Z</time>
      </trkpt>
      <trkpt lat="44.274" lon="3.21111">
        <ele>896.40002441406</ele>
        <time>2023-05-06T08:12:40Z</time>
      </trkpt>
      <trkpt lat="44.27416" lon="3.21118">
        <ele>896.20001220703</ele>
        <time>2023-05-06T08:12:42Z</time>
      </trkpt>
      <trkpt lat="44.27432" lon="3.21119">
        <ele>895.79998779297</ele>
        <time>2023-05-06T08:12:44Z</time>
      </trkpt>
      <trkpt lat="44.27458" lon="3.21119">
        <ele>895</ele>
        <time>2023-05-06T08:12:48Z</time>
      </trkpt>
      <trkpt lat="44.2747" lon="3.21118">
        <ele>894.79998779297</ele>
        <time>2023-05-06T08:12:50Z</time>
      </trkpt>
      <trkpt lat="44.27489" lon="3.21117">
        <ele>894.40002441406</ele>
        <time>2023-05-06T08:12:53Z</time>
      </trkpt>
      <trkpt lat="44.27502" lon="3.2111">
        <ele>894.20001220703</ele>
        <time>2023-05-06T08:12:55Z</time>
      </trkpt>
      <trkpt lat="44.27508" lon="3.21105">
        <ele>894.20001220703</ele>
        <time>2023-05-06T08:12:56Z</time>
      </trkpt>
      <trkpt lat="44.27527" lon="3.21085">
        <ele>894</ele>
        <time>2023-05-06T08:13:00Z</time>
      </trkpt>
      <trkpt lat="44.27543" lon="3.21069">
        <ele>893.79998779297</ele>
        <time>2023-05-06T08:13:05Z</time>
      </trkpt>
      <trkpt lat="44.27558" lon="3.21052">
        <ele>893.59997558594</ele>
        <time>2023-05-06T08:13:11Z</time>
      </trkpt>
      <trkpt lat="44.27574" lon="3.21035">
        <ele>893.40002441406</ele>
        <time>2023-05-06T08:13:17Z</time>
      </trkpt>
      <trkpt lat="44.27593" lon="3.21024">
        <ele>893.40002441406</ele>
        <time>2023-05-06T08:13:23Z</time>
      </trkpt>
      <trkpt lat="44.27621" lon="3.21013">
        <ele>893.79998779297</ele>
        <time>2023-05-06T08:13:31Z</time>
      </trkpt>
      <trkpt lat="44.27646" lon="3.21003">
        <ele>894</ele>
        <time>2023-05-06T08:13:38Z</time>
      </trkpt>
      <trkpt lat="44.27671" lon="3.2099">
        <ele>894.59997558594</ele>
        <time>2023-05-06T08:13:46Z</time>
      </trkpt>
      <trkpt lat="44.277" lon="3.20978">
        <ele>895</ele>
        <time>2023-05-06T08:13:55Z</time>
      </trkpt>
      <trkpt lat="44.27722" lon="3.20966">
        <ele>895.79998779297</ele>
        <time>2023-05-06T08:14:03Z</time>
      </trkpt>
      <trkpt lat="44.27743" lon="3.20956">
        <ele>896.59997558594</ele>
        <time>2023-05-06T08:14:11Z</time>
      </trkpt>
      <trkpt lat="44.27763" lon="3.20941">
        <ele>897.59997558594</ele>
        <time>2023-05-06T08:14:19Z</time>
      </trkpt>
      <trkpt lat="44.27782" lon="3.20921">
        <ele>898.59997558594</ele>
        <time>2023-05-06T08:14:27Z</time>
      </trkpt>
      <trkpt lat="44.27803" lon="3.20899">
        <ele>899.79998779297</ele>
        <time>2023-05-06T08:14:36Z</time>
      </trkpt>
      <trkpt lat="44.27834" lon="3.2087">
        <ele>901.40002441406</ele>
        <time>2023-05-06T08:14:48Z</time>
      </trkpt>
      <trkpt lat="44.27855" lon="3.20855">
        <ele>902.20001220703</ele>
        <time>2023-05-06T08:14:55Z</time>
      </trkpt>
      <trkpt lat="44.27858" lon="3.20854">
        <ele>902.40002441406</ele>
        <time>2023-05-06T08:14:56Z</time>
      </trkpt>
      <trkpt lat="44.27867" lon="3.20853">
        <ele>902.79998779297</ele>
        <time>2023-05-06T08:14:58Z</time>
      </trkpt>
      <trkpt lat="44.2788" lon="3.20852">
        <ele>903</ele>
        <time>2023-05-06T08:15:01Z</time>
      </trkpt>
      <trkpt lat="44.27919" lon="3.20853">
        <ele>903.59997558594</ele>
        <time>2023-05-06T08:15:09Z</time>
      </trkpt>
      <trkpt lat="44.27942" lon="3.20855">
        <ele>904</ele>
        <time>2023-05-06T08:15:13Z</time>
      </trkpt>
      <trkpt lat="44.27947" lon="3.20855">
        <ele>904</ele>
        <time>2023-05-06T08:15:14Z</time>
      </trkpt>
      <trkpt lat="44.27965" lon="3.20856">
        <ele>904.20001220703</ele>
        <time>2023-05-06T08:15:17Z</time>
      </trkpt>
      <trkpt lat="44.27989" lon="3.20859">
        <ele>904.40002441406</ele>
        <time>2023-05-06T08:15:21Z</time>
      </trkpt>
      <trkpt lat="44.2804" lon="3.20862">
        <ele>904.79998779297</ele>
        <time>2023-05-06T08:15:29Z</time>
      </trkpt>
      <trkpt lat="44.28099" lon="3.20868">
        <ele>905</ele>
        <time>2023-05-06T08:15:38Z</time>
      </trkpt>
      <trkpt lat="44.28106" lon="3.20868">
        <ele>905</ele>
        <time>2023-05-06T08:15:39Z</time>
      </trkpt>
      <trkpt lat="44.28146" lon="3.20863">
        <ele>905</ele>
        <time>2023-05-06T08:15:45Z</time>
      </trkpt>
      <trkpt lat="44.28201" lon="3.20849">
        <ele>905</ele>
        <time>2023-05-06T08:15:53Z</time>
      </trkpt>
      <trkpt lat="44.2825" lon="3.20832">
        <ele>905</ele>
        <time>2023-05-06T08:16:00Z</time>
      </trkpt>
      <trkpt lat="44.28307" lon="3.20826">
        <ele>905</ele>
        <time>2023-05-06T08:16:08Z</time>
      </trkpt>
      <trkpt lat="44.28362" lon="3.20818">
        <ele>904.79998779297</ele>
        <time>2023-05-06T08:16:16Z</time>
      </trkpt>
      <trkpt lat="44.28408" lon="3.20822">
        <ele>904.59997558594</ele>
        <time>2023-05-06T08:16:23Z</time>
      </trkpt>
      <trkpt lat="44.28449" lon="3.2083">
        <ele>904.40002441406</ele>
        <time>2023-05-06T08:16:29Z</time>
      </trkpt>
      <trkpt lat="44.28463" lon="3.20833">
        <ele>904.20001220703</ele>
        <time>2023-05-06T08:16:31Z</time>
      </trkpt>
      <trkpt lat="44.28525" lon="3.20842">
        <ele>903.40002441406</ele>
        <time>2023-05-06T08:16:39Z</time>
      </trkpt>
      <trkpt lat="44.28546" lon="3.20849">
        <ele>903.40002441406</ele>
        <time>2023-05-06T08:16:42Z</time>
      </trkpt>
      <trkpt lat="44.28558" lon="3.20857">
        <ele>903.40002441406</ele>
        <time>2023-05-06T08:16:44Z</time>
      </trkpt>
      <trkpt lat="44.28596" lon="3.2089">
        <ele>903</ele>
        <time>2023-05-06T08:16:50Z</time>
      </trkpt>
      <trkpt lat="44.28601" lon="3.20896">
        <ele>903</ele>
        <time>2023-05-06T08:16:51Z</time>
      </trkpt>
      <trkpt lat="44.28647" lon="3.20938">
        <ele>902.79998779297</ele>
        <time>2023-05-06T08:16:59Z</time>
      </trkpt>
      <trkpt lat="44.28691" lon="3.20973">
        <ele>902.59997558594</ele>
        <time>2023-05-06T08:17:07Z</time>
      </trkpt>
      <trkpt lat="44.28731" lon="3.21014">
        <ele>902.40002441406</ele>
        <time>2023-05-06T08:17:15Z</time>
      </trkpt>
      <trkpt lat="44.28767" lon="3.21052">
        <ele>902.59997558594</ele>
        <time>2023-05-06T08:17:23Z</time>
      </trkpt>
      <trkpt lat="44.28816" lon="3.21094">
        <ele>903</ele>
        <time>2023-05-06T08:17:33Z</time>
      </trkpt>
      <trkpt lat="44.28862" lon="3.21138">
        <ele>903</ele>
        <time>2023-05-06T08:17:43Z</time>
      </trkpt>
      <trkpt lat="44.28893" lon="3.21176">
        <ele>903.20001220703</ele>
        <time>2023-05-06T08:17:51Z</time>
      </trkpt>
      <trkpt lat="44.28906" lon="3.21186">
        <ele>903.40002441406</ele>
        <time>2023-05-06T08:17:55Z</time>
      </trkpt>
      <trkpt lat="44.28919" lon="3.21193">
        <ele>903.59997558594</ele>
        <time>2023-05-06T08:18:00Z</time>
      </trkpt>
      <trkpt lat="44.28935" lon="3.21201">
        <ele>904</ele>
        <time>2023-05-06T08:18:07Z</time>
      </trkpt>
      <trkpt lat="44.28951" lon="3.21206">
        <ele>904.40002441406</ele>
        <time>2023-05-06T08:18:14Z</time>
      </trkpt>
      <trkpt lat="44.28966" lon="3.21212">
        <ele>905</ele>
        <time>2023-05-06T08:18:21Z</time>
      </trkpt>
      <trkpt lat="44.28982" lon="3.21218">
        <ele>905.59997558594</ele>
        <time>2023-05-06T08:18:28Z</time>
      </trkpt>
      <trkpt lat="44.28998" lon="3.21224">
        <ele>906.40002441406</ele>
        <time>2023-05-06T08:18:35Z</time>
      </trkpt>
      <trkpt lat="44.29014" lon="3.21228">
        <ele>907.20001220703</ele>
        <time>2023-05-06T08:18:42Z</time>
      </trkpt>
      <trkpt lat="44.29036" lon="3.21235">
        <ele>908.20001220703</ele>
        <time>2023-05-06T08:18:51Z</time>
      </trkpt>
      <trkpt lat="44.29058" lon="3.2124">
        <ele>909.20001220703</ele>
        <time>2023-05-06T08:19:00Z</time>
      </trkpt>
      <trkpt lat="44.29079" lon="3.21248">
        <ele>910</ele>
        <time>2023-05-06T08:19:08Z</time>
      </trkpt>
      <trkpt lat="44.29083" lon="3.21252">
        <ele>910.20001220703</ele>
        <time>2023-05-06T08:19:10Z</time>
      </trkpt>
      <trkpt lat="44.29085" lon="3.2126">
        <ele>910.40002441406</ele>
        <time>2023-05-06T08:19:12Z</time>
      </trkpt>
      <trkpt lat="44.29088" lon="3.21276">
        <ele>910.59997558594</ele>
        <time>2023-05-06T08:19:15Z</time>
      </trkpt>
      <trkpt lat="44.29092" lon="3.21288">
        <ele>910.79998779297</ele>
        <time>2023-05-06T08:19:17Z</time>
      </trkpt>
      <trkpt lat="44.29108" lon="3.21331">
        <ele>911.20001220703</ele>
        <time>2023-05-06T08:19:24Z</time>
      </trkpt>
      <trkpt lat="44.2913" lon="3.21378">
        <ele>911.59997558594</ele>
        <time>2023-05-06T08:19:32Z</time>
      </trkpt>
      <trkpt lat="44.29149" lon="3.21418">
        <ele>911.79998779297</ele>
        <time>2023-05-06T08:19:39Z</time>
      </trkpt>
      <trkpt lat="44.29152" lon="3.21423">
        <ele>912</ele>
        <time>2023-05-06T08:19:40Z</time>
      </trkpt>
      <trkpt lat="44.29173" lon="3.21451">
        <ele>912</ele>
        <time>2023-05-06T08:19:46Z</time>
      </trkpt>
      <trkpt lat="44.29187" lon="3.21472">
        <ele>912</ele>
        <time>2023-05-06T08:19:50Z</time>
      </trkpt>
      <trkpt lat="44.29194" lon="3.21487">
        <ele>912</ele>
        <time>2023-05-06T08:19:52Z</time>
      </trkpt>
      <trkpt lat="44.29198" lon="3.21505">
        <ele>912</ele>
        <time>2023-05-06T08:19:54Z</time>
      </trkpt>
      <trkpt lat="44.29201" lon="3.21526">
        <ele>911.79998779297</ele>
        <time>2023-05-06T08:19:56Z</time>
      </trkpt>
      <trkpt lat="44.29204" lon="3.21583">
        <ele>911.20001220703</ele>
        <time>2023-05-06T08:20:01Z</time>
      </trkpt>
      <trkpt lat="44.29203" lon="3.21613">
        <ele>910.79998779297</ele>
        <time>2023-05-06T08:20:04Z</time>
      </trkpt>
      <trkpt lat="44.29208" lon="3.21629">
        <ele>910.40002441406</ele>
        <time>2023-05-06T08:20:06Z</time>
      </trkpt>
      <trkpt lat="44.29212" lon="3.21636">
        <ele>910.40002441406</ele>
        <time>2023-05-06T08:20:07Z</time>
      </trkpt>
      <trkpt lat="44.29235" lon="3.21675">
        <ele>909.59997558594</ele>
        <time>2023-05-06T08:20:12Z</time>
      </trkpt>
      <trkpt lat="44.29238" lon="3.21684">
        <ele>909.40002441406</ele>
        <time>2023-05-06T08:20:13Z</time>
      </trkpt>
      <trkpt lat="44.29259" lon="3.21733">
        <ele>909</ele>
        <time>2023-05-06T08:20:19Z</time>
      </trkpt>
      <trkpt lat="44.29277" lon="3.21761">
        <ele>908.59997558594</ele>
        <time>2023-05-06T08:20:23Z</time>
      </trkpt>
      <trkpt lat="44.29282" lon="3.21768">
        <ele>908.59997558594</ele>
        <time>2023-05-06T08:20:24Z</time>
      </trkpt>
      <trkpt lat="44.29288" lon="3.21775">
        <ele>908.40002441406</ele>
        <time>2023-05-06T08:20:25Z</time>
      </trkpt>
      <trkpt lat="44.29307" lon="3.21791">
        <ele>907.79998779297</ele>
        <time>2023-05-06T08:20:28Z</time>
      </trkpt>
      <trkpt lat="44.29322" lon="3.21798">
        <ele>907.40002441406</ele>
        <time>2023-05-06T08:20:30Z</time>
      </trkpt>
      <trkpt lat="44.29331" lon="3.218">
        <ele>907.20001220703</ele>
        <time>2023-05-06T08:20:31Z</time>
      </trkpt>
      <trkpt lat="44.29378" lon="3.21803">
        <ele>905.59997558594</ele>
        <time>2023-05-06T08:20:36Z</time>
      </trkpt>
      <trkpt lat="44.29418" lon="3.21819">
        <ele>904.79998779297</ele>
        <time>2023-05-06T08:20:40Z</time>
      </trkpt>
      <trkpt lat="44.29448" lon="3.2184">
        <ele>905.20001220703</ele>
        <time>2023-05-06T08:20:44Z</time>
      </trkpt>
      <trkpt lat="44.29467" lon="3.21852">
        <ele>905.59997558594</ele>
        <time>2023-05-06T08:20:48Z</time>
      </trkpt>
      <trkpt lat="44.29482" lon="3.21864">
        <ele>906.40002441406</ele>
        <time>2023-05-06T08:20:53Z</time>
      </trkpt>
      <trkpt lat="44.29495" lon="3.21875">
        <ele>907</ele>
        <time>2023-05-06T08:20:59Z</time>
      </trkpt>
      <trkpt lat="44.29507" lon="3.21884">
        <ele>907.40002441406</ele>
        <time>2023-05-06T08:21:05Z</time>
      </trkpt>
      <trkpt lat="44.29519" lon="3.21894">
        <ele>907.79998779297</ele>
        <time>2023-05-06T08:21:11Z</time>
      </trkpt>
      <trkpt lat="44.29531" lon="3.21905">
        <ele>908.59997558594</ele>
        <time>2023-05-06T08:21:18Z</time>
      </trkpt>
      <trkpt lat="44.29543" lon="3.21916">
        <ele>909.59997558594</ele>
        <time>2023-05-06T08:21:25Z</time>
      </trkpt>
      <trkpt lat="44.29554" lon="3.21925">
        <ele>910.40002441406</ele>
        <time>2023-05-06T08:21:32Z</time>
      </trkpt>
      <trkpt lat="44.29563" lon="3.21937">
        <ele>911.40002441406</ele>
        <time>2023-05-06T08:21:39Z</time>
      </trkpt>
      <trkpt lat="44.29576" lon="3.21949">
        <ele>912.79998779297</ele>
        <time>2023-05-06T08:21:48Z</time>
      </trkpt>
      <trkpt lat="44.29584" lon="3.21961">
        <ele>914</ele>
        <time>2023-05-06T08:21:55Z</time>
      </trkpt>
      <trkpt lat="44.29592" lon="3.21976">
        <ele>915.59997558594</ele>
        <time>2023-05-06T08:22:03Z</time>
      </trkpt>
      <trkpt lat="44.296" lon="3.21988">
        <ele>916.59997558594</ele>
        <time>2023-05-06T08:22:09Z</time>
      </trkpt>
      <trkpt lat="44.29613" lon="3.21997">
        <ele>917.59997558594</ele>
        <time>2023-05-06T08:22:16Z</time>
      </trkpt>
      <trkpt lat="44.29625" lon="3.2201">
        <ele>919</ele>
        <time>2023-05-06T08:22:24Z</time>
      </trkpt>
      <trkpt lat="44.29638" lon="3.22022">
        <ele>919.79998779297</ele>
        <time>2023-05-06T08:22:31Z</time>
      </trkpt>
      <trkpt lat="44.29649" lon="3.22038">
        <ele>921</ele>
        <time>2023-05-06T08:22:38Z</time>
      </trkpt>
      <trkpt lat="44.2966" lon="3.22061">
        <ele>922.20001220703</ele>
        <time>2023-05-06T08:22:46Z</time>
      </trkpt>
      <trkpt lat="44.29672" lon="3.22083">
        <ele>923.40002441406</ele>
        <time>2023-05-06T08:22:54Z</time>
      </trkpt>
      <trkpt lat="44.29683" lon="3.22097">
        <ele>924.20001220703</ele>
        <time>2023-05-06T08:23:00Z</time>
      </trkpt>
      <trkpt lat="44.29699" lon="3.22105">
        <ele>925.20001220703</ele>
        <time>2023-05-06T08:23:07Z</time>
      </trkpt>
      <trkpt lat="44.29719" lon="3.22106">
        <ele>926.40002441406</ele>
        <time>2023-05-06T08:23:15Z</time>
      </trkpt>
      <trkpt lat="44.29741" lon="3.22105">
        <ele>927.59997558594</ele>
        <time>2023-05-06T08:23:23Z</time>
      </trkpt>
      <trkpt lat="44.29768" lon="3.22103">
        <ele>928.79998779297</ele>
        <time>2023-05-06T08:23:32Z</time>
      </trkpt>
      <trkpt lat="44.29787" lon="3.22102">
        <ele>929.59997558594</ele>
        <time>2023-05-06T08:23:38Z</time>
      </trkpt>
      <trkpt lat="44.29814" lon="3.22102">
        <ele>931</ele>
        <time>2023-05-06T08:23:47Z</time>
      </trkpt>
      <trkpt lat="44.29841" lon="3.22102">
        <ele>932.40002441406</ele>
        <time>2023-05-06T08:23:56Z</time>
      </trkpt>
      <trkpt lat="44.29867" lon="3.22106">
        <ele>933.79998779297</ele>
        <time>2023-05-06T08:24:04Z</time>
      </trkpt>
      <trkpt lat="44.29897" lon="3.22112">
        <ele>934.59997558594</ele>
        <time>2023-05-06T08:24:11Z</time>
      </trkpt>
      <trkpt lat="44.29939" lon="3.22118">
        <ele>935.59997558594</ele>
        <time>2023-05-06T08:24:19Z</time>
      </trkpt>
      <trkpt lat="44.2997" lon="3.22126">
        <ele>936.20001220703</ele>
        <time>2023-05-06T08:24:25Z</time>
      </trkpt>
      <trkpt lat="44.2998" lon="3.22131">
        <ele>936.40002441406</ele>
        <time>2023-05-06T08:24:27Z</time>
      </trkpt>
      <trkpt lat="44.30014" lon="3.22152">
        <ele>936.79998779297</ele>
        <time>2023-05-06T08:24:33Z</time>
      </trkpt>
      <trkpt lat="44.30052" lon="3.22182">
        <ele>937</ele>
        <time>2023-05-06T08:24:39Z</time>
      </trkpt>
      <trkpt lat="44.30102" lon="3.22219">
        <ele>936.79998779297</ele>
        <time>2023-05-06T08:24:46Z</time>
      </trkpt>
      <trkpt lat="44.3016" lon="3.22255">
        <ele>936.59997558594</ele>
        <time>2023-05-06T08:24:53Z</time>
      </trkpt>
      <trkpt lat="44.30167" lon="3.2226">
        <ele>936.59997558594</ele>
        <time>2023-05-06T08:24:54Z</time>
      </trkpt>
      <trkpt lat="44.30181" lon="3.22275">
        <ele>936.59997558594</ele>
        <time>2023-05-06T08:24:56Z</time>
      </trkpt>
      <trkpt lat="44.30188" lon="3.22284">
        <ele>936.40002441406</ele>
        <time>2023-05-06T08:24:57Z</time>
      </trkpt>
      <trkpt lat="44.30193" lon="3.22295">
        <ele>936.40002441406</ele>
        <time>2023-05-06T08:24:58Z</time>
      </trkpt>
      <trkpt lat="44.30201" lon="3.22318">
        <ele>936</ele>
        <time>2023-05-06T08:25:00Z</time>
      </trkpt>
      <trkpt lat="44.30205" lon="3.22345">
        <ele>935.79998779297</ele>
        <time>2023-05-06T08:25:02Z</time>
      </trkpt>
      <trkpt lat="44.30205" lon="3.22359">
        <ele>935.79998779297</ele>
        <time>2023-05-06T08:25:03Z</time>
      </trkpt>
      <trkpt lat="44.30196" lon="3.22431">
        <ele>935</ele>
        <time>2023-05-06T08:25:08Z</time>
      </trkpt>
      <trkpt lat="44.3018" lon="3.22487">
        <ele>934.20001220703</ele>
        <time>2023-05-06T08:25:12Z</time>
      </trkpt>
      <trkpt lat="44.30176" lon="3.22517">
        <ele>933.79998779297</ele>
        <time>2023-05-06T08:25:14Z</time>
      </trkpt>
      <trkpt lat="44.30178" lon="3.22533">
        <ele>933.59997558594</ele>
        <time>2023-05-06T08:25:15Z</time>
      </trkpt>
      <trkpt lat="44.30195" lon="3.22609">
        <ele>932.59997558594</ele>
        <time>2023-05-06T08:25:20Z</time>
      </trkpt>
      <trkpt lat="44.30206" lon="3.22692">
        <ele>931.40002441406</ele>
        <time>2023-05-06T08:25:25Z</time>
      </trkpt>
      <trkpt lat="44.30213" lon="3.22779">
        <ele>929.79998779297</ele>
        <time>2023-05-06T08:25:30Z</time>
      </trkpt>
      <trkpt lat="44.30218" lon="3.2285">
        <ele>928.59997558594</ele>
        <time>2023-05-06T08:25:34Z</time>
      </trkpt>
      <trkpt lat="44.30233" lon="3.22918">
        <ele>927.20001220703</ele>
        <time>2023-05-06T08:25:38Z</time>
      </trkpt>
      <trkpt lat="44.30242" lon="3.22951">
        <ele>926.40002441406</ele>
        <time>2023-05-06T08:25:40Z</time>
      </trkpt>
      <trkpt lat="44.30249" lon="3.22966">
        <ele>926</ele>
        <time>2023-05-06T08:25:41Z</time>
      </trkpt>
      <trkpt lat="44.30258" lon="3.22978">
        <ele>925.59997558594</ele>
        <time>2023-05-06T08:25:42Z</time>
      </trkpt>
      <trkpt lat="44.30269" lon="3.22987">
        <ele>925.40002441406</ele>
        <time>2023-05-06T08:25:43Z</time>
      </trkpt>
      <trkpt lat="44.30281" lon="3.22994">
        <ele>924.79998779297</ele>
        <time>2023-05-06T08:25:44Z</time>
      </trkpt>
      <trkpt lat="44.30306" lon="3.22999">
        <ele>923.79998779297</ele>
        <time>2023-05-06T08:25:46Z</time>
      </trkpt>
      <trkpt lat="44.30357" lon="3.22991">
        <ele>922.20001220703</ele>
        <time>2023-05-06T08:25:50Z</time>
      </trkpt>
      <trkpt lat="44.30422" lon="3.22991">
        <ele>920</ele>
        <time>2023-05-06T08:25:55Z</time>
      </trkpt>
      <trkpt lat="44.3046" lon="3.22995">
        <ele>918.40002441406</ele>
        <time>2023-05-06T08:25:58Z</time>
      </trkpt>
      <trkpt lat="44.30473" lon="3.22993">
        <ele>918</ele>
        <time>2023-05-06T08:25:59Z</time>
      </trkpt>
      <trkpt lat="44.30485" lon="3.22988">
        <ele>917.59997558594</ele>
        <time>2023-05-06T08:26:00Z</time>
      </trkpt>
      <trkpt lat="44.30509" lon="3.22974">
        <ele>916.59997558594</ele>
        <time>2023-05-06T08:26:02Z</time>
      </trkpt>
      <trkpt lat="44.30545" lon="3.2296">
        <ele>915.40002441406</ele>
        <time>2023-05-06T08:26:05Z</time>
      </trkpt>
      <trkpt lat="44.30576" lon="3.22955">
        <ele>914.40002441406</ele>
        <time>2023-05-06T08:26:08Z</time>
      </trkpt>
      <trkpt lat="44.30584" lon="3.22956">
        <ele>914.20001220703</ele>
        <time>2023-05-06T08:26:09Z</time>
      </trkpt>
      <trkpt lat="44.30596" lon="3.22957">
        <ele>913.59997558594</ele>
        <time>2023-05-06T08:26:12Z</time>
      </trkpt>
      <trkpt lat="44.30606" lon="3.22962">
        <ele>912.59997558594</ele>
        <time>2023-05-06T08:26:17Z</time>
      </trkpt>
      <trkpt lat="44.30612" lon="3.22966">
        <ele>911.40002441406</ele>
        <time>2023-05-06T08:26:23Z</time>
      </trkpt>
      <trkpt lat="44.30614" lon="3.22966">
        <ele>909.79998779297</ele>
        <time>2023-05-06T08:26:30Z</time>
      </trkpt>
      <trkpt lat="44.30623" lon="3.22969">
        <ele>908.59997558594</ele>
        <time>2023-05-06T08:26:35Z</time>
      </trkpt>
      <trkpt lat="44.30634" lon="3.22972">
        <ele>907.20001220703</ele>
        <time>2023-05-06T08:26:41Z</time>
      </trkpt>
      <trkpt lat="44.30639" lon="3.22975">
        <ele>906</ele>
        <time>2023-05-06T08:26:47Z</time>
      </trkpt>
      <trkpt lat="44.30639" lon="3.22975">
        <ele>905</ele>
        <time>2023-05-06T08:26:54Z</time>
      </trkpt>
      <trkpt lat="44.30639" lon="3.22975">
        <ele>902.79998779297</ele>
        <time>2023-05-06T08:27:10Z</time>
      </trkpt>
      <trkpt lat="44.30639" lon="3.22975">
        <ele>901.20001220703</ele>
        <time>2023-05-06T08:27:24Z</time>
      </trkpt>
      <trkpt lat="44.30639" lon="3.22975">
        <ele>900</ele>
        <time>2023-05-06T08:27:38Z</time>
      </trkpt>
      <trkpt lat="44.30639" lon="3.22975">
        <ele>899</ele>
        <time>2023-05-06T08:27:49Z</time>
      </trkpt>
      <trkpt lat="44.30639" lon="3.22975">
        <ele>898.79998779297</ele>
        <time>2023-05-06T08:27:56Z</time>
      </trkpt>
      <trkpt lat="44.30641" lon="3.22975">
        <ele>898.59997558594</ele>
        <time>2023-05-06T08:28:01Z</time>
      </trkpt>
      <trkpt lat="44.30642" lon="3.22975">
        <ele>898.40002441406</ele>
        <time>2023-05-06T08:28:02Z</time>
      </trkpt>
      <trkpt lat="44.3065" lon="3.22979">
        <ele>898.40002441406</ele>
        <time>2023-05-06T08:28:06Z</time>
      </trkpt>
      <trkpt lat="44.30661" lon="3.22982">
        <ele>898</ele>
        <time>2023-05-06T08:28:11Z</time>
      </trkpt>
      <trkpt lat="44.30663" lon="3.22983">
        <ele>897.79998779297</ele>
        <time>2023-05-06T08:28:12Z</time>
      </trkpt>
      <trkpt lat="44.3067" lon="3.22987">
        <ele>897.59997558594</ele>
        <time>2023-05-06T08:28:18Z</time>
      </trkpt>
      <trkpt lat="44.3067" lon="3.22987">
        <ele>897</ele>
        <time>2023-05-06T08:28:31Z</time>
      </trkpt>
      <trkpt lat="44.30672" lon="3.22987">
        <ele>896.59997558594</ele>
        <time>2023-05-06T08:28:43Z</time>
      </trkpt>
      <trkpt lat="44.30682" lon="3.2299">
        <ele>896.40002441406</ele>
        <time>2023-05-06T08:28:48Z</time>
      </trkpt>
      <trkpt lat="44.3069" lon="3.22994">
        <ele>896.40002441406</ele>
        <time>2023-05-06T08:28:53Z</time>
      </trkpt>
      <trkpt lat="44.307" lon="3.22999">
        <ele>896.40002441406</ele>
        <time>2023-05-06T08:28:59Z</time>
      </trkpt>
      <trkpt lat="44.30704" lon="3.23001">
        <ele>896.40002441406</ele>
        <time>2023-05-06T08:29:01Z</time>
      </trkpt>
      <trkpt lat="44.30707" lon="3.23002">
        <ele>896.40002441406</ele>
        <time>2023-05-06T08:29:03Z</time>
      </trkpt>
      <trkpt lat="44.30715" lon="3.23006">
        <ele>896</ele>
        <time>2023-05-06T08:29:09Z</time>
      </trkpt>
      <trkpt lat="44.30717" lon="3.23008">
        <ele>896</ele>
        <time>2023-05-06T08:29:14Z</time>
      </trkpt>
      <trkpt lat="44.30717" lon="3.23008">
        <ele>895.79998779297</ele>
        <time>2023-05-06T08:29:29Z</time>
      </trkpt>
      <trkpt lat="44.30721" lon="3.23009">
        <ele>895.59997558594</ele>
        <time>2023-05-06T08:29:38Z</time>
      </trkpt>
      <trkpt lat="44.30726" lon="3.23012">
        <ele>895.59997558594</ele>
        <time>2023-05-06T08:29:42Z</time>
      </trkpt>
      <trkpt lat="44.30729" lon="3.23014">
        <ele>895.59997558594</ele>
        <time>2023-05-06T08:29:44Z</time>
      </trkpt>
      <trkpt lat="44.30733" lon="3.23016">
        <ele>895.59997558594</ele>
        <time>2023-05-06T08:29:46Z</time>
      </trkpt>
      <trkpt lat="44.30736" lon="3.23016">
        <ele>895.59997558594</ele>
        <time>2023-05-06T08:29:48Z</time>
      </trkpt>
      <trkpt lat="44.3074" lon="3.23018">
        <ele>895.59997558594</ele>
        <time>2023-05-06T08:29:50Z</time>
      </trkpt>
      <trkpt lat="44.30744" lon="3.23019">
        <ele>895.59997558594</ele>
        <time>2023-05-06T08:29:52Z</time>
      </trkpt>
      <trkpt lat="44.30748" lon="3.23021">
        <ele>895.59997558594</ele>
        <time>2023-05-06T08:29:54Z</time>
      </trkpt>
      <trkpt lat="44.30757" lon="3.23028">
        <ele>895.79998779297</ele>
        <time>2023-05-06T08:29:59Z</time>
      </trkpt>
      <trkpt lat="44.30762" lon="3.23029">
        <ele>896</ele>
        <time>2023-05-06T08:30:04Z</time>
      </trkpt>
      <trkpt lat="44.30766" lon="3.23031">
        <ele>896</ele>
        <time>2023-05-06T08:30:13Z</time>
      </trkpt>
      <trkpt lat="44.30771" lon="3.23033">
        <ele>896.20001220703</ele>
        <time>2023-05-06T08:30:17Z</time>
      </trkpt>
      <trkpt lat="44.30772" lon="3.23033">
        <ele>896.40002441406</ele>
        <time>2023-05-06T08:30:18Z</time>
      </trkpt>
      <trkpt lat="44.30777" lon="3.23033">
        <ele>896.40002441406</ele>
        <time>2023-05-06T08:30:20Z</time>
      </trkpt>
      <trkpt lat="44.3078" lon="3.23034">
        <ele>896.59997558594</ele>
        <time>2023-05-06T08:30:21Z</time>
      </trkpt>
      <trkpt lat="44.30798" lon="3.23052">
        <ele>896.59997558594</ele>
        <time>2023-05-06T08:30:27Z</time>
      </trkpt>
      <trkpt lat="44.30815" lon="3.23069">
        <ele>896.40002441406</ele>
        <time>2023-05-06T08:30:32Z</time>
      </trkpt>
      <trkpt lat="44.30828" lon="3.23082">
        <ele>896.40002441406</ele>
        <time>2023-05-06T08:30:36Z</time>
      </trkpt>
      <trkpt lat="44.30834" lon="3.23087">
        <ele>896.40002441406</ele>
        <time>2023-05-06T08:30:40Z</time>
      </trkpt>
      <trkpt lat="44.30836" lon="3.23091">
        <ele>896.20001220703</ele>
        <time>2023-05-06T08:30:42Z</time>
      </trkpt>
      <trkpt lat="44.30837" lon="3.23094">
        <ele>896.20001220703</ele>
        <time>2023-05-06T08:30:43Z</time>
      </trkpt>
      <trkpt lat="44.30843" lon="3.23106">
        <ele>896</ele>
        <time>2023-05-06T08:30:47Z</time>
      </trkpt>
      <trkpt lat="44.30845" lon="3.23109">
        <ele>896</ele>
        <time>2023-05-06T08:30:48Z</time>
      </trkpt>
      <trkpt lat="44.30856" lon="3.23134">
        <ele>896</ele>
        <time>2023-05-06T08:30:54Z</time>
      </trkpt>
      <trkpt lat="44.30865" lon="3.23151">
        <ele>896</ele>
        <time>2023-05-06T08:30:59Z</time>
      </trkpt>
      <trkpt lat="44.30872" lon="3.23163">
        <ele>895.79998779297</ele>
        <time>2023-05-06T08:31:03Z</time>
      </trkpt>
      <trkpt lat="44.30873" lon="3.23166">
        <ele>895.59997558594</ele>
        <time>2023-05-06T08:31:04Z</time>
      </trkpt>
      <trkpt lat="44.30884" lon="3.23181">
        <ele>895.20001220703</ele>
        <time>2023-05-06T08:31:09Z</time>
      </trkpt>
      <trkpt lat="44.30892" lon="3.23194">
        <ele>894.79998779297</ele>
        <time>2023-05-06T08:31:14Z</time>
      </trkpt>
      <trkpt lat="44.30902" lon="3.23206">
        <ele>894.59997558594</ele>
        <time>2023-05-06T08:31:19Z</time>
      </trkpt>
      <trkpt lat="44.30921" lon="3.23218">
        <ele>895.40002441406</ele>
        <time>2023-05-06T08:31:25Z</time>
      </trkpt>
      <trkpt lat="44.30941" lon="3.23228">
        <ele>896</ele>
        <time>2023-05-06T08:31:31Z</time>
      </trkpt>
      <trkpt lat="44.30963" lon="3.23247">
        <ele>896</ele>
        <time>2023-05-06T08:31:36Z</time>
      </trkpt>
      <trkpt lat="44.30967" lon="3.23251">
        <ele>896</ele>
        <time>2023-05-06T08:31:37Z</time>
      </trkpt>
      <trkpt lat="44.3098" lon="3.23268">
        <ele>896</ele>
        <time>2023-05-06T08:31:41Z</time>
      </trkpt>
      <trkpt lat="44.30987" lon="3.23279">
        <ele>896</ele>
        <time>2023-05-06T08:31:43Z</time>
      </trkpt>
      <trkpt lat="44.3099" lon="3.23284">
        <ele>895.79998779297</ele>
        <time>2023-05-06T08:31:44Z</time>
      </trkpt>
      <trkpt lat="44.31001" lon="3.23305">
        <ele>895.79998779297</ele>
        <time>2023-05-06T08:31:47Z</time>
      </trkpt>
      <trkpt lat="44.31009" lon="3.23322">
        <ele>895.59997558594</ele>
        <time>2023-05-06T08:31:49Z</time>
      </trkpt>
      <trkpt lat="44.31029" lon="3.2335">
        <ele>895.40002441406</ele>
        <time>2023-05-06T08:31:53Z</time>
      </trkpt>
      <trkpt lat="44.31059" lon="3.23398">
        <ele>894.79998779297</ele>
        <time>2023-05-06T08:31:59Z</time>
      </trkpt>
      <trkpt lat="44.31083" lon="3.23419">
        <ele>894.20001220703</ele>
        <time>2023-05-06T08:32:03Z</time>
      </trkpt>
      <trkpt lat="44.31088" lon="3.23423">
        <ele>894</ele>
        <time>2023-05-06T08:32:04Z</time>
      </trkpt>
      <trkpt lat="44.31096" lon="3.23436">
        <ele>893.59997558594</ele>
        <time>2023-05-06T08:32:06Z</time>
      </trkpt>
      <trkpt lat="44.3111" lon="3.23462">
        <ele>892.59997558594</ele>
        <time>2023-05-06T08:32:10Z</time>
      </trkpt>
      <trkpt lat="44.31118" lon="3.23475">
        <ele>892.20001220703</ele>
        <time>2023-05-06T08:32:12Z</time>
      </trkpt>
      <trkpt lat="44.31126" lon="3.23485">
        <ele>891.59997558594</ele>
        <time>2023-05-06T08:32:14Z</time>
      </trkpt>
      <trkpt lat="44.31132" lon="3.23495">
        <ele>891</ele>
        <time>2023-05-06T08:32:16Z</time>
      </trkpt>
      <trkpt lat="44.31135" lon="3.23506">
        <ele>890.59997558594</ele>
        <time>2023-05-06T08:32:18Z</time>
      </trkpt>
      <trkpt lat="44.31134" lon="3.23517">
        <ele>889.79998779297</ele>
        <time>2023-05-06T08:32:20Z</time>
      </trkpt>
      <trkpt lat="44.31135" lon="3.23528">
        <ele>889.20001220703</ele>
        <time>2023-05-06T08:32:22Z</time>
      </trkpt>
      <trkpt lat="44.31142" lon="3.23537">
        <ele>888.40002441406</ele>
        <time>2023-05-06T08:32:24Z</time>
      </trkpt>
      <trkpt lat="44.31147" lon="3.23543">
        <ele>888</ele>
        <time>2023-05-06T08:32:25Z</time>
      </trkpt>
      <trkpt lat="44.31159" lon="3.23563">
        <ele>886.20001220703</ele>
        <time>2023-05-06T08:32:29Z</time>
      </trkpt>
      <trkpt lat="44.31164" lon="3.23572">
        <ele>885.20001220703</ele>
        <time>2023-05-06T08:32:31Z</time>
      </trkpt>
      <trkpt lat="44.31168" lon="3.23583">
        <ele>884.40002441406</ele>
        <time>2023-05-06T08:32:33Z</time>
      </trkpt>
      <trkpt lat="44.31169" lon="3.23597">
        <ele>883.40002441406</ele>
        <time>2023-05-06T08:32:35Z</time>
      </trkpt>
      <trkpt lat="44.31168" lon="3.23606">
        <ele>882.79998779297</ele>
        <time>2023-05-06T08:32:36Z</time>
      </trkpt>
      <trkpt lat="44.31167" lon="3.23617">
        <ele>882.20001220703</ele>
        <time>2023-05-06T08:32:37Z</time>
      </trkpt>
      <trkpt lat="44.31166" lon="3.23644">
        <ele>881</ele>
        <time>2023-05-06T08:32:39Z</time>
      </trkpt>
      <trkpt lat="44.31164" lon="3.23722">
        <ele>878</ele>
        <time>2023-05-06T08:32:44Z</time>
      </trkpt>
      <trkpt lat="44.31171" lon="3.23806">
        <ele>875.20001220703</ele>
        <time>2023-05-06T08:32:49Z</time>
      </trkpt>
      <trkpt lat="44.31173" lon="3.23823">
        <ele>874.59997558594</ele>
        <time>2023-05-06T08:32:50Z</time>
      </trkpt>
      <trkpt lat="44.31184" lon="3.2391">
        <ele>871.40002441406</ele>
        <time>2023-05-06T08:32:55Z</time>
      </trkpt>
      <trkpt lat="44.31186" lon="3.23927">
        <ele>870.59997558594</ele>
        <time>2023-05-06T08:32:56Z</time>
      </trkpt>
      <trkpt lat="44.31194" lon="3.23971">
        <ele>868.40002441406</ele>
        <time>2023-05-06T08:32:59Z</time>
      </trkpt>
      <trkpt lat="44.312" lon="3.23983">
        <ele>867.79998779297</ele>
        <time>2023-05-06T08:33:00Z</time>
      </trkpt>
      <trkpt lat="44.3123" lon="3.24028">
        <ele>865.40002441406</ele>
        <time>2023-05-06T08:33:05Z</time>
      </trkpt>
      <trkpt lat="44.31248" lon="3.24059">
        <ele>863.79998779297</ele>
        <time>2023-05-06T08:33:09Z</time>
      </trkpt>
      <trkpt lat="44.31257" lon="3.24079">
        <ele>862.40002441406</ele>
        <time>2023-05-06T08:33:13Z</time>
      </trkpt>
      <trkpt lat="44.31258" lon="3.24082">
        <ele>862</ele>
        <time>2023-05-06T08:33:14Z</time>
      </trkpt>
      <trkpt lat="44.31263" lon="3.24086">
        <ele>861.20001220703</ele>
        <time>2023-05-06T08:33:17Z</time>
      </trkpt>
      <trkpt lat="44.31265" lon="3.24085">
        <ele>860.40002441406</ele>
        <time>2023-05-06T08:33:21Z</time>
      </trkpt>
      <trkpt lat="44.31261" lon="3.24084">
        <ele>858.40002441406</ele>
        <time>2023-05-06T08:33:26Z</time>
      </trkpt>
      <trkpt lat="44.3126" lon="3.24082">
        <ele>857.59997558594</ele>
        <time>2023-05-06T08:33:28Z</time>
      </trkpt>
      <trkpt lat="44.31261" lon="3.24079">
        <ele>857</ele>
        <time>2023-05-06T08:33:30Z</time>
      </trkpt>
      <trkpt lat="44.3126" lon="3.24076">
        <ele>856.59997558594</ele>
        <time>2023-05-06T08:33:32Z</time>
      </trkpt>
      <trkpt lat="44.31258" lon="3.24074">
        <ele>856.20001220703</ele>
        <time>2023-05-06T08:33:33Z</time>
      </trkpt>
      <trkpt lat="44.3125" lon="3.24058">
        <ele>855.20001220703</ele>
        <time>2023-05-06T08:33:37Z</time>
      </trkpt>
      <trkpt lat="44.31229" lon="3.24024">
        <ele>853.40002441406</ele>
        <time>2023-05-06T08:33:43Z</time>
      </trkpt>
      <trkpt lat="44.31198" lon="3.23977">
        <ele>850.79998779297</ele>
        <time>2023-05-06T08:33:52Z</time>
      </trkpt>
      <trkpt lat="44.31194" lon="3.23974">
        <ele>850.40002441406</ele>
        <time>2023-05-06T08:33:54Z</time>
      </trkpt>
      <trkpt lat="44.31192" lon="3.23976">
        <ele>850.20001220703</ele>
        <time>2023-05-06T08:33:55Z</time>
      </trkpt>
      <trkpt lat="44.31192" lon="3.23987">
        <ele>849.40002441406</ele>
        <time>2023-05-06T08:33:58Z</time>
      </trkpt>
      <trkpt lat="44.31187" lon="3.24012">
        <ele>847.79998779297</ele>
        <time>2023-05-06T08:34:04Z</time>
      </trkpt>
      <trkpt lat="44.3118" lon="3.2405">
        <ele>846</ele>
        <time>2023-05-06T08:34:13Z</time>
      </trkpt>
      <trkpt lat="44.31175" lon="3.24082">
        <ele>845</ele>
        <time>2023-05-06T08:34:21Z</time>
      </trkpt>
      <trkpt lat="44.31171" lon="3.24107">
        <ele>844.59997558594</ele>
        <time>2023-05-06T08:34:28Z</time>
      </trkpt>
      <trkpt lat="44.31165" lon="3.24133">
        <ele>844.40002441406</ele>
        <time>2023-05-06T08:34:35Z</time>
      </trkpt>
      <trkpt lat="44.31162" lon="3.24157">
        <ele>844.40002441406</ele>
        <time>2023-05-06T08:34:42Z</time>
      </trkpt>
      <trkpt lat="44.31159" lon="3.24173">
        <ele>844.59997558594</ele>
        <time>2023-05-06T08:34:48Z</time>
      </trkpt>
      <trkpt lat="44.31157" lon="3.24181">
        <ele>844.79998779297</ele>
        <time>2023-05-06T08:34:52Z</time>
      </trkpt>
      <trkpt lat="44.31156" lon="3.24185">
        <ele>845</ele>
        <time>2023-05-06T08:34:54Z</time>
      </trkpt>
      <trkpt lat="44.31154" lon="3.24195">
        <ele>845.20001220703</ele>
        <time>2023-05-06T08:35:01Z</time>
      </trkpt>
      <trkpt lat="44.31154" lon="3.24196">
        <ele>845.20001220703</ele>
        <time>2023-05-06T08:35:07Z</time>
      </trkpt>
      <trkpt lat="44.31154" lon="3.24196">
        <ele>845.40002441406</ele>
        <time>2023-05-06T08:35:19Z</time>
      </trkpt>
      <trkpt lat="44.31154" lon="3.24196">
        <ele>845.79998779297</ele>
        <time>2023-05-06T08:35:37Z</time>
      </trkpt>
      <trkpt lat="44.31154" lon="3.24196">
        <ele>846</ele>
        <time>2023-05-06T08:35:57Z</time>
      </trkpt>
      <trkpt lat="44.31154" lon="3.24196">
        <ele>846.20001220703</ele>
        <time>2023-05-06T08:36:13Z</time>
      </trkpt>
      <trkpt lat="44.31154" lon="3.24196">
        <ele>846.40002441406</ele>
        <time>2023-05-06T08:36:27Z</time>
      </trkpt>
      <trkpt lat="44.31154" lon="3.24196">
        <ele>846.40002441406</ele>
        <time>2023-05-06T08:36:40Z</time>
      </trkpt>
      <trkpt lat="44.31154" lon="3.24196">
        <ele>846.59997558594</ele>
        <time>2023-05-06T08:36:55Z</time>
      </trkpt>
      <trkpt lat="44.31154" lon="3.24196">
        <ele>846.59997558594</ele>
        <time>2023-05-06T08:37:11Z</time>
      </trkpt>
      <trkpt lat="44.31154" lon="3.24196">
        <ele>846.59997558594</ele>
        <time>2023-05-06T08:37:20Z</time>
      </trkpt>
      <trkpt lat="44.31154" lon="3.24196">
        <ele>846.79998779297</ele>
        <time>2023-05-06T08:37:30Z</time>
      </trkpt>
      <trkpt lat="44.31155" lon="3.24196">
        <ele>846.79998779297</ele>
        <time>2023-05-06T08:37:40Z</time>
      </trkpt>
      <trkpt lat="44.31155" lon="3.24194">
        <ele>847</ele>
        <time>2023-05-06T08:37:43Z</time>
      </trkpt>
      <trkpt lat="44.31155" lon="3.24193">
        <ele>847.20001220703</ele>
        <time>2023-05-06T08:37:49Z</time>
      </trkpt>
      <trkpt lat="44.31155" lon="3.24193">
        <ele>847.20001220703</ele>
        <time>2023-05-06T08:37:55Z</time>
      </trkpt>
      <trkpt lat="44.31155" lon="3.24192">
        <ele>847.20001220703</ele>
        <time>2023-05-06T08:37:56Z</time>
      </trkpt>
      <trkpt lat="44.31156" lon="3.24189">
        <ele>847.40002441406</ele>
        <time>2023-05-06T08:37:58Z</time>
      </trkpt>
      <trkpt lat="44.3116" lon="3.24184">
        <ele>847.20001220703</ele>
        <time>2023-05-06T08:38:00Z</time>
      </trkpt>
      <trkpt lat="44.3116" lon="3.2418">
        <ele>847.20001220703</ele>
        <time>2023-05-06T08:38:01Z</time>
      </trkpt>
      <trkpt lat="44.31161" lon="3.24175">
        <ele>847</ele>
        <time>2023-05-06T08:38:03Z</time>
      </trkpt>
      <trkpt lat="44.31164" lon="3.24163">
        <ele>846.79998779297</ele>
        <time>2023-05-06T08:38:06Z</time>
      </trkpt>
      <trkpt lat="44.31165" lon="3.24156">
        <ele>846.79998779297</ele>
        <time>2023-05-06T08:38:07Z</time>
      </trkpt>
      <trkpt lat="44.31172" lon="3.24121">
        <ele>846.40002441406</ele>
        <time>2023-05-06T08:38:11Z</time>
      </trkpt>
      <trkpt lat="44.31182" lon="3.24071">
        <ele>845.40002441406</ele>
        <time>2023-05-06T08:38:15Z</time>
      </trkpt>
      <trkpt lat="44.31192" lon="3.23999">
        <ele>844</ele>
        <time>2023-05-06T08:38:20Z</time>
      </trkpt>
      <trkpt lat="44.31194" lon="3.23985">
        <ele>843.59997558594</ele>
        <time>2023-05-06T08:38:22Z</time>
      </trkpt>
      <trkpt lat="44.31196" lon="3.23983">
        <ele>843.59997558594</ele>
        <time>2023-05-06T08:38:23Z</time>
      </trkpt>
      <trkpt lat="44.31202" lon="3.23985">
        <ele>843.40002441406</ele>
        <time>2023-05-06T08:38:25Z</time>
      </trkpt>
      <trkpt lat="44.31209" lon="3.24">
        <ele>843</ele>
        <time>2023-05-06T08:38:28Z</time>
      </trkpt>
      <trkpt lat="44.31215" lon="3.24009">
        <ele>842.59997558594</ele>
        <time>2023-05-06T08:38:30Z</time>
      </trkpt>
      <trkpt lat="44.31235" lon="3.24043">
        <ele>841.59997558594</ele>
        <time>2023-05-06T08:38:38Z</time>
      </trkpt>
      <trkpt lat="44.31249" lon="3.24068">
        <ele>840.59997558594</ele>
        <time>2023-05-06T08:38:44Z</time>
      </trkpt>
      <trkpt lat="44.31264" lon="3.24092">
        <ele>840.20001220703</ele>
        <time>2023-05-06T08:38:51Z</time>
      </trkpt>
      <trkpt lat="44.3128" lon="3.2411">
        <ele>840</ele>
        <time>2023-05-06T08:38:58Z</time>
      </trkpt>
      <trkpt lat="44.31297" lon="3.24124">
        <ele>840</ele>
        <time>2023-05-06T08:39:04Z</time>
      </trkpt>
      <trkpt lat="44.31313" lon="3.24145">
        <ele>840</ele>
        <time>2023-05-06T08:39:11Z</time>
      </trkpt>
      <trkpt lat="44.31324" lon="3.24164">
        <ele>840.20001220703</ele>
        <time>2023-05-06T08:39:17Z</time>
      </trkpt>
      <trkpt lat="44.31331" lon="3.24176">
        <ele>840.40002441406</ele>
        <time>2023-05-06T08:39:21Z</time>
      </trkpt>
      <trkpt lat="44.31347" lon="3.24201">
        <ele>841.20001220703</ele>
        <time>2023-05-06T08:39:29Z</time>
      </trkpt>
      <trkpt lat="44.31359" lon="3.2422">
        <ele>841.79998779297</ele>
        <time>2023-05-06T08:39:35Z</time>
      </trkpt>
      <trkpt lat="44.31369" lon="3.24238">
        <ele>842.20001220703</ele>
        <time>2023-05-06T08:39:41Z</time>
      </trkpt>
      <trkpt lat="44.31382" lon="3.24263">
        <ele>842.79998779297</ele>
        <time>2023-05-06T08:39:49Z</time>
      </trkpt>
      <trkpt lat="44.31401" lon="3.24284">
        <ele>843.40002441406</ele>
        <time>2023-05-06T08:39:57Z</time>
      </trkpt>
      <trkpt lat="44.31413" lon="3.24299">
        <ele>843.79998779297</ele>
        <time>2023-05-06T08:40:02Z</time>
      </trkpt>
      <trkpt lat="44.31428" lon="3.2432">
        <ele>844.40002441406</ele>
        <time>2023-05-06T08:40:09Z</time>
      </trkpt>
      <trkpt lat="44.31438" lon="3.24331">
        <ele>844.79998779297</ele>
        <time>2023-05-06T08:40:13Z</time>
      </trkpt>
      <trkpt lat="44.3145" lon="3.24347">
        <ele>845.40002441406</ele>
        <time>2023-05-06T08:40:18Z</time>
      </trkpt>
      <trkpt lat="44.31467" lon="3.2437">
        <ele>846.40002441406</ele>
        <time>2023-05-06T08:40:25Z</time>
      </trkpt>
      <trkpt lat="44.3148" lon="3.24386">
        <ele>847</ele>
        <time>2023-05-06T08:40:30Z</time>
      </trkpt>
      <trkpt lat="44.31492" lon="3.24401">
        <ele>847.40002441406</ele>
        <time>2023-05-06T08:40:35Z</time>
      </trkpt>
      <trkpt lat="44.31505" lon="3.24419">
        <ele>848</ele>
        <time>2023-05-06T08:40:41Z</time>
      </trkpt>
      <trkpt lat="44.31521" lon="3.24438">
        <ele>848.59997558594</ele>
        <time>2023-05-06T08:40:47Z</time>
      </trkpt>
      <trkpt lat="44.31545" lon="3.24462">
        <ele>849.20001220703</ele>
        <time>2023-05-06T08:40:54Z</time>
      </trkpt>
      <trkpt lat="44.31562" lon="3.24478">
        <ele>849.40002441406</ele>
        <time>2023-05-06T08:40:58Z</time>
      </trkpt>
      <trkpt lat="44.31569" lon="3.24488">
        <ele>849.40002441406</ele>
        <time>2023-05-06T08:41:00Z</time>
      </trkpt>
      <trkpt lat="44.31572" lon="3.24494">
        <ele>849.59997558594</ele>
        <time>2023-05-06T08:41:01Z</time>
      </trkpt>
      <trkpt lat="44.31578" lon="3.24512">
        <ele>849.59997558594</ele>
        <time>2023-05-06T08:41:04Z</time>
      </trkpt>
      <trkpt lat="44.31588" lon="3.24555">
        <ele>850</ele>
        <time>2023-05-06T08:41:11Z</time>
      </trkpt>
      <trkpt lat="44.31597" lon="3.24598">
        <ele>850.79998779297</ele>
        <time>2023-05-06T08:41:18Z</time>
      </trkpt>
      <trkpt lat="44.31598" lon="3.24604">
        <ele>850.79998779297</ele>
        <time>2023-05-06T08:41:19Z</time>
      </trkpt>
      <trkpt lat="44.31601" lon="3.24625">
        <ele>851</ele>
        <time>2023-05-06T08:41:22Z</time>
      </trkpt>
      <trkpt lat="44.31607" lon="3.24639">
        <ele>851</ele>
        <time>2023-05-06T08:41:24Z</time>
      </trkpt>
      <trkpt lat="44.31631" lon="3.24673">
        <ele>851.20001220703</ele>
        <time>2023-05-06T08:41:29Z</time>
      </trkpt>
      <trkpt lat="44.31643" lon="3.24694">
        <ele>851.40002441406</ele>
        <time>2023-05-06T08:41:33Z</time>
      </trkpt>
      <trkpt lat="44.31648" lon="3.24704">
        <ele>851.59997558594</ele>
        <time>2023-05-06T08:41:35Z</time>
      </trkpt>
      <trkpt lat="44.31653" lon="3.2472">
        <ele>851.79998779297</ele>
        <time>2023-05-06T08:41:38Z</time>
      </trkpt>
      <trkpt lat="44.3166" lon="3.24756">
        <ele>852.40002441406</ele>
        <time>2023-05-06T08:41:45Z</time>
      </trkpt>
      <trkpt lat="44.31665" lon="3.24791">
        <ele>853</ele>
        <time>2023-05-06T08:41:52Z</time>
      </trkpt>
      <trkpt lat="44.31673" lon="3.24814">
        <ele>853.40002441406</ele>
        <time>2023-05-06T08:41:58Z</time>
      </trkpt>
      <trkpt lat="44.31673" lon="3.2482">
        <ele>853.59997558594</ele>
        <time>2023-05-06T08:42:00Z</time>
      </trkpt>
      <trkpt lat="44.31673" lon="3.24823">
        <ele>854</ele>
        <time>2023-05-06T08:42:02Z</time>
      </trkpt>
      <trkpt lat="44.31673" lon="3.24824">
        <ele>854</ele>
        <time>2023-05-06T08:42:03Z</time>
      </trkpt>
      <trkpt lat="44.3168" lon="3.24826">
        <ele>854.40002441406</ele>
        <time>2023-05-06T08:42:06Z</time>
      </trkpt>
      <trkpt lat="44.31689" lon="3.2484">
        <ele>854.79998779297</ele>
        <time>2023-05-06T08:42:11Z</time>
      </trkpt>
      <trkpt lat="44.31705" lon="3.24861">
        <ele>855.79998779297</ele>
        <time>2023-05-06T08:42:18Z</time>
      </trkpt>
      <trkpt lat="44.31726" lon="3.24883">
        <ele>856.40002441406</ele>
        <time>2023-05-06T08:42:25Z</time>
      </trkpt>
      <trkpt lat="44.31743" lon="3.24896">
        <ele>857</ele>
        <time>2023-05-06T08:42:30Z</time>
      </trkpt>
      <trkpt lat="44.31769" lon="3.24912">
        <ele>857.40002441406</ele>
        <time>2023-05-06T08:42:36Z</time>
      </trkpt>
      <trkpt lat="44.31778" lon="3.2493">
        <ele>857.59997558594</ele>
        <time>2023-05-06T08:42:40Z</time>
      </trkpt>
      <trkpt lat="44.31784" lon="3.24942">
        <ele>858.20001220703</ele>
        <time>2023-05-06T08:42:44Z</time>
      </trkpt>
      <trkpt lat="44.31783" lon="3.24945">
        <ele>858.20001220703</ele>
        <time>2023-05-06T08:42:45Z</time>
      </trkpt>
      <trkpt lat="44.31776" lon="3.2496">
        <ele>858.79998779297</ele>
        <time>2023-05-06T08:42:50Z</time>
      </trkpt>
      <trkpt lat="44.31777" lon="3.24977">
        <ele>859.40002441406</ele>
        <time>2023-05-06T08:42:55Z</time>
      </trkpt>
      <trkpt lat="44.31776" lon="3.24981">
        <ele>859.40002441406</ele>
        <time>2023-05-06T08:42:56Z</time>
      </trkpt>
      <trkpt lat="44.31779" lon="3.25">
        <ele>859.79998779297</ele>
        <time>2023-05-06T08:43:01Z</time>
      </trkpt>
      <trkpt lat="44.31779" lon="3.25003">
        <ele>860</ele>
        <time>2023-05-06T08:43:02Z</time>
      </trkpt>
      <trkpt lat="44.31778" lon="3.25009">
        <ele>860.20001220703</ele>
        <time>2023-05-06T08:43:04Z</time>
      </trkpt>
      <trkpt lat="44.31775" lon="3.25013">
        <ele>860.20001220703</ele>
        <time>2023-05-06T08:43:06Z</time>
      </trkpt>
      <trkpt lat="44.31767" lon="3.25015">
        <ele>860.59997558594</ele>
        <time>2023-05-06T08:43:09Z</time>
      </trkpt>
      <trkpt lat="44.31755" lon="3.25019">
        <ele>861</ele>
        <time>2023-05-06T08:43:14Z</time>
      </trkpt>
      <trkpt lat="44.31744" lon="3.25031">
        <ele>861.40002441406</ele>
        <time>2023-05-06T08:43:20Z</time>
      </trkpt>
      <trkpt lat="44.31734" lon="3.25043">
        <ele>862</ele>
        <time>2023-05-06T08:43:25Z</time>
      </trkpt>
      <trkpt lat="44.31723" lon="3.25058">
        <ele>862.59997558594</ele>
        <time>2023-05-06T08:43:32Z</time>
      </trkpt>
      <trkpt lat="44.31715" lon="3.25072">
        <ele>863.40002441406</ele>
        <time>2023-05-06T08:43:39Z</time>
      </trkpt>
      <trkpt lat="44.31706" lon="3.25086">
        <ele>864.40002441406</ele>
        <time>2023-05-06T08:43:46Z</time>
      </trkpt>
      <trkpt lat="44.31699" lon="3.25094">
        <ele>865.20001220703</ele>
        <time>2023-05-06T08:43:51Z</time>
      </trkpt>
      <trkpt lat="44.31692" lon="3.25104">
        <ele>866</ele>
        <time>2023-05-06T08:43:57Z</time>
      </trkpt>
      <trkpt lat="44.31683" lon="3.25115">
        <ele>867</ele>
        <time>2023-05-06T08:44:04Z</time>
      </trkpt>
      <trkpt lat="44.31677" lon="3.25127">
        <ele>868</ele>
        <time>2023-05-06T08:44:11Z</time>
      </trkpt>
      <trkpt lat="44.31675" lon="3.25133">
        <ele>868.59997558594</ele>
        <time>2023-05-06T08:44:14Z</time>
      </trkpt>
      <trkpt lat="44.31673" lon="3.25138">
        <ele>869</ele>
        <time>2023-05-06T08:44:16Z</time>
      </trkpt>
      <trkpt lat="44.31669" lon="3.25149">
        <ele>870.20001220703</ele>
        <time>2023-05-06T08:44:23Z</time>
      </trkpt>
      <trkpt lat="44.31666" lon="3.25161">
        <ele>871.59997558594</ele>
        <time>2023-05-06T08:44:30Z</time>
      </trkpt>
      <trkpt lat="44.31663" lon="3.25172">
        <ele>872.79998779297</ele>
        <time>2023-05-06T08:44:37Z</time>
      </trkpt>
      <trkpt lat="44.31659" lon="3.25181">
        <ele>874</ele>
        <time>2023-05-06T08:44:43Z</time>
      </trkpt>
      <trkpt lat="44.31657" lon="3.25187">
        <ele>874.79998779297</ele>
        <time>2023-05-06T08:44:48Z</time>
      </trkpt>
      <trkpt lat="44.31656" lon="3.25188">
        <ele>875</ele>
        <time>2023-05-06T08:44:49Z</time>
      </trkpt>
      <trkpt lat="44.31653" lon="3.25188">
        <ele>875.79998779297</ele>
        <time>2023-05-06T08:44:53Z</time>
      </trkpt>
      <trkpt lat="44.31651" lon="3.2519">
        <ele>876.20001220703</ele>
        <time>2023-05-06T08:44:56Z</time>
      </trkpt>
      <trkpt lat="44.31652" lon="3.25191">
        <ele>876.40002441406</ele>
        <time>2023-05-06T08:44:57Z</time>
      </trkpt>
      <trkpt lat="44.3165" lon="3.25191">
        <ele>877</ele>
        <time>2023-05-06T08:45:03Z</time>
      </trkpt>
      <trkpt lat="44.3165" lon="3.25191">
        <ele>878.20001220703</ele>
        <time>2023-05-06T08:45:12Z</time>
      </trkpt>
      <trkpt lat="44.3165" lon="3.25191">
        <ele>879.59997558594</ele>
        <time>2023-05-06T08:45:24Z</time>
      </trkpt>
      <trkpt lat="44.3165" lon="3.2519">
        <ele>880.20001220703</ele>
        <time>2023-05-06T08:45:28Z</time>
      </trkpt>
      <trkpt lat="44.3165" lon="3.2519">
        <ele>881</ele>
        <time>2023-05-06T08:45:36Z</time>
      </trkpt>
      <trkpt lat="44.31651" lon="3.25189">
        <ele>881.59997558594</ele>
        <time>2023-05-06T08:45:42Z</time>
      </trkpt>
      <trkpt lat="44.31651" lon="3.25189">
        <ele>882.79998779297</ele>
        <time>2023-05-06T08:45:55Z</time>
      </trkpt>
      <trkpt lat="44.31651" lon="3.25189">
        <ele>883.79998779297</ele>
        <time>2023-05-06T08:46:09Z</time>
      </trkpt>
      <trkpt lat="44.3165" lon="3.2519">
        <ele>885</ele>
        <time>2023-05-06T08:46:27Z</time>
      </trkpt>
      <trkpt lat="44.31653" lon="3.25191">
        <ele>885.79998779297</ele>
        <time>2023-05-06T08:46:40Z</time>
      </trkpt>
      <trkpt lat="44.31656" lon="3.25203">
        <ele>886</ele>
        <time>2023-05-06T08:46:45Z</time>
      </trkpt>
      <trkpt lat="44.31655" lon="3.25213">
        <ele>886.20001220703</ele>
        <time>2023-05-06T08:46:49Z</time>
      </trkpt>
      <trkpt lat="44.31655" lon="3.25216">
        <ele>886.40002441406</ele>
        <time>2023-05-06T08:46:50Z</time>
      </trkpt>
      <trkpt lat="44.31653" lon="3.25234">
        <ele>887</ele>
        <time>2023-05-06T08:46:57Z</time>
      </trkpt>
      <trkpt lat="44.31651" lon="3.25248">
        <ele>887.59997558594</ele>
        <time>2023-05-06T08:47:03Z</time>
      </trkpt>
      <trkpt lat="44.31649" lon="3.25254">
        <ele>888</ele>
        <time>2023-05-06T08:47:06Z</time>
      </trkpt>
      <trkpt lat="44.31648" lon="3.25258">
        <ele>888</ele>
        <time>2023-05-06T08:47:08Z</time>
      </trkpt>
      <trkpt lat="44.31648" lon="3.25262">
        <ele>888.20001220703</ele>
        <time>2023-05-06T08:47:10Z</time>
      </trkpt>
      <trkpt lat="44.31646" lon="3.25268">
        <ele>888.59997558594</ele>
        <time>2023-05-06T08:47:13Z</time>
      </trkpt>
      <trkpt lat="44.31645" lon="3.25273">
        <ele>888.79998779297</ele>
        <time>2023-05-06T08:47:15Z</time>
      </trkpt>
      <trkpt lat="44.31643" lon="3.25281">
        <ele>889.20001220703</ele>
        <time>2023-05-06T08:47:19Z</time>
      </trkpt>
      <trkpt lat="44.31639" lon="3.25294">
        <ele>890.20001220703</ele>
        <time>2023-05-06T08:47:25Z</time>
      </trkpt>
      <trkpt lat="44.31633" lon="3.2531">
        <ele>891.40002441406</ele>
        <time>2023-05-06T08:47:33Z</time>
      </trkpt>
      <trkpt lat="44.31629" lon="3.25322">
        <ele>892.40002441406</ele>
        <time>2023-05-06T08:47:39Z</time>
      </trkpt>
      <trkpt lat="44.31628" lon="3.25329">
        <ele>892.79998779297</ele>
        <time>2023-05-06T08:47:42Z</time>
      </trkpt>
      <trkpt lat="44.31627" lon="3.25337">
        <ele>893.40002441406</ele>
        <time>2023-05-06T08:47:45Z</time>
      </trkpt>
      <trkpt lat="44.31628" lon="3.25342">
        <ele>893.79998779297</ele>
        <time>2023-05-06T08:47:47Z</time>
      </trkpt>
      <trkpt lat="44.31632" lon="3.25346">
        <ele>894</ele>
        <time>2023-05-06T08:47:49Z</time>
      </trkpt>
      <trkpt lat="44.31632" lon="3.25351">
        <ele>894.40002441406</ele>
        <time>2023-05-06T08:47:51Z</time>
      </trkpt>
      <trkpt lat="44.31631" lon="3.25353">
        <ele>894.40002441406</ele>
        <time>2023-05-06T08:47:52Z</time>
      </trkpt>
      <trkpt lat="44.31631" lon="3.25355">
        <ele>894.59997558594</ele>
        <time>2023-05-06T08:47:53Z</time>
      </trkpt>
      <trkpt lat="44.3163" lon="3.25364">
        <ele>895</ele>
        <time>2023-05-06T08:47:56Z</time>
      </trkpt>
      <trkpt lat="44.31631" lon="3.25366">
        <ele>895.20001220703</ele>
        <time>2023-05-06T08:47:57Z</time>
      </trkpt>
      <trkpt lat="44.31628" lon="3.25373">
        <ele>895.59997558594</ele>
        <time>2023-05-06T08:47:59Z</time>
      </trkpt>
      <trkpt lat="44.3163" lon="3.25387">
        <ele>896.40002441406</ele>
        <time>2023-05-06T08:48:03Z</time>
      </trkpt>
      <trkpt lat="44.31624" lon="3.25405">
        <ele>897.20001220703</ele>
        <time>2023-05-06T08:48:08Z</time>
      </trkpt>
      <trkpt lat="44.31623" lon="3.25408">
        <ele>897.40002441406</ele>
        <time>2023-05-06T08:48:09Z</time>
      </trkpt>
      <trkpt lat="44.3162" lon="3.25418">
        <ele>897.79998779297</ele>
        <time>2023-05-06T08:48:12Z</time>
      </trkpt>
      <trkpt lat="44.31617" lon="3.25434">
        <ele>898.40002441406</ele>
        <time>2023-05-06T08:48:17Z</time>
      </trkpt>
      <trkpt lat="44.31616" lon="3.25436">
        <ele>898.59997558594</ele>
        <time>2023-05-06T08:48:18Z</time>
      </trkpt>
      <trkpt lat="44.31614" lon="3.25441">
        <ele>898.79998779297</ele>
        <time>2023-05-06T08:48:20Z</time>
      </trkpt>
      <trkpt lat="44.31614" lon="3.25444">
        <ele>899</ele>
        <time>2023-05-06T08:48:22Z</time>
      </trkpt>
      <trkpt lat="44.31613" lon="3.25448">
        <ele>899.40002441406</ele>
        <time>2023-05-06T08:48:24Z</time>
      </trkpt>
      <trkpt lat="44.31612" lon="3.25451">
        <ele>899.59997558594</ele>
        <time>2023-05-06T08:48:26Z</time>
      </trkpt>
      <trkpt lat="44.31611" lon="3.25453">
        <ele>899.59997558594</ele>
        <time>2023-05-06T08:48:27Z</time>
      </trkpt>
      <trkpt lat="44.31609" lon="3.25457">
        <ele>899.79998779297</ele>
        <time>2023-05-06T08:48:29Z</time>
      </trkpt>
      <trkpt lat="44.31607" lon="3.25458">
        <ele>900</ele>
        <time>2023-05-06T08:48:30Z</time>
      </trkpt>
      <trkpt lat="44.31605" lon="3.25462">
        <ele>900.20001220703</ele>
        <time>2023-05-06T08:48:33Z</time>
      </trkpt>
      <trkpt lat="44.31604" lon="3.25465">
        <ele>900.40002441406</ele>
        <time>2023-05-06T08:48:34Z</time>
      </trkpt>
      <trkpt lat="44.31601" lon="3.25469">
        <ele>900.79998779297</ele>
        <time>2023-05-06T08:48:37Z</time>
      </trkpt>
      <trkpt lat="44.316" lon="3.2547">
        <ele>900.79998779297</ele>
        <time>2023-05-06T08:48:38Z</time>
      </trkpt>
      <trkpt lat="44.31599" lon="3.25475">
        <ele>901.20001220703</ele>
        <time>2023-05-06T08:48:40Z</time>
      </trkpt>
      <trkpt lat="44.31598" lon="3.25479">
        <ele>901.59997558594</ele>
        <time>2023-05-06T08:48:42Z</time>
      </trkpt>
      <trkpt lat="44.31599" lon="3.2548">
        <ele>901.59997558594</ele>
        <time>2023-05-06T08:48:43Z</time>
      </trkpt>
      <trkpt lat="44.31595" lon="3.25486">
        <ele>902</ele>
        <time>2023-05-06T08:48:46Z</time>
      </trkpt>
      <trkpt lat="44.31594" lon="3.25488">
        <ele>902.20001220703</ele>
        <time>2023-05-06T08:48:47Z</time>
      </trkpt>
      <trkpt lat="44.3159" lon="3.255">
        <ele>902.79998779297</ele>
        <time>2023-05-06T08:48:51Z</time>
      </trkpt>
      <trkpt lat="44.3159" lon="3.25503">
        <ele>902.79998779297</ele>
        <time>2023-05-06T08:48:52Z</time>
      </trkpt>
      <trkpt lat="44.31591" lon="3.25506">
        <ele>903</ele>
        <time>2023-05-06T08:48:53Z</time>
      </trkpt>
      <trkpt lat="44.31587" lon="3.25512">
        <ele>903.20001220703</ele>
        <time>2023-05-06T08:48:55Z</time>
      </trkpt>
      <trkpt lat="44.31584" lon="3.25522">
        <ele>903.59997558594</ele>
        <time>2023-05-06T08:48:58Z</time>
      </trkpt>
      <trkpt lat="44.31582" lon="3.25526">
        <ele>903.59997558594</ele>
        <time>2023-05-06T08:48:59Z</time>
      </trkpt>
      <trkpt lat="44.31578" lon="3.25543">
        <ele>904.20001220703</ele>
        <time>2023-05-06T08:49:04Z</time>
      </trkpt>
      <trkpt lat="44.31574" lon="3.25554">
        <ele>904.79998779297</ele>
        <time>2023-05-06T08:49:07Z</time>
      </trkpt>
      <trkpt lat="44.31573" lon="3.2556">
        <ele>905</ele>
        <time>2023-05-06T08:49:09Z</time>
      </trkpt>
      <trkpt lat="44.31571" lon="3.25568">
        <ele>905.20001220703</ele>
        <time>2023-05-06T08:49:11Z</time>
      </trkpt>
      <trkpt lat="44.31569" lon="3.25576">
        <ele>905.20001220703</ele>
        <time>2023-05-06T08:49:13Z</time>
      </trkpt>
      <trkpt lat="44.31559" lon="3.25596">
        <ele>905.40002441406</ele>
        <time>2023-05-06T08:49:17Z</time>
      </trkpt>
      <trkpt lat="44.31551" lon="3.25622">
        <ele>905.40002441406</ele>
        <time>2023-05-06T08:49:22Z</time>
      </trkpt>
      <trkpt lat="44.31547" lon="3.25641">
        <ele>905.40002441406</ele>
        <time>2023-05-06T08:49:25Z</time>
      </trkpt>
      <trkpt lat="44.31544" lon="3.25647">
        <ele>905.59997558594</ele>
        <time>2023-05-06T08:49:26Z</time>
      </trkpt>
      <trkpt lat="44.31533" lon="3.25677">
        <ele>906</ele>
        <time>2023-05-06T08:49:31Z</time>
      </trkpt>
      <trkpt lat="44.31528" lon="3.25689">
        <ele>906.20001220703</ele>
        <time>2023-05-06T08:49:33Z</time>
      </trkpt>
      <trkpt lat="44.3152" lon="3.25708">
        <ele>906.40002441406</ele>
        <time>2023-05-06T08:49:36Z</time>
      </trkpt>
      <trkpt lat="44.31517" lon="3.25722">
        <ele>906.59997558594</ele>
        <time>2023-05-06T08:49:38Z</time>
      </trkpt>
      <trkpt lat="44.3151" lon="3.25737">
        <ele>906.59997558594</ele>
        <time>2023-05-06T08:49:40Z</time>
      </trkpt>
      <trkpt lat="44.31502" lon="3.25752">
        <ele>906.59997558594</ele>
        <time>2023-05-06T08:49:42Z</time>
      </trkpt>
      <trkpt lat="44.31496" lon="3.25766">
        <ele>906.40002441406</ele>
        <time>2023-05-06T08:49:44Z</time>
      </trkpt>
      <trkpt lat="44.31495" lon="3.25772">
        <ele>906.40002441406</ele>
        <time>2023-05-06T08:49:45Z</time>
      </trkpt>
      <trkpt lat="44.315" lon="3.25786">
        <ele>906</ele>
        <time>2023-05-06T08:49:48Z</time>
      </trkpt>
      <trkpt lat="44.31515" lon="3.25807">
        <ele>905.59997558594</ele>
        <time>2023-05-06T08:49:51Z</time>
      </trkpt>
      <trkpt lat="44.31544" lon="3.25856">
        <ele>905.40002441406</ele>
        <time>2023-05-06T08:49:56Z</time>
      </trkpt>
      <trkpt lat="44.31568" lon="3.259">
        <ele>905.79998779297</ele>
        <time>2023-05-06T08:50:01Z</time>
      </trkpt>
      <trkpt lat="44.31595" lon="3.25929">
        <ele>906.20001220703</ele>
        <time>2023-05-06T08:50:06Z</time>
      </trkpt>
      <trkpt lat="44.31601" lon="3.25934">
        <ele>906.20001220703</ele>
        <time>2023-05-06T08:50:07Z</time>
      </trkpt>
      <trkpt lat="44.31617" lon="3.25944">
        <ele>906.40002441406</ele>
        <time>2023-05-06T08:50:10Z</time>
      </trkpt>
      <trkpt lat="44.31625" lon="3.25958">
        <ele>906.40002441406</ele>
        <time>2023-05-06T08:50:12Z</time>
      </trkpt>
      <trkpt lat="44.31628" lon="3.25967">
        <ele>906.40002441406</ele>
        <time>2023-05-06T08:50:13Z</time>
      </trkpt>
      <trkpt lat="44.31651" lon="3.26017">
        <ele>905.79998779297</ele>
        <time>2023-05-06T08:50:18Z</time>
      </trkpt>
      <trkpt lat="44.31657" lon="3.26028">
        <ele>905.59997558594</ele>
        <time>2023-05-06T08:50:19Z</time>
      </trkpt>
      <trkpt lat="44.31667" lon="3.26054">
        <ele>905</ele>
        <time>2023-05-06T08:50:21Z</time>
      </trkpt>
      <trkpt lat="44.3167" lon="3.26069">
        <ele>904.59997558594</ele>
        <time>2023-05-06T08:50:22Z</time>
      </trkpt>
      <trkpt lat="44.31672" lon="3.26084">
        <ele>904.20001220703</ele>
        <time>2023-05-06T08:50:23Z</time>
      </trkpt>
      <trkpt lat="44.31672" lon="3.26114">
        <ele>903.59997558594</ele>
        <time>2023-05-06T08:50:25Z</time>
      </trkpt>
      <trkpt lat="44.31662" lon="3.26191">
        <ele>901.40002441406</ele>
        <time>2023-05-06T08:50:30Z</time>
      </trkpt>
      <trkpt lat="44.31658" lon="3.26256">
        <ele>899.20001220703</ele>
        <time>2023-05-06T08:50:34Z</time>
      </trkpt>
      <trkpt lat="44.31651" lon="3.26346">
        <ele>895.59997558594</ele>
        <time>2023-05-06T08:50:39Z</time>
      </trkpt>
      <trkpt lat="44.3165" lon="3.26382">
        <ele>894.59997558594</ele>
        <time>2023-05-06T08:50:41Z</time>
      </trkpt>
      <trkpt lat="44.31651" lon="3.26398">
        <ele>894.20001220703</ele>
        <time>2023-05-06T08:50:42Z</time>
      </trkpt>
      <trkpt lat="44.31654" lon="3.26425">
        <ele>893.40002441406</ele>
        <time>2023-05-06T08:50:44Z</time>
      </trkpt>
      <trkpt lat="44.31654" lon="3.26438">
        <ele>893.20001220703</ele>
        <time>2023-05-06T08:50:45Z</time>
      </trkpt>
      <trkpt lat="44.31652" lon="3.26448">
        <ele>893</ele>
        <time>2023-05-06T08:50:46Z</time>
      </trkpt>
      <trkpt lat="44.31646" lon="3.26466">
        <ele>892.59997558594</ele>
        <time>2023-05-06T08:50:48Z</time>
      </trkpt>
      <trkpt lat="44.31639" lon="3.26489">
        <ele>892</ele>
        <time>2023-05-06T08:50:51Z</time>
      </trkpt>
      <trkpt lat="44.31639" lon="3.26496">
        <ele>891.79998779297</ele>
        <time>2023-05-06T08:50:52Z</time>
      </trkpt>
      <trkpt lat="44.31638" lon="3.26503">
        <ele>891.59997558594</ele>
        <time>2023-05-06T08:50:53Z</time>
      </trkpt>
      <trkpt lat="44.3164" lon="3.26525">
        <ele>891</ele>
        <time>2023-05-06T08:50:57Z</time>
      </trkpt>
      <trkpt lat="44.31644" lon="3.26551">
        <ele>890.20001220703</ele>
        <time>2023-05-06T08:51:03Z</time>
      </trkpt>
      <trkpt lat="44.31652" lon="3.26575">
        <ele>889.59997558594</ele>
        <time>2023-05-06T08:51:10Z</time>
      </trkpt>
      <trkpt lat="44.31664" lon="3.26596">
        <ele>889</ele>
        <time>2023-05-06T08:51:18Z</time>
      </trkpt>
      <trkpt lat="44.31676" lon="3.26609">
        <ele>888.79998779297</ele>
        <time>2023-05-06T08:51:25Z</time>
      </trkpt>
      <trkpt lat="44.31687" lon="3.26618">
        <ele>888.79998779297</ele>
        <time>2023-05-06T08:51:31Z</time>
      </trkpt>
      <trkpt lat="44.31701" lon="3.26627">
        <ele>888.59997558594</ele>
        <time>2023-05-06T08:51:38Z</time>
      </trkpt>
      <trkpt lat="44.31711" lon="3.26636">
        <ele>889</ele>
        <time>2023-05-06T08:51:44Z</time>
      </trkpt>
      <trkpt lat="44.3172" lon="3.26648">
        <ele>889.59997558594</ele>
        <time>2023-05-06T08:51:50Z</time>
      </trkpt>
      <trkpt lat="44.31732" lon="3.26659">
        <ele>890.20001220703</ele>
        <time>2023-05-06T08:51:57Z</time>
      </trkpt>
      <trkpt lat="44.31742" lon="3.26664">
        <ele>890.59997558594</ele>
        <time>2023-05-06T08:52:03Z</time>
      </trkpt>
      <trkpt lat="44.31743" lon="3.26664">
        <ele>890.59997558594</ele>
        <time>2023-05-06T08:52:04Z</time>
      </trkpt>
      <trkpt lat="44.31759" lon="3.26665">
        <ele>891</ele>
        <time>2023-05-06T08:52:11Z</time>
      </trkpt>
      <trkpt lat="44.31772" lon="3.26663">
        <ele>891.20001220703</ele>
        <time>2023-05-06T08:52:16Z</time>
      </trkpt>
      <trkpt lat="44.31792" lon="3.26656">
        <ele>891.40002441406</ele>
        <time>2023-05-06T08:52:24Z</time>
      </trkpt>
      <trkpt lat="44.3181" lon="3.26654">
        <ele>891.59997558594</ele>
        <time>2023-05-06T08:52:31Z</time>
      </trkpt>
      <trkpt lat="44.31835" lon="3.26652">
        <ele>892.40002441406</ele>
        <time>2023-05-06T08:52:41Z</time>
      </trkpt>
      <trkpt lat="44.31852" lon="3.26648">
        <ele>893</ele>
        <time>2023-05-06T08:52:49Z</time>
      </trkpt>
      <trkpt lat="44.31865" lon="3.26643">
        <ele>893.59997558594</ele>
        <time>2023-05-06T08:52:56Z</time>
      </trkpt>
      <trkpt lat="44.31874" lon="3.26634">
        <ele>894</ele>
        <time>2023-05-06T08:53:01Z</time>
      </trkpt>
      <trkpt lat="44.31892" lon="3.2662">
        <ele>894.79998779297</ele>
        <time>2023-05-06T08:53:09Z</time>
      </trkpt>
      <trkpt lat="44.31907" lon="3.26609">
        <ele>895.40002441406</ele>
        <time>2023-05-06T08:53:16Z</time>
      </trkpt>
      <trkpt lat="44.31917" lon="3.26586">
        <ele>896</ele>
        <time>2023-05-06T08:53:23Z</time>
      </trkpt>
      <trkpt lat="44.3192" lon="3.26567">
        <ele>896.79998779297</ele>
        <time>2023-05-06T08:53:29Z</time>
      </trkpt>
      <trkpt lat="44.31927" lon="3.2655">
        <ele>897.40002441406</ele>
        <time>2023-05-06T08:53:35Z</time>
      </trkpt>
      <trkpt lat="44.31935" lon="3.26527">
        <ele>898.20001220703</ele>
        <time>2023-05-06T08:53:43Z</time>
      </trkpt>
      <trkpt lat="44.31942" lon="3.26503">
        <ele>899</ele>
        <time>2023-05-06T08:53:51Z</time>
      </trkpt>
      <trkpt lat="44.3195" lon="3.26495">
        <ele>899.20001220703</ele>
        <time>2023-05-06T08:53:56Z</time>
      </trkpt>
      <trkpt lat="44.31959" lon="3.26485">
        <ele>899.40002441406</ele>
        <time>2023-05-06T08:54:01Z</time>
      </trkpt>
      <trkpt lat="44.31962" lon="3.26476">
        <ele>899.59997558594</ele>
        <time>2023-05-06T08:54:05Z</time>
      </trkpt>
      <trkpt lat="44.31965" lon="3.26473">
        <ele>899.59997558594</ele>
        <time>2023-05-06T08:54:07Z</time>
      </trkpt>
      <trkpt lat="44.31969" lon="3.26468">
        <ele>899.59997558594</ele>
        <time>2023-05-06T08:54:10Z</time>
      </trkpt>
      <trkpt lat="44.31971" lon="3.26465">
        <ele>899.79998779297</ele>
        <time>2023-05-06T08:54:12Z</time>
      </trkpt>
      <trkpt lat="44.31979" lon="3.26458">
        <ele>900.20001220703</ele>
        <time>2023-05-06T08:54:16Z</time>
      </trkpt>
      <trkpt lat="44.31982" lon="3.26455">
        <ele>900.20001220703</ele>
        <time>2023-05-06T08:54:18Z</time>
      </trkpt>
      <trkpt lat="44.31988" lon="3.26452">
        <ele>900</ele>
        <time>2023-05-06T08:54:20Z</time>
      </trkpt>
      <trkpt lat="44.32" lon="3.26448">
        <ele>899.59997558594</ele>
        <time>2023-05-06T08:54:24Z</time>
      </trkpt>
      <trkpt lat="44.32008" lon="3.26444">
        <ele>898.59997558594</ele>
        <time>2023-05-06T08:54:27Z</time>
      </trkpt>
      <trkpt lat="44.32016" lon="3.26439">
        <ele>897.40002441406</ele>
        <time>2023-05-06T08:54:32Z</time>
      </trkpt>
      <trkpt lat="44.32024" lon="3.26431">
        <ele>897</ele>
        <time>2023-05-06T08:54:37Z</time>
      </trkpt>
      <trkpt lat="44.32027" lon="3.26427">
        <ele>896.79998779297</ele>
        <time>2023-05-06T08:54:41Z</time>
      </trkpt>
      <trkpt lat="44.32034" lon="3.26423">
        <ele>897.40002441406</ele>
        <time>2023-05-06T08:54:46Z</time>
      </trkpt>
      <trkpt lat="44.32038" lon="3.26421">
        <ele>897.79998779297</ele>
        <time>2023-05-06T08:54:50Z</time>
      </trkpt>
      <trkpt lat="44.32052" lon="3.26425">
        <ele>898.20001220703</ele>
        <time>2023-05-06T08:54:54Z</time>
      </trkpt>
      <trkpt lat="44.32066" lon="3.26425">
        <ele>898.20001220703</ele>
        <time>2023-05-06T08:54:58Z</time>
      </trkpt>
      <trkpt lat="44.32073" lon="3.26424">
        <ele>898.20001220703</ele>
        <time>2023-05-06T08:55:02Z</time>
      </trkpt>
      <trkpt lat="44.32085" lon="3.26428">
        <ele>898.20001220703</ele>
        <time>2023-05-06T08:55:06Z</time>
      </trkpt>
      <trkpt lat="44.32097" lon="3.26426">
        <ele>898.40002441406</ele>
        <time>2023-05-06T08:55:10Z</time>
      </trkpt>
      <trkpt lat="44.32111" lon="3.26426">
        <ele>898.79998779297</ele>
        <time>2023-05-06T08:55:13Z</time>
      </trkpt>
      <trkpt lat="44.32117" lon="3.26426">
        <ele>898.79998779297</ele>
        <time>2023-05-06T08:55:14Z</time>
      </trkpt>
      <trkpt lat="44.32133" lon="3.26423">
        <ele>898.79998779297</ele>
        <time>2023-05-06T08:55:17Z</time>
      </trkpt>
      <trkpt lat="44.32139" lon="3.26422">
        <ele>898.79998779297</ele>
        <time>2023-05-06T08:55:18Z</time>
      </trkpt>
      <trkpt lat="44.32149" lon="3.26421">
        <ele>898.79998779297</ele>
        <time>2023-05-06T08:55:20Z</time>
      </trkpt>
      <trkpt lat="44.32159" lon="3.2642">
        <ele>898.79998779297</ele>
        <time>2023-05-06T08:55:22Z</time>
      </trkpt>
      <trkpt lat="44.32167" lon="3.26416">
        <ele>898.79998779297</ele>
        <time>2023-05-06T08:55:24Z</time>
      </trkpt>
      <trkpt lat="44.32186" lon="3.26402">
        <ele>898.79998779297</ele>
        <time>2023-05-06T08:55:30Z</time>
      </trkpt>
      <trkpt lat="44.32199" lon="3.26387">
        <ele>898.79998779297</ele>
        <time>2023-05-06T08:55:34Z</time>
      </trkpt>
      <trkpt lat="44.32203" lon="3.26383">
        <ele>898.79998779297</ele>
        <time>2023-05-06T08:55:35Z</time>
      </trkpt>
      <trkpt lat="44.3221" lon="3.26372">
        <ele>898.79998779297</ele>
        <time>2023-05-06T08:55:37Z</time>
      </trkpt>
      <trkpt lat="44.32214" lon="3.26366">
        <ele>898.79998779297</ele>
        <time>2023-05-06T08:55:38Z</time>
      </trkpt>
      <trkpt lat="44.32224" lon="3.26345">
        <ele>898.79998779297</ele>
        <time>2023-05-06T08:55:41Z</time>
      </trkpt>
      <trkpt lat="44.32229" lon="3.26329">
        <ele>898.59997558594</ele>
        <time>2023-05-06T08:55:43Z</time>
      </trkpt>
      <trkpt lat="44.32237" lon="3.26316">
        <ele>898.40002441406</ele>
        <time>2023-05-06T08:55:45Z</time>
      </trkpt>
      <trkpt lat="44.32241" lon="3.26311">
        <ele>898.40002441406</ele>
        <time>2023-05-06T08:55:46Z</time>
      </trkpt>
      <trkpt lat="44.32245" lon="3.26308">
        <ele>898.20001220703</ele>
        <time>2023-05-06T08:55:47Z</time>
      </trkpt>
      <trkpt lat="44.32255" lon="3.26306">
        <ele>897.79998779297</ele>
        <time>2023-05-06T08:55:49Z</time>
      </trkpt>
      <trkpt lat="44.32283" lon="3.26308">
        <ele>897.20001220703</ele>
        <time>2023-05-06T08:55:53Z</time>
      </trkpt>
      <trkpt lat="44.32324" lon="3.26308">
        <ele>897</ele>
        <time>2023-05-06T08:55:59Z</time>
      </trkpt>
      <trkpt lat="44.32348" lon="3.2631">
        <ele>896.79998779297</ele>
        <time>2023-05-06T08:56:03Z</time>
      </trkpt>
      <trkpt lat="44.32353" lon="3.26312">
        <ele>896.79998779297</ele>
        <time>2023-05-06T08:56:04Z</time>
      </trkpt>
      <trkpt lat="44.32382" lon="3.26325">
        <ele>897</ele>
        <time>2023-05-06T08:56:11Z</time>
      </trkpt>
      <trkpt lat="44.32401" lon="3.26343">
        <ele>897.20001220703</ele>
        <time>2023-05-06T08:56:17Z</time>
      </trkpt>
      <trkpt lat="44.3242" lon="3.26361">
        <ele>897</ele>
        <time>2023-05-06T08:56:23Z</time>
      </trkpt>
      <trkpt lat="44.32423" lon="3.26362">
        <ele>897.20001220703</ele>
        <time>2023-05-06T08:56:24Z</time>
      </trkpt>
      <trkpt lat="44.32429" lon="3.26362">
        <ele>897.20001220703</ele>
        <time>2023-05-06T08:56:26Z</time>
      </trkpt>
      <trkpt lat="44.3244" lon="3.26351">
        <ele>897.79998779297</ele>
        <time>2023-05-06T08:56:31Z</time>
      </trkpt>
      <trkpt lat="44.32447" lon="3.26338">
        <ele>898.20001220703</ele>
        <time>2023-05-06T08:56:36Z</time>
      </trkpt>
      <trkpt lat="44.32449" lon="3.26336">
        <ele>898.40002441406</ele>
        <time>2023-05-06T08:56:37Z</time>
      </trkpt>
      <trkpt lat="44.32452" lon="3.26337">
        <ele>898.40002441406</ele>
        <time>2023-05-06T08:56:38Z</time>
      </trkpt>
      <trkpt lat="44.32457" lon="3.2634">
        <ele>898.59997558594</ele>
        <time>2023-05-06T08:56:40Z</time>
      </trkpt>
      <trkpt lat="44.32472" lon="3.26358">
        <ele>899.20001220703</ele>
        <time>2023-05-06T08:56:47Z</time>
      </trkpt>
      <trkpt lat="44.32488" lon="3.26376">
        <ele>899.59997558594</ele>
        <time>2023-05-06T08:56:54Z</time>
      </trkpt>
      <trkpt lat="44.32501" lon="3.26391">
        <ele>900.40002441406</ele>
        <time>2023-05-06T08:57:00Z</time>
      </trkpt>
      <trkpt lat="44.32505" lon="3.26411">
        <ele>901</ele>
        <time>2023-05-06T08:57:06Z</time>
      </trkpt>
      <trkpt lat="44.32509" lon="3.26441">
        <ele>902.20001220703</ele>
        <time>2023-05-06T08:57:15Z</time>
      </trkpt>
      <trkpt lat="44.32516" lon="3.26468">
        <ele>903.79998779297</ele>
        <time>2023-05-06T08:57:24Z</time>
      </trkpt>
      <trkpt lat="44.32524" lon="3.26486">
        <ele>905</ele>
        <time>2023-05-06T08:57:32Z</time>
      </trkpt>
      <trkpt lat="44.32528" lon="3.26509">
        <ele>906.20001220703</ele>
        <time>2023-05-06T08:57:40Z</time>
      </trkpt>
      <trkpt lat="44.32529" lon="3.26537">
        <ele>907.59997558594</ele>
        <time>2023-05-06T08:57:49Z</time>
      </trkpt>
      <trkpt lat="44.3253" lon="3.26564">
        <ele>908.20001220703</ele>
        <time>2023-05-06T08:57:56Z</time>
      </trkpt>
      <trkpt lat="44.32531" lon="3.2657">
        <ele>908.20001220703</ele>
        <time>2023-05-06T08:57:57Z</time>
      </trkpt>
      <trkpt lat="44.32533" lon="3.26582">
        <ele>908.40002441406</ele>
        <time>2023-05-06T08:57:59Z</time>
      </trkpt>
      <trkpt lat="44.32536" lon="3.26588">
        <ele>908.40002441406</ele>
        <time>2023-05-06T08:58:00Z</time>
      </trkpt>
      <trkpt lat="44.3254" lon="3.26595">
        <ele>908.40002441406</ele>
        <time>2023-05-06T08:58:01Z</time>
      </trkpt>
      <trkpt lat="44.32553" lon="3.26605">
        <ele>908.40002441406</ele>
        <time>2023-05-06T08:58:03Z</time>
      </trkpt>
      <trkpt lat="44.32569" lon="3.26614">
        <ele>908.20001220703</ele>
        <time>2023-05-06T08:58:05Z</time>
      </trkpt>
      <trkpt lat="44.32583" lon="3.26625">
        <ele>908</ele>
        <time>2023-05-06T08:58:07Z</time>
      </trkpt>
      <trkpt lat="44.32593" lon="3.26634">
        <ele>908</ele>
        <time>2023-05-06T08:58:09Z</time>
      </trkpt>
      <trkpt lat="44.32605" lon="3.26638">
        <ele>907.79998779297</ele>
        <time>2023-05-06T08:58:11Z</time>
      </trkpt>
      <trkpt lat="44.32616" lon="3.26638">
        <ele>908</ele>
        <time>2023-05-06T08:58:13Z</time>
      </trkpt>
      <trkpt lat="44.32625" lon="3.26638">
        <ele>908</ele>
        <time>2023-05-06T08:58:15Z</time>
      </trkpt>
      <trkpt lat="44.32637" lon="3.26634">
        <ele>908.20001220703</ele>
        <time>2023-05-06T08:58:19Z</time>
      </trkpt>
      <trkpt lat="44.32646" lon="3.2663">
        <ele>908.79998779297</ele>
        <time>2023-05-06T08:58:24Z</time>
      </trkpt>
      <trkpt lat="44.32648" lon="3.2663">
        <ele>908.79998779297</ele>
        <time>2023-05-06T08:58:25Z</time>
      </trkpt>
      <trkpt lat="44.32656" lon="3.26632">
        <ele>909.20001220703</ele>
        <time>2023-05-06T08:58:30Z</time>
      </trkpt>
      <trkpt lat="44.32657" lon="3.26631">
        <ele>909.20001220703</ele>
        <time>2023-05-06T08:58:31Z</time>
      </trkpt>
      <trkpt lat="44.32666" lon="3.26628">
        <ele>909.59997558594</ele>
        <time>2023-05-06T08:58:37Z</time>
      </trkpt>
      <trkpt lat="44.32672" lon="3.26625">
        <ele>909.79998779297</ele>
        <time>2023-05-06T08:58:41Z</time>
      </trkpt>
      <trkpt lat="44.32674" lon="3.26623">
        <ele>909.79998779297</ele>
        <time>2023-05-06T08:58:43Z</time>
      </trkpt>
      <trkpt lat="44.32682" lon="3.26619">
        <ele>910</ele>
        <time>2023-05-06T08:58:49Z</time>
      </trkpt>
      <trkpt lat="44.32695" lon="3.26609">
        <ele>910.40002441406</ele>
        <time>2023-05-06T08:58:58Z</time>
      </trkpt>
      <trkpt lat="44.32703" lon="3.26605">
        <ele>911</ele>
        <time>2023-05-06T08:59:04Z</time>
      </trkpt>
      <trkpt lat="44.32711" lon="3.26602">
        <ele>911.40002441406</ele>
        <time>2023-05-06T08:59:09Z</time>
      </trkpt>
      <trkpt lat="44.3272" lon="3.26601">
        <ele>911.79998779297</ele>
        <time>2023-05-06T08:59:15Z</time>
      </trkpt>
      <trkpt lat="44.32732" lon="3.26601">
        <ele>912.40002441406</ele>
        <time>2023-05-06T08:59:22Z</time>
      </trkpt>
      <trkpt lat="44.32743" lon="3.266">
        <ele>913</ele>
        <time>2023-05-06T08:59:29Z</time>
      </trkpt>
      <trkpt lat="44.32753" lon="3.266">
        <ele>913.59997558594</ele>
        <time>2023-05-06T08:59:35Z</time>
      </trkpt>
      <trkpt lat="44.32766" lon="3.26599">
        <ele>914.20001220703</ele>
        <time>2023-05-06T08:59:43Z</time>
      </trkpt>
      <trkpt lat="44.32771" lon="3.266">
        <ele>914.40002441406</ele>
        <time>2023-05-06T08:59:46Z</time>
      </trkpt>
      <trkpt lat="44.32775" lon="3.26601">
        <ele>914.59997558594</ele>
        <time>2023-05-06T08:59:48Z</time>
      </trkpt>
      <trkpt lat="44.32787" lon="3.26605">
        <ele>915.40002441406</ele>
        <time>2023-05-06T08:59:55Z</time>
      </trkpt>
      <trkpt lat="44.32798" lon="3.26607">
        <ele>916</ele>
        <time>2023-05-06T09:00:02Z</time>
      </trkpt>
      <trkpt lat="44.32811" lon="3.26605">
        <ele>916.79998779297</ele>
        <time>2023-05-06T09:00:10Z</time>
      </trkpt>
      <trkpt lat="44.3282" lon="3.26603">
        <ele>917.40002441406</ele>
        <time>2023-05-06T09:00:16Z</time>
      </trkpt>
      <trkpt lat="44.32832" lon="3.26601">
        <ele>918.20001220703</ele>
        <time>2023-05-06T09:00:23Z</time>
      </trkpt>
      <trkpt lat="44.32847" lon="3.26604">
        <ele>919.20001220703</ele>
        <time>2023-05-06T09:00:30Z</time>
      </trkpt>
      <trkpt lat="44.3286" lon="3.26607">
        <ele>920</ele>
        <time>2023-05-06T09:00:36Z</time>
      </trkpt>
      <trkpt lat="44.32875" lon="3.26614">
        <ele>921</ele>
        <time>2023-05-06T09:00:42Z</time>
      </trkpt>
      <trkpt lat="44.32881" lon="3.26618">
        <ele>921.40002441406</ele>
        <time>2023-05-06T09:00:46Z</time>
      </trkpt>
      <trkpt lat="44.32884" lon="3.26619">
        <ele>922.20001220703</ele>
        <time>2023-05-06T09:00:53Z</time>
      </trkpt>
      <trkpt lat="44.32904" lon="3.26619">
        <ele>922.40002441406</ele>
        <time>2023-05-06T09:00:59Z</time>
      </trkpt>
      <trkpt lat="44.32932" lon="3.26615">
        <ele>923</ele>
        <time>2023-05-06T09:01:06Z</time>
      </trkpt>
      <trkpt lat="44.32962" lon="3.26604">
        <ele>923.59997558594</ele>
        <time>2023-05-06T09:01:14Z</time>
      </trkpt>
      <trkpt lat="44.32986" lon="3.26602">
        <ele>924</ele>
        <time>2023-05-06T09:01:20Z</time>
      </trkpt>
      <trkpt lat="44.32999" lon="3.266">
        <ele>924.20001220703</ele>
        <time>2023-05-06T09:01:23Z</time>
      </trkpt>
      <trkpt lat="44.33014" lon="3.26597">
        <ele>924.20001220703</ele>
        <time>2023-05-06T09:01:26Z</time>
      </trkpt>
      <trkpt lat="44.33038" lon="3.26603">
        <ele>924.20001220703</ele>
        <time>2023-05-06T09:01:30Z</time>
      </trkpt>
      <trkpt lat="44.33063" lon="3.26612">
        <ele>924</ele>
        <time>2023-05-06T09:01:33Z</time>
      </trkpt>
      <trkpt lat="44.33071" lon="3.26617">
        <ele>924</ele>
        <time>2023-05-06T09:01:34Z</time>
      </trkpt>
      <trkpt lat="44.33079" lon="3.26622">
        <ele>924</ele>
        <time>2023-05-06T09:01:35Z</time>
      </trkpt>
      <trkpt lat="44.33098" lon="3.26625">
        <ele>923.79998779297</ele>
        <time>2023-05-06T09:01:37Z</time>
      </trkpt>
      <trkpt lat="44.33118" lon="3.26624">
        <ele>923.20001220703</ele>
        <time>2023-05-06T09:01:39Z</time>
      </trkpt>
      <trkpt lat="44.33138" lon="3.26619">
        <ele>923.20001220703</ele>
        <time>2023-05-06T09:01:41Z</time>
      </trkpt>
      <trkpt lat="44.33181" lon="3.26612">
        <ele>923.59997558594</ele>
        <time>2023-05-06T09:01:46Z</time>
      </trkpt>
      <trkpt lat="44.33208" lon="3.26607">
        <ele>924.20001220703</ele>
        <time>2023-05-06T09:01:50Z</time>
      </trkpt>
      <trkpt lat="44.33214" lon="3.26605">
        <ele>924.40002441406</ele>
        <time>2023-05-06T09:01:51Z</time>
      </trkpt>
      <trkpt lat="44.33251" lon="3.26593">
        <ele>924.79998779297</ele>
        <time>2023-05-06T09:01:57Z</time>
      </trkpt>
      <trkpt lat="44.33271" lon="3.26586">
        <ele>924.79998779297</ele>
        <time>2023-05-06T09:02:01Z</time>
      </trkpt>
      <trkpt lat="44.33275" lon="3.26583">
        <ele>924.79998779297</ele>
        <time>2023-05-06T09:02:02Z</time>
      </trkpt>
      <trkpt lat="44.33278" lon="3.26579">
        <ele>924.79998779297</ele>
        <time>2023-05-06T09:02:03Z</time>
      </trkpt>
      <trkpt lat="44.33288" lon="3.26564">
        <ele>924.79998779297</ele>
        <time>2023-05-06T09:02:06Z</time>
      </trkpt>
      <trkpt lat="44.33305" lon="3.26539">
        <ele>924.40002441406</ele>
        <time>2023-05-06T09:02:10Z</time>
      </trkpt>
      <trkpt lat="44.33316" lon="3.26534">
        <ele>924.40002441406</ele>
        <time>2023-05-06T09:02:12Z</time>
      </trkpt>
      <trkpt lat="44.33322" lon="3.26536">
        <ele>924.20001220703</ele>
        <time>2023-05-06T09:02:13Z</time>
      </trkpt>
      <trkpt lat="44.33327" lon="3.2654">
        <ele>924.20001220703</ele>
        <time>2023-05-06T09:02:14Z</time>
      </trkpt>
      <trkpt lat="44.33338" lon="3.26551">
        <ele>923.79998779297</ele>
        <time>2023-05-06T09:02:16Z</time>
      </trkpt>
      <trkpt lat="44.33345" lon="3.26557">
        <ele>923.59997558594</ele>
        <time>2023-05-06T09:02:17Z</time>
      </trkpt>
      <trkpt lat="44.3336" lon="3.26566">
        <ele>923</ele>
        <time>2023-05-06T09:02:19Z</time>
      </trkpt>
      <trkpt lat="44.33396" lon="3.26576">
        <ele>921.79998779297</ele>
        <time>2023-05-06T09:02:23Z</time>
      </trkpt>
      <trkpt lat="44.33405" lon="3.26577">
        <ele>921.40002441406</ele>
        <time>2023-05-06T09:02:24Z</time>
      </trkpt>
      <trkpt lat="44.33422" lon="3.26578">
        <ele>920.59997558594</ele>
        <time>2023-05-06T09:02:26Z</time>
      </trkpt>
      <trkpt lat="44.3343" lon="3.26576">
        <ele>920</ele>
        <time>2023-05-06T09:02:27Z</time>
      </trkpt>
      <trkpt lat="44.33439" lon="3.26573">
        <ele>919.59997558594</ele>
        <time>2023-05-06T09:02:28Z</time>
      </trkpt>
      <trkpt lat="44.33456" lon="3.26562">
        <ele>918.79998779297</ele>
        <time>2023-05-06T09:02:30Z</time>
      </trkpt>
      <trkpt lat="44.33465" lon="3.26556">
        <ele>918.40002441406</ele>
        <time>2023-05-06T09:02:31Z</time>
      </trkpt>
      <trkpt lat="44.33483" lon="3.26552">
        <ele>917.79998779297</ele>
        <time>2023-05-06T09:02:33Z</time>
      </trkpt>
      <trkpt lat="44.3352" lon="3.26562">
        <ele>916.79998779297</ele>
        <time>2023-05-06T09:02:37Z</time>
      </trkpt>
      <trkpt lat="44.33562" lon="3.26576">
        <ele>916.20001220703</ele>
        <time>2023-05-06T09:02:42Z</time>
      </trkpt>
      <trkpt lat="44.3357" lon="3.26577">
        <ele>916.20001220703</ele>
        <time>2023-05-06T09:02:43Z</time>
      </trkpt>
      <trkpt lat="44.33586" lon="3.26577">
        <ele>915.79998779297</ele>
        <time>2023-05-06T09:02:45Z</time>
      </trkpt>
      <trkpt lat="44.33592" lon="3.26576">
        <ele>915.40002441406</ele>
        <time>2023-05-06T09:02:46Z</time>
      </trkpt>
      <trkpt lat="44.33609" lon="3.26575">
        <ele>914.40002441406</ele>
        <time>2023-05-06T09:02:50Z</time>
      </trkpt>
      <trkpt lat="44.33618" lon="3.26584">
        <ele>913</ele>
        <time>2023-05-06T09:02:54Z</time>
      </trkpt>
      <trkpt lat="44.33625" lon="3.26591">
        <ele>911.79998779297</ele>
        <time>2023-05-06T09:02:57Z</time>
      </trkpt>
      <trkpt lat="44.33629" lon="3.2659">
        <ele>911.20001220703</ele>
        <time>2023-05-06T09:02:59Z</time>
      </trkpt>
      <trkpt lat="44.33635" lon="3.26586">
        <ele>910.20001220703</ele>
        <time>2023-05-06T09:03:01Z</time>
      </trkpt>
      <trkpt lat="44.33646" lon="3.26583">
        <ele>908.79998779297</ele>
        <time>2023-05-06T09:03:04Z</time>
      </trkpt>
      <trkpt lat="44.33649" lon="3.26583">
        <ele>908.40002441406</ele>
        <time>2023-05-06T09:03:05Z</time>
      </trkpt>
      <trkpt lat="44.33653" lon="3.26585">
        <ele>907.79998779297</ele>
        <time>2023-05-06T09:03:06Z</time>
      </trkpt>
      <trkpt lat="44.33661" lon="3.26585">
        <ele>907</ele>
        <time>2023-05-06T09:03:08Z</time>
      </trkpt>
      <trkpt lat="44.33673" lon="3.26597">
        <ele>905.40002441406</ele>
        <time>2023-05-06T09:03:12Z</time>
      </trkpt>
      <trkpt lat="44.33677" lon="3.26602">
        <ele>904.40002441406</ele>
        <time>2023-05-06T09:03:14Z</time>
      </trkpt>
      <trkpt lat="44.33681" lon="3.26602">
        <ele>904</ele>
        <time>2023-05-06T09:03:15Z</time>
      </trkpt>
      <trkpt lat="44.33686" lon="3.26601">
        <ele>903.40002441406</ele>
        <time>2023-05-06T09:03:16Z</time>
      </trkpt>
      <trkpt lat="44.33695" lon="3.26598">
        <ele>902</ele>
        <time>2023-05-06T09:03:19Z</time>
      </trkpt>
      <trkpt lat="44.33703" lon="3.26592">
        <ele>898.79998779297</ele>
        <time>2023-05-06T09:03:25Z</time>
      </trkpt>
      <trkpt lat="44.33707" lon="3.26585">
        <ele>895.59997558594</ele>
        <time>2023-05-06T09:03:30Z</time>
      </trkpt>
      <trkpt lat="44.33709" lon="3.26574">
        <ele>892.20001220703</ele>
        <time>2023-05-06T09:03:36Z</time>
      </trkpt>
      <trkpt lat="44.3371" lon="3.26572">
        <ele>891.59997558594</ele>
        <time>2023-05-06T09:03:37Z</time>
      </trkpt>
      <trkpt lat="44.33714" lon="3.26569">
        <ele>890.20001220703</ele>
        <time>2023-05-06T09:03:39Z</time>
      </trkpt>
      <trkpt lat="44.3372" lon="3.26566">
        <ele>888.79998779297</ele>
        <time>2023-05-06T09:03:41Z</time>
      </trkpt>
      <trkpt lat="44.33723" lon="3.26561">
        <ele>888</ele>
        <time>2023-05-06T09:03:42Z</time>
      </trkpt>
      <trkpt lat="44.33727" lon="3.26556">
        <ele>887.20001220703</ele>
        <time>2023-05-06T09:03:43Z</time>
      </trkpt>
      <trkpt lat="44.33736" lon="3.26546">
        <ele>885.79998779297</ele>
        <time>2023-05-06T09:03:45Z</time>
      </trkpt>
      <trkpt lat="44.33741" lon="3.26544">
        <ele>885.20001220703</ele>
        <time>2023-05-06T09:03:46Z</time>
      </trkpt>
      <trkpt lat="44.33746" lon="3.26542">
        <ele>884.59997558594</ele>
        <time>2023-05-06T09:03:47Z</time>
      </trkpt>
      <trkpt lat="44.33758" lon="3.26547">
        <ele>883.40002441406</ele>
        <time>2023-05-06T09:03:49Z</time>
      </trkpt>
      <trkpt lat="44.33772" lon="3.26554">
        <ele>882.59997558594</ele>
        <time>2023-05-06T09:03:51Z</time>
      </trkpt>
      <trkpt lat="44.3378" lon="3.26555">
        <ele>881.40002441406</ele>
        <time>2023-05-06T09:03:53Z</time>
      </trkpt>
      <trkpt lat="44.33789" lon="3.26547">
        <ele>878.40002441406</ele>
        <time>2023-05-06T09:03:57Z</time>
      </trkpt>
      <trkpt lat="44.33802" lon="3.26541">
        <ele>875.79998779297</ele>
        <time>2023-05-06T09:04:00Z</time>
      </trkpt>
      <trkpt lat="44.33806" lon="3.26538">
        <ele>874.79998779297</ele>
        <time>2023-05-06T09:04:01Z</time>
      </trkpt>
      <trkpt lat="44.33811" lon="3.26532">
        <ele>873</ele>
        <time>2023-05-06T09:04:03Z</time>
      </trkpt>
      <trkpt lat="44.33819" lon="3.26528">
        <ele>869.40002441406</ele>
        <time>2023-05-06T09:04:07Z</time>
      </trkpt>
      <trkpt lat="44.33824" lon="3.26527">
        <ele>866.40002441406</ele>
        <time>2023-05-06T09:04:10Z</time>
      </trkpt>
      <trkpt lat="44.33825" lon="3.26522">
        <ele>863.40002441406</ele>
        <time>2023-05-06T09:04:13Z</time>
      </trkpt>
      <trkpt lat="44.33827" lon="3.26515">
        <ele>860.40002441406</ele>
        <time>2023-05-06T09:04:16Z</time>
      </trkpt>
      <trkpt lat="44.33836" lon="3.26508">
        <ele>856.20001220703</ele>
        <time>2023-05-06T09:04:21Z</time>
      </trkpt>
      <trkpt lat="44.33839" lon="3.26506">
        <ele>855.79998779297</ele>
        <time>2023-05-06T09:04:22Z</time>
      </trkpt>
      <trkpt lat="44.33853" lon="3.26507">
        <ele>854.40002441406</ele>
        <time>2023-05-06T09:04:24Z</time>
      </trkpt>
      <trkpt lat="44.33861" lon="3.26509">
        <ele>853.59997558594</ele>
        <time>2023-05-06T09:04:25Z</time>
      </trkpt>
      <trkpt lat="44.33871" lon="3.26507">
        <ele>852.40002441406</ele>
        <time>2023-05-06T09:04:27Z</time>
      </trkpt>
      <trkpt lat="44.33876" lon="3.26498">
        <ele>851</ele>
        <time>2023-05-06T09:04:29Z</time>
      </trkpt>
      <trkpt lat="44.33878" lon="3.26493">
        <ele>850.40002441406</ele>
        <time>2023-05-06T09:04:30Z</time>
      </trkpt>
      <trkpt lat="44.33883" lon="3.26482">
        <ele>848.79998779297</ele>
        <time>2023-05-06T09:04:32Z</time>
      </trkpt>
      <trkpt lat="44.33896" lon="3.26458">
        <ele>846.40002441406</ele>
        <time>2023-05-06T09:04:36Z</time>
      </trkpt>
      <trkpt lat="44.33902" lon="3.26449">
        <ele>845</ele>
        <time>2023-05-06T09:04:38Z</time>
      </trkpt>
      <trkpt lat="44.3391" lon="3.26441">
        <ele>843.59997558594</ele>
        <time>2023-05-06T09:04:40Z</time>
      </trkpt>
      <trkpt lat="44.33914" lon="3.26437">
        <ele>843</ele>
        <time>2023-05-06T09:04:41Z</time>
      </trkpt>
      <trkpt lat="44.33949" lon="3.26418">
        <ele>840.79998779297</ele>
        <time>2023-05-06T09:04:48Z</time>
      </trkpt>
      <trkpt lat="44.33986" lon="3.26404">
        <ele>838.79998779297</ele>
        <time>2023-05-06T09:04:56Z</time>
      </trkpt>
      <trkpt lat="44.34009" lon="3.26403">
        <ele>837.79998779297</ele>
        <time>2023-05-06T09:05:01Z</time>
      </trkpt>
      <trkpt lat="44.34041" lon="3.26411">
        <ele>836.79998779297</ele>
        <time>2023-05-06T09:05:08Z</time>
      </trkpt>
      <trkpt lat="44.34054" lon="3.26417">
        <ele>836.59997558594</ele>
        <time>2023-05-06T09:05:11Z</time>
      </trkpt>
      <trkpt lat="44.34063" lon="3.26423">
        <ele>836.20001220703</ele>
        <time>2023-05-06T09:05:13Z</time>
      </trkpt>
      <trkpt lat="44.34069" lon="3.26426">
        <ele>836.20001220703</ele>
        <time>2023-05-06T09:05:14Z</time>
      </trkpt>
      <trkpt lat="44.34081" lon="3.2643">
        <ele>835.79998779297</ele>
        <time>2023-05-06T09:05:16Z</time>
      </trkpt>
      <trkpt lat="44.34094" lon="3.26426">
        <ele>835.40002441406</ele>
        <time>2023-05-06T09:05:18Z</time>
      </trkpt>
      <trkpt lat="44.34102" lon="3.26422">
        <ele>835</ele>
        <time>2023-05-06T09:05:19Z</time>
      </trkpt>
      <trkpt lat="44.34138" lon="3.26392">
        <ele>834</ele>
        <time>2023-05-06T09:05:24Z</time>
      </trkpt>
      <trkpt lat="44.3416" lon="3.26362">
        <ele>833.20001220703</ele>
        <time>2023-05-06T09:05:28Z</time>
      </trkpt>
      <trkpt lat="44.34166" lon="3.26356">
        <ele>833</ele>
        <time>2023-05-06T09:05:29Z</time>
      </trkpt>
      <trkpt lat="44.34181" lon="3.26348">
        <ele>832.59997558594</ele>
        <time>2023-05-06T09:05:31Z</time>
      </trkpt>
      <trkpt lat="44.34196" lon="3.26342">
        <ele>832.20001220703</ele>
        <time>2023-05-06T09:05:33Z</time>
      </trkpt>
      <trkpt lat="44.3421" lon="3.26332">
        <ele>832.20001220703</ele>
        <time>2023-05-06T09:05:35Z</time>
      </trkpt>
      <trkpt lat="44.34223" lon="3.26323">
        <ele>832.20001220703</ele>
        <time>2023-05-06T09:05:37Z</time>
      </trkpt>
      <trkpt lat="44.34235" lon="3.26319">
        <ele>832.40002441406</ele>
        <time>2023-05-06T09:05:39Z</time>
      </trkpt>
      <trkpt lat="44.34256" lon="3.26317">
        <ele>832.79998779297</ele>
        <time>2023-05-06T09:05:44Z</time>
      </trkpt>
      <trkpt lat="44.34272" lon="3.26315">
        <ele>833</ele>
        <time>2023-05-06T09:05:50Z</time>
      </trkpt>
      <trkpt lat="44.34287" lon="3.26307">
        <ele>832.79998779297</ele>
        <time>2023-05-06T09:05:56Z</time>
      </trkpt>
      <trkpt lat="44.34304" lon="3.26289">
        <ele>832.79998779297</ele>
        <time>2023-05-06T09:06:04Z</time>
      </trkpt>
      <trkpt lat="44.34315" lon="3.26267">
        <ele>833</ele>
        <time>2023-05-06T09:06:11Z</time>
      </trkpt>
      <trkpt lat="44.34321" lon="3.26245">
        <ele>833.20001220703</ele>
        <time>2023-05-06T09:06:17Z</time>
      </trkpt>
      <trkpt lat="44.34327" lon="3.26226">
        <ele>833.20001220703</ele>
        <time>2023-05-06T09:06:23Z</time>
      </trkpt>
      <trkpt lat="44.3434" lon="3.26204">
        <ele>833.40002441406</ele>
        <time>2023-05-06T09:06:30Z</time>
      </trkpt>
      <trkpt lat="44.34356" lon="3.26181">
        <ele>833.59997558594</ele>
        <time>2023-05-06T09:06:38Z</time>
      </trkpt>
      <trkpt lat="44.34367" lon="3.26158">
        <ele>834</ele>
        <time>2023-05-06T09:06:44Z</time>
      </trkpt>
      <trkpt lat="44.34372" lon="3.26157">
        <ele>834.20001220703</ele>
        <time>2023-05-06T09:06:46Z</time>
      </trkpt>
      <trkpt lat="44.34377" lon="3.2616">
        <ele>834.59997558594</ele>
        <time>2023-05-06T09:06:48Z</time>
      </trkpt>
      <trkpt lat="44.34387" lon="3.26177">
        <ele>835</ele>
        <time>2023-05-06T09:06:53Z</time>
      </trkpt>
      <trkpt lat="44.34395" lon="3.26193">
        <ele>835.59997558594</ele>
        <time>2023-05-06T09:06:58Z</time>
      </trkpt>
      <trkpt lat="44.34405" lon="3.26212">
        <ele>836.40002441406</ele>
        <time>2023-05-06T09:07:04Z</time>
      </trkpt>
      <trkpt lat="44.34414" lon="3.2623">
        <ele>837.40002441406</ele>
        <time>2023-05-06T09:07:10Z</time>
      </trkpt>
      <trkpt lat="44.34423" lon="3.26249">
        <ele>838.20001220703</ele>
        <time>2023-05-06T09:07:16Z</time>
      </trkpt>
      <trkpt lat="44.34432" lon="3.26255">
        <ele>838.79998779297</ele>
        <time>2023-05-06T09:07:20Z</time>
      </trkpt>
      <trkpt lat="44.34441" lon="3.26248">
        <ele>839.40002441406</ele>
        <time>2023-05-06T09:07:26Z</time>
      </trkpt>
      <trkpt lat="44.34451" lon="3.26239">
        <ele>839.79998779297</ele>
        <time>2023-05-06T09:07:33Z</time>
      </trkpt>
      <trkpt lat="44.34463" lon="3.26227">
        <ele>840.20001220703</ele>
        <time>2023-05-06T09:07:41Z</time>
      </trkpt>
      <trkpt lat="44.34471" lon="3.26218">
        <ele>840.79998779297</ele>
        <time>2023-05-06T09:07:47Z</time>
      </trkpt>
      <trkpt lat="44.34481" lon="3.26207">
        <ele>842</ele>
        <time>2023-05-06T09:07:54Z</time>
      </trkpt>
      <trkpt lat="44.34492" lon="3.26194">
        <ele>842.79998779297</ele>
        <time>2023-05-06T09:08:02Z</time>
      </trkpt>
      <trkpt lat="44.34502" lon="3.26181">
        <ele>843.79998779297</ele>
        <time>2023-05-06T09:08:10Z</time>
      </trkpt>
      <trkpt lat="44.34512" lon="3.26171">
        <ele>845</ele>
        <time>2023-05-06T09:08:18Z</time>
      </trkpt>
      <trkpt lat="44.3452" lon="3.26161">
        <ele>846</ele>
        <time>2023-05-06T09:08:25Z</time>
      </trkpt>
      <trkpt lat="44.34523" lon="3.26158">
        <ele>846.59997558594</ele>
        <time>2023-05-06T09:08:28Z</time>
      </trkpt>
      <trkpt lat="44.34526" lon="3.26155">
        <ele>847</ele>
        <time>2023-05-06T09:08:31Z</time>
      </trkpt>
      <trkpt lat="44.34533" lon="3.26149">
        <ele>848</ele>
        <time>2023-05-06T09:08:37Z</time>
      </trkpt>
      <trkpt lat="44.34543" lon="3.26141">
        <ele>849.20001220703</ele>
        <time>2023-05-06T09:08:45Z</time>
      </trkpt>
      <trkpt lat="44.34553" lon="3.26134">
        <ele>850.40002441406</ele>
        <time>2023-05-06T09:08:52Z</time>
      </trkpt>
      <trkpt lat="44.34561" lon="3.26128">
        <ele>851.20001220703</ele>
        <time>2023-05-06T09:08:57Z</time>
      </trkpt>
      <trkpt lat="44.34574" lon="3.2612">
        <ele>852.59997558594</ele>
        <time>2023-05-06T09:09:06Z</time>
      </trkpt>
      <trkpt lat="44.34587" lon="3.26113">
        <ele>854</ele>
        <time>2023-05-06T09:09:14Z</time>
      </trkpt>
      <trkpt lat="44.34603" lon="3.26107">
        <ele>855.20001220703</ele>
        <time>2023-05-06T09:09:23Z</time>
      </trkpt>
      <trkpt lat="44.34617" lon="3.26103">
        <ele>856.20001220703</ele>
        <time>2023-05-06T09:09:31Z</time>
      </trkpt>
      <trkpt lat="44.3463" lon="3.261">
        <ele>857</ele>
        <time>2023-05-06T09:09:39Z</time>
      </trkpt>
      <trkpt lat="44.34646" lon="3.26093">
        <ele>858.59997558594</ele>
        <time>2023-05-06T09:09:49Z</time>
      </trkpt>
      <trkpt lat="44.34658" lon="3.26089">
        <ele>859.79998779297</ele>
        <time>2023-05-06T09:09:56Z</time>
      </trkpt>
      <trkpt lat="44.34669" lon="3.26087">
        <ele>861</ele>
        <time>2023-05-06T09:10:02Z</time>
      </trkpt>
      <trkpt lat="44.3468" lon="3.26086">
        <ele>861.79998779297</ele>
        <time>2023-05-06T09:10:08Z</time>
      </trkpt>
      <trkpt lat="44.34686" lon="3.26084">
        <ele>862.40002441406</ele>
        <time>2023-05-06T09:10:12Z</time>
      </trkpt>
      <trkpt lat="44.34698" lon="3.26081">
        <ele>863.40002441406</ele>
        <time>2023-05-06T09:10:18Z</time>
      </trkpt>
      <trkpt lat="44.34715" lon="3.26078">
        <ele>865</ele>
        <time>2023-05-06T09:10:28Z</time>
      </trkpt>
      <trkpt lat="44.34732" lon="3.26076">
        <ele>866</ele>
        <time>2023-05-06T09:10:35Z</time>
      </trkpt>
      <trkpt lat="44.34752" lon="3.26069">
        <ele>867</ele>
        <time>2023-05-06T09:10:43Z</time>
      </trkpt>
      <trkpt lat="44.34775" lon="3.26057">
        <ele>867.59997558594</ele>
        <time>2023-05-06T09:10:51Z</time>
      </trkpt>
      <trkpt lat="44.34783" lon="3.26052">
        <ele>867.59997558594</ele>
        <time>2023-05-06T09:10:53Z</time>
      </trkpt>
      <trkpt lat="44.34795" lon="3.26048">
        <ele>867.59997558594</ele>
        <time>2023-05-06T09:10:55Z</time>
      </trkpt>
      <trkpt lat="44.34827" lon="3.26035">
        <ele>867.59997558594</ele>
        <time>2023-05-06T09:10:59Z</time>
      </trkpt>
      <trkpt lat="44.34869" lon="3.2602">
        <ele>868</ele>
        <time>2023-05-06T09:11:04Z</time>
      </trkpt>
      <trkpt lat="44.34901" lon="3.26009">
        <ele>868.40002441406</ele>
        <time>2023-05-06T09:11:09Z</time>
      </trkpt>
      <trkpt lat="44.34906" lon="3.26008">
        <ele>868.59997558594</ele>
        <time>2023-05-06T09:11:10Z</time>
      </trkpt>
      <trkpt lat="44.34915" lon="3.26009">
        <ele>868.79998779297</ele>
        <time>2023-05-06T09:11:12Z</time>
      </trkpt>
      <trkpt lat="44.34919" lon="3.2601">
        <ele>868.79998779297</ele>
        <time>2023-05-06T09:11:13Z</time>
      </trkpt>
      <trkpt lat="44.34935" lon="3.26017">
        <ele>869.40002441406</ele>
        <time>2023-05-06T09:11:18Z</time>
      </trkpt>
      <trkpt lat="44.34955" lon="3.26021">
        <ele>870</ele>
        <time>2023-05-06T09:11:24Z</time>
      </trkpt>
      <trkpt lat="44.34974" lon="3.26022">
        <ele>870.59997558594</ele>
        <time>2023-05-06T09:11:31Z</time>
      </trkpt>
      <trkpt lat="44.34985" lon="3.26023">
        <ele>871</ele>
        <time>2023-05-06T09:11:37Z</time>
      </trkpt>
      <trkpt lat="44.34987" lon="3.26023">
        <ele>871</ele>
        <time>2023-05-06T09:11:38Z</time>
      </trkpt>
      <trkpt lat="44.34993" lon="3.26023">
        <ele>871.40002441406</ele>
        <time>2023-05-06T09:11:42Z</time>
      </trkpt>
      <trkpt lat="44.35005" lon="3.2602">
        <ele>872</ele>
        <time>2023-05-06T09:11:49Z</time>
      </trkpt>
      <trkpt lat="44.35013" lon="3.26017">
        <ele>872.20001220703</ele>
        <time>2023-05-06T09:11:54Z</time>
      </trkpt>
      <trkpt lat="44.35023" lon="3.26012">
        <ele>872.59997558594</ele>
        <time>2023-05-06T09:12:01Z</time>
      </trkpt>
      <trkpt lat="44.35034" lon="3.26009">
        <ele>873.59997558594</ele>
        <time>2023-05-06T09:12:10Z</time>
      </trkpt>
      <trkpt lat="44.3504" lon="3.26007">
        <ele>874</ele>
        <time>2023-05-06T09:12:16Z</time>
      </trkpt>
      <trkpt lat="44.35047" lon="3.26006">
        <ele>874.59997558594</ele>
        <time>2023-05-06T09:12:22Z</time>
      </trkpt>
      <trkpt lat="44.35053" lon="3.26007">
        <ele>875.20001220703</ele>
        <time>2023-05-06T09:12:28Z</time>
      </trkpt>
      <trkpt lat="44.35057" lon="3.26008">
        <ele>875.79998779297</ele>
        <time>2023-05-06T09:12:32Z</time>
      </trkpt>
      <trkpt lat="44.35061" lon="3.26008">
        <ele>876.40002441406</ele>
        <time>2023-05-06T09:12:35Z</time>
      </trkpt>
      <trkpt lat="44.35069" lon="3.2601">
        <ele>877.40002441406</ele>
        <time>2023-05-06T09:12:41Z</time>
      </trkpt>
      <trkpt lat="44.35078" lon="3.26015">
        <ele>879</ele>
        <time>2023-05-06T09:12:49Z</time>
      </trkpt>
      <trkpt lat="44.35086" lon="3.26022">
        <ele>880.20001220703</ele>
        <time>2023-05-06T09:12:55Z</time>
      </trkpt>
      <trkpt lat="44.35089" lon="3.26026">
        <ele>880.59997558594</ele>
        <time>2023-05-06T09:12:58Z</time>
      </trkpt>
      <trkpt lat="44.35091" lon="3.26029">
        <ele>881</ele>
        <time>2023-05-06T09:13:00Z</time>
      </trkpt>
      <trkpt lat="44.35091" lon="3.26031">
        <ele>881</ele>
        <time>2023-05-06T09:13:01Z</time>
      </trkpt>
      <trkpt lat="44.35091" lon="3.26035">
        <ele>881.40002441406</ele>
        <time>2023-05-06T09:13:03Z</time>
      </trkpt>
      <trkpt lat="44.35092" lon="3.26036">
        <ele>881.59997558594</ele>
        <time>2023-05-06T09:13:04Z</time>
      </trkpt>
      <trkpt lat="44.35095" lon="3.26054">
        <ele>882.20001220703</ele>
        <time>2023-05-06T09:13:10Z</time>
      </trkpt>
      <trkpt lat="44.35096" lon="3.26062">
        <ele>882.20001220703</ele>
        <time>2023-05-06T09:13:12Z</time>
      </trkpt>
      <trkpt lat="44.351" lon="3.26069">
        <ele>882</ele>
        <time>2023-05-06T09:13:14Z</time>
      </trkpt>
      <trkpt lat="44.35112" lon="3.26069">
        <ele>882</ele>
        <time>2023-05-06T09:13:16Z</time>
      </trkpt>
      <trkpt lat="44.35118" lon="3.26066">
        <ele>881.79998779297</ele>
        <time>2023-05-06T09:13:17Z</time>
      </trkpt>
      <trkpt lat="44.35125" lon="3.26061">
        <ele>881.79998779297</ele>
        <time>2023-05-06T09:13:18Z</time>
      </trkpt>
      <trkpt lat="44.35142" lon="3.26048">
        <ele>881.59997558594</ele>
        <time>2023-05-06T09:13:20Z</time>
      </trkpt>
      <trkpt lat="44.35159" lon="3.26039">
        <ele>881.40002441406</ele>
        <time>2023-05-06T09:13:22Z</time>
      </trkpt>
      <trkpt lat="44.35168" lon="3.26038">
        <ele>881.20001220703</ele>
        <time>2023-05-06T09:13:23Z</time>
      </trkpt>
      <trkpt lat="44.35177" lon="3.2604">
        <ele>881</ele>
        <time>2023-05-06T09:13:24Z</time>
      </trkpt>
      <trkpt lat="44.35193" lon="3.26048">
        <ele>880.40002441406</ele>
        <time>2023-05-06T09:13:26Z</time>
      </trkpt>
      <trkpt lat="44.35213" lon="3.26072">
        <ele>879.79998779297</ele>
        <time>2023-05-06T09:13:29Z</time>
      </trkpt>
      <trkpt lat="44.35242" lon="3.26121">
        <ele>878.40002441406</ele>
        <time>2023-05-06T09:13:33Z</time>
      </trkpt>
      <trkpt lat="44.35251" lon="3.26133">
        <ele>878</ele>
        <time>2023-05-06T09:13:34Z</time>
      </trkpt>
      <trkpt lat="44.35271" lon="3.26152">
        <ele>877.40002441406</ele>
        <time>2023-05-06T09:13:36Z</time>
      </trkpt>
      <trkpt lat="44.35293" lon="3.26162">
        <ele>876.40002441406</ele>
        <time>2023-05-06T09:13:38Z</time>
      </trkpt>
      <trkpt lat="44.35304" lon="3.26164">
        <ele>876</ele>
        <time>2023-05-06T09:13:39Z</time>
      </trkpt>
      <trkpt lat="44.35363" lon="3.26166">
        <ele>873.79998779297</ele>
        <time>2023-05-06T09:13:44Z</time>
      </trkpt>
      <trkpt lat="44.3538" lon="3.26154">
        <ele>872.79998779297</ele>
        <time>2023-05-06T09:13:46Z</time>
      </trkpt>
      <trkpt lat="44.35402" lon="3.26126">
        <ele>871.40002441406</ele>
        <time>2023-05-06T09:13:49Z</time>
      </trkpt>
      <trkpt lat="44.35407" lon="3.26119">
        <ele>871</ele>
        <time>2023-05-06T09:13:50Z</time>
      </trkpt>
      <trkpt lat="44.3542" lon="3.26114">
        <ele>870.40002441406</ele>
        <time>2023-05-06T09:13:52Z</time>
      </trkpt>
      <trkpt lat="44.35444" lon="3.26114">
        <ele>869</ele>
        <time>2023-05-06T09:13:55Z</time>
      </trkpt>
      <trkpt lat="44.35462" lon="3.2611">
        <ele>868</ele>
        <time>2023-05-06T09:13:57Z</time>
      </trkpt>
      <trkpt lat="44.35472" lon="3.26105">
        <ele>867.59997558594</ele>
        <time>2023-05-06T09:13:58Z</time>
      </trkpt>
      <trkpt lat="44.35504" lon="3.26083">
        <ele>865.79998779297</ele>
        <time>2023-05-06T09:14:01Z</time>
      </trkpt>
      <trkpt lat="44.35545" lon="3.26056">
        <ele>863.40002441406</ele>
        <time>2023-05-06T09:14:05Z</time>
      </trkpt>
      <trkpt lat="44.35563" lon="3.26052">
        <ele>862.40002441406</ele>
        <time>2023-05-06T09:14:07Z</time>
      </trkpt>
      <trkpt lat="44.35572" lon="3.26051">
        <ele>861.79998779297</ele>
        <time>2023-05-06T09:14:08Z</time>
      </trkpt>
      <trkpt lat="44.35582" lon="3.26049">
        <ele>861.20001220703</ele>
        <time>2023-05-06T09:14:09Z</time>
      </trkpt>
      <trkpt lat="44.35598" lon="3.26035">
        <ele>860.20001220703</ele>
        <time>2023-05-06T09:14:11Z</time>
      </trkpt>
      <trkpt lat="44.35618" lon="3.26009">
        <ele>858.40002441406</ele>
        <time>2023-05-06T09:14:14Z</time>
      </trkpt>
      <trkpt lat="44.35633" lon="3.25997">
        <ele>857.20001220703</ele>
        <time>2023-05-06T09:14:16Z</time>
      </trkpt>
      <trkpt lat="44.35642" lon="3.25992">
        <ele>856.59997558594</ele>
        <time>2023-05-06T09:14:17Z</time>
      </trkpt>
      <trkpt lat="44.3565" lon="3.25989">
        <ele>855.79998779297</ele>
        <time>2023-05-06T09:14:18Z</time>
      </trkpt>
      <trkpt lat="44.35664" lon="3.25992">
        <ele>854.59997558594</ele>
        <time>2023-05-06T09:14:20Z</time>
      </trkpt>
      <trkpt lat="44.35683" lon="3.26009">
        <ele>852.79998779297</ele>
        <time>2023-05-06T09:14:23Z</time>
      </trkpt>
      <trkpt lat="44.35703" lon="3.26035">
        <ele>851.59997558594</ele>
        <time>2023-05-06T09:14:26Z</time>
      </trkpt>
      <trkpt lat="44.35709" lon="3.26044">
        <ele>851</ele>
        <time>2023-05-06T09:14:27Z</time>
      </trkpt>
      <trkpt lat="44.35744" lon="3.26101">
        <ele>848.40002441406</ele>
        <time>2023-05-06T09:14:33Z</time>
      </trkpt>
      <trkpt lat="44.35757" lon="3.26109">
        <ele>847.40002441406</ele>
        <time>2023-05-06T09:14:35Z</time>
      </trkpt>
      <trkpt lat="44.3577" lon="3.26108">
        <ele>846.40002441406</ele>
        <time>2023-05-06T09:14:37Z</time>
      </trkpt>
      <trkpt lat="44.35777" lon="3.26104">
        <ele>845.79998779297</ele>
        <time>2023-05-06T09:14:38Z</time>
      </trkpt>
      <trkpt lat="44.35791" lon="3.26099">
        <ele>845</ele>
        <time>2023-05-06T09:14:40Z</time>
      </trkpt>
      <trkpt lat="44.35805" lon="3.26097">
        <ele>844.20001220703</ele>
        <time>2023-05-06T09:14:42Z</time>
      </trkpt>
      <trkpt lat="44.35819" lon="3.26095">
        <ele>843.40002441406</ele>
        <time>2023-05-06T09:14:44Z</time>
      </trkpt>
      <trkpt lat="44.35827" lon="3.26097">
        <ele>843</ele>
        <time>2023-05-06T09:14:45Z</time>
      </trkpt>
      <trkpt lat="44.35842" lon="3.26102">
        <ele>842.40002441406</ele>
        <time>2023-05-06T09:14:47Z</time>
      </trkpt>
      <trkpt lat="44.35856" lon="3.2611">
        <ele>842</ele>
        <time>2023-05-06T09:14:49Z</time>
      </trkpt>
      <trkpt lat="44.35862" lon="3.26114">
        <ele>841.59997558594</ele>
        <time>2023-05-06T09:14:50Z</time>
      </trkpt>
      <trkpt lat="44.35872" lon="3.26128">
        <ele>841</ele>
        <time>2023-05-06T09:14:52Z</time>
      </trkpt>
      <trkpt lat="44.35877" lon="3.26156">
        <ele>840.20001220703</ele>
        <time>2023-05-06T09:14:55Z</time>
      </trkpt>
      <trkpt lat="44.35885" lon="3.26174">
        <ele>839.40002441406</ele>
        <time>2023-05-06T09:14:57Z</time>
      </trkpt>
      <trkpt lat="44.35891" lon="3.26181">
        <ele>839</ele>
        <time>2023-05-06T09:14:58Z</time>
      </trkpt>
      <trkpt lat="44.35902" lon="3.26195">
        <ele>838.40002441406</ele>
        <time>2023-05-06T09:15:00Z</time>
      </trkpt>
      <trkpt lat="44.35913" lon="3.26208">
        <ele>837.79998779297</ele>
        <time>2023-05-06T09:15:02Z</time>
      </trkpt>
      <trkpt lat="44.35928" lon="3.26224">
        <ele>836.79998779297</ele>
        <time>2023-05-06T09:15:05Z</time>
      </trkpt>
      <trkpt lat="44.35933" lon="3.26227">
        <ele>836.40002441406</ele>
        <time>2023-05-06T09:15:06Z</time>
      </trkpt>
      <trkpt lat="44.35937" lon="3.26229">
        <ele>836.20001220703</ele>
        <time>2023-05-06T09:15:07Z</time>
      </trkpt>
      <trkpt lat="44.35949" lon="3.26228">
        <ele>835.59997558594</ele>
        <time>2023-05-06T09:15:09Z</time>
      </trkpt>
      <trkpt lat="44.35972" lon="3.26218">
        <ele>834</ele>
        <time>2023-05-06T09:15:13Z</time>
      </trkpt>
      <trkpt lat="44.36" lon="3.26215">
        <ele>832.20001220703</ele>
        <time>2023-05-06T09:15:18Z</time>
      </trkpt>
      <trkpt lat="44.3601" lon="3.26215">
        <ele>831.59997558594</ele>
        <time>2023-05-06T09:15:20Z</time>
      </trkpt>
      <trkpt lat="44.36027" lon="3.2621">
        <ele>830.59997558594</ele>
        <time>2023-05-06T09:15:23Z</time>
      </trkpt>
      <trkpt lat="44.36059" lon="3.26195">
        <ele>828.59997558594</ele>
        <time>2023-05-06T09:15:28Z</time>
      </trkpt>
      <trkpt lat="44.36074" lon="3.26191">
        <ele>827.79998779297</ele>
        <time>2023-05-06T09:15:30Z</time>
      </trkpt>
      <trkpt lat="44.36091" lon="3.2619">
        <ele>827.40002441406</ele>
        <time>2023-05-06T09:15:32Z</time>
      </trkpt>
      <trkpt lat="44.36108" lon="3.26194">
        <ele>826.79998779297</ele>
        <time>2023-05-06T09:15:34Z</time>
      </trkpt>
      <trkpt lat="44.36116" lon="3.26197">
        <ele>826.59997558594</ele>
        <time>2023-05-06T09:15:35Z</time>
      </trkpt>
      <trkpt lat="44.36124" lon="3.262">
        <ele>826.20001220703</ele>
        <time>2023-05-06T09:15:36Z</time>
      </trkpt>
      <trkpt lat="44.36141" lon="3.262">
        <ele>825.59997558594</ele>
        <time>2023-05-06T09:15:38Z</time>
      </trkpt>
      <trkpt lat="44.36155" lon="3.26193">
        <ele>824.79998779297</ele>
        <time>2023-05-06T09:15:40Z</time>
      </trkpt>
      <trkpt lat="44.36161" lon="3.26188">
        <ele>824.59997558594</ele>
        <time>2023-05-06T09:15:41Z</time>
      </trkpt>
      <trkpt lat="44.36166" lon="3.26182">
        <ele>824.20001220703</ele>
        <time>2023-05-06T09:15:42Z</time>
      </trkpt>
      <trkpt lat="44.36175" lon="3.26167">
        <ele>823.59997558594</ele>
        <time>2023-05-06T09:15:44Z</time>
      </trkpt>
      <trkpt lat="44.36198" lon="3.26126">
        <ele>822</ele>
        <time>2023-05-06T09:15:49Z</time>
      </trkpt>
      <trkpt lat="44.36204" lon="3.26118">
        <ele>821.79998779297</ele>
        <time>2023-05-06T09:15:50Z</time>
      </trkpt>
      <trkpt lat="44.36215" lon="3.26105">
        <ele>821.40002441406</ele>
        <time>2023-05-06T09:15:52Z</time>
      </trkpt>
      <trkpt lat="44.3623" lon="3.26097">
        <ele>821.20001220703</ele>
        <time>2023-05-06T09:15:54Z</time>
      </trkpt>
      <trkpt lat="44.36237" lon="3.26094">
        <ele>821</ele>
        <time>2023-05-06T09:15:55Z</time>
      </trkpt>
      <trkpt lat="44.36259" lon="3.26083">
        <ele>820.40002441406</ele>
        <time>2023-05-06T09:15:58Z</time>
      </trkpt>
      <trkpt lat="44.36305" lon="3.26054">
        <ele>819.20001220703</ele>
        <time>2023-05-06T09:16:04Z</time>
      </trkpt>
      <trkpt lat="44.36341" lon="3.26018">
        <ele>817.79998779297</ele>
        <time>2023-05-06T09:16:09Z</time>
      </trkpt>
      <trkpt lat="44.36347" lon="3.26011">
        <ele>817.59997558594</ele>
        <time>2023-05-06T09:16:10Z</time>
      </trkpt>
      <trkpt lat="44.36375" lon="3.2599">
        <ele>816.59997558594</ele>
        <time>2023-05-06T09:16:14Z</time>
      </trkpt>
      <trkpt lat="44.36403" lon="3.25972">
        <ele>815.40002441406</ele>
        <time>2023-05-06T09:16:18Z</time>
      </trkpt>
      <trkpt lat="44.36408" lon="3.25964">
        <ele>815.20001220703</ele>
        <time>2023-05-06T09:16:19Z</time>
      </trkpt>
      <trkpt lat="44.36413" lon="3.25955">
        <ele>815</ele>
        <time>2023-05-06T09:16:20Z</time>
      </trkpt>
      <trkpt lat="44.36423" lon="3.25939">
        <ele>814.79998779297</ele>
        <time>2023-05-06T09:16:22Z</time>
      </trkpt>
      <trkpt lat="44.36428" lon="3.25932">
        <ele>814.59997558594</ele>
        <time>2023-05-06T09:16:23Z</time>
      </trkpt>
      <trkpt lat="44.36433" lon="3.25927">
        <ele>814.59997558594</ele>
        <time>2023-05-06T09:16:24Z</time>
      </trkpt>
      <trkpt lat="44.36445" lon="3.25923">
        <ele>814.40002441406</ele>
        <time>2023-05-06T09:16:26Z</time>
      </trkpt>
      <trkpt lat="44.36452" lon="3.2592">
        <ele>814.40002441406</ele>
        <time>2023-05-06T09:16:27Z</time>
      </trkpt>
      <trkpt lat="44.36462" lon="3.25909">
        <ele>814.20001220703</ele>
        <time>2023-05-06T09:16:29Z</time>
      </trkpt>
      <trkpt lat="44.36466" lon="3.25891">
        <ele>814</ele>
        <time>2023-05-06T09:16:31Z</time>
      </trkpt>
      <trkpt lat="44.36467" lon="3.25883">
        <ele>814</ele>
        <time>2023-05-06T09:16:32Z</time>
      </trkpt>
      <trkpt lat="44.36467" lon="3.25874">
        <ele>814</ele>
        <time>2023-05-06T09:16:33Z</time>
      </trkpt>
      <trkpt lat="44.3647" lon="3.25837">
        <ele>813.59997558594</ele>
        <time>2023-05-06T09:16:37Z</time>
      </trkpt>
      <trkpt lat="44.36474" lon="3.25783">
        <ele>813</ele>
        <time>2023-05-06T09:16:43Z</time>
      </trkpt>
      <trkpt lat="44.36475" lon="3.25776">
        <ele>812.79998779297</ele>
        <time>2023-05-06T09:16:44Z</time>
      </trkpt>
      <trkpt lat="44.36481" lon="3.25739">
        <ele>812.20001220703</ele>
        <time>2023-05-06T09:16:49Z</time>
      </trkpt>
      <trkpt lat="44.36496" lon="3.25706">
        <ele>811.79998779297</ele>
        <time>2023-05-06T09:16:54Z</time>
      </trkpt>
      <trkpt lat="44.36506" lon="3.25687">
        <ele>811.40002441406</ele>
        <time>2023-05-06T09:16:57Z</time>
      </trkpt>
      <trkpt lat="44.36512" lon="3.25673">
        <ele>811</ele>
        <time>2023-05-06T09:16:59Z</time>
      </trkpt>
      <trkpt lat="44.36523" lon="3.25644">
        <ele>810</ele>
        <time>2023-05-06T09:17:04Z</time>
      </trkpt>
      <trkpt lat="44.3654" lon="3.2562">
        <ele>809.20001220703</ele>
        <time>2023-05-06T09:17:10Z</time>
      </trkpt>
      <trkpt lat="44.36554" lon="3.25604">
        <ele>808.59997558594</ele>
        <time>2023-05-06T09:17:14Z</time>
      </trkpt>
      <trkpt lat="44.36562" lon="3.25595">
        <ele>808.20001220703</ele>
        <time>2023-05-06T09:17:16Z</time>
      </trkpt>
      <trkpt lat="44.36591" lon="3.25572">
        <ele>807.40002441406</ele>
        <time>2023-05-06T09:17:21Z</time>
      </trkpt>
      <trkpt lat="44.36619" lon="3.25553">
        <ele>807.20001220703</ele>
        <time>2023-05-06T09:17:26Z</time>
      </trkpt>
      <trkpt lat="44.3664" lon="3.25539">
        <ele>806.79998779297</ele>
        <time>2023-05-06T09:17:31Z</time>
      </trkpt>
      <trkpt lat="44.36666" lon="3.25521">
        <ele>805.79998779297</ele>
        <time>2023-05-06T09:17:38Z</time>
      </trkpt>
      <trkpt lat="44.36681" lon="3.25505">
        <ele>805.20001220703</ele>
        <time>2023-05-06T09:17:42Z</time>
      </trkpt>
      <trkpt lat="44.36684" lon="3.25501">
        <ele>805</ele>
        <time>2023-05-06T09:17:43Z</time>
      </trkpt>
      <trkpt lat="44.36704" lon="3.25467">
        <ele>803.59997558594</ele>
        <time>2023-05-06T09:17:49Z</time>
      </trkpt>
      <trkpt lat="44.36706" lon="3.25461">
        <ele>803.40002441406</ele>
        <time>2023-05-06T09:17:50Z</time>
      </trkpt>
      <trkpt lat="44.36716" lon="3.25435">
        <ele>802.59997558594</ele>
        <time>2023-05-06T09:17:54Z</time>
      </trkpt>
      <trkpt lat="44.36733" lon="3.25396">
        <ele>801.40002441406</ele>
        <time>2023-05-06T09:18:00Z</time>
      </trkpt>
      <trkpt lat="44.36745" lon="3.25372">
        <ele>800.40002441406</ele>
        <time>2023-05-06T09:18:04Z</time>
      </trkpt>
      <trkpt lat="44.36755" lon="3.25355">
        <ele>800</ele>
        <time>2023-05-06T09:18:07Z</time>
      </trkpt>
      <trkpt lat="44.36775" lon="3.25326">
        <ele>798.79998779297</ele>
        <time>2023-05-06T09:18:12Z</time>
      </trkpt>
      <trkpt lat="44.36804" lon="3.25295">
        <ele>797.59997558594</ele>
        <time>2023-05-06T09:18:18Z</time>
      </trkpt>
      <trkpt lat="44.36838" lon="3.25282">
        <ele>796.79998779297</ele>
        <time>2023-05-06T09:18:23Z</time>
      </trkpt>
      <trkpt lat="44.36872" lon="3.25282">
        <ele>796.59997558594</ele>
        <time>2023-05-06T09:18:28Z</time>
      </trkpt>
      <trkpt lat="44.36879" lon="3.25283">
        <ele>796.40002441406</ele>
        <time>2023-05-06T09:18:29Z</time>
      </trkpt>
      <trkpt lat="44.36893" lon="3.2528">
        <ele>796.20001220703</ele>
        <time>2023-05-06T09:18:31Z</time>
      </trkpt>
      <trkpt lat="44.36899" lon="3.25276">
        <ele>796</ele>
        <time>2023-05-06T09:18:32Z</time>
      </trkpt>
      <trkpt lat="44.36916" lon="3.2526">
        <ele>795.79998779297</ele>
        <time>2023-05-06T09:18:35Z</time>
      </trkpt>
      <trkpt lat="44.36946" lon="3.25226">
        <ele>795.59997558594</ele>
        <time>2023-05-06T09:18:40Z</time>
      </trkpt>
      <trkpt lat="44.36964" lon="3.25206">
        <ele>795.79998779297</ele>
        <time>2023-05-06T09:18:43Z</time>
      </trkpt>
      <trkpt lat="44.36975" lon="3.25192">
        <ele>795.79998779297</ele>
        <time>2023-05-06T09:18:45Z</time>
      </trkpt>
      <trkpt lat="44.36981" lon="3.25187">
        <ele>796</ele>
        <time>2023-05-06T09:18:46Z</time>
      </trkpt>
      <trkpt lat="44.36991" lon="3.25179">
        <ele>796.20001220703</ele>
        <time>2023-05-06T09:18:48Z</time>
      </trkpt>
      <trkpt lat="44.36997" lon="3.25177">
        <ele>796.40002441406</ele>
        <time>2023-05-06T09:18:49Z</time>
      </trkpt>
      <trkpt lat="44.37015" lon="3.25176">
        <ele>796.79998779297</ele>
        <time>2023-05-06T09:18:53Z</time>
      </trkpt>
      <trkpt lat="44.37037" lon="3.25179">
        <ele>797.40002441406</ele>
        <time>2023-05-06T09:19:00Z</time>
      </trkpt>
      <trkpt lat="44.37059" lon="3.25184">
        <ele>798.20001220703</ele>
        <time>2023-05-06T09:19:08Z</time>
      </trkpt>
      <trkpt lat="44.37077" lon="3.25188">
        <ele>799</ele>
        <time>2023-05-06T09:19:15Z</time>
      </trkpt>
      <trkpt lat="44.37084" lon="3.25191">
        <ele>799.59997558594</ele>
        <time>2023-05-06T09:19:19Z</time>
      </trkpt>
      <trkpt lat="44.37087" lon="3.25191">
        <ele>800</ele>
        <time>2023-05-06T09:19:21Z</time>
      </trkpt>
      <trkpt lat="44.37097" lon="3.25193">
        <ele>800.79998779297</ele>
        <time>2023-05-06T09:19:28Z</time>
      </trkpt>
      <trkpt lat="44.37105" lon="3.25193">
        <ele>801.79998779297</ele>
        <time>2023-05-06T09:19:34Z</time>
      </trkpt>
      <trkpt lat="44.37115" lon="3.25192">
        <ele>802.59997558594</ele>
        <time>2023-05-06T09:19:41Z</time>
      </trkpt>
      <trkpt lat="44.37124" lon="3.25191">
        <ele>803.59997558594</ele>
        <time>2023-05-06T09:19:48Z</time>
      </trkpt>
      <trkpt lat="44.37134" lon="3.25191">
        <ele>804.79998779297</ele>
        <time>2023-05-06T09:19:55Z</time>
      </trkpt>
      <trkpt lat="44.37145" lon="3.2519">
        <ele>805.79998779297</ele>
        <time>2023-05-06T09:20:03Z</time>
      </trkpt>
      <trkpt lat="44.37158" lon="3.25184">
        <ele>807.40002441406</ele>
        <time>2023-05-06T09:20:13Z</time>
      </trkpt>
      <trkpt lat="44.37168" lon="3.25182">
        <ele>808.59997558594</ele>
        <time>2023-05-06T09:20:20Z</time>
      </trkpt>
      <trkpt lat="44.37171" lon="3.25181">
        <ele>808.79998779297</ele>
        <time>2023-05-06T09:20:22Z</time>
      </trkpt>
      <trkpt lat="44.37175" lon="3.25167">
        <ele>809.40002441406</ele>
        <time>2023-05-06T09:20:27Z</time>
      </trkpt>
      <trkpt lat="44.37175" lon="3.25144">
        <ele>809.59997558594</ele>
        <time>2023-05-06T09:20:30Z</time>
      </trkpt>
      <trkpt lat="44.37176" lon="3.25094">
        <ele>809.59997558594</ele>
        <time>2023-05-06T09:20:34Z</time>
      </trkpt>
      <trkpt lat="44.37175" lon="3.25081">
        <ele>809.59997558594</ele>
        <time>2023-05-06T09:20:35Z</time>
      </trkpt>
      <trkpt lat="44.3717" lon="3.25055">
        <ele>809.40002441406</ele>
        <time>2023-05-06T09:20:37Z</time>
      </trkpt>
      <trkpt lat="44.37158" lon="3.25036">
        <ele>809.20001220703</ele>
        <time>2023-05-06T09:20:39Z</time>
      </trkpt>
      <trkpt lat="44.37152" lon="3.25032">
        <ele>809.20001220703</ele>
        <time>2023-05-06T09:20:40Z</time>
      </trkpt>
      <trkpt lat="44.37141" lon="3.25025">
        <ele>809</ele>
        <time>2023-05-06T09:20:42Z</time>
      </trkpt>
      <trkpt lat="44.37137" lon="3.2502">
        <ele>808.79998779297</ele>
        <time>2023-05-06T09:20:43Z</time>
      </trkpt>
      <trkpt lat="44.37134" lon="3.25013">
        <ele>808.79998779297</ele>
        <time>2023-05-06T09:20:44Z</time>
      </trkpt>
      <trkpt lat="44.37134" lon="3.24997">
        <ele>808.59997558594</ele>
        <time>2023-05-06T09:20:46Z</time>
      </trkpt>
      <trkpt lat="44.37142" lon="3.24957">
        <ele>807.79998779297</ele>
        <time>2023-05-06T09:20:51Z</time>
      </trkpt>
      <trkpt lat="44.37147" lon="3.2493">
        <ele>807.20001220703</ele>
        <time>2023-05-06T09:20:55Z</time>
      </trkpt>
      <trkpt lat="44.3715" lon="3.24922">
        <ele>806.79998779297</ele>
        <time>2023-05-06T09:20:58Z</time>
      </trkpt>
      <trkpt lat="44.3715" lon="3.24921">
        <ele>807</ele>
        <time>2023-05-06T09:20:59Z</time>
      </trkpt>
      <trkpt lat="44.3715" lon="3.24921">
        <ele>806.40002441406</ele>
        <time>2023-05-06T09:21:10Z</time>
      </trkpt>
      <trkpt lat="44.3715" lon="3.24921">
        <ele>805.59997558594</ele>
        <time>2023-05-06T09:21:22Z</time>
      </trkpt>
      <trkpt lat="44.3715" lon="3.24921">
        <ele>805.20001220703</ele>
        <time>2023-05-06T09:21:31Z</time>
      </trkpt>
      <trkpt lat="44.3715" lon="3.2492">
        <ele>804.59997558594</ele>
        <time>2023-05-06T09:21:42Z</time>
      </trkpt>
      <trkpt lat="44.3715" lon="3.2492">
        <ele>804.20001220703</ele>
        <time>2023-05-06T09:21:56Z</time>
      </trkpt>
      <trkpt lat="44.3715" lon="3.2492">
        <ele>803.59997558594</ele>
        <time>2023-05-06T09:22:14Z</time>
      </trkpt>
      <trkpt lat="44.3715" lon="3.2492">
        <ele>803.20001220703</ele>
        <time>2023-05-06T09:22:33Z</time>
      </trkpt>
      <trkpt lat="44.3715" lon="3.2492">
        <ele>802.79998779297</ele>
        <time>2023-05-06T09:22:50Z</time>
      </trkpt>
      <trkpt lat="44.3715" lon="3.2492">
        <ele>802.59997558594</ele>
        <time>2023-05-06T09:23:08Z</time>
      </trkpt>
      <trkpt lat="44.3715" lon="3.2492">
        <ele>802.40002441406</ele>
        <time>2023-05-06T09:23:25Z</time>
      </trkpt>
      <trkpt lat="44.37151" lon="3.24919">
        <ele>802.40002441406</ele>
        <time>2023-05-06T09:23:45Z</time>
      </trkpt>
      <trkpt lat="44.37151" lon="3.24919">
        <ele>802.20001220703</ele>
        <time>2023-05-06T09:24:05Z</time>
      </trkpt>
      <trkpt lat="44.37151" lon="3.24919">
        <ele>802.20001220703</ele>
        <time>2023-05-06T09:24:24Z</time>
      </trkpt>
      <trkpt lat="44.37151" lon="3.24919">
        <ele>802</ele>
        <time>2023-05-06T09:24:38Z</time>
      </trkpt>
      <trkpt lat="44.37151" lon="3.24919">
        <ele>802</ele>
        <time>2023-05-06T09:24:57Z</time>
      </trkpt>
      <trkpt lat="44.37151" lon="3.24918">
        <ele>802</ele>
        <time>2023-05-06T09:25:19Z</time>
      </trkpt>
      <trkpt lat="44.37151" lon="3.24918">
        <ele>802</ele>
        <time>2023-05-06T09:25:38Z</time>
      </trkpt>
      <trkpt lat="44.37151" lon="3.24918">
        <ele>802</ele>
        <time>2023-05-06T09:25:59Z</time>
      </trkpt>
      <trkpt lat="44.37151" lon="3.24917">
        <ele>802.20001220703</ele>
        <time>2023-05-06T09:26:22Z</time>
      </trkpt>
      <trkpt lat="44.37151" lon="3.24917">
        <ele>802.20001220703</ele>
        <time>2023-05-06T09:26:44Z</time>
      </trkpt>
      <trkpt lat="44.37151" lon="3.24918">
        <ele>802.40002441406</ele>
        <time>2023-05-06T09:27:05Z</time>
      </trkpt>
      <trkpt lat="44.37151" lon="3.24918">
        <ele>802.40002441406</ele>
        <time>2023-05-06T09:27:28Z</time>
      </trkpt>
      <trkpt lat="44.37152" lon="3.24918">
        <ele>802.40002441406</ele>
        <time>2023-05-06T09:27:50Z</time>
      </trkpt>
      <trkpt lat="44.37152" lon="3.24918">
        <ele>802.40002441406</ele>
        <time>2023-05-06T09:28:09Z</time>
      </trkpt>
      <trkpt lat="44.37152" lon="3.24918">
        <ele>802.40002441406</ele>
        <time>2023-05-06T09:28:27Z</time>
      </trkpt>
      <trkpt lat="44.3715" lon="3.24916">
        <ele>802.79998779297</ele>
        <time>2023-05-06T09:28:33Z</time>
      </trkpt>
      <trkpt lat="44.3715" lon="3.24912">
        <ele>803</ele>
        <time>2023-05-06T09:28:38Z</time>
      </trkpt>
      <trkpt lat="44.3715" lon="3.24911">
        <ele>803</ele>
        <time>2023-05-06T09:28:39Z</time>
      </trkpt>
      <trkpt lat="44.37151" lon="3.24906">
        <ele>803</ele>
        <time>2023-05-06T09:28:44Z</time>
      </trkpt>
      <trkpt lat="44.37152" lon="3.24903">
        <ele>803</ele>
        <time>2023-05-06T09:28:46Z</time>
      </trkpt>
      <trkpt lat="44.37154" lon="3.24898">
        <ele>803</ele>
        <time>2023-05-06T09:28:49Z</time>
      </trkpt>
      <trkpt lat="44.37155" lon="3.24894">
        <ele>803</ele>
        <time>2023-05-06T09:28:53Z</time>
      </trkpt>
      <trkpt lat="44.37155" lon="3.24892">
        <ele>802.59997558594</ele>
        <time>2023-05-06T09:28:58Z</time>
      </trkpt>
      <trkpt lat="44.37154" lon="3.24888">
        <ele>802.40002441406</ele>
        <time>2023-05-06T09:29:03Z</time>
      </trkpt>
      <trkpt lat="44.37155" lon="3.24883">
        <ele>802</ele>
        <time>2023-05-06T09:29:06Z</time>
      </trkpt>
      <trkpt lat="44.37156" lon="3.2488">
        <ele>801.79998779297</ele>
        <time>2023-05-06T09:29:08Z</time>
      </trkpt>
      <trkpt lat="44.37156" lon="3.2488">
        <ele>801.59997558594</ele>
        <time>2023-05-06T09:29:13Z</time>
      </trkpt>
      <trkpt lat="44.37156" lon="3.24879">
        <ele>801.59997558594</ele>
        <time>2023-05-06T09:29:14Z</time>
      </trkpt>
      <trkpt lat="44.37152" lon="3.24871">
        <ele>801.40002441406</ele>
        <time>2023-05-06T09:29:16Z</time>
      </trkpt>
      <trkpt lat="44.37149" lon="3.24865">
        <ele>801.40002441406</ele>
        <time>2023-05-06T09:29:17Z</time>
      </trkpt>
      <trkpt lat="44.37139" lon="3.24847">
        <ele>801.20001220703</ele>
        <time>2023-05-06T09:29:20Z</time>
      </trkpt>
      <trkpt lat="44.37137" lon="3.24842">
        <ele>801.20001220703</ele>
        <time>2023-05-06T09:29:21Z</time>
      </trkpt>
      <trkpt lat="44.37134" lon="3.24834">
        <ele>801</ele>
        <time>2023-05-06T09:29:23Z</time>
      </trkpt>
      <trkpt lat="44.37133" lon="3.2483">
        <ele>801</ele>
        <time>2023-05-06T09:29:25Z</time>
      </trkpt>
      <trkpt lat="44.37132" lon="3.24826">
        <ele>801</ele>
        <time>2023-05-06T09:29:27Z</time>
      </trkpt>
      <trkpt lat="44.3713" lon="3.24808">
        <ele>801.20001220703</ele>
        <time>2023-05-06T09:29:34Z</time>
      </trkpt>
      <trkpt lat="44.37135" lon="3.24795">
        <ele>801.40002441406</ele>
        <time>2023-05-06T09:29:39Z</time>
      </trkpt>
      <trkpt lat="44.37146" lon="3.24777">
        <ele>801.79998779297</ele>
        <time>2023-05-06T09:29:46Z</time>
      </trkpt>
      <trkpt lat="44.37159" lon="3.24755">
        <ele>802</ele>
        <time>2023-05-06T09:29:54Z</time>
      </trkpt>
      <trkpt lat="44.37172" lon="3.24729">
        <ele>802.40002441406</ele>
        <time>2023-05-06T09:30:01Z</time>
      </trkpt>
      <trkpt lat="44.37181" lon="3.24701">
        <ele>802.79998779297</ele>
        <time>2023-05-06T09:30:07Z</time>
      </trkpt>
      <trkpt lat="44.37182" lon="3.24695">
        <ele>802.79998779297</ele>
        <time>2023-05-06T09:30:08Z</time>
      </trkpt>
      <trkpt lat="44.37187" lon="3.24668">
        <ele>803</ele>
        <time>2023-05-06T09:30:13Z</time>
      </trkpt>
      <trkpt lat="44.37193" lon="3.24619">
        <ele>803.40002441406</ele>
        <time>2023-05-06T09:30:21Z</time>
      </trkpt>
      <trkpt lat="44.37194" lon="3.24613">
        <ele>803.40002441406</ele>
        <time>2023-05-06T09:30:22Z</time>
      </trkpt>
      <trkpt lat="44.37202" lon="3.24588">
        <ele>803.59997558594</ele>
        <time>2023-05-06T09:30:26Z</time>
      </trkpt>
      <trkpt lat="44.3721" lon="3.24572">
        <ele>803.79998779297</ele>
        <time>2023-05-06T09:30:29Z</time>
      </trkpt>
      <trkpt lat="44.37217" lon="3.24562">
        <ele>803.79998779297</ele>
        <time>2023-05-06T09:30:31Z</time>
      </trkpt>
      <trkpt lat="44.37224" lon="3.24554">
        <ele>803.79998779297</ele>
        <time>2023-05-06T09:30:33Z</time>
      </trkpt>
      <trkpt lat="44.37232" lon="3.2455">
        <ele>803.79998779297</ele>
        <time>2023-05-06T09:30:35Z</time>
      </trkpt>
      <trkpt lat="44.37254" lon="3.24547">
        <ele>804</ele>
        <time>2023-05-06T09:30:40Z</time>
      </trkpt>
      <trkpt lat="44.37263" lon="3.24547">
        <ele>803.79998779297</ele>
        <time>2023-05-06T09:30:42Z</time>
      </trkpt>
      <trkpt lat="44.37272" lon="3.24552">
        <ele>803.79998779297</ele>
        <time>2023-05-06T09:30:44Z</time>
      </trkpt>
      <trkpt lat="44.37288" lon="3.24557">
        <ele>804</ele>
        <time>2023-05-06T09:30:48Z</time>
      </trkpt>
      <trkpt lat="44.37296" lon="3.24557">
        <ele>804</ele>
        <time>2023-05-06T09:30:50Z</time>
      </trkpt>
      <trkpt lat="44.37308" lon="3.24555">
        <ele>804.20001220703</ele>
        <time>2023-05-06T09:30:53Z</time>
      </trkpt>
      <trkpt lat="44.37319" lon="3.24549">
        <ele>804.20001220703</ele>
        <time>2023-05-06T09:30:56Z</time>
      </trkpt>
      <trkpt lat="44.37328" lon="3.24534">
        <ele>804.20001220703</ele>
        <time>2023-05-06T09:31:00Z</time>
      </trkpt>
      <trkpt lat="44.37334" lon="3.24515">
        <ele>804.59997558594</ele>
        <time>2023-05-06T09:31:06Z</time>
      </trkpt>
      <trkpt lat="44.37336" lon="3.24494">
        <ele>805</ele>
        <time>2023-05-06T09:31:13Z</time>
      </trkpt>
      <trkpt lat="44.37332" lon="3.24479">
        <ele>805.40002441406</ele>
        <time>2023-05-06T09:31:19Z</time>
      </trkpt>
      <trkpt lat="44.37326" lon="3.24466">
        <ele>806</ele>
        <time>2023-05-06T09:31:25Z</time>
      </trkpt>
      <trkpt lat="44.37316" lon="3.24451">
        <ele>806.59997558594</ele>
        <time>2023-05-06T09:31:32Z</time>
      </trkpt>
      <trkpt lat="44.37309" lon="3.24434">
        <ele>806.79998779297</ele>
        <time>2023-05-06T09:31:38Z</time>
      </trkpt>
      <trkpt lat="44.37304" lon="3.24415">
        <ele>806.79998779297</ele>
        <time>2023-05-06T09:31:43Z</time>
      </trkpt>
      <trkpt lat="44.37299" lon="3.24391">
        <ele>806.79998779297</ele>
        <time>2023-05-06T09:31:49Z</time>
      </trkpt>
      <trkpt lat="44.37296" lon="3.24366">
        <ele>807</ele>
        <time>2023-05-06T09:31:56Z</time>
      </trkpt>
      <trkpt lat="44.37293" lon="3.24347">
        <ele>807.59997558594</ele>
        <time>2023-05-06T09:32:03Z</time>
      </trkpt>
      <trkpt lat="44.37295" lon="3.24327">
        <ele>808</ele>
        <time>2023-05-06T09:32:11Z</time>
      </trkpt>
      <trkpt lat="44.37297" lon="3.24309">
        <ele>808.59997558594</ele>
        <time>2023-05-06T09:32:18Z</time>
      </trkpt>
      <trkpt lat="44.37299" lon="3.24288">
        <ele>809.20001220703</ele>
        <time>2023-05-06T09:32:24Z</time>
      </trkpt>
      <trkpt lat="44.37298" lon="3.24265">
        <ele>809.59997558594</ele>
        <time>2023-05-06T09:32:30Z</time>
      </trkpt>
      <trkpt lat="44.37301" lon="3.24242">
        <ele>810.20001220703</ele>
        <time>2023-05-06T09:32:36Z</time>
      </trkpt>
      <trkpt lat="44.37305" lon="3.24223">
        <ele>810.40002441406</ele>
        <time>2023-05-06T09:32:40Z</time>
      </trkpt>
      <trkpt lat="44.37306" lon="3.24212">
        <ele>810.59997558594</ele>
        <time>2023-05-06T09:32:42Z</time>
      </trkpt>
      <trkpt lat="44.37307" lon="3.24205">
        <ele>810.79998779297</ele>
        <time>2023-05-06T09:32:43Z</time>
      </trkpt>
      <trkpt lat="44.37306" lon="3.24183">
        <ele>811</ele>
        <time>2023-05-06T09:32:47Z</time>
      </trkpt>
      <trkpt lat="44.37297" lon="3.24148">
        <ele>811.59997558594</ele>
        <time>2023-05-06T09:32:54Z</time>
      </trkpt>
      <trkpt lat="44.37284" lon="3.24107">
        <ele>812.20001220703</ele>
        <time>2023-05-06T09:33:01Z</time>
      </trkpt>
      <trkpt lat="44.37277" lon="3.24086">
        <ele>812.40002441406</ele>
        <time>2023-05-06T09:33:04Z</time>
      </trkpt>
      <trkpt lat="44.37274" lon="3.24071">
        <ele>812.59997558594</ele>
        <time>2023-05-06T09:33:06Z</time>
      </trkpt>
      <trkpt lat="44.37269" lon="3.24039">
        <ele>812.79998779297</ele>
        <time>2023-05-06T09:33:11Z</time>
      </trkpt>
      <trkpt lat="44.37266" lon="3.24022">
        <ele>812.79998779297</ele>
        <time>2023-05-06T09:33:14Z</time>
      </trkpt>
      <trkpt lat="44.37265" lon="3.2401">
        <ele>813</ele>
        <time>2023-05-06T09:33:16Z</time>
      </trkpt>
      <trkpt lat="44.37266" lon="3.24004">
        <ele>813</ele>
        <time>2023-05-06T09:33:17Z</time>
      </trkpt>
      <trkpt lat="44.37267" lon="3.23992">
        <ele>813</ele>
        <time>2023-05-06T09:33:19Z</time>
      </trkpt>
      <trkpt lat="44.37269" lon="3.23979">
        <ele>813.20001220703</ele>
        <time>2023-05-06T09:33:21Z</time>
      </trkpt>
      <trkpt lat="44.3727" lon="3.23973">
        <ele>813.20001220703</ele>
        <time>2023-05-06T09:33:22Z</time>
      </trkpt>
      <trkpt lat="44.37275" lon="3.23942">
        <ele>813.20001220703</ele>
        <time>2023-05-06T09:33:27Z</time>
      </trkpt>
      <trkpt lat="44.37276" lon="3.23935">
        <ele>813.20001220703</ele>
        <time>2023-05-06T09:33:28Z</time>
      </trkpt>
      <trkpt lat="44.37275" lon="3.23905">
        <ele>813.20001220703</ele>
        <time>2023-05-06T09:33:32Z</time>
      </trkpt>
      <trkpt lat="44.37274" lon="3.23897">
        <ele>813.20001220703</ele>
        <time>2023-05-06T09:33:33Z</time>
      </trkpt>
      <trkpt lat="44.37272" lon="3.23889">
        <ele>813.20001220703</ele>
        <time>2023-05-06T09:33:34Z</time>
      </trkpt>
      <trkpt lat="44.37265" lon="3.23867">
        <ele>813.20001220703</ele>
        <time>2023-05-06T09:33:36Z</time>
      </trkpt>
      <trkpt lat="44.37258" lon="3.23844">
        <ele>813</ele>
        <time>2023-05-06T09:33:38Z</time>
      </trkpt>
      <trkpt lat="44.37256" lon="3.23833">
        <ele>813</ele>
        <time>2023-05-06T09:33:39Z</time>
      </trkpt>
      <trkpt lat="44.37254" lon="3.2379">
        <ele>812.59997558594</ele>
        <time>2023-05-06T09:33:43Z</time>
      </trkpt>
      <trkpt lat="44.37251" lon="3.23771">
        <ele>812.40002441406</ele>
        <time>2023-05-06T09:33:45Z</time>
      </trkpt>
      <trkpt lat="44.37245" lon="3.23756">
        <ele>812.40002441406</ele>
        <time>2023-05-06T09:33:47Z</time>
      </trkpt>
      <trkpt lat="44.37239" lon="3.23742">
        <ele>812.20001220703</ele>
        <time>2023-05-06T09:33:49Z</time>
      </trkpt>
      <trkpt lat="44.37233" lon="3.23729">
        <ele>812.20001220703</ele>
        <time>2023-05-06T09:33:51Z</time>
      </trkpt>
      <trkpt lat="44.37231" lon="3.23722">
        <ele>812.20001220703</ele>
        <time>2023-05-06T09:33:52Z</time>
      </trkpt>
      <trkpt lat="44.37226" lon="3.23707">
        <ele>812.20001220703</ele>
        <time>2023-05-06T09:33:55Z</time>
      </trkpt>
      <trkpt lat="44.37221" lon="3.23696">
        <ele>812.20001220703</ele>
        <time>2023-05-06T09:33:57Z</time>
      </trkpt>
      <trkpt lat="44.37212" lon="3.23667">
        <ele>812.59997558594</ele>
        <time>2023-05-06T09:34:03Z</time>
      </trkpt>
      <trkpt lat="44.37202" lon="3.23639">
        <ele>812.59997558594</ele>
        <time>2023-05-06T09:34:08Z</time>
      </trkpt>
      <trkpt lat="44.372" lon="3.23633">
        <ele>812.59997558594</ele>
        <time>2023-05-06T09:34:09Z</time>
      </trkpt>
      <trkpt lat="44.37198" lon="3.23628">
        <ele>812.59997558594</ele>
        <time>2023-05-06T09:34:10Z</time>
      </trkpt>
      <trkpt lat="44.37195" lon="3.23617">
        <ele>812.40002441406</ele>
        <time>2023-05-06T09:34:12Z</time>
      </trkpt>
      <trkpt lat="44.37193" lon="3.2361">
        <ele>812.20001220703</ele>
        <time>2023-05-06T09:34:13Z</time>
      </trkpt>
      <trkpt lat="44.37192" lon="3.23594">
        <ele>812.20001220703</ele>
        <time>2023-05-06T09:34:15Z</time>
      </trkpt>
      <trkpt lat="44.37191" lon="3.23576">
        <ele>812</ele>
        <time>2023-05-06T09:34:17Z</time>
      </trkpt>
      <trkpt lat="44.37191" lon="3.23558">
        <ele>812</ele>
        <time>2023-05-06T09:34:19Z</time>
      </trkpt>
      <trkpt lat="44.37193" lon="3.23541">
        <ele>811.79998779297</ele>
        <time>2023-05-06T09:34:21Z</time>
      </trkpt>
      <trkpt lat="44.37195" lon="3.23533">
        <ele>811.79998779297</ele>
        <time>2023-05-06T09:34:22Z</time>
      </trkpt>
      <trkpt lat="44.37199" lon="3.23527">
        <ele>811.79998779297</ele>
        <time>2023-05-06T09:34:23Z</time>
      </trkpt>
      <trkpt lat="44.37208" lon="3.23518">
        <ele>811.79998779297</ele>
        <time>2023-05-06T09:34:25Z</time>
      </trkpt>
      <trkpt lat="44.37216" lon="3.2351">
        <ele>811.79998779297</ele>
        <time>2023-05-06T09:34:27Z</time>
      </trkpt>
      <trkpt lat="44.37218" lon="3.23504">
        <ele>811.79998779297</ele>
        <time>2023-05-06T09:34:28Z</time>
      </trkpt>
      <trkpt lat="44.3722" lon="3.23498">
        <ele>811.79998779297</ele>
        <time>2023-05-06T09:34:29Z</time>
      </trkpt>
      <trkpt lat="44.37223" lon="3.23485">
        <ele>811.79998779297</ele>
        <time>2023-05-06T09:34:31Z</time>
      </trkpt>
      <trkpt lat="44.37223" lon="3.23479">
        <ele>811.79998779297</ele>
        <time>2023-05-06T09:34:32Z</time>
      </trkpt>
      <trkpt lat="44.37223" lon="3.23472">
        <ele>812</ele>
        <time>2023-05-06T09:34:33Z</time>
      </trkpt>
      <trkpt lat="44.37222" lon="3.23453">
        <ele>812</ele>
        <time>2023-05-06T09:34:36Z</time>
      </trkpt>
      <trkpt lat="44.37223" lon="3.23447">
        <ele>812.20001220703</ele>
        <time>2023-05-06T09:34:37Z</time>
      </trkpt>
      <trkpt lat="44.37223" lon="3.23441">
        <ele>812.20001220703</ele>
        <time>2023-05-06T09:34:38Z</time>
      </trkpt>
      <trkpt lat="44.37229" lon="3.23431">
        <ele>812.20001220703</ele>
        <time>2023-05-06T09:34:40Z</time>
      </trkpt>
      <trkpt lat="44.37238" lon="3.2343">
        <ele>812.40002441406</ele>
        <time>2023-05-06T09:34:42Z</time>
      </trkpt>
      <trkpt lat="44.37242" lon="3.23431">
        <ele>812.40002441406</ele>
        <time>2023-05-06T09:34:43Z</time>
      </trkpt>
      <trkpt lat="44.37246" lon="3.23432">
        <ele>812.20001220703</ele>
        <time>2023-05-06T09:34:44Z</time>
      </trkpt>
      <trkpt lat="44.37261" lon="3.2343">
        <ele>812.20001220703</ele>
        <time>2023-05-06T09:34:48Z</time>
      </trkpt>
      <trkpt lat="44.37283" lon="3.23418">
        <ele>812.20001220703</ele>
        <time>2023-05-06T09:34:55Z</time>
      </trkpt>
      <trkpt lat="44.37307" lon="3.23402">
        <ele>812.79998779297</ele>
        <time>2023-05-06T09:35:03Z</time>
      </trkpt>
      <trkpt lat="44.37322" lon="3.23387">
        <ele>813.20001220703</ele>
        <time>2023-05-06T09:35:09Z</time>
      </trkpt>
      <trkpt lat="44.37339" lon="3.23375">
        <ele>813.40002441406</ele>
        <time>2023-05-06T09:35:15Z</time>
      </trkpt>
      <trkpt lat="44.37357" lon="3.23357">
        <ele>813.40002441406</ele>
        <time>2023-05-06T09:35:21Z</time>
      </trkpt>
      <trkpt lat="44.37377" lon="3.23336">
        <ele>813.59997558594</ele>
        <time>2023-05-06T09:35:27Z</time>
      </trkpt>
      <trkpt lat="44.3738" lon="3.23332">
        <ele>813.59997558594</ele>
        <time>2023-05-06T09:35:28Z</time>
      </trkpt>
      <trkpt lat="44.37398" lon="3.2331">
        <ele>813.79998779297</ele>
        <time>2023-05-06T09:35:34Z</time>
      </trkpt>
      <trkpt lat="44.37401" lon="3.23308">
        <ele>813.79998779297</ele>
        <time>2023-05-06T09:35:35Z</time>
      </trkpt>
      <trkpt lat="44.37411" lon="3.23307">
        <ele>813.79998779297</ele>
        <time>2023-05-06T09:35:38Z</time>
      </trkpt>
      <trkpt lat="44.37431" lon="3.23316">
        <ele>814.20001220703</ele>
        <time>2023-05-06T09:35:44Z</time>
      </trkpt>
      <trkpt lat="44.37455" lon="3.23328">
        <ele>815</ele>
        <time>2023-05-06T09:35:51Z</time>
      </trkpt>
      <trkpt lat="44.37478" lon="3.23335">
        <ele>815.40002441406</ele>
        <time>2023-05-06T09:35:58Z</time>
      </trkpt>
      <trkpt lat="44.37496" lon="3.23341">
        <ele>815.79998779297</ele>
        <time>2023-05-06T09:36:04Z</time>
      </trkpt>
      <trkpt lat="44.37513" lon="3.23336">
        <ele>816.40002441406</ele>
        <time>2023-05-06T09:36:11Z</time>
      </trkpt>
      <trkpt lat="44.37524" lon="3.23327">
        <ele>816.79998779297</ele>
        <time>2023-05-06T09:36:17Z</time>
      </trkpt>
      <trkpt lat="44.37533" lon="3.23321">
        <ele>817</ele>
        <time>2023-05-06T09:36:22Z</time>
      </trkpt>
      <trkpt lat="44.37546" lon="3.23313">
        <ele>817</ele>
        <time>2023-05-06T09:36:29Z</time>
      </trkpt>
      <trkpt lat="44.3756" lon="3.23305">
        <ele>817.40002441406</ele>
        <time>2023-05-06T09:36:36Z</time>
      </trkpt>
      <trkpt lat="44.37579" lon="3.233">
        <ele>818</ele>
        <time>2023-05-06T09:36:44Z</time>
      </trkpt>
      <trkpt lat="44.37594" lon="3.23298">
        <ele>818.20001220703</ele>
        <time>2023-05-06T09:36:51Z</time>
      </trkpt>
      <trkpt lat="44.37597" lon="3.23297">
        <ele>818.40002441406</ele>
        <time>2023-05-06T09:36:53Z</time>
      </trkpt>
      <trkpt lat="44.37602" lon="3.23296">
        <ele>818.40002441406</ele>
        <time>2023-05-06T09:36:56Z</time>
      </trkpt>
      <trkpt lat="44.37615" lon="3.23292">
        <ele>818.59997558594</ele>
        <time>2023-05-06T09:37:01Z</time>
      </trkpt>
      <trkpt lat="44.3763" lon="3.23282">
        <ele>818.59997558594</ele>
        <time>2023-05-06T09:37:05Z</time>
      </trkpt>
      <trkpt lat="44.37636" lon="3.2327">
        <ele>818.59997558594</ele>
        <time>2023-05-06T09:37:07Z</time>
      </trkpt>
      <trkpt lat="44.3764" lon="3.23256">
        <ele>818.40002441406</ele>
        <time>2023-05-06T09:37:09Z</time>
      </trkpt>
      <trkpt lat="44.37645" lon="3.2324">
        <ele>818.40002441406</ele>
        <time>2023-05-06T09:37:12Z</time>
      </trkpt>
      <trkpt lat="44.37655" lon="3.23226">
        <ele>819</ele>
        <time>2023-05-06T09:37:17Z</time>
      </trkpt>
      <trkpt lat="44.37675" lon="3.23203">
        <ele>820.20001220703</ele>
        <time>2023-05-06T09:37:26Z</time>
      </trkpt>
      <trkpt lat="44.37687" lon="3.23183">
        <ele>820.79998779297</ele>
        <time>2023-05-06T09:37:33Z</time>
      </trkpt>
      <trkpt lat="44.37701" lon="3.23168">
        <ele>820.79998779297</ele>
        <time>2023-05-06T09:37:40Z</time>
      </trkpt>
      <trkpt lat="44.37716" lon="3.23158">
        <ele>820.79998779297</ele>
        <time>2023-05-06T09:37:47Z</time>
      </trkpt>
      <trkpt lat="44.37728" lon="3.23148">
        <ele>820.79998779297</ele>
        <time>2023-05-06T09:37:53Z</time>
      </trkpt>
      <trkpt lat="44.37737" lon="3.2314">
        <ele>820.79998779297</ele>
        <time>2023-05-06T09:37:58Z</time>
      </trkpt>
      <trkpt lat="44.37748" lon="3.2313">
        <ele>820.40002441406</ele>
        <time>2023-05-06T09:38:04Z</time>
      </trkpt>
      <trkpt lat="44.37755" lon="3.23118">
        <ele>820</ele>
        <time>2023-05-06T09:38:09Z</time>
      </trkpt>
      <trkpt lat="44.37766" lon="3.23103">
        <ele>819.40002441406</ele>
        <time>2023-05-06T09:38:15Z</time>
      </trkpt>
      <trkpt lat="44.37769" lon="3.23099">
        <ele>819.20001220703</ele>
        <time>2023-05-06T09:38:17Z</time>
      </trkpt>
      <trkpt lat="44.37772" lon="3.23096">
        <ele>819</ele>
        <time>2023-05-06T09:38:19Z</time>
      </trkpt>
      <trkpt lat="44.37773" lon="3.23094">
        <ele>818.79998779297</ele>
        <time>2023-05-06T09:38:20Z</time>
      </trkpt>
      <trkpt lat="44.37779" lon="3.23088">
        <ele>818.59997558594</ele>
        <time>2023-05-06T09:38:23Z</time>
      </trkpt>
      <trkpt lat="44.37793" lon="3.23077">
        <ele>818.79998779297</ele>
        <time>2023-05-06T09:38:29Z</time>
      </trkpt>
      <trkpt lat="44.37796" lon="3.23076">
        <ele>818.79998779297</ele>
        <time>2023-05-06T09:38:30Z</time>
      </trkpt>
      <trkpt lat="44.37806" lon="3.23071">
        <ele>819</ele>
        <time>2023-05-06T09:38:33Z</time>
      </trkpt>
      <trkpt lat="44.37831" lon="3.23062">
        <ele>818.79998779297</ele>
        <time>2023-05-06T09:38:39Z</time>
      </trkpt>
      <trkpt lat="44.37852" lon="3.2306">
        <ele>818.40002441406</ele>
        <time>2023-05-06T09:38:44Z</time>
      </trkpt>
      <trkpt lat="44.37873" lon="3.23056">
        <ele>818.79998779297</ele>
        <time>2023-05-06T09:38:49Z</time>
      </trkpt>
      <trkpt lat="44.37891" lon="3.23044">
        <ele>820</ele>
        <time>2023-05-06T09:38:54Z</time>
      </trkpt>
      <trkpt lat="44.37899" lon="3.23029">
        <ele>821.20001220703</ele>
        <time>2023-05-06T09:38:58Z</time>
      </trkpt>
      <trkpt lat="44.37898" lon="3.23013">
        <ele>822</ele>
        <time>2023-05-06T09:39:02Z</time>
      </trkpt>
      <trkpt lat="44.37893" lon="3.22999">
        <ele>822.40002441406</ele>
        <time>2023-05-06T09:39:05Z</time>
      </trkpt>
      <trkpt lat="44.37881" lon="3.2298">
        <ele>823.59997558594</ele>
        <time>2023-05-06T09:39:11Z</time>
      </trkpt>
      <trkpt lat="44.37867" lon="3.22965">
        <ele>824.40002441406</ele>
        <time>2023-05-06T09:39:17Z</time>
      </trkpt>
      <trkpt lat="44.37857" lon="3.2295">
        <ele>825</ele>
        <time>2023-05-06T09:39:22Z</time>
      </trkpt>
      <trkpt lat="44.37851" lon="3.22928">
        <ele>825.79998779297</ele>
        <time>2023-05-06T09:39:27Z</time>
      </trkpt>
      <trkpt lat="44.37847" lon="3.22905">
        <ele>826.40002441406</ele>
        <time>2023-05-06T09:39:31Z</time>
      </trkpt>
      <trkpt lat="44.37845" lon="3.2289">
        <ele>826.59997558594</ele>
        <time>2023-05-06T09:39:33Z</time>
      </trkpt>
      <trkpt lat="44.37842" lon="3.22882">
        <ele>826.79998779297</ele>
        <time>2023-05-06T09:39:34Z</time>
      </trkpt>
      <trkpt lat="44.37833" lon="3.22862">
        <ele>827</ele>
        <time>2023-05-06T09:39:36Z</time>
      </trkpt>
      <trkpt lat="44.37827" lon="3.22852">
        <ele>827.20001220703</ele>
        <time>2023-05-06T09:39:37Z</time>
      </trkpt>
      <trkpt lat="44.37804" lon="3.22822">
        <ele>827.79998779297</ele>
        <time>2023-05-06T09:39:41Z</time>
      </trkpt>
      <trkpt lat="44.3779" lon="3.22805">
        <ele>828.20001220703</ele>
        <time>2023-05-06T09:39:44Z</time>
      </trkpt>
      <trkpt lat="44.37786" lon="3.22801">
        <ele>828.40002441406</ele>
        <time>2023-05-06T09:39:45Z</time>
      </trkpt>
      <trkpt lat="44.37771" lon="3.22792">
        <ele>828.40002441406</ele>
        <time>2023-05-06T09:39:49Z</time>
      </trkpt>
      <trkpt lat="44.37757" lon="3.22796">
        <ele>828.20001220703</ele>
        <time>2023-05-06T09:39:53Z</time>
      </trkpt>
      <trkpt lat="44.37734" lon="3.22795">
        <ele>828.20001220703</ele>
        <time>2023-05-06T09:39:59Z</time>
      </trkpt>
      <trkpt lat="44.37715" lon="3.22785">
        <ele>828.40002441406</ele>
        <time>2023-05-06T09:40:04Z</time>
      </trkpt>
      <trkpt lat="44.37695" lon="3.22773">
        <ele>828.40002441406</ele>
        <time>2023-05-06T09:40:10Z</time>
      </trkpt>
      <trkpt lat="44.37679" lon="3.22757">
        <ele>828.59997558594</ele>
        <time>2023-05-06T09:40:16Z</time>
      </trkpt>
      <trkpt lat="44.37666" lon="3.22749">
        <ele>828.20001220703</ele>
        <time>2023-05-06T09:40:21Z</time>
      </trkpt>
      <trkpt lat="44.37654" lon="3.22745">
        <ele>827.20001220703</ele>
        <time>2023-05-06T09:40:25Z</time>
      </trkpt>
      <trkpt lat="44.37636" lon="3.22748">
        <ele>825.79998779297</ele>
        <time>2023-05-06T09:40:30Z</time>
      </trkpt>
      <trkpt lat="44.37613" lon="3.22749">
        <ele>824</ele>
        <time>2023-05-06T09:40:37Z</time>
      </trkpt>
      <trkpt lat="44.37598" lon="3.22745">
        <ele>822.79998779297</ele>
        <time>2023-05-06T09:40:43Z</time>
      </trkpt>
      <trkpt lat="44.37582" lon="3.22728">
        <ele>822.40002441406</ele>
        <time>2023-05-06T09:40:50Z</time>
      </trkpt>
      <trkpt lat="44.37562" lon="3.22707">
        <ele>821.59997558594</ele>
        <time>2023-05-06T09:40:57Z</time>
      </trkpt>
      <trkpt lat="44.37556" lon="3.22691">
        <ele>821.79998779297</ele>
        <time>2023-05-06T09:41:01Z</time>
      </trkpt>
      <trkpt lat="44.37553" lon="3.22681">
        <ele>822.20001220703</ele>
        <time>2023-05-06T09:41:05Z</time>
      </trkpt>
      <trkpt lat="44.37552" lon="3.22679">
        <ele>822.20001220703</ele>
        <time>2023-05-06T09:41:06Z</time>
      </trkpt>
      <trkpt lat="44.3755" lon="3.22678">
        <ele>822.40002441406</ele>
        <time>2023-05-06T09:41:07Z</time>
      </trkpt>
      <trkpt lat="44.37545" lon="3.22673">
        <ele>822.59997558594</ele>
        <time>2023-05-06T09:41:11Z</time>
      </trkpt>
      <trkpt lat="44.37539" lon="3.22668">
        <ele>822.59997558594</ele>
        <time>2023-05-06T09:41:16Z</time>
      </trkpt>
      <trkpt lat="44.37531" lon="3.22662">
        <ele>822.40002441406</ele>
        <time>2023-05-06T09:41:22Z</time>
      </trkpt>
      <trkpt lat="44.3752" lon="3.22657">
        <ele>822.59997558594</ele>
        <time>2023-05-06T09:41:28Z</time>
      </trkpt>
      <trkpt lat="44.37509" lon="3.22651">
        <ele>823.20001220703</ele>
        <time>2023-05-06T09:41:35Z</time>
      </trkpt>
      <trkpt lat="44.37499" lon="3.22647">
        <ele>823.79998779297</ele>
        <time>2023-05-06T09:41:44Z</time>
      </trkpt>
      <trkpt lat="44.37492" lon="3.22645">
        <ele>824</ele>
        <time>2023-05-06T09:41:51Z</time>
      </trkpt>
      <trkpt lat="44.37482" lon="3.2264">
        <ele>825.20001220703</ele>
        <time>2023-05-06T09:41:59Z</time>
      </trkpt>
      <trkpt lat="44.37474" lon="3.22636">
        <ele>826.59997558594</ele>
        <time>2023-05-06T09:42:06Z</time>
      </trkpt>
      <trkpt lat="44.37473" lon="3.22637">
        <ele>826.79998779297</ele>
        <time>2023-05-06T09:42:07Z</time>
      </trkpt>
      <trkpt lat="44.3747" lon="3.22638">
        <ele>827.40002441406</ele>
        <time>2023-05-06T09:42:10Z</time>
      </trkpt>
      <trkpt lat="44.37468" lon="3.2264">
        <ele>827.59997558594</ele>
        <time>2023-05-06T09:42:12Z</time>
      </trkpt>
      <trkpt lat="44.37464" lon="3.22643">
        <ele>828.79998779297</ele>
        <time>2023-05-06T09:42:17Z</time>
      </trkpt>
      <trkpt lat="44.37458" lon="3.22647">
        <ele>829.59997558594</ele>
        <time>2023-05-06T09:42:23Z</time>
      </trkpt>
      <trkpt lat="44.37456" lon="3.22648">
        <ele>830</ele>
        <time>2023-05-06T09:42:25Z</time>
      </trkpt>
      <trkpt lat="44.37454" lon="3.22651">
        <ele>830.59997558594</ele>
        <time>2023-05-06T09:42:28Z</time>
      </trkpt>
      <trkpt lat="44.37449" lon="3.22657">
        <ele>831.79998779297</ele>
        <time>2023-05-06T09:42:34Z</time>
      </trkpt>
      <trkpt lat="44.37446" lon="3.22661">
        <ele>832.79998779297</ele>
        <time>2023-05-06T09:42:38Z</time>
      </trkpt>
      <trkpt lat="44.37445" lon="3.22661">
        <ele>833</ele>
        <time>2023-05-06T09:42:40Z</time>
      </trkpt>
      <trkpt lat="44.37445" lon="3.22661">
        <ele>834</ele>
        <time>2023-05-06T09:42:47Z</time>
      </trkpt>
      <trkpt lat="44.37445" lon="3.22661">
        <ele>835.20001220703</ele>
        <time>2023-05-06T09:42:55Z</time>
      </trkpt>
      <trkpt lat="44.37441" lon="3.22667">
        <ele>835.59997558594</ele>
        <time>2023-05-06T09:42:59Z</time>
      </trkpt>
      <trkpt lat="44.3744" lon="3.22671">
        <ele>836.20001220703</ele>
        <time>2023-05-06T09:43:01Z</time>
      </trkpt>
      <trkpt lat="44.37436" lon="3.22679">
        <ele>837.59997558594</ele>
        <time>2023-05-06T09:43:07Z</time>
      </trkpt>
      <trkpt lat="44.37435" lon="3.22682">
        <ele>838</ele>
        <time>2023-05-06T09:43:09Z</time>
      </trkpt>
      <trkpt lat="44.37434" lon="3.22686">
        <ele>838.79998779297</ele>
        <time>2023-05-06T09:43:13Z</time>
      </trkpt>
      <trkpt lat="44.37433" lon="3.22691">
        <ele>839.59997558594</ele>
        <time>2023-05-06T09:43:16Z</time>
      </trkpt>
      <trkpt lat="44.37433" lon="3.22695">
        <ele>840.20001220703</ele>
        <time>2023-05-06T09:43:19Z</time>
      </trkpt>
      <trkpt lat="44.37432" lon="3.227">
        <ele>841.20001220703</ele>
        <time>2023-05-06T09:43:23Z</time>
      </trkpt>
      <trkpt lat="44.3743" lon="3.22705">
        <ele>842</ele>
        <time>2023-05-06T09:43:27Z</time>
      </trkpt>
      <trkpt lat="44.37429" lon="3.22709">
        <ele>843.20001220703</ele>
        <time>2023-05-06T09:43:32Z</time>
      </trkpt>
      <trkpt lat="44.37429" lon="3.2271">
        <ele>844.59997558594</ele>
        <time>2023-05-06T09:43:40Z</time>
      </trkpt>
      <trkpt lat="44.37429" lon="3.2271">
        <ele>846</ele>
        <time>2023-05-06T09:43:49Z</time>
      </trkpt>
      <trkpt lat="44.37429" lon="3.2271">
        <ele>847.79998779297</ele>
        <time>2023-05-06T09:44:00Z</time>
      </trkpt>
      <trkpt lat="44.37428" lon="3.22711">
        <ele>847.79998779297</ele>
        <time>2023-05-06T09:44:01Z</time>
      </trkpt>
      <trkpt lat="44.37424" lon="3.22719">
        <ele>848.59997558594</ele>
        <time>2023-05-06T09:44:05Z</time>
      </trkpt>
      <trkpt lat="44.37419" lon="3.22734">
        <ele>848.79998779297</ele>
        <time>2023-05-06T09:44:09Z</time>
      </trkpt>
      <trkpt lat="44.37408" lon="3.22749">
        <ele>849.20001220703</ele>
        <time>2023-05-06T09:44:13Z</time>
      </trkpt>
      <trkpt lat="44.37395" lon="3.22765">
        <ele>849.20001220703</ele>
        <time>2023-05-06T09:44:17Z</time>
      </trkpt>
      <trkpt lat="44.37392" lon="3.22771">
        <ele>849.20001220703</ele>
        <time>2023-05-06T09:44:18Z</time>
      </trkpt>
      <trkpt lat="44.37388" lon="3.22777">
        <ele>849.20001220703</ele>
        <time>2023-05-06T09:44:19Z</time>
      </trkpt>
      <trkpt lat="44.37378" lon="3.22789">
        <ele>849.20001220703</ele>
        <time>2023-05-06T09:44:21Z</time>
      </trkpt>
      <trkpt lat="44.37371" lon="3.228">
        <ele>849</ele>
        <time>2023-05-06T09:44:23Z</time>
      </trkpt>
      <trkpt lat="44.37369" lon="3.22805">
        <ele>849</ele>
        <time>2023-05-06T09:44:24Z</time>
      </trkpt>
      <trkpt lat="44.37362" lon="3.22817">
        <ele>848.79998779297</ele>
        <time>2023-05-06T09:44:26Z</time>
      </trkpt>
      <trkpt lat="44.37353" lon="3.22828">
        <ele>848.59997558594</ele>
        <time>2023-05-06T09:44:28Z</time>
      </trkpt>
      <trkpt lat="44.3735" lon="3.22831">
        <ele>848.40002441406</ele>
        <time>2023-05-06T09:44:29Z</time>
      </trkpt>
      <trkpt lat="44.37345" lon="3.22834">
        <ele>848</ele>
        <time>2023-05-06T09:44:31Z</time>
      </trkpt>
      <trkpt lat="44.37341" lon="3.22837">
        <ele>848.20001220703</ele>
        <time>2023-05-06T09:44:32Z</time>
      </trkpt>
      <trkpt lat="44.37337" lon="3.22836">
        <ele>848.40002441406</ele>
        <time>2023-05-06T09:44:34Z</time>
      </trkpt>
      <trkpt lat="44.37332" lon="3.22828">
        <ele>849</ele>
        <time>2023-05-06T09:44:39Z</time>
      </trkpt>
      <trkpt lat="44.37328" lon="3.22821">
        <ele>849.40002441406</ele>
        <time>2023-05-06T09:44:42Z</time>
      </trkpt>
      <trkpt lat="44.37324" lon="3.22804">
        <ele>850</ele>
        <time>2023-05-06T09:44:47Z</time>
      </trkpt>
      <trkpt lat="44.37323" lon="3.22782">
        <ele>850.79998779297</ele>
        <time>2023-05-06T09:44:53Z</time>
      </trkpt>
      <trkpt lat="44.37323" lon="3.22779">
        <ele>851.20001220703</ele>
        <time>2023-05-06T09:44:54Z</time>
      </trkpt>
      <trkpt lat="44.37323" lon="3.22771">
        <ele>851.79998779297</ele>
        <time>2023-05-06T09:44:56Z</time>
      </trkpt>
      <trkpt lat="44.3732" lon="3.2276">
        <ele>852.40002441406</ele>
        <time>2023-05-06T09:44:58Z</time>
      </trkpt>
      <trkpt lat="44.37316" lon="3.22749">
        <ele>852.40002441406</ele>
        <time>2023-05-06T09:45:00Z</time>
      </trkpt>
      <trkpt lat="44.37315" lon="3.22741">
        <ele>852.40002441406</ele>
        <time>2023-05-06T09:45:02Z</time>
      </trkpt>
      <trkpt lat="44.37312" lon="3.22734">
        <ele>852.40002441406</ele>
        <time>2023-05-06T09:45:04Z</time>
      </trkpt>
      <trkpt lat="44.37308" lon="3.22717">
        <ele>852.59997558594</ele>
        <time>2023-05-06T09:45:08Z</time>
      </trkpt>
      <trkpt lat="44.37306" lon="3.22708">
        <ele>853</ele>
        <time>2023-05-06T09:45:11Z</time>
      </trkpt>
      <trkpt lat="44.37304" lon="3.227">
        <ele>853.20001220703</ele>
        <time>2023-05-06T09:45:13Z</time>
      </trkpt>
      <trkpt lat="44.37302" lon="3.2269">
        <ele>853.59997558594</ele>
        <time>2023-05-06T09:45:16Z</time>
      </trkpt>
      <trkpt lat="44.37302" lon="3.22684">
        <ele>854</ele>
        <time>2023-05-06T09:45:18Z</time>
      </trkpt>
      <trkpt lat="44.37302" lon="3.2267">
        <ele>855</ele>
        <time>2023-05-06T09:45:23Z</time>
      </trkpt>
      <trkpt lat="44.37301" lon="3.22667">
        <ele>855.20001220703</ele>
        <time>2023-05-06T09:45:24Z</time>
      </trkpt>
      <trkpt lat="44.37298" lon="3.22655">
        <ele>856.40002441406</ele>
        <time>2023-05-06T09:45:29Z</time>
      </trkpt>
      <trkpt lat="44.37297" lon="3.22651">
        <ele>856.79998779297</ele>
        <time>2023-05-06T09:45:30Z</time>
      </trkpt>
      <trkpt lat="44.37297" lon="3.22645">
        <ele>857.20001220703</ele>
        <time>2023-05-06T09:45:32Z</time>
      </trkpt>
      <trkpt lat="44.37296" lon="3.2264">
        <ele>857.59997558594</ele>
        <time>2023-05-06T09:45:33Z</time>
      </trkpt>
      <trkpt lat="44.37286" lon="3.22625">
        <ele>859.20001220703</ele>
        <time>2023-05-06T09:45:38Z</time>
      </trkpt>
      <trkpt lat="44.37276" lon="3.22619">
        <ele>860.20001220703</ele>
        <time>2023-05-06T09:45:42Z</time>
      </trkpt>
      <trkpt lat="44.3726" lon="3.2261">
        <ele>862.20001220703</ele>
        <time>2023-05-06T09:45:49Z</time>
      </trkpt>
      <trkpt lat="44.37248" lon="3.22603">
        <ele>864</ele>
        <time>2023-05-06T09:45:55Z</time>
      </trkpt>
      <trkpt lat="44.37236" lon="3.22598">
        <ele>865</ele>
        <time>2023-05-06T09:46:00Z</time>
      </trkpt>
      <trkpt lat="44.37223" lon="3.22589">
        <ele>865.79998779297</ele>
        <time>2023-05-06T09:46:07Z</time>
      </trkpt>
      <trkpt lat="44.37212" lon="3.2258">
        <ele>866.40002441406</ele>
        <time>2023-05-06T09:46:12Z</time>
      </trkpt>
      <trkpt lat="44.37202" lon="3.22574">
        <ele>867</ele>
        <time>2023-05-06T09:46:17Z</time>
      </trkpt>
      <trkpt lat="44.37189" lon="3.2257">
        <ele>867.40002441406</ele>
        <time>2023-05-06T09:46:22Z</time>
      </trkpt>
      <trkpt lat="44.37179" lon="3.22566">
        <ele>867.59997558594</ele>
        <time>2023-05-06T09:46:26Z</time>
      </trkpt>
      <trkpt lat="44.37164" lon="3.22562">
        <ele>868</ele>
        <time>2023-05-06T09:46:32Z</time>
      </trkpt>
      <trkpt lat="44.37159" lon="3.2256">
        <ele>868</ele>
        <time>2023-05-06T09:46:34Z</time>
      </trkpt>
      <trkpt lat="44.37155" lon="3.22557">
        <ele>868</ele>
        <time>2023-05-06T09:46:36Z</time>
      </trkpt>
      <trkpt lat="44.37142" lon="3.2255">
        <ele>867.79998779297</ele>
        <time>2023-05-06T09:46:41Z</time>
      </trkpt>
      <trkpt lat="44.37128" lon="3.22538">
        <ele>867.79998779297</ele>
        <time>2023-05-06T09:46:47Z</time>
      </trkpt>
      <trkpt lat="44.37116" lon="3.22523">
        <ele>867.59997558594</ele>
        <time>2023-05-06T09:46:52Z</time>
      </trkpt>
      <trkpt lat="44.37109" lon="3.22513">
        <ele>867.40002441406</ele>
        <time>2023-05-06T09:46:54Z</time>
      </trkpt>
      <trkpt lat="44.37105" lon="3.225">
        <ele>867.20001220703</ele>
        <time>2023-05-06T09:46:56Z</time>
      </trkpt>
      <trkpt lat="44.37103" lon="3.22493">
        <ele>867.20001220703</ele>
        <time>2023-05-06T09:46:57Z</time>
      </trkpt>
      <trkpt lat="44.37091" lon="3.22471">
        <ele>866.79998779297</ele>
        <time>2023-05-06T09:47:01Z</time>
      </trkpt>
      <trkpt lat="44.37088" lon="3.22465">
        <ele>866.79998779297</ele>
        <time>2023-05-06T09:47:02Z</time>
      </trkpt>
      <trkpt lat="44.37083" lon="3.22448">
        <ele>866.59997558594</ele>
        <time>2023-05-06T09:47:04Z</time>
      </trkpt>
      <trkpt lat="44.37082" lon="3.22432">
        <ele>866.59997558594</ele>
        <time>2023-05-06T09:47:06Z</time>
      </trkpt>
      <trkpt lat="44.37082" lon="3.22419">
        <ele>866.40002441406</ele>
        <time>2023-05-06T09:47:08Z</time>
      </trkpt>
      <trkpt lat="44.37077" lon="3.2238">
        <ele>866.79998779297</ele>
        <time>2023-05-06T09:47:15Z</time>
      </trkpt>
      <trkpt lat="44.37068" lon="3.22357">
        <ele>866.79998779297</ele>
        <time>2023-05-06T09:47:20Z</time>
      </trkpt>
      <trkpt lat="44.37055" lon="3.22326">
        <ele>867.20001220703</ele>
        <time>2023-05-06T09:47:27Z</time>
      </trkpt>
      <trkpt lat="44.3704" lon="3.22291">
        <ele>867.40002441406</ele>
        <time>2023-05-06T09:47:35Z</time>
      </trkpt>
      <trkpt lat="44.37031" lon="3.2226">
        <ele>867.79998779297</ele>
        <time>2023-05-06T09:47:42Z</time>
      </trkpt>
      <trkpt lat="44.37021" lon="3.22233">
        <ele>868.40002441406</ele>
        <time>2023-05-06T09:47:49Z</time>
      </trkpt>
      <trkpt lat="44.37005" lon="3.22213">
        <ele>869</ele>
        <time>2023-05-06T09:47:56Z</time>
      </trkpt>
      <trkpt lat="44.36988" lon="3.22205">
        <ele>869.40002441406</ele>
        <time>2023-05-06T09:48:01Z</time>
      </trkpt>
      <trkpt lat="44.3697" lon="3.22194">
        <ele>869.59997558594</ele>
        <time>2023-05-06T09:48:07Z</time>
      </trkpt>
      <trkpt lat="44.36958" lon="3.22177">
        <ele>869.59997558594</ele>
        <time>2023-05-06T09:48:13Z</time>
      </trkpt>
      <trkpt lat="44.36946" lon="3.22155">
        <ele>869.59997558594</ele>
        <time>2023-05-06T09:48:20Z</time>
      </trkpt>
      <trkpt lat="44.36938" lon="3.22139">
        <ele>870</ele>
        <time>2023-05-06T09:48:27Z</time>
      </trkpt>
      <trkpt lat="44.36931" lon="3.22121">
        <ele>870.20001220703</ele>
        <time>2023-05-06T09:48:35Z</time>
      </trkpt>
      <trkpt lat="44.36925" lon="3.22105">
        <ele>870.79998779297</ele>
        <time>2023-05-06T09:48:42Z</time>
      </trkpt>
      <trkpt lat="44.3692" lon="3.22093">
        <ele>871</ele>
        <time>2023-05-06T09:48:47Z</time>
      </trkpt>
      <trkpt lat="44.36915" lon="3.22081">
        <ele>871.59997558594</ele>
        <time>2023-05-06T09:48:53Z</time>
      </trkpt>
      <trkpt lat="44.36906" lon="3.22065">
        <ele>872.20001220703</ele>
        <time>2023-05-06T09:48:57Z</time>
      </trkpt>
      <trkpt lat="44.36892" lon="3.22037">
        <ele>873</ele>
        <time>2023-05-06T09:49:01Z</time>
      </trkpt>
      <trkpt lat="44.36881" lon="3.22005">
        <ele>873.20001220703</ele>
        <time>2023-05-06T09:49:04Z</time>
      </trkpt>
      <trkpt lat="44.36877" lon="3.21993">
        <ele>873.20001220703</ele>
        <time>2023-05-06T09:49:05Z</time>
      </trkpt>
      <trkpt lat="44.36868" lon="3.2196">
        <ele>873.40002441406</ele>
        <time>2023-05-06T09:49:08Z</time>
      </trkpt>
      <trkpt lat="44.36863" lon="3.21948">
        <ele>873.40002441406</ele>
        <time>2023-05-06T09:49:09Z</time>
      </trkpt>
      <trkpt lat="44.36851" lon="3.21921">
        <ele>873.40002441406</ele>
        <time>2023-05-06T09:49:11Z</time>
      </trkpt>
      <trkpt lat="44.36846" lon="3.21906">
        <ele>873.40002441406</ele>
        <time>2023-05-06T09:49:12Z</time>
      </trkpt>
      <trkpt lat="44.36843" lon="3.21891">
        <ele>873.20001220703</ele>
        <time>2023-05-06T09:49:13Z</time>
      </trkpt>
      <trkpt lat="44.36838" lon="3.21863">
        <ele>873.20001220703</ele>
        <time>2023-05-06T09:49:15Z</time>
      </trkpt>
      <trkpt lat="44.36833" lon="3.21821">
        <ele>873.20001220703</ele>
        <time>2023-05-06T09:49:19Z</time>
      </trkpt>
      <trkpt lat="44.3683" lon="3.21789">
        <ele>873</ele>
        <time>2023-05-06T09:49:23Z</time>
      </trkpt>
      <trkpt lat="44.3683" lon="3.21782">
        <ele>873</ele>
        <time>2023-05-06T09:49:24Z</time>
      </trkpt>
      <trkpt lat="44.36829" lon="3.21766">
        <ele>873</ele>
        <time>2023-05-06T09:49:26Z</time>
      </trkpt>
      <trkpt lat="44.36825" lon="3.21747">
        <ele>872.79998779297</ele>
        <time>2023-05-06T09:49:28Z</time>
      </trkpt>
      <trkpt lat="44.36813" lon="3.2171">
        <ele>872.59997558594</ele>
        <time>2023-05-06T09:49:31Z</time>
      </trkpt>
      <trkpt lat="44.36808" lon="3.21679">
        <ele>872.40002441406</ele>
        <time>2023-05-06T09:49:33Z</time>
      </trkpt>
      <trkpt lat="44.36809" lon="3.21664">
        <ele>872.20001220703</ele>
        <time>2023-05-06T09:49:34Z</time>
      </trkpt>
      <trkpt lat="44.3681" lon="3.21648">
        <ele>872</ele>
        <time>2023-05-06T09:49:35Z</time>
      </trkpt>
      <trkpt lat="44.36814" lon="3.21617">
        <ele>871.79998779297</ele>
        <time>2023-05-06T09:49:37Z</time>
      </trkpt>
      <trkpt lat="44.36816" lon="3.21553">
        <ele>870.79998779297</ele>
        <time>2023-05-06T09:49:41Z</time>
      </trkpt>
      <trkpt lat="44.36808" lon="3.21522">
        <ele>870.40002441406</ele>
        <time>2023-05-06T09:49:43Z</time>
      </trkpt>
      <trkpt lat="44.36803" lon="3.21507">
        <ele>870.20001220703</ele>
        <time>2023-05-06T09:49:44Z</time>
      </trkpt>
      <trkpt lat="44.36779" lon="3.21451">
        <ele>869.20001220703</ele>
        <time>2023-05-06T09:49:48Z</time>
      </trkpt>
      <trkpt lat="44.36757" lon="3.21422">
        <ele>867.79998779297</ele>
        <time>2023-05-06T09:49:51Z</time>
      </trkpt>
      <trkpt lat="44.36752" lon="3.21398">
        <ele>866.79998779297</ele>
        <time>2023-05-06T09:49:53Z</time>
      </trkpt>
      <trkpt lat="44.36753" lon="3.21358">
        <ele>865.40002441406</ele>
        <time>2023-05-06T09:49:56Z</time>
      </trkpt>
      <trkpt lat="44.36753" lon="3.21346">
        <ele>864.79998779297</ele>
        <time>2023-05-06T09:49:57Z</time>
      </trkpt>
      <trkpt lat="44.3675" lon="3.21302">
        <ele>863.40002441406</ele>
        <time>2023-05-06T09:50:01Z</time>
      </trkpt>
      <trkpt lat="44.36747" lon="3.21262">
        <ele>862</ele>
        <time>2023-05-06T09:50:06Z</time>
      </trkpt>
      <trkpt lat="44.36743" lon="3.21242">
        <ele>861</ele>
        <time>2023-05-06T09:50:10Z</time>
      </trkpt>
      <trkpt lat="44.36732" lon="3.21233">
        <ele>859.79998779297</ele>
        <time>2023-05-06T09:50:15Z</time>
      </trkpt>
      <trkpt lat="44.36719" lon="3.21232">
        <ele>858</ele>
        <time>2023-05-06T09:50:20Z</time>
      </trkpt>
      <trkpt lat="44.36697" lon="3.21223">
        <ele>855</ele>
        <time>2023-05-06T09:50:28Z</time>
      </trkpt>
      <trkpt lat="44.36679" lon="3.21215">
        <ele>852.40002441406</ele>
        <time>2023-05-06T09:50:35Z</time>
      </trkpt>
      <trkpt lat="44.36663" lon="3.21207">
        <ele>850</ele>
        <time>2023-05-06T09:50:44Z</time>
      </trkpt>
      <trkpt lat="44.36656" lon="3.21199">
        <ele>849</ele>
        <time>2023-05-06T09:50:50Z</time>
      </trkpt>
      <trkpt lat="44.36651" lon="3.21194">
        <ele>848.40002441406</ele>
        <time>2023-05-06T09:50:54Z</time>
      </trkpt>
      <trkpt lat="44.36649" lon="3.21191">
        <ele>848</ele>
        <time>2023-05-06T09:50:56Z</time>
      </trkpt>
      <trkpt lat="44.36643" lon="3.21181">
        <ele>846.59997558594</ele>
        <time>2023-05-06T09:51:02Z</time>
      </trkpt>
      <trkpt lat="44.36636" lon="3.21167">
        <ele>845.59997558594</ele>
        <time>2023-05-06T09:51:09Z</time>
      </trkpt>
      <trkpt lat="44.36628" lon="3.21154">
        <ele>845</ele>
        <time>2023-05-06T09:51:17Z</time>
      </trkpt>
      <trkpt lat="44.36621" lon="3.21146">
        <ele>844.59997558594</ele>
        <time>2023-05-06T09:51:23Z</time>
      </trkpt>
      <trkpt lat="44.36619" lon="3.21144">
        <ele>844.79998779297</ele>
        <time>2023-05-06T09:51:25Z</time>
      </trkpt>
      <trkpt lat="44.36612" lon="3.21134">
        <ele>845</ele>
        <time>2023-05-06T09:51:32Z</time>
      </trkpt>
      <trkpt lat="44.36605" lon="3.21129">
        <ele>845.20001220703</ele>
        <time>2023-05-06T09:51:37Z</time>
      </trkpt>
      <trkpt lat="44.36603" lon="3.21126">
        <ele>845.40002441406</ele>
        <time>2023-05-06T09:51:39Z</time>
      </trkpt>
      <trkpt lat="44.36595" lon="3.2112">
        <ele>845.40002441406</ele>
        <time>2023-05-06T09:51:45Z</time>
      </trkpt>
      <trkpt lat="44.36589" lon="3.21116">
        <ele>845.59997558594</ele>
        <time>2023-05-06T09:51:50Z</time>
      </trkpt>
      <trkpt lat="44.36583" lon="3.21113">
        <ele>845.79998779297</ele>
        <time>2023-05-06T09:51:54Z</time>
      </trkpt>
      <trkpt lat="44.36581" lon="3.21112">
        <ele>845.79998779297</ele>
        <time>2023-05-06T09:51:56Z</time>
      </trkpt>
      <trkpt lat="44.36569" lon="3.21105">
        <ele>846.40002441406</ele>
        <time>2023-05-06T09:52:03Z</time>
      </trkpt>
      <trkpt lat="44.36555" lon="3.211">
        <ele>846.59997558594</ele>
        <time>2023-05-06T09:52:10Z</time>
      </trkpt>
      <trkpt lat="44.36553" lon="3.211">
        <ele>846.59997558594</ele>
        <time>2023-05-06T09:52:11Z</time>
      </trkpt>
      <trkpt lat="44.36544" lon="3.211">
        <ele>846.79998779297</ele>
        <time>2023-05-06T09:52:15Z</time>
      </trkpt>
      <trkpt lat="44.36537" lon="3.21102">
        <ele>846.79998779297</ele>
        <time>2023-05-06T09:52:19Z</time>
      </trkpt>
      <trkpt lat="44.36536" lon="3.21102">
        <ele>846.79998779297</ele>
        <time>2023-05-06T09:52:20Z</time>
      </trkpt>
      <trkpt lat="44.36531" lon="3.21101">
        <ele>847</ele>
        <time>2023-05-06T09:52:24Z</time>
      </trkpt>
      <trkpt lat="44.36524" lon="3.21095">
        <ele>847.79998779297</ele>
        <time>2023-05-06T09:52:30Z</time>
      </trkpt>
      <trkpt lat="44.36523" lon="3.21094">
        <ele>848</ele>
        <time>2023-05-06T09:52:31Z</time>
      </trkpt>
      <trkpt lat="44.36516" lon="3.21087">
        <ele>848.59997558594</ele>
        <time>2023-05-06T09:52:38Z</time>
      </trkpt>
      <trkpt lat="44.36515" lon="3.21085">
        <ele>848.79998779297</ele>
        <time>2023-05-06T09:52:40Z</time>
      </trkpt>
      <trkpt lat="44.36512" lon="3.21081">
        <ele>849</ele>
        <time>2023-05-06T09:52:44Z</time>
      </trkpt>
      <trkpt lat="44.36507" lon="3.21072">
        <ele>849.59997558594</ele>
        <time>2023-05-06T09:52:50Z</time>
      </trkpt>
      <trkpt lat="44.36506" lon="3.21071">
        <ele>849.79998779297</ele>
        <time>2023-05-06T09:52:51Z</time>
      </trkpt>
      <trkpt lat="44.36499" lon="3.21067">
        <ele>850.40002441406</ele>
        <time>2023-05-06T09:52:56Z</time>
      </trkpt>
      <trkpt lat="44.36494" lon="3.21059">
        <ele>850.59997558594</ele>
        <time>2023-05-06T09:53:01Z</time>
      </trkpt>
      <trkpt lat="44.36489" lon="3.21052">
        <ele>851.20001220703</ele>
        <time>2023-05-06T09:53:07Z</time>
      </trkpt>
      <trkpt lat="44.36482" lon="3.21045">
        <ele>851.79998779297</ele>
        <time>2023-05-06T09:53:14Z</time>
      </trkpt>
      <trkpt lat="44.36475" lon="3.21041">
        <ele>852.59997558594</ele>
        <time>2023-05-06T09:53:19Z</time>
      </trkpt>
      <trkpt lat="44.36473" lon="3.21041">
        <ele>853</ele>
        <time>2023-05-06T09:53:21Z</time>
      </trkpt>
      <trkpt lat="44.36469" lon="3.21039">
        <ele>853.40002441406</ele>
        <time>2023-05-06T09:53:24Z</time>
      </trkpt>
      <trkpt lat="44.36461" lon="3.21041">
        <ele>854.20001220703</ele>
        <time>2023-05-06T09:53:32Z</time>
      </trkpt>
      <trkpt lat="44.36458" lon="3.21041">
        <ele>854.40002441406</ele>
        <time>2023-05-06T09:53:34Z</time>
      </trkpt>
      <trkpt lat="44.36455" lon="3.2104">
        <ele>854.79998779297</ele>
        <time>2023-05-06T09:53:37Z</time>
      </trkpt>
      <trkpt lat="44.3645" lon="3.21037">
        <ele>855</ele>
        <time>2023-05-06T09:53:42Z</time>
      </trkpt>
      <trkpt lat="44.36446" lon="3.2103">
        <ele>855.40002441406</ele>
        <time>2023-05-06T09:53:47Z</time>
      </trkpt>
      <trkpt lat="44.36445" lon="3.21029">
        <ele>855.40002441406</ele>
        <time>2023-05-06T09:53:48Z</time>
      </trkpt>
      <trkpt lat="44.3644" lon="3.2102">
        <ele>856.20001220703</ele>
        <time>2023-05-06T09:53:54Z</time>
      </trkpt>
      <trkpt lat="44.3644" lon="3.21016">
        <ele>856.59997558594</ele>
        <time>2023-05-06T09:53:57Z</time>
      </trkpt>
      <trkpt lat="44.3644" lon="3.21014">
        <ele>856.79998779297</ele>
        <time>2023-05-06T09:53:59Z</time>
      </trkpt>
      <trkpt lat="44.36436" lon="3.21004">
        <ele>858.20001220703</ele>
        <time>2023-05-06T09:54:05Z</time>
      </trkpt>
      <trkpt lat="44.36434" lon="3.20994">
        <ele>859.59997558594</ele>
        <time>2023-05-06T09:54:12Z</time>
      </trkpt>
      <trkpt lat="44.36433" lon="3.20984">
        <ele>861.40002441406</ele>
        <time>2023-05-06T09:54:19Z</time>
      </trkpt>
      <trkpt lat="44.36431" lon="3.20972">
        <ele>863.40002441406</ele>
        <time>2023-05-06T09:54:26Z</time>
      </trkpt>
      <trkpt lat="44.36432" lon="3.20961">
        <ele>865.79998779297</ele>
        <time>2023-05-06T09:54:33Z</time>
      </trkpt>
      <trkpt lat="44.36433" lon="3.2096">
        <ele>866.20001220703</ele>
        <time>2023-05-06T09:54:34Z</time>
      </trkpt>
      <trkpt lat="44.36437" lon="3.20954">
        <ele>867.79998779297</ele>
        <time>2023-05-06T09:54:39Z</time>
      </trkpt>
      <trkpt lat="44.36443" lon="3.20944">
        <ele>870.20001220703</ele>
        <time>2023-05-06T09:54:47Z</time>
      </trkpt>
      <trkpt lat="44.36444" lon="3.20942">
        <ele>870.40002441406</ele>
        <time>2023-05-06T09:54:48Z</time>
      </trkpt>
      <trkpt lat="44.36446" lon="3.20938">
        <ele>871.20001220703</ele>
        <time>2023-05-06T09:54:51Z</time>
      </trkpt>
      <trkpt lat="44.36446" lon="3.20934">
        <ele>871.59997558594</ele>
        <time>2023-05-06T09:54:53Z</time>
      </trkpt>
      <trkpt lat="44.36444" lon="3.20932">
        <ele>872.40002441406</ele>
        <time>2023-05-06T09:54:56Z</time>
      </trkpt>
      <trkpt lat="44.36437" lon="3.20932">
        <ele>873.59997558594</ele>
        <time>2023-05-06T09:55:02Z</time>
      </trkpt>
      <trkpt lat="44.36432" lon="3.20929">
        <ele>874.40002441406</ele>
        <time>2023-05-06T09:55:06Z</time>
      </trkpt>
      <trkpt lat="44.36429" lon="3.20931">
        <ele>874.79998779297</ele>
        <time>2023-05-06T09:55:08Z</time>
      </trkpt>
      <trkpt lat="44.36421" lon="3.20932">
        <ele>875.40002441406</ele>
        <time>2023-05-06T09:55:15Z</time>
      </trkpt>
      <trkpt lat="44.36412" lon="3.20926">
        <ele>875.79998779297</ele>
        <time>2023-05-06T09:55:23Z</time>
      </trkpt>
      <trkpt lat="44.36404" lon="3.20923">
        <ele>876</ele>
        <time>2023-05-06T09:55:29Z</time>
      </trkpt>
      <trkpt lat="44.36397" lon="3.20917">
        <ele>876.20001220703</ele>
        <time>2023-05-06T09:55:35Z</time>
      </trkpt>
      <trkpt lat="44.36394" lon="3.20915">
        <ele>876.40002441406</ele>
        <time>2023-05-06T09:55:37Z</time>
      </trkpt>
      <trkpt lat="44.36392" lon="3.2091">
        <ele>876.59997558594</ele>
        <time>2023-05-06T09:55:40Z</time>
      </trkpt>
      <trkpt lat="44.36389" lon="3.20907">
        <ele>876.79998779297</ele>
        <time>2023-05-06T09:55:42Z</time>
      </trkpt>
      <trkpt lat="44.36387" lon="3.20906">
        <ele>877</ele>
        <time>2023-05-06T09:55:44Z</time>
      </trkpt>
      <trkpt lat="44.36385" lon="3.20905">
        <ele>876.79998779297</ele>
        <time>2023-05-06T09:55:45Z</time>
      </trkpt>
      <trkpt lat="44.36384" lon="3.20905">
        <ele>877</ele>
        <time>2023-05-06T09:55:46Z</time>
      </trkpt>
      <trkpt lat="44.36375" lon="3.20901">
        <ele>877.20001220703</ele>
        <time>2023-05-06T09:55:49Z</time>
      </trkpt>
      <trkpt lat="44.36367" lon="3.20896">
        <ele>877.40002441406</ele>
        <time>2023-05-06T09:55:54Z</time>
      </trkpt>
      <trkpt lat="44.36362" lon="3.20893">
        <ele>877.59997558594</ele>
        <time>2023-05-06T09:55:58Z</time>
      </trkpt>
      <trkpt lat="44.36359" lon="3.20892">
        <ele>877.79998779297</ele>
        <time>2023-05-06T09:56:00Z</time>
      </trkpt>
      <trkpt lat="44.36358" lon="3.20891">
        <ele>877.79998779297</ele>
        <time>2023-05-06T09:56:01Z</time>
      </trkpt>
      <trkpt lat="44.36356" lon="3.2089">
        <ele>877.79998779297</ele>
        <time>2023-05-06T09:56:03Z</time>
      </trkpt>
      <trkpt lat="44.36353" lon="3.2089">
        <ele>878.20001220703</ele>
        <time>2023-05-06T09:56:05Z</time>
      </trkpt>
      <trkpt lat="44.36351" lon="3.20889">
        <ele>878.40002441406</ele>
        <time>2023-05-06T09:56:07Z</time>
      </trkpt>
      <trkpt lat="44.36343" lon="3.20887">
        <ele>878.79998779297</ele>
        <time>2023-05-06T09:56:14Z</time>
      </trkpt>
      <trkpt lat="44.36337" lon="3.20887">
        <ele>879</ele>
        <time>2023-05-06T09:56:19Z</time>
      </trkpt>
      <trkpt lat="44.36335" lon="3.20886">
        <ele>879</ele>
        <time>2023-05-06T09:56:20Z</time>
      </trkpt>
      <trkpt lat="44.36326" lon="3.20884">
        <ele>879</ele>
        <time>2023-05-06T09:56:27Z</time>
      </trkpt>
      <trkpt lat="44.36317" lon="3.20882">
        <ele>879</ele>
        <time>2023-05-06T09:56:34Z</time>
      </trkpt>
      <trkpt lat="44.36311" lon="3.2088">
        <ele>878.59997558594</ele>
        <time>2023-05-06T09:56:39Z</time>
      </trkpt>
      <trkpt lat="44.36303" lon="3.20877">
        <ele>878</ele>
        <time>2023-05-06T09:56:46Z</time>
      </trkpt>
      <trkpt lat="44.36297" lon="3.20877">
        <ele>877.79998779297</ele>
        <time>2023-05-06T09:56:50Z</time>
      </trkpt>
      <trkpt lat="44.36294" lon="3.20876">
        <ele>877.59997558594</ele>
        <time>2023-05-06T09:56:52Z</time>
      </trkpt>
      <trkpt lat="44.36287" lon="3.20872">
        <ele>877</ele>
        <time>2023-05-06T09:56:57Z</time>
      </trkpt>
      <trkpt lat="44.36281" lon="3.20868">
        <ele>876.20001220703</ele>
        <time>2023-05-06T09:57:03Z</time>
      </trkpt>
      <trkpt lat="44.36279" lon="3.20865">
        <ele>876</ele>
        <time>2023-05-06T09:57:05Z</time>
      </trkpt>
      <trkpt lat="44.36274" lon="3.20863">
        <ele>875.40002441406</ele>
        <time>2023-05-06T09:57:09Z</time>
      </trkpt>
      <trkpt lat="44.36273" lon="3.20862">
        <ele>875.40002441406</ele>
        <time>2023-05-06T09:57:10Z</time>
      </trkpt>
      <trkpt lat="44.36264" lon="3.2086">
        <ele>874.79998779297</ele>
        <time>2023-05-06T09:57:16Z</time>
      </trkpt>
      <trkpt lat="44.36254" lon="3.20858">
        <ele>877.20001220703</ele>
        <time>2023-05-06T09:57:23Z</time>
      </trkpt>
      <trkpt lat="44.36245" lon="3.20851">
        <ele>878.40002441406</ele>
        <time>2023-05-06T09:57:29Z</time>
      </trkpt>
      <trkpt lat="44.36242" lon="3.20849">
        <ele>879</ele>
        <time>2023-05-06T09:57:31Z</time>
      </trkpt>
      <trkpt lat="44.36234" lon="3.20848">
        <ele>879.79998779297</ele>
        <time>2023-05-06T09:57:35Z</time>
      </trkpt>
      <trkpt lat="44.36218" lon="3.20847">
        <ele>880.40002441406</ele>
        <time>2023-05-06T09:57:41Z</time>
      </trkpt>
      <trkpt lat="44.36206" lon="3.20851">
        <ele>880.59997558594</ele>
        <time>2023-05-06T09:57:45Z</time>
      </trkpt>
      <trkpt lat="44.36196" lon="3.2086">
        <ele>881</ele>
        <time>2023-05-06T09:57:48Z</time>
      </trkpt>
      <trkpt lat="44.36191" lon="3.20863">
        <ele>881.20001220703</ele>
        <time>2023-05-06T09:57:49Z</time>
      </trkpt>
      <trkpt lat="44.36186" lon="3.20864">
        <ele>881.40002441406</ele>
        <time>2023-05-06T09:57:50Z</time>
      </trkpt>
      <trkpt lat="44.36175" lon="3.20863">
        <ele>881.40002441406</ele>
        <time>2023-05-06T09:57:52Z</time>
      </trkpt>
      <trkpt lat="44.36165" lon="3.20863">
        <ele>881.59997558594</ele>
        <time>2023-05-06T09:57:54Z</time>
      </trkpt>
      <trkpt lat="44.36162" lon="3.20866">
        <ele>881.59997558594</ele>
        <time>2023-05-06T09:57:55Z</time>
      </trkpt>
      <trkpt lat="44.3616" lon="3.2087">
        <ele>881.40002441406</ele>
        <time>2023-05-06T09:57:56Z</time>
      </trkpt>
      <trkpt lat="44.36161" lon="3.20878">
        <ele>881.40002441406</ele>
        <time>2023-05-06T09:57:58Z</time>
      </trkpt>
      <trkpt lat="44.36162" lon="3.20898">
        <ele>881.40002441406</ele>
        <time>2023-05-06T09:58:04Z</time>
      </trkpt>
      <trkpt lat="44.36161" lon="3.20911">
        <ele>881.40002441406</ele>
        <time>2023-05-06T09:58:09Z</time>
      </trkpt>
      <trkpt lat="44.3616" lon="3.20918">
        <ele>881.40002441406</ele>
        <time>2023-05-06T09:58:12Z</time>
      </trkpt>
      <trkpt lat="44.36159" lon="3.20923">
        <ele>881.20001220703</ele>
        <time>2023-05-06T09:58:14Z</time>
      </trkpt>
      <trkpt lat="44.36155" lon="3.2094">
        <ele>881.40002441406</ele>
        <time>2023-05-06T09:58:20Z</time>
      </trkpt>
      <trkpt lat="44.36144" lon="3.20957">
        <ele>881.40002441406</ele>
        <time>2023-05-06T09:58:26Z</time>
      </trkpt>
      <trkpt lat="44.36135" lon="3.20976">
        <ele>881.79998779297</ele>
        <time>2023-05-06T09:58:32Z</time>
      </trkpt>
      <trkpt lat="44.36131" lon="3.20997">
        <ele>882.59997558594</ele>
        <time>2023-05-06T09:58:38Z</time>
      </trkpt>
      <trkpt lat="44.36128" lon="3.21007">
        <ele>882.40002441406</ele>
        <time>2023-05-06T09:58:42Z</time>
      </trkpt>
      <trkpt lat="44.36125" lon="3.21009">
        <ele>882.59997558594</ele>
        <time>2023-05-06T09:58:43Z</time>
      </trkpt>
      <trkpt lat="44.36122" lon="3.21009">
        <ele>882.59997558594</ele>
        <time>2023-05-06T09:58:45Z</time>
      </trkpt>
      <trkpt lat="44.36113" lon="3.21006">
        <ele>882.79998779297</ele>
        <time>2023-05-06T09:58:50Z</time>
      </trkpt>
      <trkpt lat="44.36112" lon="3.21005">
        <ele>882.79998779297</ele>
        <time>2023-05-06T09:58:51Z</time>
      </trkpt>
      <trkpt lat="44.36109" lon="3.21003">
        <ele>883</ele>
        <time>2023-05-06T09:58:53Z</time>
      </trkpt>
      <trkpt lat="44.36104" lon="3.21">
        <ele>883.40002441406</ele>
        <time>2023-05-06T09:58:57Z</time>
      </trkpt>
      <trkpt lat="44.36097" lon="3.20998">
        <ele>883.59997558594</ele>
        <time>2023-05-06T09:59:02Z</time>
      </trkpt>
      <trkpt lat="44.36092" lon="3.20998">
        <ele>884.20001220703</ele>
        <time>2023-05-06T09:59:07Z</time>
      </trkpt>
      <trkpt lat="44.36085" lon="3.20996">
        <ele>884.79998779297</ele>
        <time>2023-05-06T09:59:13Z</time>
      </trkpt>
      <trkpt lat="44.36078" lon="3.20993">
        <ele>885.20001220703</ele>
        <time>2023-05-06T09:59:20Z</time>
      </trkpt>
      <trkpt lat="44.36075" lon="3.2099">
        <ele>885.79998779297</ele>
        <time>2023-05-06T09:59:26Z</time>
      </trkpt>
      <trkpt lat="44.36075" lon="3.2099">
        <ele>886.59997558594</ele>
        <time>2023-05-06T09:59:40Z</time>
      </trkpt>
      <trkpt lat="44.36075" lon="3.2099">
        <ele>887.40002441406</ele>
        <time>2023-05-06T09:59:55Z</time>
      </trkpt>
      <trkpt lat="44.36075" lon="3.20989">
        <ele>888.20001220703</ele>
        <time>2023-05-06T10:00:07Z</time>
      </trkpt>
      <trkpt lat="44.36073" lon="3.20987">
        <ele>888.40002441406</ele>
        <time>2023-05-06T10:00:08Z</time>
      </trkpt>
      <trkpt lat="44.36061" lon="3.20987">
        <ele>889.79998779297</ele>
        <time>2023-05-06T10:00:15Z</time>
      </trkpt>
      <trkpt lat="44.36051" lon="3.20992">
        <ele>890.59997558594</ele>
        <time>2023-05-06T10:00:21Z</time>
      </trkpt>
      <trkpt lat="44.36036" lon="3.20997">
        <ele>891.20001220703</ele>
        <time>2023-05-06T10:00:28Z</time>
      </trkpt>
      <trkpt lat="44.36025" lon="3.20998">
        <ele>891.40002441406</ele>
        <time>2023-05-06T10:00:33Z</time>
      </trkpt>
      <trkpt lat="44.36013" lon="3.21004">
        <ele>891.79998779297</ele>
        <time>2023-05-06T10:00:38Z</time>
      </trkpt>
      <trkpt lat="44.35999" lon="3.2101">
        <ele>892</ele>
        <time>2023-05-06T10:00:44Z</time>
      </trkpt>
      <trkpt lat="44.35987" lon="3.21015">
        <ele>892.20001220703</ele>
        <time>2023-05-06T10:00:50Z</time>
      </trkpt>
      <trkpt lat="44.35976" lon="3.21016">
        <ele>892.40002441406</ele>
        <time>2023-05-06T10:00:56Z</time>
      </trkpt>
      <trkpt lat="44.35962" lon="3.21023">
        <ele>893.40002441406</ele>
        <time>2023-05-06T10:01:05Z</time>
      </trkpt>
      <trkpt lat="44.35947" lon="3.21026">
        <ele>894.40002441406</ele>
        <time>2023-05-06T10:01:13Z</time>
      </trkpt>
      <trkpt lat="44.35937" lon="3.21027">
        <ele>894.79998779297</ele>
        <time>2023-05-06T10:01:18Z</time>
      </trkpt>
      <trkpt lat="44.35925" lon="3.21028">
        <ele>895</ele>
        <time>2023-05-06T10:01:24Z</time>
      </trkpt>
      <trkpt lat="44.35914" lon="3.21029">
        <ele>894.79998779297</ele>
        <time>2023-05-06T10:01:29Z</time>
      </trkpt>
      <trkpt lat="44.35904" lon="3.21029">
        <ele>894.59997558594</ele>
        <time>2023-05-06T10:01:34Z</time>
      </trkpt>
      <trkpt lat="44.35894" lon="3.21033">
        <ele>894.20001220703</ele>
        <time>2023-05-06T10:01:38Z</time>
      </trkpt>
      <trkpt lat="44.35877" lon="3.21043">
        <ele>894.59997558594</ele>
        <time>2023-05-06T10:01:43Z</time>
      </trkpt>
      <trkpt lat="44.35869" lon="3.2105">
        <ele>894.40002441406</ele>
        <time>2023-05-06T10:01:45Z</time>
      </trkpt>
      <trkpt lat="44.35861" lon="3.21053">
        <ele>894.40002441406</ele>
        <time>2023-05-06T10:01:47Z</time>
      </trkpt>
      <trkpt lat="44.35834" lon="3.2106">
        <ele>893.79998779297</ele>
        <time>2023-05-06T10:01:53Z</time>
      </trkpt>
      <trkpt lat="44.35825" lon="3.21064">
        <ele>893.59997558594</ele>
        <time>2023-05-06T10:01:55Z</time>
      </trkpt>
      <trkpt lat="44.35814" lon="3.21069">
        <ele>893.40002441406</ele>
        <time>2023-05-06T10:01:57Z</time>
      </trkpt>
      <trkpt lat="44.35797" lon="3.21082">
        <ele>892.59997558594</ele>
        <time>2023-05-06T10:02:00Z</time>
      </trkpt>
      <trkpt lat="44.3579" lon="3.21085">
        <ele>892.40002441406</ele>
        <time>2023-05-06T10:02:01Z</time>
      </trkpt>
      <trkpt lat="44.35776" lon="3.21092">
        <ele>892</ele>
        <time>2023-05-06T10:02:03Z</time>
      </trkpt>
      <trkpt lat="44.35765" lon="3.21098">
        <ele>891.40002441406</ele>
        <time>2023-05-06T10:02:05Z</time>
      </trkpt>
      <trkpt lat="44.35744" lon="3.21102">
        <ele>890.59997558594</ele>
        <time>2023-05-06T10:02:08Z</time>
      </trkpt>
      <trkpt lat="44.35727" lon="3.21105">
        <ele>890.40002441406</ele>
        <time>2023-05-06T10:02:10Z</time>
      </trkpt>
      <trkpt lat="44.3571" lon="3.21104">
        <ele>890.20001220703</ele>
        <time>2023-05-06T10:02:12Z</time>
      </trkpt>
      <trkpt lat="44.35702" lon="3.21104">
        <ele>890</ele>
        <time>2023-05-06T10:02:13Z</time>
      </trkpt>
      <trkpt lat="44.35689" lon="3.21103">
        <ele>889.59997558594</ele>
        <time>2023-05-06T10:02:15Z</time>
      </trkpt>
      <trkpt lat="44.35685" lon="3.21105">
        <ele>889.40002441406</ele>
        <time>2023-05-06T10:02:16Z</time>
      </trkpt>
      <trkpt lat="44.35675" lon="3.21108">
        <ele>889.20001220703</ele>
        <time>2023-05-06T10:02:18Z</time>
      </trkpt>
      <trkpt lat="44.35657" lon="3.21114">
        <ele>888.40002441406</ele>
        <time>2023-05-06T10:02:22Z</time>
      </trkpt>
      <trkpt lat="44.35642" lon="3.21117">
        <ele>887.59997558594</ele>
        <time>2023-05-06T10:02:28Z</time>
      </trkpt>
      <trkpt lat="44.35632" lon="3.2112">
        <ele>887.20001220703</ele>
        <time>2023-05-06T10:02:34Z</time>
      </trkpt>
      <trkpt lat="44.35621" lon="3.21126">
        <ele>886.79998779297</ele>
        <time>2023-05-06T10:02:41Z</time>
      </trkpt>
      <trkpt lat="44.35614" lon="3.21127">
        <ele>886.59997558594</ele>
        <time>2023-05-06T10:02:48Z</time>
      </trkpt>
      <trkpt lat="44.35604" lon="3.21131">
        <ele>886.40002441406</ele>
        <time>2023-05-06T10:02:54Z</time>
      </trkpt>
      <trkpt lat="44.35602" lon="3.21132">
        <ele>886.40002441406</ele>
        <time>2023-05-06T10:02:55Z</time>
      </trkpt>
      <trkpt lat="44.35593" lon="3.21133">
        <ele>886.40002441406</ele>
        <time>2023-05-06T10:03:01Z</time>
      </trkpt>
      <trkpt lat="44.35591" lon="3.21133">
        <ele>886.40002441406</ele>
        <time>2023-05-06T10:03:02Z</time>
      </trkpt>
      <trkpt lat="44.35582" lon="3.21134">
        <ele>886.20001220703</ele>
        <time>2023-05-06T10:03:07Z</time>
      </trkpt>
      <trkpt lat="44.35572" lon="3.21135">
        <ele>885.79998779297</ele>
        <time>2023-05-06T10:03:13Z</time>
      </trkpt>
      <trkpt lat="44.35561" lon="3.21136">
        <ele>885.20001220703</ele>
        <time>2023-05-06T10:03:21Z</time>
      </trkpt>
      <trkpt lat="44.35552" lon="3.21141">
        <ele>886</ele>
        <time>2023-05-06T10:03:28Z</time>
      </trkpt>
      <trkpt lat="44.35541" lon="3.21145">
        <ele>886.59997558594</ele>
        <time>2023-05-06T10:03:35Z</time>
      </trkpt>
      <trkpt lat="44.35535" lon="3.21148">
        <ele>886.79998779297</ele>
        <time>2023-05-06T10:03:39Z</time>
      </trkpt>
      <trkpt lat="44.35534" lon="3.21149">
        <ele>886.79998779297</ele>
        <time>2023-05-06T10:03:40Z</time>
      </trkpt>
      <trkpt lat="44.35525" lon="3.21155">
        <ele>887.20001220703</ele>
        <time>2023-05-06T10:03:46Z</time>
      </trkpt>
      <trkpt lat="44.35516" lon="3.21162">
        <ele>887.40002441406</ele>
        <time>2023-05-06T10:03:51Z</time>
      </trkpt>
      <trkpt lat="44.35505" lon="3.21168">
        <ele>887.59997558594</ele>
        <time>2023-05-06T10:03:57Z</time>
      </trkpt>
      <trkpt lat="44.355" lon="3.21169">
        <ele>887.59997558594</ele>
        <time>2023-05-06T10:03:59Z</time>
      </trkpt>
      <trkpt lat="44.35495" lon="3.21171">
        <ele>887.59997558594</ele>
        <time>2023-05-06T10:04:01Z</time>
      </trkpt>
      <trkpt lat="44.35485" lon="3.21175">
        <ele>887.59997558594</ele>
        <time>2023-05-06T10:04:04Z</time>
      </trkpt>
      <trkpt lat="44.35481" lon="3.21178">
        <ele>887.59997558594</ele>
        <time>2023-05-06T10:04:05Z</time>
      </trkpt>
      <trkpt lat="44.35466" lon="3.21186">
        <ele>887.40002441406</ele>
        <time>2023-05-06T10:04:08Z</time>
      </trkpt>
      <trkpt lat="44.35457" lon="3.21192">
        <ele>887.20001220703</ele>
        <time>2023-05-06T10:04:10Z</time>
      </trkpt>
      <trkpt lat="44.35447" lon="3.21199">
        <ele>886.79998779297</ele>
        <time>2023-05-06T10:04:12Z</time>
      </trkpt>
      <trkpt lat="44.35431" lon="3.21211">
        <ele>886.20001220703</ele>
        <time>2023-05-06T10:04:15Z</time>
      </trkpt>
      <trkpt lat="44.35425" lon="3.21215">
        <ele>886.20001220703</ele>
        <time>2023-05-06T10:04:16Z</time>
      </trkpt>
      <trkpt lat="44.3541" lon="3.21223">
        <ele>885.59997558594</ele>
        <time>2023-05-06T10:04:19Z</time>
      </trkpt>
      <trkpt lat="44.35395" lon="3.2123">
        <ele>884.79998779297</ele>
        <time>2023-05-06T10:04:23Z</time>
      </trkpt>
      <trkpt lat="44.35396" lon="3.21235">
        <ele>884.20001220703</ele>
        <time>2023-05-06T10:04:27Z</time>
      </trkpt>
      <trkpt lat="44.35396" lon="3.21236">
        <ele>884</ele>
        <time>2023-05-06T10:04:30Z</time>
      </trkpt>
      <trkpt lat="44.35396" lon="3.2124">
        <ele>883.79998779297</ele>
        <time>2023-05-06T10:04:32Z</time>
      </trkpt>
      <trkpt lat="44.35397" lon="3.21256">
        <ele>883.40002441406</ele>
        <time>2023-05-06T10:04:38Z</time>
      </trkpt>
      <trkpt lat="44.35398" lon="3.21277">
        <ele>882.20001220703</ele>
        <time>2023-05-06T10:04:45Z</time>
      </trkpt>
      <trkpt lat="44.35397" lon="3.2129">
        <ele>881.79998779297</ele>
        <time>2023-05-06T10:04:48Z</time>
      </trkpt>
      <trkpt lat="44.35397" lon="3.21294">
        <ele>881.40002441406</ele>
        <time>2023-05-06T10:04:49Z</time>
      </trkpt>
      <trkpt lat="44.35398" lon="3.21298">
        <ele>881</ele>
        <time>2023-05-06T10:04:51Z</time>
      </trkpt>
      <trkpt lat="44.35398" lon="3.21301">
        <ele>880.59997558594</ele>
        <time>2023-05-06T10:04:53Z</time>
      </trkpt>
      <trkpt lat="44.35397" lon="3.21306">
        <ele>880.59997558594</ele>
        <time>2023-05-06T10:04:56Z</time>
      </trkpt>
      <trkpt lat="44.35396" lon="3.21309">
        <ele>880.59997558594</ele>
        <time>2023-05-06T10:04:58Z</time>
      </trkpt>
      <trkpt lat="44.35398" lon="3.21313">
        <ele>880.20001220703</ele>
        <time>2023-05-06T10:05:00Z</time>
      </trkpt>
      <trkpt lat="44.35398" lon="3.2132">
        <ele>879.79998779297</ele>
        <time>2023-05-06T10:05:02Z</time>
      </trkpt>
      <trkpt lat="44.35399" lon="3.21323">
        <ele>879.40002441406</ele>
        <time>2023-05-06T10:05:04Z</time>
      </trkpt>
      <trkpt lat="44.354" lon="3.21326">
        <ele>879.20001220703</ele>
        <time>2023-05-06T10:05:05Z</time>
      </trkpt>
      <trkpt lat="44.35403" lon="3.21331">
        <ele>878.59997558594</ele>
        <time>2023-05-06T10:05:07Z</time>
      </trkpt>
      <trkpt lat="44.35402" lon="3.21345">
        <ele>877.79998779297</ele>
        <time>2023-05-06T10:05:09Z</time>
      </trkpt>
      <trkpt lat="44.35399" lon="3.21366">
        <ele>876.59997558594</ele>
        <time>2023-05-06T10:05:12Z</time>
      </trkpt>
      <trkpt lat="44.35399" lon="3.21372">
        <ele>876.20001220703</ele>
        <time>2023-05-06T10:05:13Z</time>
      </trkpt>
      <trkpt lat="44.354" lon="3.2139">
        <ele>875.20001220703</ele>
        <time>2023-05-06T10:05:16Z</time>
      </trkpt>
      <trkpt lat="44.35401" lon="3.21407">
        <ele>874.40002441406</ele>
        <time>2023-05-06T10:05:19Z</time>
      </trkpt>
      <trkpt lat="44.354" lon="3.21413">
        <ele>874.20001220703</ele>
        <time>2023-05-06T10:05:20Z</time>
      </trkpt>
      <trkpt lat="44.35398" lon="3.2142">
        <ele>874</ele>
        <time>2023-05-06T10:05:21Z</time>
      </trkpt>
      <trkpt lat="44.35396" lon="3.21434">
        <ele>873.59997558594</ele>
        <time>2023-05-06T10:05:23Z</time>
      </trkpt>
      <trkpt lat="44.35397" lon="3.21454">
        <ele>872.40002441406</ele>
        <time>2023-05-06T10:05:27Z</time>
      </trkpt>
      <trkpt lat="44.35394" lon="3.21477">
        <ele>871.40002441406</ele>
        <time>2023-05-06T10:05:30Z</time>
      </trkpt>
      <trkpt lat="44.35394" lon="3.21489">
        <ele>870.59997558594</ele>
        <time>2023-05-06T10:05:32Z</time>
      </trkpt>
      <trkpt lat="44.35395" lon="3.21501">
        <ele>869.59997558594</ele>
        <time>2023-05-06T10:05:34Z</time>
      </trkpt>
      <trkpt lat="44.35395" lon="3.21518">
        <ele>868</ele>
        <time>2023-05-06T10:05:38Z</time>
      </trkpt>
      <trkpt lat="44.35394" lon="3.21521">
        <ele>867.40002441406</ele>
        <time>2023-05-06T10:05:39Z</time>
      </trkpt>
      <trkpt lat="44.35391" lon="3.21526">
        <ele>867</ele>
        <time>2023-05-06T10:05:41Z</time>
      </trkpt>
      <trkpt lat="44.35388" lon="3.21527">
        <ele>866.79998779297</ele>
        <time>2023-05-06T10:05:42Z</time>
      </trkpt>
      <trkpt lat="44.35373" lon="3.21531">
        <ele>865.40002441406</ele>
        <time>2023-05-06T10:05:47Z</time>
      </trkpt>
      <trkpt lat="44.35348" lon="3.21539">
        <ele>863.59997558594</ele>
        <time>2023-05-06T10:05:53Z</time>
      </trkpt>
      <trkpt lat="44.35343" lon="3.2154">
        <ele>863.20001220703</ele>
        <time>2023-05-06T10:05:54Z</time>
      </trkpt>
      <trkpt lat="44.35332" lon="3.21542">
        <ele>862.59997558594</ele>
        <time>2023-05-06T10:05:56Z</time>
      </trkpt>
      <trkpt lat="44.35328" lon="3.21544">
        <ele>862.40002441406</ele>
        <time>2023-05-06T10:05:57Z</time>
      </trkpt>
      <trkpt lat="44.35308" lon="3.21551">
        <ele>860.59997558594</ele>
        <time>2023-05-06T10:06:02Z</time>
      </trkpt>
      <trkpt lat="44.35289" lon="3.21563">
        <ele>859.40002441406</ele>
        <time>2023-05-06T10:06:07Z</time>
      </trkpt>
      <trkpt lat="44.35285" lon="3.21565">
        <ele>859</ele>
        <time>2023-05-06T10:06:08Z</time>
      </trkpt>
      <trkpt lat="44.35276" lon="3.21569">
        <ele>858.59997558594</ele>
        <time>2023-05-06T10:06:10Z</time>
      </trkpt>
      <trkpt lat="44.35271" lon="3.21571">
        <ele>858.20001220703</ele>
        <time>2023-05-06T10:06:11Z</time>
      </trkpt>
      <trkpt lat="44.35237" lon="3.21584">
        <ele>857</ele>
        <time>2023-05-06T10:06:17Z</time>
      </trkpt>
      <trkpt lat="44.35224" lon="3.21596">
        <ele>856.20001220703</ele>
        <time>2023-05-06T10:06:20Z</time>
      </trkpt>
      <trkpt lat="44.35214" lon="3.21611">
        <ele>855.40002441406</ele>
        <time>2023-05-06T10:06:24Z</time>
      </trkpt>
      <trkpt lat="44.35208" lon="3.21613">
        <ele>854.59997558594</ele>
        <time>2023-05-06T10:06:27Z</time>
      </trkpt>
      <trkpt lat="44.35206" lon="3.21612">
        <ele>854.40002441406</ele>
        <time>2023-05-06T10:06:28Z</time>
      </trkpt>
      <trkpt lat="44.35205" lon="3.21612">
        <ele>854.40002441406</ele>
        <time>2023-05-06T10:06:29Z</time>
      </trkpt>
      <trkpt lat="44.35204" lon="3.21611">
        <ele>854</ele>
        <time>2023-05-06T10:06:32Z</time>
      </trkpt>
      <trkpt lat="44.35202" lon="3.21609">
        <ele>853.40002441406</ele>
        <time>2023-05-06T10:06:37Z</time>
      </trkpt>
      <trkpt lat="44.35197" lon="3.21608">
        <ele>853</ele>
        <time>2023-05-06T10:06:43Z</time>
      </trkpt>
      <trkpt lat="44.35191" lon="3.21607">
        <ele>853.20001220703</ele>
        <time>2023-05-06T10:06:52Z</time>
      </trkpt>
      <trkpt lat="44.35187" lon="3.21607">
        <ele>853.79998779297</ele>
        <time>2023-05-06T10:07:00Z</time>
      </trkpt>
      <trkpt lat="44.35183" lon="3.21605">
        <ele>854.20001220703</ele>
        <time>2023-05-06T10:07:06Z</time>
      </trkpt>
      <trkpt lat="44.35177" lon="3.21602">
        <ele>855</ele>
        <time>2023-05-06T10:07:15Z</time>
      </trkpt>
      <trkpt lat="44.35172" lon="3.21601">
        <ele>856.20001220703</ele>
        <time>2023-05-06T10:07:22Z</time>
      </trkpt>
      <trkpt lat="44.35168" lon="3.21602">
        <ele>857.40002441406</ele>
        <time>2023-05-06T10:07:28Z</time>
      </trkpt>
      <trkpt lat="44.35163" lon="3.216">
        <ele>858.59997558594</ele>
        <time>2023-05-06T10:07:35Z</time>
      </trkpt>
      <trkpt lat="44.35163" lon="3.21599">
        <ele>859.40002441406</ele>
        <time>2023-05-06T10:07:41Z</time>
      </trkpt>
      <trkpt lat="44.35158" lon="3.21598">
        <ele>861</ele>
        <time>2023-05-06T10:07:48Z</time>
      </trkpt>
      <trkpt lat="44.35151" lon="3.21597">
        <ele>862.40002441406</ele>
        <time>2023-05-06T10:07:55Z</time>
      </trkpt>
      <trkpt lat="44.35147" lon="3.21595">
        <ele>863.20001220703</ele>
        <time>2023-05-06T10:08:01Z</time>
      </trkpt>
      <trkpt lat="44.35143" lon="3.21591">
        <ele>863.79998779297</ele>
        <time>2023-05-06T10:08:07Z</time>
      </trkpt>
      <trkpt lat="44.35136" lon="3.21589">
        <ele>865</ele>
        <time>2023-05-06T10:08:16Z</time>
      </trkpt>
      <trkpt lat="44.35136" lon="3.21587">
        <ele>865.20001220703</ele>
        <time>2023-05-06T10:08:18Z</time>
      </trkpt>
      <trkpt lat="44.35137" lon="3.21585">
        <ele>865.79998779297</ele>
        <time>2023-05-06T10:08:22Z</time>
      </trkpt>
      <trkpt lat="44.35137" lon="3.21585">
        <ele>867.40002441406</ele>
        <time>2023-05-06T10:08:39Z</time>
      </trkpt>
      <trkpt lat="44.35137" lon="3.21585">
        <ele>868.79998779297</ele>
        <time>2023-05-06T10:08:57Z</time>
      </trkpt>
      <trkpt lat="44.35137" lon="3.21583">
        <ele>868.59997558594</ele>
        <time>2023-05-06T10:09:01Z</time>
      </trkpt>
      <trkpt lat="44.35137" lon="3.21583">
        <ele>869</ele>
        <time>2023-05-06T10:09:10Z</time>
      </trkpt>
      <trkpt lat="44.35137" lon="3.21583">
        <ele>869.40002441406</ele>
        <time>2023-05-06T10:09:16Z</time>
      </trkpt>
      <trkpt lat="44.35136" lon="3.21576">
        <ele>869.40002441406</ele>
        <time>2023-05-06T10:09:23Z</time>
      </trkpt>
      <trkpt lat="44.35131" lon="3.21571">
        <ele>869.40002441406</ele>
        <time>2023-05-06T10:09:29Z</time>
      </trkpt>
      <trkpt lat="44.35128" lon="3.21571">
        <ele>869.59997558594</ele>
        <time>2023-05-06T10:09:33Z</time>
      </trkpt>
      <trkpt lat="44.35128" lon="3.21571">
        <ele>869.79998779297</ele>
        <time>2023-05-06T10:09:34Z</time>
      </trkpt>
      <trkpt lat="44.35121" lon="3.21572">
        <ele>870.40002441406</ele>
        <time>2023-05-06T10:09:41Z</time>
      </trkpt>
      <trkpt lat="44.3512" lon="3.21572">
        <ele>870.40002441406</ele>
        <time>2023-05-06T10:09:42Z</time>
      </trkpt>
      <trkpt lat="44.35115" lon="3.21573">
        <ele>870.79998779297</ele>
        <time>2023-05-06T10:09:47Z</time>
      </trkpt>
      <trkpt lat="44.35108" lon="3.21573">
        <ele>871</ele>
        <time>2023-05-06T10:09:54Z</time>
      </trkpt>
      <trkpt lat="44.35106" lon="3.21574">
        <ele>871.20001220703</ele>
        <time>2023-05-06T10:09:56Z</time>
      </trkpt>
      <trkpt lat="44.35102" lon="3.21576">
        <ele>871.40002441406</ele>
        <time>2023-05-06T10:10:00Z</time>
      </trkpt>
      <trkpt lat="44.35093" lon="3.21579">
        <ele>872.20001220703</ele>
        <time>2023-05-06T10:10:08Z</time>
      </trkpt>
      <trkpt lat="44.35092" lon="3.21579">
        <ele>872.20001220703</ele>
        <time>2023-05-06T10:10:09Z</time>
      </trkpt>
      <trkpt lat="44.35087" lon="3.21582">
        <ele>872.59997558594</ele>
        <time>2023-05-06T10:10:13Z</time>
      </trkpt>
      <trkpt lat="44.35077" lon="3.21587">
        <ele>873.20001220703</ele>
        <time>2023-05-06T10:10:20Z</time>
      </trkpt>
      <trkpt lat="44.35066" lon="3.21591">
        <ele>873.79998779297</ele>
        <time>2023-05-06T10:10:26Z</time>
      </trkpt>
      <trkpt lat="44.35055" lon="3.21595">
        <ele>874.40002441406</ele>
        <time>2023-05-06T10:10:32Z</time>
      </trkpt>
      <trkpt lat="44.35047" lon="3.21597">
        <ele>875.20001220703</ele>
        <time>2023-05-06T10:10:37Z</time>
      </trkpt>
      <trkpt lat="44.35035" lon="3.216">
        <ele>876.40002441406</ele>
        <time>2023-05-06T10:10:44Z</time>
      </trkpt>
      <trkpt lat="44.35026" lon="3.21601">
        <ele>877.20001220703</ele>
        <time>2023-05-06T10:10:50Z</time>
      </trkpt>
      <trkpt lat="44.35017" lon="3.21602">
        <ele>877.79998779297</ele>
        <time>2023-05-06T10:10:55Z</time>
      </trkpt>
      <trkpt lat="44.35006" lon="3.21606">
        <ele>878.59997558594</ele>
        <time>2023-05-06T10:11:01Z</time>
      </trkpt>
      <trkpt lat="44.34995" lon="3.21612">
        <ele>879</ele>
        <time>2023-05-06T10:11:06Z</time>
      </trkpt>
      <trkpt lat="44.34988" lon="3.21615">
        <ele>879.20001220703</ele>
        <time>2023-05-06T10:11:10Z</time>
      </trkpt>
      <trkpt lat="44.34986" lon="3.21615">
        <ele>879.40002441406</ele>
        <time>2023-05-06T10:11:11Z</time>
      </trkpt>
      <trkpt lat="44.34985" lon="3.21615">
        <ele>879.40002441406</ele>
        <time>2023-05-06T10:11:12Z</time>
      </trkpt>
      <trkpt lat="44.34982" lon="3.21615">
        <ele>879.79998779297</ele>
        <time>2023-05-06T10:11:16Z</time>
      </trkpt>
      <trkpt lat="44.34982" lon="3.21615">
        <ele>880.79998779297</ele>
        <time>2023-05-06T10:11:29Z</time>
      </trkpt>
      <trkpt lat="44.34982" lon="3.21615">
        <ele>882.20001220703</ele>
        <time>2023-05-06T10:11:51Z</time>
      </trkpt>
      <trkpt lat="44.34982" lon="3.21616">
        <ele>883.40002441406</ele>
        <time>2023-05-06T10:12:16Z</time>
      </trkpt>
      <trkpt lat="44.34982" lon="3.21616">
        <ele>884</ele>
        <time>2023-05-06T10:12:32Z</time>
      </trkpt>
      <trkpt lat="44.34981" lon="3.21617">
        <ele>883.79998779297</ele>
        <time>2023-05-06T10:12:33Z</time>
      </trkpt>
      <trkpt lat="44.34974" lon="3.21622">
        <ele>883.40002441406</ele>
        <time>2023-05-06T10:12:37Z</time>
      </trkpt>
      <trkpt lat="44.34963" lon="3.21621">
        <ele>882.20001220703</ele>
        <time>2023-05-06T10:12:41Z</time>
      </trkpt>
      <trkpt lat="44.34959" lon="3.21622">
        <ele>882</ele>
        <time>2023-05-06T10:12:42Z</time>
      </trkpt>
      <trkpt lat="44.34947" lon="3.21623">
        <ele>881.40002441406</ele>
        <time>2023-05-06T10:12:45Z</time>
      </trkpt>
      <trkpt lat="44.34944" lon="3.21624">
        <ele>881.20001220703</ele>
        <time>2023-05-06T10:12:46Z</time>
      </trkpt>
      <trkpt lat="44.34926" lon="3.21623">
        <ele>879.79998779297</ele>
        <time>2023-05-06T10:12:51Z</time>
      </trkpt>
      <trkpt lat="44.34908" lon="3.21616">
        <ele>878.59997558594</ele>
        <time>2023-05-06T10:12:56Z</time>
      </trkpt>
      <trkpt lat="44.34897" lon="3.2161">
        <ele>877</ele>
        <time>2023-05-06T10:13:00Z</time>
      </trkpt>
      <trkpt lat="44.34895" lon="3.21608">
        <ele>876.40002441406</ele>
        <time>2023-05-06T10:13:01Z</time>
      </trkpt>
      <trkpt lat="44.34887" lon="3.21604">
        <ele>875.40002441406</ele>
        <time>2023-05-06T10:13:04Z</time>
      </trkpt>
      <trkpt lat="44.34867" lon="3.21605">
        <ele>873</ele>
        <time>2023-05-06T10:13:09Z</time>
      </trkpt>
      <trkpt lat="44.34863" lon="3.21604">
        <ele>872.59997558594</ele>
        <time>2023-05-06T10:13:10Z</time>
      </trkpt>
      <trkpt lat="44.3485" lon="3.21602">
        <ele>871</ele>
        <time>2023-05-06T10:13:13Z</time>
      </trkpt>
      <trkpt lat="44.34831" lon="3.21597">
        <ele>868.79998779297</ele>
        <time>2023-05-06T10:13:18Z</time>
      </trkpt>
      <trkpt lat="44.34822" lon="3.21594">
        <ele>867.59997558594</ele>
        <time>2023-05-06T10:13:20Z</time>
      </trkpt>
      <trkpt lat="44.34814" lon="3.2159">
        <ele>866.59997558594</ele>
        <time>2023-05-06T10:13:22Z</time>
      </trkpt>
      <trkpt lat="44.34804" lon="3.21583">
        <ele>864.79998779297</ele>
        <time>2023-05-06T10:13:25Z</time>
      </trkpt>
      <trkpt lat="44.34799" lon="3.21581">
        <ele>864.20001220703</ele>
        <time>2023-05-06T10:13:26Z</time>
      </trkpt>
      <trkpt lat="44.34784" lon="3.21574">
        <ele>861.40002441406</ele>
        <time>2023-05-06T10:13:30Z</time>
      </trkpt>
      <trkpt lat="44.34772" lon="3.21567">
        <ele>858</ele>
        <time>2023-05-06T10:13:35Z</time>
      </trkpt>
      <trkpt lat="44.34765" lon="3.21563">
        <ele>855.59997558594</ele>
        <time>2023-05-06T10:13:39Z</time>
      </trkpt>
      <trkpt lat="44.34763" lon="3.21562">
        <ele>855</ele>
        <time>2023-05-06T10:13:40Z</time>
      </trkpt>
      <trkpt lat="44.34758" lon="3.21559">
        <ele>853.79998779297</ele>
        <time>2023-05-06T10:13:43Z</time>
      </trkpt>
      <trkpt lat="44.34748" lon="3.21551">
        <ele>851.59997558594</ele>
        <time>2023-05-06T10:13:47Z</time>
      </trkpt>
      <trkpt lat="44.34737" lon="3.21543">
        <ele>849.59997558594</ele>
        <time>2023-05-06T10:13:51Z</time>
      </trkpt>
      <trkpt lat="44.3472" lon="3.21529">
        <ele>846.59997558594</ele>
        <time>2023-05-06T10:13:56Z</time>
      </trkpt>
      <trkpt lat="44.34708" lon="3.21517">
        <ele>845</ele>
        <time>2023-05-06T10:13:59Z</time>
      </trkpt>
      <trkpt lat="44.34698" lon="3.21507">
        <ele>843.79998779297</ele>
        <time>2023-05-06T10:14:01Z</time>
      </trkpt>
      <trkpt lat="44.34682" lon="3.21487">
        <ele>841.20001220703</ele>
        <time>2023-05-06T10:14:05Z</time>
      </trkpt>
      <trkpt lat="44.34678" lon="3.21482">
        <ele>840.59997558594</ele>
        <time>2023-05-06T10:14:06Z</time>
      </trkpt>
      <trkpt lat="44.34663" lon="3.21472">
        <ele>839</ele>
        <time>2023-05-06T10:14:09Z</time>
      </trkpt>
      <trkpt lat="44.34654" lon="3.21467">
        <ele>838</ele>
        <time>2023-05-06T10:14:11Z</time>
      </trkpt>
      <trkpt lat="44.34645" lon="3.21463">
        <ele>837.40002441406</ele>
        <time>2023-05-06T10:14:13Z</time>
      </trkpt>
      <trkpt lat="44.34622" lon="3.21454">
        <ele>836</ele>
        <time>2023-05-06T10:14:18Z</time>
      </trkpt>
      <trkpt lat="44.34606" lon="3.21443">
        <ele>835</ele>
        <time>2023-05-06T10:14:22Z</time>
      </trkpt>
      <trkpt lat="44.34599" lon="3.21437">
        <ele>834.40002441406</ele>
        <time>2023-05-06T10:14:24Z</time>
      </trkpt>
      <trkpt lat="44.34587" lon="3.21427">
        <ele>833.59997558594</ele>
        <time>2023-05-06T10:14:27Z</time>
      </trkpt>
      <trkpt lat="44.34573" lon="3.21416">
        <ele>832.59997558594</ele>
        <time>2023-05-06T10:14:31Z</time>
      </trkpt>
      <trkpt lat="44.34555" lon="3.21401">
        <ele>831.20001220703</ele>
        <time>2023-05-06T10:14:36Z</time>
      </trkpt>
      <trkpt lat="44.34536" lon="3.2139">
        <ele>829.40002441406</ele>
        <time>2023-05-06T10:14:41Z</time>
      </trkpt>
      <trkpt lat="44.34522" lon="3.21386">
        <ele>829</ele>
        <time>2023-05-06T10:14:46Z</time>
      </trkpt>
      <trkpt lat="44.3451" lon="3.21382">
        <ele>828.20001220703</ele>
        <time>2023-05-06T10:14:51Z</time>
      </trkpt>
      <trkpt lat="44.34497" lon="3.21378">
        <ele>827.79998779297</ele>
        <time>2023-05-06T10:14:56Z</time>
      </trkpt>
      <trkpt lat="44.34483" lon="3.21376">
        <ele>827</ele>
        <time>2023-05-06T10:15:01Z</time>
      </trkpt>
      <trkpt lat="44.34467" lon="3.21372">
        <ele>825.59997558594</ele>
        <time>2023-05-06T10:15:07Z</time>
      </trkpt>
      <trkpt lat="44.34451" lon="3.21368">
        <ele>825.20001220703</ele>
        <time>2023-05-06T10:15:12Z</time>
      </trkpt>
      <trkpt lat="44.34429" lon="3.21367">
        <ele>825.40002441406</ele>
        <time>2023-05-06T10:15:18Z</time>
      </trkpt>
      <trkpt lat="44.3442" lon="3.21367">
        <ele>825.20001220703</ele>
        <time>2023-05-06T10:15:21Z</time>
      </trkpt>
      <trkpt lat="44.34416" lon="3.21368">
        <ele>825</ele>
        <time>2023-05-06T10:15:22Z</time>
      </trkpt>
      <trkpt lat="44.34403" lon="3.21366">
        <ele>824.40002441406</ele>
        <time>2023-05-06T10:15:26Z</time>
      </trkpt>
      <trkpt lat="44.34388" lon="3.21367">
        <ele>824.40002441406</ele>
        <time>2023-05-06T10:15:31Z</time>
      </trkpt>
      <trkpt lat="44.34364" lon="3.21369">
        <ele>824.59997558594</ele>
        <time>2023-05-06T10:15:38Z</time>
      </trkpt>
      <trkpt lat="44.34344" lon="3.21366">
        <ele>824.40002441406</ele>
        <time>2023-05-06T10:15:45Z</time>
      </trkpt>
      <trkpt lat="44.34325" lon="3.21365">
        <ele>824.59997558594</ele>
        <time>2023-05-06T10:15:53Z</time>
      </trkpt>
      <trkpt lat="44.343" lon="3.21363">
        <ele>825.20001220703</ele>
        <time>2023-05-06T10:16:02Z</time>
      </trkpt>
      <trkpt lat="44.34278" lon="3.21362">
        <ele>825.59997558594</ele>
        <time>2023-05-06T10:16:10Z</time>
      </trkpt>
      <trkpt lat="44.34255" lon="3.21359">
        <ele>825.79998779297</ele>
        <time>2023-05-06T10:16:17Z</time>
      </trkpt>
      <trkpt lat="44.34228" lon="3.21353">
        <ele>826</ele>
        <time>2023-05-06T10:16:24Z</time>
      </trkpt>
      <trkpt lat="44.34197" lon="3.21348">
        <ele>826</ele>
        <time>2023-05-06T10:16:30Z</time>
      </trkpt>
      <trkpt lat="44.34179" lon="3.21345">
        <ele>825.79998779297</ele>
        <time>2023-05-06T10:16:33Z</time>
      </trkpt>
      <trkpt lat="44.34166" lon="3.21341">
        <ele>825.79998779297</ele>
        <time>2023-05-06T10:16:35Z</time>
      </trkpt>
      <trkpt lat="44.3416" lon="3.21339">
        <ele>825.79998779297</ele>
        <time>2023-05-06T10:16:36Z</time>
      </trkpt>
      <trkpt lat="44.34142" lon="3.21337">
        <ele>825.59997558594</ele>
        <time>2023-05-06T10:16:39Z</time>
      </trkpt>
      <trkpt lat="44.34137" lon="3.21336">
        <ele>825.59997558594</ele>
        <time>2023-05-06T10:16:40Z</time>
      </trkpt>
      <trkpt lat="44.34128" lon="3.21333">
        <ele>825.59997558594</ele>
        <time>2023-05-06T10:16:42Z</time>
      </trkpt>
      <trkpt lat="44.34118" lon="3.21328">
        <ele>825.59997558594</ele>
        <time>2023-05-06T10:16:45Z</time>
      </trkpt>
      <trkpt lat="44.34104" lon="3.21321">
        <ele>825.79998779297</ele>
        <time>2023-05-06T10:16:51Z</time>
      </trkpt>
      <trkpt lat="44.34086" lon="3.21314">
        <ele>825.40002441406</ele>
        <time>2023-05-06T10:17:00Z</time>
      </trkpt>
      <trkpt lat="44.34083" lon="3.21314">
        <ele>825.40002441406</ele>
        <time>2023-05-06T10:17:02Z</time>
      </trkpt>
      <trkpt lat="44.34077" lon="3.21314">
        <ele>825.40002441406</ele>
        <time>2023-05-06T10:17:05Z</time>
      </trkpt>
      <trkpt lat="44.34065" lon="3.21311">
        <ele>825.59997558594</ele>
        <time>2023-05-06T10:17:13Z</time>
      </trkpt>
      <trkpt lat="44.34053" lon="3.21307">
        <ele>826</ele>
        <time>2023-05-06T10:17:21Z</time>
      </trkpt>
      <trkpt lat="44.34044" lon="3.21301">
        <ele>826.20001220703</ele>
        <time>2023-05-06T10:17:28Z</time>
      </trkpt>
      <trkpt lat="44.3404" lon="3.21298">
        <ele>826.40002441406</ele>
        <time>2023-05-06T10:17:31Z</time>
      </trkpt>
      <trkpt lat="44.34037" lon="3.21298">
        <ele>826.40002441406</ele>
        <time>2023-05-06T10:17:33Z</time>
      </trkpt>
      <trkpt lat="44.34028" lon="3.21303">
        <ele>827.20001220703</ele>
        <time>2023-05-06T10:17:40Z</time>
      </trkpt>
      <trkpt lat="44.34017" lon="3.21318">
        <ele>827.79998779297</ele>
        <time>2023-05-06T10:17:46Z</time>
      </trkpt>
      <trkpt lat="44.34002" lon="3.21345">
        <ele>828.59997558594</ele>
        <time>2023-05-06T10:17:54Z</time>
      </trkpt>
      <trkpt lat="44.33984" lon="3.21375">
        <ele>829.20001220703</ele>
        <time>2023-05-06T10:18:02Z</time>
      </trkpt>
      <trkpt lat="44.33966" lon="3.21411">
        <ele>829.59997558594</ele>
        <time>2023-05-06T10:18:10Z</time>
      </trkpt>
      <trkpt lat="44.33954" lon="3.21444">
        <ele>829.79998779297</ele>
        <time>2023-05-06T10:18:17Z</time>
      </trkpt>
      <trkpt lat="44.3394" lon="3.21485">
        <ele>830</ele>
        <time>2023-05-06T10:18:25Z</time>
      </trkpt>
      <trkpt lat="44.3393" lon="3.21508">
        <ele>830.20001220703</ele>
        <time>2023-05-06T10:18:30Z</time>
      </trkpt>
      <trkpt lat="44.33926" lon="3.21509">
        <ele>830.20001220703</ele>
        <time>2023-05-06T10:18:31Z</time>
      </trkpt>
      <trkpt lat="44.33917" lon="3.21509">
        <ele>830.59997558594</ele>
        <time>2023-05-06T10:18:35Z</time>
      </trkpt>
      <trkpt lat="44.33914" lon="3.21508">
        <ele>830.79998779297</ele>
        <time>2023-05-06T10:18:37Z</time>
      </trkpt>
      <trkpt lat="44.33911" lon="3.21508">
        <ele>831</ele>
        <time>2023-05-06T10:18:39Z</time>
      </trkpt>
      <trkpt lat="44.3391" lon="3.21508">
        <ele>831</ele>
        <time>2023-05-06T10:18:40Z</time>
      </trkpt>
      <trkpt lat="44.33901" lon="3.21504">
        <ele>831.79998779297</ele>
        <time>2023-05-06T10:18:47Z</time>
      </trkpt>
      <trkpt lat="44.33897" lon="3.21505">
        <ele>832.20001220703</ele>
        <time>2023-05-06T10:18:50Z</time>
      </trkpt>
      <trkpt lat="44.33896" lon="3.21504">
        <ele>832.59997558594</ele>
        <time>2023-05-06T10:18:52Z</time>
      </trkpt>
      <trkpt lat="44.33891" lon="3.215">
        <ele>833</ele>
        <time>2023-05-06T10:18:58Z</time>
      </trkpt>
      <trkpt lat="44.33887" lon="3.21498">
        <ele>833.20001220703</ele>
        <time>2023-05-06T10:19:03Z</time>
      </trkpt>
      <trkpt lat="44.33885" lon="3.21496">
        <ele>833.40002441406</ele>
        <time>2023-05-06T10:19:05Z</time>
      </trkpt>
      <trkpt lat="44.33877" lon="3.21496">
        <ele>834.40002441406</ele>
        <time>2023-05-06T10:19:13Z</time>
      </trkpt>
      <trkpt lat="44.3387" lon="3.21496">
        <ele>835.59997558594</ele>
        <time>2023-05-06T10:19:20Z</time>
      </trkpt>
      <trkpt lat="44.33862" lon="3.21493">
        <ele>836.40002441406</ele>
        <time>2023-05-06T10:19:27Z</time>
      </trkpt>
      <trkpt lat="44.33859" lon="3.21493">
        <ele>836.59997558594</ele>
        <time>2023-05-06T10:19:30Z</time>
      </trkpt>
      <trkpt lat="44.33855" lon="3.21492">
        <ele>837</ele>
        <time>2023-05-06T10:19:33Z</time>
      </trkpt>
      <trkpt lat="44.33851" lon="3.21491">
        <ele>837.59997558594</ele>
        <time>2023-05-06T10:19:37Z</time>
      </trkpt>
      <trkpt lat="44.33847" lon="3.21491">
        <ele>838</ele>
        <time>2023-05-06T10:19:40Z</time>
      </trkpt>
      <trkpt lat="44.33846" lon="3.2149">
        <ele>838.20001220703</ele>
        <time>2023-05-06T10:19:41Z</time>
      </trkpt>
      <trkpt lat="44.33843" lon="3.21489">
        <ele>838.40002441406</ele>
        <time>2023-05-06T10:19:44Z</time>
      </trkpt>
      <trkpt lat="44.33841" lon="3.21487">
        <ele>838.59997558594</ele>
        <time>2023-05-06T10:19:46Z</time>
      </trkpt>
      <trkpt lat="44.33834" lon="3.21486">
        <ele>839</ele>
        <time>2023-05-06T10:19:52Z</time>
      </trkpt>
      <trkpt lat="44.33829" lon="3.21482">
        <ele>839.40002441406</ele>
        <time>2023-05-06T10:19:58Z</time>
      </trkpt>
      <trkpt lat="44.33827" lon="3.21481">
        <ele>839.40002441406</ele>
        <time>2023-05-06T10:19:59Z</time>
      </trkpt>
      <trkpt lat="44.33822" lon="3.21477">
        <ele>839.79998779297</ele>
        <time>2023-05-06T10:20:04Z</time>
      </trkpt>
      <trkpt lat="44.33815" lon="3.21473">
        <ele>840.59997558594</ele>
        <time>2023-05-06T10:20:11Z</time>
      </trkpt>
      <trkpt lat="44.33812" lon="3.21472">
        <ele>841</ele>
        <time>2023-05-06T10:20:13Z</time>
      </trkpt>
      <trkpt lat="44.33808" lon="3.21472">
        <ele>841.40002441406</ele>
        <time>2023-05-06T10:20:17Z</time>
      </trkpt>
      <trkpt lat="44.33801" lon="3.2147">
        <ele>841.79998779297</ele>
        <time>2023-05-06T10:20:23Z</time>
      </trkpt>
      <trkpt lat="44.33796" lon="3.21467">
        <ele>842.40002441406</ele>
        <time>2023-05-06T10:20:28Z</time>
      </trkpt>
      <trkpt lat="44.33794" lon="3.21466">
        <ele>842.79998779297</ele>
        <time>2023-05-06T10:20:30Z</time>
      </trkpt>
      <trkpt lat="44.33786" lon="3.21462">
        <ele>844</ele>
        <time>2023-05-06T10:20:37Z</time>
      </trkpt>
      <trkpt lat="44.33785" lon="3.21462">
        <ele>844</ele>
        <time>2023-05-06T10:20:38Z</time>
      </trkpt>
      <trkpt lat="44.33781" lon="3.21459">
        <ele>844.79998779297</ele>
        <time>2023-05-06T10:20:43Z</time>
      </trkpt>
      <trkpt lat="44.33774" lon="3.21456">
        <ele>845.79998779297</ele>
        <time>2023-05-06T10:20:50Z</time>
      </trkpt>
      <trkpt lat="44.33765" lon="3.21453">
        <ele>847.40002441406</ele>
        <time>2023-05-06T10:20:58Z</time>
      </trkpt>
      <trkpt lat="44.33758" lon="3.2145">
        <ele>848.79998779297</ele>
        <time>2023-05-06T10:21:05Z</time>
      </trkpt>
      <trkpt lat="44.33751" lon="3.21447">
        <ele>849.79998779297</ele>
        <time>2023-05-06T10:21:12Z</time>
      </trkpt>
      <trkpt lat="44.33749" lon="3.21446">
        <ele>850.20001220703</ele>
        <time>2023-05-06T10:21:14Z</time>
      </trkpt>
      <trkpt lat="44.33745" lon="3.21444">
        <ele>850.79998779297</ele>
        <time>2023-05-06T10:21:19Z</time>
      </trkpt>
      <trkpt lat="44.33745" lon="3.21444">
        <ele>851</ele>
        <time>2023-05-06T10:21:20Z</time>
      </trkpt>
      <trkpt lat="44.33741" lon="3.21441">
        <ele>852</ele>
        <time>2023-05-06T10:21:25Z</time>
      </trkpt>
      <trkpt lat="44.33737" lon="3.21435">
        <ele>853</ele>
        <time>2023-05-06T10:21:31Z</time>
      </trkpt>
      <trkpt lat="44.33737" lon="3.21434">
        <ele>853.20001220703</ele>
        <time>2023-05-06T10:21:32Z</time>
      </trkpt>
      <trkpt lat="44.33734" lon="3.21431">
        <ele>854</ele>
        <time>2023-05-06T10:21:37Z</time>
      </trkpt>
      <trkpt lat="44.3373" lon="3.21425">
        <ele>854.59997558594</ele>
        <time>2023-05-06T10:21:43Z</time>
      </trkpt>
      <trkpt lat="44.33724" lon="3.21419">
        <ele>855.59997558594</ele>
        <time>2023-05-06T10:21:51Z</time>
      </trkpt>
      <trkpt lat="44.3372" lon="3.21415">
        <ele>856.40002441406</ele>
        <time>2023-05-06T10:21:57Z</time>
      </trkpt>
      <trkpt lat="44.33719" lon="3.21414">
        <ele>856.40002441406</ele>
        <time>2023-05-06T10:21:58Z</time>
      </trkpt>
      <trkpt lat="44.33715" lon="3.21411">
        <ele>857</ele>
        <time>2023-05-06T10:22:03Z</time>
      </trkpt>
      <trkpt lat="44.33713" lon="3.21408">
        <ele>857.59997558594</ele>
        <time>2023-05-06T10:22:07Z</time>
      </trkpt>
      <trkpt lat="44.33712" lon="3.21406">
        <ele>858</ele>
        <time>2023-05-06T10:22:09Z</time>
      </trkpt>
      <trkpt lat="44.33707" lon="3.21404">
        <ele>858.79998779297</ele>
        <time>2023-05-06T10:22:15Z</time>
      </trkpt>
      <trkpt lat="44.33701" lon="3.21402">
        <ele>859.79998779297</ele>
        <time>2023-05-06T10:22:21Z</time>
      </trkpt>
      <trkpt lat="44.33701" lon="3.21401">
        <ele>860</ele>
        <time>2023-05-06T10:22:22Z</time>
      </trkpt>
      <trkpt lat="44.33696" lon="3.21398">
        <ele>860.79998779297</ele>
        <time>2023-05-06T10:22:27Z</time>
      </trkpt>
      <trkpt lat="44.33694" lon="3.21394">
        <ele>861.40002441406</ele>
        <time>2023-05-06T10:22:30Z</time>
      </trkpt>
      <trkpt lat="44.33688" lon="3.21387">
        <ele>862.40002441406</ele>
        <time>2023-05-06T10:22:38Z</time>
      </trkpt>
      <trkpt lat="44.33682" lon="3.21382">
        <ele>863.20001220703</ele>
        <time>2023-05-06T10:22:45Z</time>
      </trkpt>
      <trkpt lat="44.33676" lon="3.21375">
        <ele>864.20001220703</ele>
        <time>2023-05-06T10:22:52Z</time>
      </trkpt>
      <trkpt lat="44.33672" lon="3.21372">
        <ele>865</ele>
        <time>2023-05-06T10:22:58Z</time>
      </trkpt>
      <trkpt lat="44.33667" lon="3.21373">
        <ele>865.79998779297</ele>
        <time>2023-05-06T10:23:03Z</time>
      </trkpt>
      <trkpt lat="44.33664" lon="3.21373">
        <ele>866.40002441406</ele>
        <time>2023-05-06T10:23:06Z</time>
      </trkpt>
      <trkpt lat="44.3366" lon="3.21374">
        <ele>867.40002441406</ele>
        <time>2023-05-06T10:23:13Z</time>
      </trkpt>
      <trkpt lat="44.3366" lon="3.21374">
        <ele>868.79998779297</ele>
        <time>2023-05-06T10:23:25Z</time>
      </trkpt>
      <trkpt lat="44.3366" lon="3.21374">
        <ele>870.40002441406</ele>
        <time>2023-05-06T10:23:42Z</time>
      </trkpt>
      <trkpt lat="44.33661" lon="3.21374">
        <ele>872.20001220703</ele>
        <time>2023-05-06T10:24:04Z</time>
      </trkpt>
      <trkpt lat="44.33661" lon="3.21374">
        <ele>873.59997558594</ele>
        <time>2023-05-06T10:24:25Z</time>
      </trkpt>
      <trkpt lat="44.3366" lon="3.21373">
        <ele>874</ele>
        <time>2023-05-06T10:24:35Z</time>
      </trkpt>
      <trkpt lat="44.3366" lon="3.21373">
        <ele>874.59997558594</ele>
        <time>2023-05-06T10:24:50Z</time>
      </trkpt>
      <trkpt lat="44.3366" lon="3.21373">
        <ele>875.20001220703</ele>
        <time>2023-05-06T10:25:12Z</time>
      </trkpt>
      <trkpt lat="44.3366" lon="3.21373">
        <ele>875.59997558594</ele>
        <time>2023-05-06T10:25:31Z</time>
      </trkpt>
      <trkpt lat="44.3366" lon="3.21373">
        <ele>875.79998779297</ele>
        <time>2023-05-06T10:25:47Z</time>
      </trkpt>
      <trkpt lat="44.3366" lon="3.21373">
        <ele>876.20001220703</ele>
        <time>2023-05-06T10:26:12Z</time>
      </trkpt>
      <trkpt lat="44.3366" lon="3.21373">
        <ele>876.40002441406</ele>
        <time>2023-05-06T10:26:31Z</time>
      </trkpt>
      <trkpt lat="44.3366" lon="3.21373">
        <ele>876.40002441406</ele>
        <time>2023-05-06T10:26:41Z</time>
      </trkpt>
      <trkpt lat="44.33662" lon="3.21373">
        <ele>876.59997558594</ele>
        <time>2023-05-06T10:26:46Z</time>
      </trkpt>
      <trkpt lat="44.33671" lon="3.21372">
        <ele>876.40002441406</ele>
        <time>2023-05-06T10:26:54Z</time>
      </trkpt>
      <trkpt lat="44.33677" lon="3.21372">
        <ele>876.40002441406</ele>
        <time>2023-05-06T10:27:02Z</time>
      </trkpt>
      <trkpt lat="44.33677" lon="3.21372">
        <ele>876.59997558594</ele>
        <time>2023-05-06T10:27:12Z</time>
      </trkpt>
      <trkpt lat="44.33677" lon="3.21372">
        <ele>876.40002441406</ele>
        <time>2023-05-06T10:27:33Z</time>
      </trkpt>
      <trkpt lat="44.33676" lon="3.21372">
        <ele>876.40002441406</ele>
        <time>2023-05-06T10:27:52Z</time>
      </trkpt>
      <trkpt lat="44.33676" lon="3.21372">
        <ele>876.40002441406</ele>
        <time>2023-05-06T10:28:15Z</time>
      </trkpt>
      <trkpt lat="44.33674" lon="3.21374">
        <ele>876.40002441406</ele>
        <time>2023-05-06T10:28:22Z</time>
      </trkpt>
      <trkpt lat="44.33668" lon="3.21372">
        <ele>876.59997558594</ele>
        <time>2023-05-06T10:28:29Z</time>
      </trkpt>
      <trkpt lat="44.33663" lon="3.21374">
        <ele>876.79998779297</ele>
        <time>2023-05-06T10:28:35Z</time>
      </trkpt>
      <trkpt lat="44.33659" lon="3.21375">
        <ele>876.79998779297</ele>
        <time>2023-05-06T10:28:42Z</time>
      </trkpt>
      <trkpt lat="44.33659" lon="3.21375">
        <ele>876.79998779297</ele>
        <time>2023-05-06T10:28:50Z</time>
      </trkpt>
      <trkpt lat="44.33658" lon="3.21375">
        <ele>876.79998779297</ele>
        <time>2023-05-06T10:28:53Z</time>
      </trkpt>
      <trkpt lat="44.33654" lon="3.21376">
        <ele>877.20001220703</ele>
        <time>2023-05-06T10:28:56Z</time>
      </trkpt>
      <trkpt lat="44.33649" lon="3.21373">
        <ele>877.40002441406</ele>
        <time>2023-05-06T10:29:03Z</time>
      </trkpt>
      <trkpt lat="44.33648" lon="3.2137">
        <ele>877.40002441406</ele>
        <time>2023-05-06T10:29:09Z</time>
      </trkpt>
      <trkpt lat="44.33648" lon="3.2137">
        <ele>878</ele>
        <time>2023-05-06T10:29:34Z</time>
      </trkpt>
      <trkpt lat="44.33648" lon="3.2137">
        <ele>878.20001220703</ele>
        <time>2023-05-06T10:30:03Z</time>
      </trkpt>
      <trkpt lat="44.33648" lon="3.2137">
        <ele>878.40002441406</ele>
        <time>2023-05-06T10:30:31Z</time>
      </trkpt>
      <trkpt lat="44.33648" lon="3.2137">
        <ele>878.59997558594</ele>
        <time>2023-05-06T10:30:57Z</time>
      </trkpt>
      <trkpt lat="44.33648" lon="3.2137">
        <ele>878.59997558594</ele>
        <time>2023-05-06T10:31:16Z</time>
      </trkpt>
      <trkpt lat="44.33648" lon="3.21371">
        <ele>878.59997558594</ele>
        <time>2023-05-06T10:31:24Z</time>
      </trkpt>
      <trkpt lat="44.33648" lon="3.21371">
        <ele>878.59997558594</ele>
        <time>2023-05-06T10:31:50Z</time>
      </trkpt>
      <trkpt lat="44.33648" lon="3.21371">
        <ele>878.40002441406</ele>
        <time>2023-05-06T10:32:17Z</time>
      </trkpt>
      <trkpt lat="44.33648" lon="3.21371">
        <ele>878.40002441406</ele>
        <time>2023-05-06T10:32:48Z</time>
      </trkpt>
      <trkpt lat="44.33648" lon="3.21371">
        <ele>878.40002441406</ele>
        <time>2023-05-06T10:33:15Z</time>
      </trkpt>
      <trkpt lat="44.33648" lon="3.21371">
        <ele>878.40002441406</ele>
        <time>2023-05-06T10:33:35Z</time>
      </trkpt>
      <trkpt lat="44.33648" lon="3.21371">
        <ele>878.40002441406</ele>
        <time>2023-05-06T10:33:55Z</time>
      </trkpt>
      <trkpt lat="44.33648" lon="3.21371">
        <ele>878.59997558594</ele>
        <time>2023-05-06T10:34:17Z</time>
      </trkpt>
      <trkpt lat="44.33648" lon="3.21371">
        <ele>878.59997558594</ele>
        <time>2023-05-06T10:34:40Z</time>
      </trkpt>
      <trkpt lat="44.33648" lon="3.21371">
        <ele>878.59997558594</ele>
        <time>2023-05-06T10:35:07Z</time>
      </trkpt>
      <trkpt lat="44.33648" lon="3.21371">
        <ele>878.59997558594</ele>
        <time>2023-05-06T10:35:33Z</time>
      </trkpt>
      <trkpt lat="44.33648" lon="3.21371">
        <ele>878.59997558594</ele>
        <time>2023-05-06T10:35:53Z</time>
      </trkpt>
      <trkpt lat="44.33648" lon="3.21371">
        <ele>878.59997558594</ele>
        <time>2023-05-06T10:36:22Z</time>
      </trkpt>
      <trkpt lat="44.33648" lon="3.21371">
        <ele>878.59997558594</ele>
        <time>2023-05-06T10:36:49Z</time>
      </trkpt>
      <trkpt lat="44.33648" lon="3.21371">
        <ele>878.59997558594</ele>
        <time>2023-05-06T10:37:07Z</time>
      </trkpt>
      <trkpt lat="44.33647" lon="3.2137">
        <ele>878.59997558594</ele>
        <time>2023-05-06T10:37:08Z</time>
      </trkpt>
      <trkpt lat="44.33646" lon="3.21372">
        <ele>878.79998779297</ele>
        <time>2023-05-06T10:37:11Z</time>
      </trkpt>
      <trkpt lat="44.33645" lon="3.21373">
        <ele>878.79998779297</ele>
        <time>2023-05-06T10:37:17Z</time>
      </trkpt>
      <trkpt lat="44.33645" lon="3.21374">
        <ele>879</ele>
        <time>2023-05-06T10:37:33Z</time>
      </trkpt>
      <trkpt lat="44.33644" lon="3.21377">
        <ele>879</ele>
        <time>2023-05-06T10:37:35Z</time>
      </trkpt>
      <trkpt lat="44.33642" lon="3.21379">
        <ele>878.79998779297</ele>
        <time>2023-05-06T10:37:37Z</time>
      </trkpt>
      <trkpt lat="44.33641" lon="3.21379">
        <ele>879</ele>
        <time>2023-05-06T10:37:38Z</time>
      </trkpt>
      <trkpt lat="44.3363" lon="3.21381">
        <ele>879.20001220703</ele>
        <time>2023-05-06T10:37:45Z</time>
      </trkpt>
      <trkpt lat="44.3362" lon="3.21383">
        <ele>879.20001220703</ele>
        <time>2023-05-06T10:37:51Z</time>
      </trkpt>
      <trkpt lat="44.3361" lon="3.21385">
        <ele>879.40002441406</ele>
        <time>2023-05-06T10:37:56Z</time>
      </trkpt>
      <trkpt lat="44.33597" lon="3.21386">
        <ele>879.59997558594</ele>
        <time>2023-05-06T10:38:03Z</time>
      </trkpt>
      <trkpt lat="44.33583" lon="3.21388">
        <ele>879.79998779297</ele>
        <time>2023-05-06T10:38:10Z</time>
      </trkpt>
      <trkpt lat="44.33567" lon="3.21393">
        <ele>880</ele>
        <time>2023-05-06T10:38:19Z</time>
      </trkpt>
      <trkpt lat="44.33549" lon="3.21401">
        <ele>880.59997558594</ele>
        <time>2023-05-06T10:38:29Z</time>
      </trkpt>
      <trkpt lat="44.33532" lon="3.21406">
        <ele>881</ele>
        <time>2023-05-06T10:38:38Z</time>
      </trkpt>
      <trkpt lat="44.33516" lon="3.21409">
        <ele>881.79998779297</ele>
        <time>2023-05-06T10:38:47Z</time>
      </trkpt>
      <trkpt lat="44.335" lon="3.21412">
        <ele>882.20001220703</ele>
        <time>2023-05-06T10:38:55Z</time>
      </trkpt>
      <trkpt lat="44.33483" lon="3.21416">
        <ele>882.59997558594</ele>
        <time>2023-05-06T10:39:04Z</time>
      </trkpt>
      <trkpt lat="44.33466" lon="3.2142">
        <ele>883.59997558594</ele>
        <time>2023-05-06T10:39:13Z</time>
      </trkpt>
      <trkpt lat="44.33454" lon="3.21424">
        <ele>884.20001220703</ele>
        <time>2023-05-06T10:39:20Z</time>
      </trkpt>
      <trkpt lat="44.33452" lon="3.21424">
        <ele>884.20001220703</ele>
        <time>2023-05-06T10:39:21Z</time>
      </trkpt>
      <trkpt lat="44.33443" lon="3.21424">
        <ele>884.59997558594</ele>
        <time>2023-05-06T10:39:27Z</time>
      </trkpt>
      <trkpt lat="44.33429" lon="3.21425">
        <ele>885.20001220703</ele>
        <time>2023-05-06T10:39:34Z</time>
      </trkpt>
      <trkpt lat="44.33414" lon="3.21428">
        <ele>885.59997558594</ele>
        <time>2023-05-06T10:39:41Z</time>
      </trkpt>
      <trkpt lat="44.33398" lon="3.21432">
        <ele>886</ele>
        <time>2023-05-06T10:39:48Z</time>
      </trkpt>
      <trkpt lat="44.33382" lon="3.21439">
        <ele>886.20001220703</ele>
        <time>2023-05-06T10:39:54Z</time>
      </trkpt>
      <trkpt lat="44.33358" lon="3.21453">
        <ele>886.59997558594</ele>
        <time>2023-05-06T10:40:02Z</time>
      </trkpt>
      <trkpt lat="44.33341" lon="3.21465">
        <ele>887</ele>
        <time>2023-05-06T10:40:08Z</time>
      </trkpt>
      <trkpt lat="44.33316" lon="3.21476">
        <ele>887.20001220703</ele>
        <time>2023-05-06T10:40:14Z</time>
      </trkpt>
      <trkpt lat="44.33304" lon="3.21482">
        <ele>887</ele>
        <time>2023-05-06T10:40:17Z</time>
      </trkpt>
      <trkpt lat="44.333" lon="3.21484">
        <ele>887</ele>
        <time>2023-05-06T10:40:18Z</time>
      </trkpt>
      <trkpt lat="44.33293" lon="3.21487">
        <ele>886.79998779297</ele>
        <time>2023-05-06T10:40:20Z</time>
      </trkpt>
      <trkpt lat="44.33289" lon="3.21486">
        <ele>886.79998779297</ele>
        <time>2023-05-06T10:40:21Z</time>
      </trkpt>
      <trkpt lat="44.33285" lon="3.21482">
        <ele>886.79998779297</ele>
        <time>2023-05-06T10:40:22Z</time>
      </trkpt>
      <trkpt lat="44.3328" lon="3.21469">
        <ele>886.79998779297</ele>
        <time>2023-05-06T10:40:24Z</time>
      </trkpt>
      <trkpt lat="44.33277" lon="3.21462">
        <ele>886.59997558594</ele>
        <time>2023-05-06T10:40:25Z</time>
      </trkpt>
      <trkpt lat="44.3327" lon="3.2145">
        <ele>886.40002441406</ele>
        <time>2023-05-06T10:40:27Z</time>
      </trkpt>
      <trkpt lat="44.33265" lon="3.21442">
        <ele>886.20001220703</ele>
        <time>2023-05-06T10:40:29Z</time>
      </trkpt>
      <trkpt lat="44.33263" lon="3.21441">
        <ele>886.20001220703</ele>
        <time>2023-05-06T10:40:30Z</time>
      </trkpt>
      <trkpt lat="44.33255" lon="3.21449">
        <ele>885.79998779297</ele>
        <time>2023-05-06T10:40:33Z</time>
      </trkpt>
      <trkpt lat="44.33244" lon="3.21459">
        <ele>885.59997558594</ele>
        <time>2023-05-06T10:40:36Z</time>
      </trkpt>
      <trkpt lat="44.33234" lon="3.21465">
        <ele>885.40002441406</ele>
        <time>2023-05-06T10:40:38Z</time>
      </trkpt>
      <trkpt lat="44.33229" lon="3.21469">
        <ele>885.40002441406</ele>
        <time>2023-05-06T10:40:39Z</time>
      </trkpt>
      <trkpt lat="44.33212" lon="3.21486">
        <ele>885</ele>
        <time>2023-05-06T10:40:43Z</time>
      </trkpt>
      <trkpt lat="44.33204" lon="3.21491">
        <ele>884.79998779297</ele>
        <time>2023-05-06T10:40:45Z</time>
      </trkpt>
      <trkpt lat="44.33199" lon="3.21488">
        <ele>884.59997558594</ele>
        <time>2023-05-06T10:40:46Z</time>
      </trkpt>
      <trkpt lat="44.33194" lon="3.21484">
        <ele>884.40002441406</ele>
        <time>2023-05-06T10:40:47Z</time>
      </trkpt>
      <trkpt lat="44.33182" lon="3.2148">
        <ele>884.20001220703</ele>
        <time>2023-05-06T10:40:49Z</time>
      </trkpt>
      <trkpt lat="44.33151" lon="3.21483">
        <ele>883.40002441406</ele>
        <time>2023-05-06T10:40:53Z</time>
      </trkpt>
      <trkpt lat="44.33128" lon="3.21487">
        <ele>883</ele>
        <time>2023-05-06T10:40:56Z</time>
      </trkpt>
      <trkpt lat="44.33113" lon="3.21484">
        <ele>882.40002441406</ele>
        <time>2023-05-06T10:40:58Z</time>
      </trkpt>
      <trkpt lat="44.3308" lon="3.21474">
        <ele>881.59997558594</ele>
        <time>2023-05-06T10:41:02Z</time>
      </trkpt>
      <trkpt lat="44.33024" lon="3.21457">
        <ele>880.20001220703</ele>
        <time>2023-05-06T10:41:08Z</time>
      </trkpt>
      <trkpt lat="44.32978" lon="3.21446">
        <ele>879.20001220703</ele>
        <time>2023-05-06T10:41:13Z</time>
      </trkpt>
      <trkpt lat="44.32963" lon="3.21448">
        <ele>879</ele>
        <time>2023-05-06T10:41:15Z</time>
      </trkpt>
      <trkpt lat="44.32957" lon="3.21453">
        <ele>878.79998779297</ele>
        <time>2023-05-06T10:41:16Z</time>
      </trkpt>
      <trkpt lat="44.32952" lon="3.21459">
        <ele>878.79998779297</ele>
        <time>2023-05-06T10:41:17Z</time>
      </trkpt>
      <trkpt lat="44.32949" lon="3.21471">
        <ele>878.79998779297</ele>
        <time>2023-05-06T10:41:19Z</time>
      </trkpt>
      <trkpt lat="44.32947" lon="3.21484">
        <ele>878.40002441406</ele>
        <time>2023-05-06T10:41:23Z</time>
      </trkpt>
      <trkpt lat="44.32948" lon="3.21482">
        <ele>878.40002441406</ele>
        <time>2023-05-06T10:41:24Z</time>
      </trkpt>
      <trkpt lat="44.32948" lon="3.21474">
        <ele>878.20001220703</ele>
        <time>2023-05-06T10:41:26Z</time>
      </trkpt>
      <trkpt lat="44.32942" lon="3.21463">
        <ele>877.59997558594</ele>
        <time>2023-05-06T10:41:29Z</time>
      </trkpt>
      <trkpt lat="44.32935" lon="3.21465">
        <ele>877.20001220703</ele>
        <time>2023-05-06T10:41:34Z</time>
      </trkpt>
      <trkpt lat="44.32928" lon="3.21471">
        <ele>876.59997558594</ele>
        <time>2023-05-06T10:41:40Z</time>
      </trkpt>
      <trkpt lat="44.32922" lon="3.21478">
        <ele>876.40002441406</ele>
        <time>2023-05-06T10:41:46Z</time>
      </trkpt>
      <trkpt lat="44.32912" lon="3.21481">
        <ele>876.20001220703</ele>
        <time>2023-05-06T10:41:54Z</time>
      </trkpt>
      <trkpt lat="44.32909" lon="3.21481">
        <ele>876</ele>
        <time>2023-05-06T10:41:57Z</time>
      </trkpt>
      <trkpt lat="44.32905" lon="3.21482">
        <ele>876.20001220703</ele>
        <time>2023-05-06T10:42:00Z</time>
      </trkpt>
      <trkpt lat="44.32897" lon="3.21477">
        <ele>876.59997558594</ele>
        <time>2023-05-06T10:42:07Z</time>
      </trkpt>
      <trkpt lat="44.32891" lon="3.21468">
        <ele>876.59997558594</ele>
        <time>2023-05-06T10:42:14Z</time>
      </trkpt>
      <trkpt lat="44.32882" lon="3.21457">
        <ele>876.79998779297</ele>
        <time>2023-05-06T10:42:22Z</time>
      </trkpt>
      <trkpt lat="44.3287" lon="3.21442">
        <ele>877.40002441406</ele>
        <time>2023-05-06T10:42:33Z</time>
      </trkpt>
      <trkpt lat="44.32861" lon="3.21433">
        <ele>878.20001220703</ele>
        <time>2023-05-06T10:42:42Z</time>
      </trkpt>
      <trkpt lat="44.32852" lon="3.21426">
        <ele>878.59997558594</ele>
        <time>2023-05-06T10:42:50Z</time>
      </trkpt>
      <trkpt lat="44.32844" lon="3.21418">
        <ele>879.40002441406</ele>
        <time>2023-05-06T10:42:58Z</time>
      </trkpt>
      <trkpt lat="44.32836" lon="3.21409">
        <ele>879.79998779297</ele>
        <time>2023-05-06T10:43:06Z</time>
      </trkpt>
      <trkpt lat="44.32824" lon="3.21404">
        <ele>880.79998779297</ele>
        <time>2023-05-06T10:43:14Z</time>
      </trkpt>
      <trkpt lat="44.3281" lon="3.21404">
        <ele>881.40002441406</ele>
        <time>2023-05-06T10:43:22Z</time>
      </trkpt>
      <trkpt lat="44.32797" lon="3.21406">
        <ele>882</ele>
        <time>2023-05-06T10:43:30Z</time>
      </trkpt>
      <trkpt lat="44.3279" lon="3.21408">
        <ele>882.40002441406</ele>
        <time>2023-05-06T10:43:35Z</time>
      </trkpt>
      <trkpt lat="44.32788" lon="3.2141">
        <ele>882.40002441406</ele>
        <time>2023-05-06T10:43:37Z</time>
      </trkpt>
      <trkpt lat="44.32774" lon="3.21415">
        <ele>883.40002441406</ele>
        <time>2023-05-06T10:43:47Z</time>
      </trkpt>
      <trkpt lat="44.32761" lon="3.2142">
        <ele>883.79998779297</ele>
        <time>2023-05-06T10:43:53Z</time>
      </trkpt>
      <trkpt lat="44.32746" lon="3.21418">
        <ele>884.20001220703</ele>
        <time>2023-05-06T10:44:00Z</time>
      </trkpt>
      <trkpt lat="44.32732" lon="3.21407">
        <ele>884.59997558594</ele>
        <time>2023-05-06T10:44:08Z</time>
      </trkpt>
      <trkpt lat="44.32724" lon="3.21401">
        <ele>884.59997558594</ele>
        <time>2023-05-06T10:44:13Z</time>
      </trkpt>
      <trkpt lat="44.32709" lon="3.21393">
        <ele>884.79998779297</ele>
        <time>2023-05-06T10:44:19Z</time>
      </trkpt>
      <trkpt lat="44.32702" lon="3.21391">
        <ele>884.79998779297</ele>
        <time>2023-05-06T10:44:21Z</time>
      </trkpt>
      <trkpt lat="44.32696" lon="3.21395">
        <ele>884.79998779297</ele>
        <time>2023-05-06T10:44:23Z</time>
      </trkpt>
      <trkpt lat="44.32687" lon="3.21414">
        <ele>884.40002441406</ele>
        <time>2023-05-06T10:44:28Z</time>
      </trkpt>
      <trkpt lat="44.3269" lon="3.21433">
        <ele>884.20001220703</ele>
        <time>2023-05-06T10:44:34Z</time>
      </trkpt>
      <trkpt lat="44.32692" lon="3.21456">
        <ele>885</ele>
        <time>2023-05-06T10:44:42Z</time>
      </trkpt>
      <trkpt lat="44.32688" lon="3.21475">
        <ele>885.79998779297</ele>
        <time>2023-05-06T10:44:51Z</time>
      </trkpt>
      <trkpt lat="44.32683" lon="3.21491">
        <ele>886.59997558594</ele>
        <time>2023-05-06T10:45:00Z</time>
      </trkpt>
      <trkpt lat="44.32675" lon="3.21502">
        <ele>887.40002441406</ele>
        <time>2023-05-06T10:45:08Z</time>
      </trkpt>
      <trkpt lat="44.32666" lon="3.21509">
        <ele>888.20001220703</ele>
        <time>2023-05-06T10:45:15Z</time>
      </trkpt>
      <trkpt lat="44.32655" lon="3.21517">
        <ele>889.40002441406</ele>
        <time>2023-05-06T10:45:24Z</time>
      </trkpt>
      <trkpt lat="44.32646" lon="3.21522">
        <ele>890</ele>
        <time>2023-05-06T10:45:31Z</time>
      </trkpt>
      <trkpt lat="44.32645" lon="3.21522">
        <ele>890.20001220703</ele>
        <time>2023-05-06T10:45:32Z</time>
      </trkpt>
      <trkpt lat="44.32639" lon="3.21525">
        <ele>890.79998779297</ele>
        <time>2023-05-06T10:45:37Z</time>
      </trkpt>
      <trkpt lat="44.32629" lon="3.2153">
        <ele>891.40002441406</ele>
        <time>2023-05-06T10:45:44Z</time>
      </trkpt>
      <trkpt lat="44.32618" lon="3.21536">
        <ele>892.40002441406</ele>
        <time>2023-05-06T10:45:52Z</time>
      </trkpt>
      <trkpt lat="44.32607" lon="3.21547">
        <ele>893.40002441406</ele>
        <time>2023-05-06T10:46:00Z</time>
      </trkpt>
      <trkpt lat="44.32598" lon="3.21558">
        <ele>893.79998779297</ele>
        <time>2023-05-06T10:46:06Z</time>
      </trkpt>
      <trkpt lat="44.32588" lon="3.21576">
        <ele>894.20001220703</ele>
        <time>2023-05-06T10:46:13Z</time>
      </trkpt>
      <trkpt lat="44.32579" lon="3.21594">
        <ele>894.59997558594</ele>
        <time>2023-05-06T10:46:20Z</time>
      </trkpt>
      <trkpt lat="44.32575" lon="3.21608">
        <ele>895.20001220703</ele>
        <time>2023-05-06T10:46:26Z</time>
      </trkpt>
      <trkpt lat="44.3257" lon="3.21622">
        <ele>895.79998779297</ele>
        <time>2023-05-06T10:46:33Z</time>
      </trkpt>
      <trkpt lat="44.32567" lon="3.21626">
        <ele>895.79998779297</ele>
        <time>2023-05-06T10:46:35Z</time>
      </trkpt>
      <trkpt lat="44.32564" lon="3.21636">
        <ele>896.20001220703</ele>
        <time>2023-05-06T10:46:39Z</time>
      </trkpt>
      <trkpt lat="44.32556" lon="3.21655">
        <ele>897.20001220703</ele>
        <time>2023-05-06T10:46:47Z</time>
      </trkpt>
      <trkpt lat="44.32549" lon="3.21669">
        <ele>898</ele>
        <time>2023-05-06T10:46:54Z</time>
      </trkpt>
      <trkpt lat="44.32537" lon="3.21689">
        <ele>898.59997558594</ele>
        <time>2023-05-06T10:47:02Z</time>
      </trkpt>
      <trkpt lat="44.32525" lon="3.21707">
        <ele>899.40002441406</ele>
        <time>2023-05-06T10:47:09Z</time>
      </trkpt>
      <trkpt lat="44.32511" lon="3.21728">
        <ele>899.79998779297</ele>
        <time>2023-05-06T10:47:15Z</time>
      </trkpt>
      <trkpt lat="44.32499" lon="3.21749">
        <ele>900</ele>
        <time>2023-05-06T10:47:19Z</time>
      </trkpt>
      <trkpt lat="44.32495" lon="3.21754">
        <ele>900</ele>
        <time>2023-05-06T10:47:20Z</time>
      </trkpt>
      <trkpt lat="44.32469" lon="3.21789">
        <ele>900</ele>
        <time>2023-05-06T10:47:26Z</time>
      </trkpt>
      <trkpt lat="44.3244" lon="3.21826">
        <ele>899.79998779297</ele>
        <time>2023-05-06T10:47:32Z</time>
      </trkpt>
      <trkpt lat="44.32429" lon="3.21835">
        <ele>899.79998779297</ele>
        <time>2023-05-06T10:47:34Z</time>
      </trkpt>
      <trkpt lat="44.32419" lon="3.21838">
        <ele>899.59997558594</ele>
        <time>2023-05-06T10:47:36Z</time>
      </trkpt>
      <trkpt lat="44.32406" lon="3.21833">
        <ele>899.20001220703</ele>
        <time>2023-05-06T10:47:40Z</time>
      </trkpt>
      <trkpt lat="44.32401" lon="3.21826">
        <ele>899.40002441406</ele>
        <time>2023-05-06T10:47:44Z</time>
      </trkpt>
      <trkpt lat="44.32393" lon="3.21816">
        <ele>899.40002441406</ele>
        <time>2023-05-06T10:47:51Z</time>
      </trkpt>
      <trkpt lat="44.3239" lon="3.21811">
        <ele>899.40002441406</ele>
        <time>2023-05-06T10:47:55Z</time>
      </trkpt>
      <trkpt lat="44.32389" lon="3.2181">
        <ele>899.40002441406</ele>
        <time>2023-05-06T10:47:56Z</time>
      </trkpt>
      <trkpt lat="44.3238" lon="3.21803">
        <ele>899.79998779297</ele>
        <time>2023-05-06T10:48:02Z</time>
      </trkpt>
      <trkpt lat="44.32375" lon="3.21796">
        <ele>900.20001220703</ele>
        <time>2023-05-06T10:48:08Z</time>
      </trkpt>
      <trkpt lat="44.32369" lon="3.21787">
        <ele>900.40002441406</ele>
        <time>2023-05-06T10:48:14Z</time>
      </trkpt>
      <trkpt lat="44.32368" lon="3.21786">
        <ele>900.40002441406</ele>
        <time>2023-05-06T10:48:15Z</time>
      </trkpt>
      <trkpt lat="44.32364" lon="3.21782">
        <ele>900.79998779297</ele>
        <time>2023-05-06T10:48:20Z</time>
      </trkpt>
      <trkpt lat="44.32357" lon="3.21773">
        <ele>901</ele>
        <time>2023-05-06T10:48:27Z</time>
      </trkpt>
      <trkpt lat="44.32355" lon="3.2177">
        <ele>901</ele>
        <time>2023-05-06T10:48:29Z</time>
      </trkpt>
      <trkpt lat="44.32349" lon="3.21767">
        <ele>901.20001220703</ele>
        <time>2023-05-06T10:48:33Z</time>
      </trkpt>
      <trkpt lat="44.32346" lon="3.21763">
        <ele>901.20001220703</ele>
        <time>2023-05-06T10:48:36Z</time>
      </trkpt>
      <trkpt lat="44.32342" lon="3.21758">
        <ele>901.59997558594</ele>
        <time>2023-05-06T10:48:39Z</time>
      </trkpt>
      <trkpt lat="44.32331" lon="3.21747">
        <ele>901.79998779297</ele>
        <time>2023-05-06T10:48:47Z</time>
      </trkpt>
      <trkpt lat="44.3232" lon="3.21739">
        <ele>902.20001220703</ele>
        <time>2023-05-06T10:48:53Z</time>
      </trkpt>
      <trkpt lat="44.32305" lon="3.21728">
        <ele>902.20001220703</ele>
        <time>2023-05-06T10:48:58Z</time>
      </trkpt>
      <trkpt lat="44.32288" lon="3.21716">
        <ele>902</ele>
        <time>2023-05-06T10:49:02Z</time>
      </trkpt>
      <trkpt lat="44.32281" lon="3.21708">
        <ele>901.79998779297</ele>
        <time>2023-05-06T10:49:04Z</time>
      </trkpt>
      <trkpt lat="44.32264" lon="3.21693">
        <ele>901.20001220703</ele>
        <time>2023-05-06T10:49:08Z</time>
      </trkpt>
      <trkpt lat="44.32255" lon="3.21687">
        <ele>900.79998779297</ele>
        <time>2023-05-06T10:49:10Z</time>
      </trkpt>
      <trkpt lat="44.32242" lon="3.21677">
        <ele>900</ele>
        <time>2023-05-06T10:49:13Z</time>
      </trkpt>
      <trkpt lat="44.32232" lon="3.21668">
        <ele>899.40002441406</ele>
        <time>2023-05-06T10:49:15Z</time>
      </trkpt>
      <trkpt lat="44.32213" lon="3.21632">
        <ele>898.20001220703</ele>
        <time>2023-05-06T10:49:20Z</time>
      </trkpt>
      <trkpt lat="44.32194" lon="3.21592">
        <ele>897.40002441406</ele>
        <time>2023-05-06T10:49:25Z</time>
      </trkpt>
      <trkpt lat="44.3219" lon="3.21583">
        <ele>897</ele>
        <time>2023-05-06T10:49:26Z</time>
      </trkpt>
      <trkpt lat="44.32183" lon="3.21555">
        <ele>896.59997558594</ele>
        <time>2023-05-06T10:49:29Z</time>
      </trkpt>
      <trkpt lat="44.32173" lon="3.21539">
        <ele>896</ele>
        <time>2023-05-06T10:49:32Z</time>
      </trkpt>
      <trkpt lat="44.3217" lon="3.21532">
        <ele>895.79998779297</ele>
        <time>2023-05-06T10:49:33Z</time>
      </trkpt>
      <trkpt lat="44.32167" lon="3.21516">
        <ele>895.40002441406</ele>
        <time>2023-05-06T10:49:35Z</time>
      </trkpt>
      <trkpt lat="44.32169" lon="3.2149">
        <ele>894.79998779297</ele>
        <time>2023-05-06T10:49:38Z</time>
      </trkpt>
      <trkpt lat="44.32169" lon="3.21473">
        <ele>894.40002441406</ele>
        <time>2023-05-06T10:49:40Z</time>
      </trkpt>
      <trkpt lat="44.32168" lon="3.21441">
        <ele>893.79998779297</ele>
        <time>2023-05-06T10:49:44Z</time>
      </trkpt>
      <trkpt lat="44.32165" lon="3.21426">
        <ele>893.40002441406</ele>
        <time>2023-05-06T10:49:46Z</time>
      </trkpt>
      <trkpt lat="44.32163" lon="3.21419">
        <ele>893.20001220703</ele>
        <time>2023-05-06T10:49:47Z</time>
      </trkpt>
      <trkpt lat="44.32158" lon="3.21408">
        <ele>893</ele>
        <time>2023-05-06T10:49:49Z</time>
      </trkpt>
      <trkpt lat="44.32155" lon="3.21403">
        <ele>893</ele>
        <time>2023-05-06T10:49:50Z</time>
      </trkpt>
      <trkpt lat="44.32139" lon="3.21378">
        <ele>893</ele>
        <time>2023-05-06T10:49:56Z</time>
      </trkpt>
      <trkpt lat="44.32128" lon="3.21358">
        <ele>892.59997558594</ele>
        <time>2023-05-06T10:50:02Z</time>
      </trkpt>
      <trkpt lat="44.32117" lon="3.21341">
        <ele>892.40002441406</ele>
        <time>2023-05-06T10:50:09Z</time>
      </trkpt>
      <trkpt lat="44.32109" lon="3.21326">
        <ele>892</ele>
        <time>2023-05-06T10:50:17Z</time>
      </trkpt>
      <trkpt lat="44.32105" lon="3.21313">
        <ele>892.20001220703</ele>
        <time>2023-05-06T10:50:24Z</time>
      </trkpt>
      <trkpt lat="44.32103" lon="3.21299">
        <ele>892.40002441406</ele>
        <time>2023-05-06T10:50:31Z</time>
      </trkpt>
      <trkpt lat="44.32103" lon="3.21296">
        <ele>892.40002441406</ele>
        <time>2023-05-06T10:50:32Z</time>
      </trkpt>
      <trkpt lat="44.32105" lon="3.21275">
        <ele>892.79998779297</ele>
        <time>2023-05-06T10:50:42Z</time>
      </trkpt>
      <trkpt lat="44.32105" lon="3.21261">
        <ele>893.20001220703</ele>
        <time>2023-05-06T10:50:48Z</time>
      </trkpt>
      <trkpt lat="44.321" lon="3.21242">
        <ele>893.40002441406</ele>
        <time>2023-05-06T10:50:54Z</time>
      </trkpt>
      <trkpt lat="44.32091" lon="3.21215">
        <ele>893.59997558594</ele>
        <time>2023-05-06T10:51:00Z</time>
      </trkpt>
      <trkpt lat="44.32088" lon="3.21183">
        <ele>893.40002441406</ele>
        <time>2023-05-06T10:51:06Z</time>
      </trkpt>
      <trkpt lat="44.32076" lon="3.21159">
        <ele>893.59997558594</ele>
        <time>2023-05-06T10:51:12Z</time>
      </trkpt>
      <trkpt lat="44.3206" lon="3.21152">
        <ele>893.59997558594</ele>
        <time>2023-05-06T10:51:17Z</time>
      </trkpt>
      <trkpt lat="44.32044" lon="3.21147">
        <ele>893.59997558594</ele>
        <time>2023-05-06T10:51:22Z</time>
      </trkpt>
      <trkpt lat="44.32015" lon="3.21136">
        <ele>893.59997558594</ele>
        <time>2023-05-06T10:51:31Z</time>
      </trkpt>
      <trkpt lat="44.31986" lon="3.2113">
        <ele>893.59997558594</ele>
        <time>2023-05-06T10:51:41Z</time>
      </trkpt>
      <trkpt lat="44.31967" lon="3.21139">
        <ele>893.59997558594</ele>
        <time>2023-05-06T10:51:48Z</time>
      </trkpt>
      <trkpt lat="44.31956" lon="3.21148">
        <ele>894.20001220703</ele>
        <time>2023-05-06T10:51:55Z</time>
      </trkpt>
      <trkpt lat="44.31946" lon="3.21164">
        <ele>894.59997558594</ele>
        <time>2023-05-06T10:52:03Z</time>
      </trkpt>
      <trkpt lat="44.31943" lon="3.21181">
        <ele>895.20001220703</ele>
        <time>2023-05-06T10:52:10Z</time>
      </trkpt>
      <trkpt lat="44.31943" lon="3.21198">
        <ele>896</ele>
        <time>2023-05-06T10:52:18Z</time>
      </trkpt>
      <trkpt lat="44.31937" lon="3.21209">
        <ele>896.59997558594</ele>
        <time>2023-05-06T10:52:25Z</time>
      </trkpt>
      <trkpt lat="44.31927" lon="3.21212">
        <ele>897.20001220703</ele>
        <time>2023-05-06T10:52:33Z</time>
      </trkpt>
      <trkpt lat="44.3192" lon="3.2121">
        <ele>897.59997558594</ele>
        <time>2023-05-06T10:52:37Z</time>
      </trkpt>
      <trkpt lat="44.31918" lon="3.2121">
        <ele>898</ele>
        <time>2023-05-06T10:52:39Z</time>
      </trkpt>
      <trkpt lat="44.31906" lon="3.21209">
        <ele>898.79998779297</ele>
        <time>2023-05-06T10:52:47Z</time>
      </trkpt>
      <trkpt lat="44.31896" lon="3.21209">
        <ele>899.59997558594</ele>
        <time>2023-05-06T10:52:55Z</time>
      </trkpt>
      <trkpt lat="44.31883" lon="3.21211">
        <ele>900.79998779297</ele>
        <time>2023-05-06T10:53:05Z</time>
      </trkpt>
      <trkpt lat="44.3188" lon="3.21211">
        <ele>901</ele>
        <time>2023-05-06T10:53:07Z</time>
      </trkpt>
      <trkpt lat="44.31875" lon="3.21214">
        <ele>901.40002441406</ele>
        <time>2023-05-06T10:53:11Z</time>
      </trkpt>
      <trkpt lat="44.31861" lon="3.21215">
        <ele>902.40002441406</ele>
        <time>2023-05-06T10:53:21Z</time>
      </trkpt>
      <trkpt lat="44.31846" lon="3.21214">
        <ele>903.79998779297</ele>
        <time>2023-05-06T10:53:32Z</time>
      </trkpt>
      <trkpt lat="44.31832" lon="3.21211">
        <ele>904.79998779297</ele>
        <time>2023-05-06T10:53:42Z</time>
      </trkpt>
      <trkpt lat="44.31816" lon="3.21206">
        <ele>906</ele>
        <time>2023-05-06T10:53:53Z</time>
      </trkpt>
      <trkpt lat="44.31804" lon="3.21202">
        <ele>906.79998779297</ele>
        <time>2023-05-06T10:54:01Z</time>
      </trkpt>
      <trkpt lat="44.31793" lon="3.21199">
        <ele>907.40002441406</ele>
        <time>2023-05-06T10:54:09Z</time>
      </trkpt>
      <trkpt lat="44.31782" lon="3.21195">
        <ele>907.59997558594</ele>
        <time>2023-05-06T10:54:17Z</time>
      </trkpt>
      <trkpt lat="44.31779" lon="3.21194">
        <ele>907.59997558594</ele>
        <time>2023-05-06T10:54:19Z</time>
      </trkpt>
      <trkpt lat="44.31774" lon="3.21192">
        <ele>907.79998779297</ele>
        <time>2023-05-06T10:54:23Z</time>
      </trkpt>
      <trkpt lat="44.31764" lon="3.21187">
        <ele>908</ele>
        <time>2023-05-06T10:54:31Z</time>
      </trkpt>
      <trkpt lat="44.31749" lon="3.21179">
        <ele>908.20001220703</ele>
        <time>2023-05-06T10:54:40Z</time>
      </trkpt>
      <trkpt lat="44.31737" lon="3.21172">
        <ele>908.40002441406</ele>
        <time>2023-05-06T10:54:48Z</time>
      </trkpt>
      <trkpt lat="44.31727" lon="3.21164">
        <ele>908.79998779297</ele>
        <time>2023-05-06T10:54:55Z</time>
      </trkpt>
      <trkpt lat="44.3171" lon="3.21153">
        <ele>909.59997558594</ele>
        <time>2023-05-06T10:55:05Z</time>
      </trkpt>
      <trkpt lat="44.31698" lon="3.21143">
        <ele>909.79998779297</ele>
        <time>2023-05-06T10:55:12Z</time>
      </trkpt>
      <trkpt lat="44.31688" lon="3.21132">
        <ele>910.40002441406</ele>
        <time>2023-05-06T10:55:17Z</time>
      </trkpt>
      <trkpt lat="44.31674" lon="3.21115">
        <ele>911.20001220703</ele>
        <time>2023-05-06T10:55:23Z</time>
      </trkpt>
      <trkpt lat="44.3166" lon="3.21095">
        <ele>911.79998779297</ele>
        <time>2023-05-06T10:55:31Z</time>
      </trkpt>
      <trkpt lat="44.31648" lon="3.21079">
        <ele>912.40002441406</ele>
        <time>2023-05-06T10:55:38Z</time>
      </trkpt>
      <trkpt lat="44.31639" lon="3.21069">
        <ele>913</ele>
        <time>2023-05-06T10:55:43Z</time>
      </trkpt>
      <trkpt lat="44.31627" lon="3.21052">
        <ele>913.79998779297</ele>
        <time>2023-05-06T10:55:51Z</time>
      </trkpt>
      <trkpt lat="44.31618" lon="3.2104">
        <ele>914.20001220703</ele>
        <time>2023-05-06T10:55:57Z</time>
      </trkpt>
      <trkpt lat="44.31614" lon="3.21034">
        <ele>914.40002441406</ele>
        <time>2023-05-06T10:56:00Z</time>
      </trkpt>
      <trkpt lat="44.3161" lon="3.21028">
        <ele>914.59997558594</ele>
        <time>2023-05-06T10:56:03Z</time>
      </trkpt>
      <trkpt lat="44.31595" lon="3.2101">
        <ele>915.40002441406</ele>
        <time>2023-05-06T10:56:11Z</time>
      </trkpt>
      <trkpt lat="44.3158" lon="3.20992">
        <ele>915.79998779297</ele>
        <time>2023-05-06T10:56:18Z</time>
      </trkpt>
      <trkpt lat="44.31565" lon="3.20972">
        <ele>916</ele>
        <time>2023-05-06T10:56:24Z</time>
      </trkpt>
      <trkpt lat="44.31553" lon="3.20957">
        <ele>916.40002441406</ele>
        <time>2023-05-06T10:56:29Z</time>
      </trkpt>
      <trkpt lat="44.31532" lon="3.2094">
        <ele>916.79998779297</ele>
        <time>2023-05-06T10:56:37Z</time>
      </trkpt>
      <trkpt lat="44.31515" lon="3.20925">
        <ele>917.20001220703</ele>
        <time>2023-05-06T10:56:45Z</time>
      </trkpt>
      <trkpt lat="44.31496" lon="3.20904">
        <ele>918</ele>
        <time>2023-05-06T10:56:55Z</time>
      </trkpt>
      <trkpt lat="44.31484" lon="3.20888">
        <ele>918.79998779297</ele>
        <time>2023-05-06T10:57:02Z</time>
      </trkpt>
      <trkpt lat="44.31473" lon="3.20875">
        <ele>919.40002441406</ele>
        <time>2023-05-06T10:57:09Z</time>
      </trkpt>
      <trkpt lat="44.31457" lon="3.20857">
        <ele>920.40002441406</ele>
        <time>2023-05-06T10:57:19Z</time>
      </trkpt>
      <trkpt lat="44.31447" lon="3.20846">
        <ele>921.20001220703</ele>
        <time>2023-05-06T10:57:26Z</time>
      </trkpt>
      <trkpt lat="44.31438" lon="3.20837">
        <ele>922.20001220703</ele>
        <time>2023-05-06T10:57:33Z</time>
      </trkpt>
      <trkpt lat="44.31428" lon="3.20828">
        <ele>923.20001220703</ele>
        <time>2023-05-06T10:57:41Z</time>
      </trkpt>
      <trkpt lat="44.31418" lon="3.20817">
        <ele>924.20001220703</ele>
        <time>2023-05-06T10:57:49Z</time>
      </trkpt>
      <trkpt lat="44.31407" lon="3.20805">
        <ele>925.59997558594</ele>
        <time>2023-05-06T10:57:58Z</time>
      </trkpt>
      <trkpt lat="44.31396" lon="3.20796">
        <ele>926.79998779297</ele>
        <time>2023-05-06T10:58:07Z</time>
      </trkpt>
      <trkpt lat="44.31384" lon="3.20789">
        <ele>928</ele>
        <time>2023-05-06T10:58:16Z</time>
      </trkpt>
      <trkpt lat="44.31374" lon="3.20784">
        <ele>928.79998779297</ele>
        <time>2023-05-06T10:58:24Z</time>
      </trkpt>
      <trkpt lat="44.31367" lon="3.20773">
        <ele>929.59997558594</ele>
        <time>2023-05-06T10:58:31Z</time>
      </trkpt>
      <trkpt lat="44.3136" lon="3.20758">
        <ele>930.40002441406</ele>
        <time>2023-05-06T10:58:39Z</time>
      </trkpt>
      <trkpt lat="44.31351" lon="3.20748">
        <ele>931</ele>
        <time>2023-05-06T10:58:45Z</time>
      </trkpt>
      <trkpt lat="44.31342" lon="3.2074">
        <ele>931.40002441406</ele>
        <time>2023-05-06T10:58:51Z</time>
      </trkpt>
      <trkpt lat="44.31328" lon="3.20723">
        <ele>932</ele>
        <time>2023-05-06T10:59:01Z</time>
      </trkpt>
      <trkpt lat="44.31315" lon="3.20708">
        <ele>932.79998779297</ele>
        <time>2023-05-06T10:59:08Z</time>
      </trkpt>
      <trkpt lat="44.31302" lon="3.20698">
        <ele>933.20001220703</ele>
        <time>2023-05-06T10:59:14Z</time>
      </trkpt>
      <trkpt lat="44.31287" lon="3.20688">
        <ele>933.40002441406</ele>
        <time>2023-05-06T10:59:21Z</time>
      </trkpt>
      <trkpt lat="44.31267" lon="3.2068">
        <ele>933.40002441406</ele>
        <time>2023-05-06T10:59:30Z</time>
      </trkpt>
      <trkpt lat="44.31252" lon="3.20674">
        <ele>933.40002441406</ele>
        <time>2023-05-06T10:59:37Z</time>
      </trkpt>
      <trkpt lat="44.31243" lon="3.20671">
        <ele>933.20001220703</ele>
        <time>2023-05-06T10:59:43Z</time>
      </trkpt>
      <trkpt lat="44.31241" lon="3.2067">
        <ele>933.20001220703</ele>
        <time>2023-05-06T10:59:44Z</time>
      </trkpt>
      <trkpt lat="44.31236" lon="3.20667">
        <ele>933.20001220703</ele>
        <time>2023-05-06T10:59:48Z</time>
      </trkpt>
      <trkpt lat="44.31221" lon="3.2066">
        <ele>934.20001220703</ele>
        <time>2023-05-06T10:59:57Z</time>
      </trkpt>
      <trkpt lat="44.31208" lon="3.20656">
        <ele>935.20001220703</ele>
        <time>2023-05-06T11:00:05Z</time>
      </trkpt>
      <trkpt lat="44.31193" lon="3.20656">
        <ele>936</ele>
        <time>2023-05-06T11:00:15Z</time>
      </trkpt>
      <trkpt lat="44.31187" lon="3.20657">
        <ele>936.59997558594</ele>
        <time>2023-05-06T11:00:19Z</time>
      </trkpt>
      <trkpt lat="44.31184" lon="3.20657">
        <ele>937</ele>
        <time>2023-05-06T11:00:21Z</time>
      </trkpt>
      <trkpt lat="44.3118" lon="3.20656">
        <ele>937.40002441406</ele>
        <time>2023-05-06T11:00:24Z</time>
      </trkpt>
      <trkpt lat="44.31175" lon="3.20655">
        <ele>938</ele>
        <time>2023-05-06T11:00:29Z</time>
      </trkpt>
      <trkpt lat="44.31168" lon="3.20654">
        <ele>938.40002441406</ele>
        <time>2023-05-06T11:00:35Z</time>
      </trkpt>
      <trkpt lat="44.31164" lon="3.20655">
        <ele>938.59997558594</ele>
        <time>2023-05-06T11:00:38Z</time>
      </trkpt>
      <trkpt lat="44.3116" lon="3.20654">
        <ele>939</ele>
        <time>2023-05-06T11:00:42Z</time>
      </trkpt>
      <trkpt lat="44.31155" lon="3.20654">
        <ele>939.40002441406</ele>
        <time>2023-05-06T11:00:46Z</time>
      </trkpt>
      <trkpt lat="44.31148" lon="3.20656">
        <ele>939.79998779297</ele>
        <time>2023-05-06T11:00:53Z</time>
      </trkpt>
      <trkpt lat="44.31142" lon="3.20654">
        <ele>940.59997558594</ele>
        <time>2023-05-06T11:01:00Z</time>
      </trkpt>
      <trkpt lat="44.31137" lon="3.20649">
        <ele>941.40002441406</ele>
        <time>2023-05-06T11:01:06Z</time>
      </trkpt>
      <trkpt lat="44.31134" lon="3.20648">
        <ele>942</ele>
        <time>2023-05-06T11:01:09Z</time>
      </trkpt>
      <trkpt lat="44.31129" lon="3.20637">
        <ele>943.20001220703</ele>
        <time>2023-05-06T11:01:16Z</time>
      </trkpt>
      <trkpt lat="44.31128" lon="3.20635">
        <ele>943.59997558594</ele>
        <time>2023-05-06T11:01:17Z</time>
      </trkpt>
      <trkpt lat="44.31123" lon="3.20628">
        <ele>945</ele>
        <time>2023-05-06T11:01:23Z</time>
      </trkpt>
      <trkpt lat="44.31121" lon="3.20627">
        <ele>945.40002441406</ele>
        <time>2023-05-06T11:01:25Z</time>
      </trkpt>
      <trkpt lat="44.31114" lon="3.20623">
        <ele>946.40002441406</ele>
        <time>2023-05-06T11:01:33Z</time>
      </trkpt>
      <trkpt lat="44.31109" lon="3.20619">
        <ele>947.20001220703</ele>
        <time>2023-05-06T11:01:40Z</time>
      </trkpt>
      <trkpt lat="44.31107" lon="3.20618">
        <ele>947.40002441406</ele>
        <time>2023-05-06T11:01:42Z</time>
      </trkpt>
      <trkpt lat="44.31102" lon="3.20614">
        <ele>948</ele>
        <time>2023-05-06T11:01:47Z</time>
      </trkpt>
      <trkpt lat="44.31094" lon="3.20607">
        <ele>948.79998779297</ele>
        <time>2023-05-06T11:01:55Z</time>
      </trkpt>
      <trkpt lat="44.31087" lon="3.20602">
        <ele>949.20001220703</ele>
        <time>2023-05-06T11:02:01Z</time>
      </trkpt>
      <trkpt lat="44.31086" lon="3.20602">
        <ele>949.20001220703</ele>
        <time>2023-05-06T11:02:02Z</time>
      </trkpt>
      <trkpt lat="44.31085" lon="3.20601">
        <ele>949.40002441406</ele>
        <time>2023-05-06T11:02:03Z</time>
      </trkpt>
      <trkpt lat="44.3108" lon="3.20597">
        <ele>949.40002441406</ele>
        <time>2023-05-06T11:02:08Z</time>
      </trkpt>
      <trkpt lat="44.31073" lon="3.2059">
        <ele>949.59997558594</ele>
        <time>2023-05-06T11:02:15Z</time>
      </trkpt>
      <trkpt lat="44.31068" lon="3.20583">
        <ele>949.79998779297</ele>
        <time>2023-05-06T11:02:22Z</time>
      </trkpt>
      <trkpt lat="44.31066" lon="3.20575">
        <ele>950.40002441406</ele>
        <time>2023-05-06T11:02:28Z</time>
      </trkpt>
      <trkpt lat="44.31062" lon="3.20564">
        <ele>951.20001220703</ele>
        <time>2023-05-06T11:02:35Z</time>
      </trkpt>
      <trkpt lat="44.31058" lon="3.20554">
        <ele>952</ele>
        <time>2023-05-06T11:02:41Z</time>
      </trkpt>
      <trkpt lat="44.31058" lon="3.20553">
        <ele>952.20001220703</ele>
        <time>2023-05-06T11:02:42Z</time>
      </trkpt>
      <trkpt lat="44.31055" lon="3.20543">
        <ele>953</ele>
        <time>2023-05-06T11:02:49Z</time>
      </trkpt>
      <trkpt lat="44.31052" lon="3.20535">
        <ele>953.79998779297</ele>
        <time>2023-05-06T11:02:55Z</time>
      </trkpt>
      <trkpt lat="44.31049" lon="3.20525">
        <ele>954.79998779297</ele>
        <time>2023-05-06T11:03:02Z</time>
      </trkpt>
      <trkpt lat="44.31048" lon="3.20523">
        <ele>954.79998779297</ele>
        <time>2023-05-06T11:03:03Z</time>
      </trkpt>
      <trkpt lat="44.31045" lon="3.20512">
        <ele>956</ele>
        <time>2023-05-06T11:03:10Z</time>
      </trkpt>
      <trkpt lat="44.31041" lon="3.20502">
        <ele>957</ele>
        <time>2023-05-06T11:03:17Z</time>
      </trkpt>
      <trkpt lat="44.31039" lon="3.20491">
        <ele>958.20001220703</ele>
        <time>2023-05-06T11:03:24Z</time>
      </trkpt>
      <trkpt lat="44.31036" lon="3.20482">
        <ele>959</ele>
        <time>2023-05-06T11:03:29Z</time>
      </trkpt>
      <trkpt lat="44.31031" lon="3.20469">
        <ele>960.59997558594</ele>
        <time>2023-05-06T11:03:37Z</time>
      </trkpt>
      <trkpt lat="44.31028" lon="3.20455">
        <ele>961.59997558594</ele>
        <time>2023-05-06T11:03:45Z</time>
      </trkpt>
      <trkpt lat="44.31024" lon="3.20442">
        <ele>963</ele>
        <time>2023-05-06T11:03:53Z</time>
      </trkpt>
      <trkpt lat="44.31023" lon="3.20429">
        <ele>964</ele>
        <time>2023-05-06T11:04:01Z</time>
      </trkpt>
      <trkpt lat="44.31022" lon="3.20417">
        <ele>964.79998779297</ele>
        <time>2023-05-06T11:04:07Z</time>
      </trkpt>
      <trkpt lat="44.31023" lon="3.20415">
        <ele>964.79998779297</ele>
        <time>2023-05-06T11:04:08Z</time>
      </trkpt>
      <trkpt lat="44.31034" lon="3.20407">
        <ele>965</ele>
        <time>2023-05-06T11:04:13Z</time>
      </trkpt>
      <trkpt lat="44.3105" lon="3.20399">
        <ele>965.40002441406</ele>
        <time>2023-05-06T11:04:20Z</time>
      </trkpt>
      <trkpt lat="44.31057" lon="3.20396">
        <ele>966.20001220703</ele>
        <time>2023-05-06T11:04:25Z</time>
      </trkpt>
      <trkpt lat="44.31059" lon="3.20395">
        <ele>966.40002441406</ele>
        <time>2023-05-06T11:04:27Z</time>
      </trkpt>
      <trkpt lat="44.31068" lon="3.20389">
        <ele>967.59997558594</ele>
        <time>2023-05-06T11:04:35Z</time>
      </trkpt>
      <trkpt lat="44.31073" lon="3.20388">
        <ele>968</ele>
        <time>2023-05-06T11:04:39Z</time>
      </trkpt>
      <trkpt lat="44.31075" lon="3.20387">
        <ele>968.20001220703</ele>
        <time>2023-05-06T11:04:41Z</time>
      </trkpt>
      <trkpt lat="44.31082" lon="3.20384">
        <ele>969.20001220703</ele>
        <time>2023-05-06T11:04:48Z</time>
      </trkpt>
      <trkpt lat="44.31083" lon="3.20383">
        <ele>969.20001220703</ele>
        <time>2023-05-06T11:04:49Z</time>
      </trkpt>
      <trkpt lat="44.31089" lon="3.20378">
        <ele>970.20001220703</ele>
        <time>2023-05-06T11:04:55Z</time>
      </trkpt>
      <trkpt lat="44.31091" lon="3.20376">
        <ele>970.59997558594</ele>
        <time>2023-05-06T11:04:57Z</time>
      </trkpt>
      <trkpt lat="44.31095" lon="3.20371">
        <ele>971.20001220703</ele>
        <time>2023-05-06T11:05:01Z</time>
      </trkpt>
      <trkpt lat="44.31101" lon="3.20368">
        <ele>972</ele>
        <time>2023-05-06T11:05:07Z</time>
      </trkpt>
      <trkpt lat="44.31111" lon="3.20362">
        <ele>973.20001220703</ele>
        <time>2023-05-06T11:05:15Z</time>
      </trkpt>
      <trkpt lat="44.31126" lon="3.20356">
        <ele>974.40002441406</ele>
        <time>2023-05-06T11:05:25Z</time>
      </trkpt>
      <trkpt lat="44.31138" lon="3.20352">
        <ele>975.20001220703</ele>
        <time>2023-05-06T11:05:32Z</time>
      </trkpt>
      <trkpt lat="44.31152" lon="3.20349">
        <ele>975.79998779297</ele>
        <time>2023-05-06T11:05:40Z</time>
      </trkpt>
      <trkpt lat="44.31168" lon="3.20344">
        <ele>977</ele>
        <time>2023-05-06T11:05:49Z</time>
      </trkpt>
      <trkpt lat="44.31181" lon="3.20344">
        <ele>977.40002441406</ele>
        <time>2023-05-06T11:05:56Z</time>
      </trkpt>
      <trkpt lat="44.31196" lon="3.20346">
        <ele>977.79998779297</ele>
        <time>2023-05-06T11:06:04Z</time>
      </trkpt>
      <trkpt lat="44.31209" lon="3.20347">
        <ele>978.40002441406</ele>
        <time>2023-05-06T11:06:11Z</time>
      </trkpt>
      <trkpt lat="44.31223" lon="3.20346">
        <ele>979</ele>
        <time>2023-05-06T11:06:18Z</time>
      </trkpt>
      <trkpt lat="44.31237" lon="3.20342">
        <ele>979.79998779297</ele>
        <time>2023-05-06T11:06:26Z</time>
      </trkpt>
      <trkpt lat="44.31254" lon="3.20336">
        <ele>980.40002441406</ele>
        <time>2023-05-06T11:06:35Z</time>
      </trkpt>
      <trkpt lat="44.31271" lon="3.20327">
        <ele>981.40002441406</ele>
        <time>2023-05-06T11:06:45Z</time>
      </trkpt>
      <trkpt lat="44.31286" lon="3.2032">
        <ele>982</ele>
        <time>2023-05-06T11:06:53Z</time>
      </trkpt>
      <trkpt lat="44.313" lon="3.20314">
        <ele>982.59997558594</ele>
        <time>2023-05-06T11:07:01Z</time>
      </trkpt>
      <trkpt lat="44.31313" lon="3.20307">
        <ele>983.20001220703</ele>
        <time>2023-05-06T11:07:08Z</time>
      </trkpt>
      <trkpt lat="44.31323" lon="3.20302">
        <ele>983.59997558594</ele>
        <time>2023-05-06T11:07:13Z</time>
      </trkpt>
      <trkpt lat="44.31333" lon="3.20294">
        <ele>984</ele>
        <time>2023-05-06T11:07:19Z</time>
      </trkpt>
      <trkpt lat="44.31343" lon="3.20286">
        <ele>984.40002441406</ele>
        <time>2023-05-06T11:07:25Z</time>
      </trkpt>
      <trkpt lat="44.31356" lon="3.20271">
        <ele>984.79998779297</ele>
        <time>2023-05-06T11:07:33Z</time>
      </trkpt>
      <trkpt lat="44.31365" lon="3.20257">
        <ele>985.40002441406</ele>
        <time>2023-05-06T11:07:39Z</time>
      </trkpt>
      <trkpt lat="44.31377" lon="3.20241">
        <ele>985.79998779297</ele>
        <time>2023-05-06T11:07:47Z</time>
      </trkpt>
      <trkpt lat="44.31389" lon="3.20225">
        <ele>986.40002441406</ele>
        <time>2023-05-06T11:07:55Z</time>
      </trkpt>
      <trkpt lat="44.314" lon="3.2021">
        <ele>987</ele>
        <time>2023-05-06T11:08:03Z</time>
      </trkpt>
      <trkpt lat="44.31408" lon="3.20201">
        <ele>987.40002441406</ele>
        <time>2023-05-06T11:08:09Z</time>
      </trkpt>
      <trkpt lat="44.31415" lon="3.20192">
        <ele>988.20001220703</ele>
        <time>2023-05-06T11:08:16Z</time>
      </trkpt>
      <trkpt lat="44.31424" lon="3.20182">
        <ele>988.79998779297</ele>
        <time>2023-05-06T11:08:23Z</time>
      </trkpt>
      <trkpt lat="44.31435" lon="3.20167">
        <ele>989.79998779297</ele>
        <time>2023-05-06T11:08:32Z</time>
      </trkpt>
      <trkpt lat="44.31443" lon="3.20158">
        <ele>990.40002441406</ele>
        <time>2023-05-06T11:08:38Z</time>
      </trkpt>
      <trkpt lat="44.31453" lon="3.20145">
        <ele>991</ele>
        <time>2023-05-06T11:08:45Z</time>
      </trkpt>
      <trkpt lat="44.31461" lon="3.20135">
        <ele>991.59997558594</ele>
        <time>2023-05-06T11:08:52Z</time>
      </trkpt>
      <trkpt lat="44.3147" lon="3.20123">
        <ele>992</ele>
        <time>2023-05-06T11:09:00Z</time>
      </trkpt>
      <trkpt lat="44.3148" lon="3.20113">
        <ele>992.40002441406</ele>
        <time>2023-05-06T11:09:07Z</time>
      </trkpt>
      <trkpt lat="44.31492" lon="3.20097">
        <ele>993</ele>
        <time>2023-05-06T11:09:16Z</time>
      </trkpt>
      <trkpt lat="44.31501" lon="3.20086">
        <ele>993.40002441406</ele>
        <time>2023-05-06T11:09:23Z</time>
      </trkpt>
      <trkpt lat="44.31513" lon="3.20071">
        <ele>993.79998779297</ele>
        <time>2023-05-06T11:09:32Z</time>
      </trkpt>
      <trkpt lat="44.31524" lon="3.20057">
        <ele>994.40002441406</ele>
        <time>2023-05-06T11:09:41Z</time>
      </trkpt>
      <trkpt lat="44.31532" lon="3.20047">
        <ele>994.79998779297</ele>
        <time>2023-05-06T11:09:48Z</time>
      </trkpt>
      <trkpt lat="44.31539" lon="3.2004">
        <ele>995.20001220703</ele>
        <time>2023-05-06T11:09:54Z</time>
      </trkpt>
      <trkpt lat="44.31548" lon="3.20034">
        <ele>995.59997558594</ele>
        <time>2023-05-06T11:10:00Z</time>
      </trkpt>
      <trkpt lat="44.31549" lon="3.20033">
        <ele>995.79998779297</ele>
        <time>2023-05-06T11:10:01Z</time>
      </trkpt>
      <trkpt lat="44.31558" lon="3.20029">
        <ele>996.59997558594</ele>
        <time>2023-05-06T11:10:08Z</time>
      </trkpt>
      <trkpt lat="44.3156" lon="3.20029">
        <ele>996.59997558594</ele>
        <time>2023-05-06T11:10:10Z</time>
      </trkpt>
      <trkpt lat="44.31565" lon="3.20029">
        <ele>996.79998779297</ele>
        <time>2023-05-06T11:10:13Z</time>
      </trkpt>
      <trkpt lat="44.31573" lon="3.20027">
        <ele>997</ele>
        <time>2023-05-06T11:10:19Z</time>
      </trkpt>
      <trkpt lat="44.3158" lon="3.20024">
        <ele>997.40002441406</ele>
        <time>2023-05-06T11:10:23Z</time>
      </trkpt>
      <trkpt lat="44.31581" lon="3.20023">
        <ele>997.40002441406</ele>
        <time>2023-05-06T11:10:24Z</time>
      </trkpt>
      <trkpt lat="44.31591" lon="3.20019">
        <ele>998</ele>
        <time>2023-05-06T11:10:30Z</time>
      </trkpt>
      <trkpt lat="44.31602" lon="3.20014">
        <ele>998.40002441406</ele>
        <time>2023-05-06T11:10:37Z</time>
      </trkpt>
      <trkpt lat="44.31613" lon="3.2001">
        <ele>998.79998779297</ele>
        <time>2023-05-06T11:10:43Z</time>
      </trkpt>
      <trkpt lat="44.31623" lon="3.20005">
        <ele>999</ele>
        <time>2023-05-06T11:10:49Z</time>
      </trkpt>
      <trkpt lat="44.31637" lon="3.19996">
        <ele>999.40002441406</ele>
        <time>2023-05-06T11:10:55Z</time>
      </trkpt>
      <trkpt lat="44.3165" lon="3.19991">
        <ele>999.59997558594</ele>
        <time>2023-05-06T11:11:00Z</time>
      </trkpt>
      <trkpt lat="44.31659" lon="3.19984">
        <ele>999.79998779297</ele>
        <time>2023-05-06T11:11:05Z</time>
      </trkpt>
      <trkpt lat="44.3167" lon="3.1998">
        <ele>999.59997558594</ele>
        <time>2023-05-06T11:11:09Z</time>
      </trkpt>
      <trkpt lat="44.31685" lon="3.19975">
        <ele>999.59997558594</ele>
        <time>2023-05-06T11:11:14Z</time>
      </trkpt>
      <trkpt lat="44.31696" lon="3.19969">
        <ele>999</ele>
        <time>2023-05-06T11:11:18Z</time>
      </trkpt>
      <trkpt lat="44.31698" lon="3.19967">
        <ele>999</ele>
        <time>2023-05-06T11:11:19Z</time>
      </trkpt>
      <trkpt lat="44.31705" lon="3.19957">
        <ele>998.59997558594</ele>
        <time>2023-05-06T11:11:23Z</time>
      </trkpt>
      <trkpt lat="44.31708" lon="3.19949">
        <ele>998.40002441406</ele>
        <time>2023-05-06T11:11:25Z</time>
      </trkpt>
      <trkpt lat="44.3171" lon="3.19949">
        <ele>998.20001220703</ele>
        <time>2023-05-06T11:11:26Z</time>
      </trkpt>
      <trkpt lat="44.31718" lon="3.19941">
        <ele>997.59997558594</ele>
        <time>2023-05-06T11:11:31Z</time>
      </trkpt>
      <trkpt lat="44.31723" lon="3.19932">
        <ele>997.20001220703</ele>
        <time>2023-05-06T11:11:33Z</time>
      </trkpt>
      <trkpt lat="44.31726" lon="3.19928">
        <ele>997.20001220703</ele>
        <time>2023-05-06T11:11:34Z</time>
      </trkpt>
      <trkpt lat="44.3173" lon="3.19924">
        <ele>997</ele>
        <time>2023-05-06T11:11:35Z</time>
      </trkpt>
      <trkpt lat="44.31748" lon="3.1991">
        <ele>996.59997558594</ele>
        <time>2023-05-06T11:11:39Z</time>
      </trkpt>
      <trkpt lat="44.3177" lon="3.1989">
        <ele>995.79998779297</ele>
        <time>2023-05-06T11:11:44Z</time>
      </trkpt>
      <trkpt lat="44.31795" lon="3.19869">
        <ele>995</ele>
        <time>2023-05-06T11:11:49Z</time>
      </trkpt>
      <trkpt lat="44.31799" lon="3.19866">
        <ele>994.79998779297</ele>
        <time>2023-05-06T11:11:50Z</time>
      </trkpt>
      <trkpt lat="44.31809" lon="3.19865">
        <ele>994.59997558594</ele>
        <time>2023-05-06T11:11:52Z</time>
      </trkpt>
      <trkpt lat="44.31824" lon="3.19864">
        <ele>993.59997558594</ele>
        <time>2023-05-06T11:11:56Z</time>
      </trkpt>
      <trkpt lat="44.31836" lon="3.19864">
        <ele>992.79998779297</ele>
        <time>2023-05-06T11:12:00Z</time>
      </trkpt>
      <trkpt lat="44.31842" lon="3.19865">
        <ele>992.40002441406</ele>
        <time>2023-05-06T11:12:02Z</time>
      </trkpt>
      <trkpt lat="44.31846" lon="3.19866">
        <ele>992.20001220703</ele>
        <time>2023-05-06T11:12:03Z</time>
      </trkpt>
      <trkpt lat="44.31853" lon="3.19857">
        <ele>991.59997558594</ele>
        <time>2023-05-06T11:12:05Z</time>
      </trkpt>
      <trkpt lat="44.31855" lon="3.19852">
        <ele>991.20001220703</ele>
        <time>2023-05-06T11:12:06Z</time>
      </trkpt>
      <trkpt lat="44.31865" lon="3.19841">
        <ele>990</ele>
        <time>2023-05-06T11:12:09Z</time>
      </trkpt>
      <trkpt lat="44.31874" lon="3.19826">
        <ele>988.79998779297</ele>
        <time>2023-05-06T11:12:12Z</time>
      </trkpt>
      <trkpt lat="44.31877" lon="3.19819">
        <ele>988.40002441406</ele>
        <time>2023-05-06T11:12:13Z</time>
      </trkpt>
      <trkpt lat="44.31886" lon="3.19807">
        <ele>987.59997558594</ele>
        <time>2023-05-06T11:12:15Z</time>
      </trkpt>
      <trkpt lat="44.31898" lon="3.19797">
        <ele>987.20001220703</ele>
        <time>2023-05-06T11:12:17Z</time>
      </trkpt>
      <trkpt lat="44.31908" lon="3.19784">
        <ele>986.40002441406</ele>
        <time>2023-05-06T11:12:19Z</time>
      </trkpt>
      <trkpt lat="44.31914" lon="3.1977">
        <ele>986</ele>
        <time>2023-05-06T11:12:21Z</time>
      </trkpt>
      <trkpt lat="44.31923" lon="3.19751">
        <ele>985.59997558594</ele>
        <time>2023-05-06T11:12:24Z</time>
      </trkpt>
      <trkpt lat="44.31934" lon="3.1973">
        <ele>985.40002441406</ele>
        <time>2023-05-06T11:12:29Z</time>
      </trkpt>
      <trkpt lat="44.31939" lon="3.1971">
        <ele>985.20001220703</ele>
        <time>2023-05-06T11:12:35Z</time>
      </trkpt>
      <trkpt lat="44.31943" lon="3.19693">
        <ele>984.79998779297</ele>
        <time>2023-05-06T11:12:44Z</time>
      </trkpt>
      <trkpt lat="44.31948" lon="3.1968">
        <ele>985</ele>
        <time>2023-05-06T11:12:52Z</time>
      </trkpt>
      <trkpt lat="44.31957" lon="3.19669">
        <ele>985</ele>
        <time>2023-05-06T11:12:59Z</time>
      </trkpt>
      <trkpt lat="44.31968" lon="3.19654">
        <ele>985.20001220703</ele>
        <time>2023-05-06T11:13:08Z</time>
      </trkpt>
      <trkpt lat="44.31977" lon="3.19638">
        <ele>985.59997558594</ele>
        <time>2023-05-06T11:13:15Z</time>
      </trkpt>
      <trkpt lat="44.31985" lon="3.19622">
        <ele>985.79998779297</ele>
        <time>2023-05-06T11:13:19Z</time>
      </trkpt>
      <trkpt lat="44.31987" lon="3.19617">
        <ele>985.79998779297</ele>
        <time>2023-05-06T11:13:20Z</time>
      </trkpt>
      <trkpt lat="44.32003" lon="3.19586">
        <ele>985.40002441406</ele>
        <time>2023-05-06T11:13:26Z</time>
      </trkpt>
      <trkpt lat="44.32008" lon="3.19576">
        <ele>985.20001220703</ele>
        <time>2023-05-06T11:13:28Z</time>
      </trkpt>
      <trkpt lat="44.32011" lon="3.19565">
        <ele>985</ele>
        <time>2023-05-06T11:13:30Z</time>
      </trkpt>
      <trkpt lat="44.32012" lon="3.19552">
        <ele>984.79998779297</ele>
        <time>2023-05-06T11:13:32Z</time>
      </trkpt>
      <trkpt lat="44.32011" lon="3.19532">
        <ele>984.40002441406</ele>
        <time>2023-05-06T11:13:35Z</time>
      </trkpt>
      <trkpt lat="44.32012" lon="3.19516">
        <ele>984</ele>
        <time>2023-05-06T11:13:37Z</time>
      </trkpt>
      <trkpt lat="44.32014" lon="3.19491">
        <ele>983.40002441406</ele>
        <time>2023-05-06T11:13:40Z</time>
      </trkpt>
      <trkpt lat="44.32016" lon="3.19474">
        <ele>983</ele>
        <time>2023-05-06T11:13:42Z</time>
      </trkpt>
      <trkpt lat="44.32023" lon="3.19448">
        <ele>982</ele>
        <time>2023-05-06T11:13:45Z</time>
      </trkpt>
      <trkpt lat="44.32026" lon="3.19425">
        <ele>981</ele>
        <time>2023-05-06T11:13:48Z</time>
      </trkpt>
      <trkpt lat="44.32027" lon="3.1942">
        <ele>980.59997558594</ele>
        <time>2023-05-06T11:13:49Z</time>
      </trkpt>
      <trkpt lat="44.32032" lon="3.19401">
        <ele>979.59997558594</ele>
        <time>2023-05-06T11:13:52Z</time>
      </trkpt>
      <trkpt lat="44.32041" lon="3.19379">
        <ele>978.40002441406</ele>
        <time>2023-05-06T11:13:55Z</time>
      </trkpt>
      <trkpt lat="44.32046" lon="3.19363">
        <ele>977.59997558594</ele>
        <time>2023-05-06T11:13:57Z</time>
      </trkpt>
      <trkpt lat="44.32049" lon="3.19354">
        <ele>977.20001220703</ele>
        <time>2023-05-06T11:13:58Z</time>
      </trkpt>
      <trkpt lat="44.32058" lon="3.19323">
        <ele>976</ele>
        <time>2023-05-06T11:14:01Z</time>
      </trkpt>
      <trkpt lat="44.32076" lon="3.19261">
        <ele>973.40002441406</ele>
        <time>2023-05-06T11:14:06Z</time>
      </trkpt>
      <trkpt lat="44.32083" lon="3.19236">
        <ele>972.40002441406</ele>
        <time>2023-05-06T11:14:08Z</time>
      </trkpt>
      <trkpt lat="44.32092" lon="3.19214">
        <ele>971.40002441406</ele>
        <time>2023-05-06T11:14:10Z</time>
      </trkpt>
      <trkpt lat="44.32095" lon="3.19206">
        <ele>970.79998779297</ele>
        <time>2023-05-06T11:14:11Z</time>
      </trkpt>
      <trkpt lat="44.32098" lon="3.19189">
        <ele>970</ele>
        <time>2023-05-06T11:14:13Z</time>
      </trkpt>
      <trkpt lat="44.32096" lon="3.19177">
        <ele>969.20001220703</ele>
        <time>2023-05-06T11:14:15Z</time>
      </trkpt>
      <trkpt lat="44.32095" lon="3.19172">
        <ele>968.79998779297</ele>
        <time>2023-05-06T11:14:16Z</time>
      </trkpt>
      <trkpt lat="44.3209" lon="3.19148">
        <ele>966.79998779297</ele>
        <time>2023-05-06T11:14:22Z</time>
      </trkpt>
      <trkpt lat="44.32093" lon="3.1912">
        <ele>964.59997558594</ele>
        <time>2023-05-06T11:14:29Z</time>
      </trkpt>
      <trkpt lat="44.32094" lon="3.19099">
        <ele>963.20001220703</ele>
        <time>2023-05-06T11:14:35Z</time>
      </trkpt>
      <trkpt lat="44.32095" lon="3.19082">
        <ele>962</ele>
        <time>2023-05-06T11:14:42Z</time>
      </trkpt>
      <trkpt lat="44.32094" lon="3.19078">
        <ele>961</ele>
        <time>2023-05-06T11:14:47Z</time>
      </trkpt>
      <trkpt lat="44.32094" lon="3.19078">
        <ele>958</ele>
        <time>2023-05-06T11:15:04Z</time>
      </trkpt>
      <trkpt lat="44.32095" lon="3.19076">
        <ele>957.59997558594</ele>
        <time>2023-05-06T11:15:09Z</time>
      </trkpt>
      <trkpt lat="44.32094" lon="3.19062">
        <ele>956.79998779297</ele>
        <time>2023-05-06T11:15:15Z</time>
      </trkpt>
      <trkpt lat="44.32095" lon="3.1904">
        <ele>956</ele>
        <time>2023-05-06T11:15:21Z</time>
      </trkpt>
      <trkpt lat="44.32095" lon="3.19019">
        <ele>955.20001220703</ele>
        <time>2023-05-06T11:15:26Z</time>
      </trkpt>
      <trkpt lat="44.32094" lon="3.18998">
        <ele>954.59997558594</ele>
        <time>2023-05-06T11:15:30Z</time>
      </trkpt>
      <trkpt lat="44.32094" lon="3.18987">
        <ele>954.59997558594</ele>
        <time>2023-05-06T11:15:35Z</time>
      </trkpt>
      <trkpt lat="44.32094" lon="3.18973">
        <ele>954.40002441406</ele>
        <time>2023-05-06T11:15:41Z</time>
      </trkpt>
      <trkpt lat="44.32096" lon="3.18958">
        <ele>954</ele>
        <time>2023-05-06T11:15:48Z</time>
      </trkpt>
      <trkpt lat="44.32098" lon="3.18938">
        <ele>954.20001220703</ele>
        <time>2023-05-06T11:15:56Z</time>
      </trkpt>
      <trkpt lat="44.32103" lon="3.18923">
        <ele>954</ele>
        <time>2023-05-06T11:16:02Z</time>
      </trkpt>
      <trkpt lat="44.32106" lon="3.18901">
        <ele>953.59997558594</ele>
        <time>2023-05-06T11:16:09Z</time>
      </trkpt>
      <trkpt lat="44.32113" lon="3.18876">
        <ele>953</ele>
        <time>2023-05-06T11:16:15Z</time>
      </trkpt>
      <trkpt lat="44.32115" lon="3.18866">
        <ele>952.79998779297</ele>
        <time>2023-05-06T11:16:17Z</time>
      </trkpt>
      <trkpt lat="44.32119" lon="3.18853">
        <ele>952.40002441406</ele>
        <time>2023-05-06T11:16:19Z</time>
      </trkpt>
      <trkpt lat="44.32132" lon="3.18821">
        <ele>951.40002441406</ele>
        <time>2023-05-06T11:16:25Z</time>
      </trkpt>
      <trkpt lat="44.32134" lon="3.18815">
        <ele>951.20001220703</ele>
        <time>2023-05-06T11:16:26Z</time>
      </trkpt>
      <trkpt lat="44.3214" lon="3.18793">
        <ele>950.79998779297</ele>
        <time>2023-05-06T11:16:29Z</time>
      </trkpt>
      <trkpt lat="44.32148" lon="3.18781">
        <ele>950.40002441406</ele>
        <time>2023-05-06T11:16:31Z</time>
      </trkpt>
      <trkpt lat="44.32151" lon="3.18777">
        <ele>950.20001220703</ele>
        <time>2023-05-06T11:16:32Z</time>
      </trkpt>
      <trkpt lat="44.32154" lon="3.18772">
        <ele>950</ele>
        <time>2023-05-06T11:16:33Z</time>
      </trkpt>
      <trkpt lat="44.32156" lon="3.1876">
        <ele>949.59997558594</ele>
        <time>2023-05-06T11:16:35Z</time>
      </trkpt>
      <trkpt lat="44.32162" lon="3.18753">
        <ele>949.20001220703</ele>
        <time>2023-05-06T11:16:37Z</time>
      </trkpt>
      <trkpt lat="44.32164" lon="3.18753">
        <ele>949</ele>
        <time>2023-05-06T11:16:38Z</time>
      </trkpt>
      <trkpt lat="44.32168" lon="3.18751">
        <ele>948.59997558594</ele>
        <time>2023-05-06T11:16:40Z</time>
      </trkpt>
      <trkpt lat="44.3217" lon="3.18744">
        <ele>948.20001220703</ele>
        <time>2023-05-06T11:16:42Z</time>
      </trkpt>
      <trkpt lat="44.32172" lon="3.18733">
        <ele>947.59997558594</ele>
        <time>2023-05-06T11:16:45Z</time>
      </trkpt>
      <trkpt lat="44.32172" lon="3.18728">
        <ele>947.40002441406</ele>
        <time>2023-05-06T11:16:46Z</time>
      </trkpt>
      <trkpt lat="44.32172" lon="3.18717">
        <ele>946.79998779297</ele>
        <time>2023-05-06T11:16:48Z</time>
      </trkpt>
      <trkpt lat="44.32173" lon="3.18702">
        <ele>946.40002441406</ele>
        <time>2023-05-06T11:16:50Z</time>
      </trkpt>
      <trkpt lat="44.32173" lon="3.18689">
        <ele>945.79998779297</ele>
        <time>2023-05-06T11:16:52Z</time>
      </trkpt>
      <trkpt lat="44.32175" lon="3.18677">
        <ele>945.20001220703</ele>
        <time>2023-05-06T11:16:54Z</time>
      </trkpt>
      <trkpt lat="44.32182" lon="3.18659">
        <ele>944.40002441406</ele>
        <time>2023-05-06T11:16:57Z</time>
      </trkpt>
      <trkpt lat="44.32187" lon="3.18647">
        <ele>944</ele>
        <time>2023-05-06T11:16:59Z</time>
      </trkpt>
      <trkpt lat="44.32203" lon="3.18613">
        <ele>942.79998779297</ele>
        <time>2023-05-06T11:17:06Z</time>
      </trkpt>
      <trkpt lat="44.32204" lon="3.18607">
        <ele>942.59997558594</ele>
        <time>2023-05-06T11:17:07Z</time>
      </trkpt>
      <trkpt lat="44.32205" lon="3.18592">
        <ele>942.20001220703</ele>
        <time>2023-05-06T11:17:10Z</time>
      </trkpt>
      <trkpt lat="44.32206" lon="3.18584">
        <ele>941.79998779297</ele>
        <time>2023-05-06T11:17:15Z</time>
      </trkpt>
      <trkpt lat="44.32205" lon="3.18574">
        <ele>941.59997558594</ele>
        <time>2023-05-06T11:17:20Z</time>
      </trkpt>
      <trkpt lat="44.32206" lon="3.18562">
        <ele>941.40002441406</ele>
        <time>2023-05-06T11:17:26Z</time>
      </trkpt>
      <trkpt lat="44.32208" lon="3.18549">
        <ele>941.40002441406</ele>
        <time>2023-05-06T11:17:34Z</time>
      </trkpt>
      <trkpt lat="44.32207" lon="3.1854">
        <ele>941.40002441406</ele>
        <time>2023-05-06T11:17:38Z</time>
      </trkpt>
      <trkpt lat="44.3221" lon="3.18522">
        <ele>941.40002441406</ele>
        <time>2023-05-06T11:17:45Z</time>
      </trkpt>
      <trkpt lat="44.3221" lon="3.18507">
        <ele>941.59997558594</ele>
        <time>2023-05-06T11:17:50Z</time>
      </trkpt>
      <trkpt lat="44.32206" lon="3.18479">
        <ele>941.40002441406</ele>
        <time>2023-05-06T11:17:55Z</time>
      </trkpt>
      <trkpt lat="44.32209" lon="3.18456">
        <ele>941.20001220703</ele>
        <time>2023-05-06T11:18:00Z</time>
      </trkpt>
      <trkpt lat="44.32212" lon="3.18439">
        <ele>941.20001220703</ele>
        <time>2023-05-06T11:18:05Z</time>
      </trkpt>
      <trkpt lat="44.32216" lon="3.18431">
        <ele>941.20001220703</ele>
        <time>2023-05-06T11:18:10Z</time>
      </trkpt>
      <trkpt lat="44.32219" lon="3.18419">
        <ele>941.59997558594</ele>
        <time>2023-05-06T11:18:17Z</time>
      </trkpt>
      <trkpt lat="44.3222" lon="3.18418">
        <ele>941.59997558594</ele>
        <time>2023-05-06T11:18:18Z</time>
      </trkpt>
      <trkpt lat="44.32221" lon="3.18412">
        <ele>941.59997558594</ele>
        <time>2023-05-06T11:18:22Z</time>
      </trkpt>
      <trkpt lat="44.32221" lon="3.18412">
        <ele>941.59997558594</ele>
        <time>2023-05-06T11:18:27Z</time>
      </trkpt>
      <trkpt lat="44.32221" lon="3.18412">
        <ele>941.79998779297</ele>
        <time>2023-05-06T11:18:42Z</time>
      </trkpt>
      <trkpt lat="44.32221" lon="3.18412">
        <ele>941.79998779297</ele>
        <time>2023-05-06T11:18:47Z</time>
      </trkpt>
      <trkpt lat="44.32222" lon="3.18408">
        <ele>941.79998779297</ele>
        <time>2023-05-06T11:18:49Z</time>
      </trkpt>
      <trkpt lat="44.32221" lon="3.18383">
        <ele>941.40002441406</ele>
        <time>2023-05-06T11:18:56Z</time>
      </trkpt>
      <trkpt lat="44.32218" lon="3.1836">
        <ele>941</ele>
        <time>2023-05-06T11:19:00Z</time>
      </trkpt>
      <trkpt lat="44.32213" lon="3.18349">
        <ele>940.79998779297</ele>
        <time>2023-05-06T11:19:02Z</time>
      </trkpt>
      <trkpt lat="44.32206" lon="3.18337">
        <ele>940.40002441406</ele>
        <time>2023-05-06T11:19:04Z</time>
      </trkpt>
      <trkpt lat="44.32199" lon="3.1833">
        <ele>940</ele>
        <time>2023-05-06T11:19:06Z</time>
      </trkpt>
      <trkpt lat="44.32185" lon="3.18321">
        <ele>939.40002441406</ele>
        <time>2023-05-06T11:19:09Z</time>
      </trkpt>
      <trkpt lat="44.3218" lon="3.18321">
        <ele>939</ele>
        <time>2023-05-06T11:19:10Z</time>
      </trkpt>
      <trkpt lat="44.32175" lon="3.1832">
        <ele>938.79998779297</ele>
        <time>2023-05-06T11:19:11Z</time>
      </trkpt>
      <trkpt lat="44.32166" lon="3.1832">
        <ele>938.40002441406</ele>
        <time>2023-05-06T11:19:13Z</time>
      </trkpt>
      <trkpt lat="44.32161" lon="3.18321">
        <ele>938</ele>
        <time>2023-05-06T11:19:14Z</time>
      </trkpt>
      <trkpt lat="44.32157" lon="3.1832">
        <ele>937.79998779297</ele>
        <time>2023-05-06T11:19:15Z</time>
      </trkpt>
      <trkpt lat="44.32154" lon="3.18317">
        <ele>937.40002441406</ele>
        <time>2023-05-06T11:19:16Z</time>
      </trkpt>
      <trkpt lat="44.32149" lon="3.18293">
        <ele>936.59997558594</ele>
        <time>2023-05-06T11:19:20Z</time>
      </trkpt>
      <trkpt lat="44.32149" lon="3.18286">
        <ele>936.40002441406</ele>
        <time>2023-05-06T11:19:21Z</time>
      </trkpt>
      <trkpt lat="44.32152" lon="3.18273">
        <ele>936</ele>
        <time>2023-05-06T11:19:23Z</time>
      </trkpt>
      <trkpt lat="44.32155" lon="3.18261">
        <ele>935.79998779297</ele>
        <time>2023-05-06T11:19:25Z</time>
      </trkpt>
      <trkpt lat="44.32155" lon="3.18255">
        <ele>935.59997558594</ele>
        <time>2023-05-06T11:19:26Z</time>
      </trkpt>
      <trkpt lat="44.32152" lon="3.18236">
        <ele>935.40002441406</ele>
        <time>2023-05-06T11:19:29Z</time>
      </trkpt>
      <trkpt lat="44.32152" lon="3.18229">
        <ele>935.20001220703</ele>
        <time>2023-05-06T11:19:30Z</time>
      </trkpt>
      <trkpt lat="44.32152" lon="3.18222">
        <ele>935</ele>
        <time>2023-05-06T11:19:31Z</time>
      </trkpt>
      <trkpt lat="44.32152" lon="3.1821">
        <ele>934.59997558594</ele>
        <time>2023-05-06T11:19:33Z</time>
      </trkpt>
      <trkpt lat="44.32142" lon="3.18195">
        <ele>933.59997558594</ele>
        <time>2023-05-06T11:19:37Z</time>
      </trkpt>
      <trkpt lat="44.32133" lon="3.18192">
        <ele>933</ele>
        <time>2023-05-06T11:19:39Z</time>
      </trkpt>
      <trkpt lat="44.32128" lon="3.18191">
        <ele>932.79998779297</ele>
        <time>2023-05-06T11:19:40Z</time>
      </trkpt>
      <trkpt lat="44.3212" lon="3.18186">
        <ele>932</ele>
        <time>2023-05-06T11:19:42Z</time>
      </trkpt>
      <trkpt lat="44.32116" lon="3.18182">
        <ele>931.59997558594</ele>
        <time>2023-05-06T11:19:43Z</time>
      </trkpt>
      <trkpt lat="44.3211" lon="3.18178">
        <ele>931.20001220703</ele>
        <time>2023-05-06T11:19:44Z</time>
      </trkpt>
      <trkpt lat="44.32097" lon="3.18171">
        <ele>930.20001220703</ele>
        <time>2023-05-06T11:19:46Z</time>
      </trkpt>
      <trkpt lat="44.32089" lon="3.18168">
        <ele>929.59997558594</ele>
        <time>2023-05-06T11:19:47Z</time>
      </trkpt>
      <trkpt lat="44.32072" lon="3.1816">
        <ele>928.79998779297</ele>
        <time>2023-05-06T11:19:49Z</time>
      </trkpt>
      <trkpt lat="44.3206" lon="3.18153">
        <ele>927.79998779297</ele>
        <time>2023-05-06T11:19:51Z</time>
      </trkpt>
      <trkpt lat="44.32054" lon="3.18148">
        <ele>927.40002441406</ele>
        <time>2023-05-06T11:19:52Z</time>
      </trkpt>
      <trkpt lat="44.3205" lon="3.18144">
        <ele>926.79998779297</ele>
        <time>2023-05-06T11:19:53Z</time>
      </trkpt>
      <trkpt lat="44.32044" lon="3.18144">
        <ele>926.20001220703</ele>
        <time>2023-05-06T11:19:54Z</time>
      </trkpt>
      <trkpt lat="44.32013" lon="3.18153">
        <ele>923.59997558594</ele>
        <time>2023-05-06T11:19:59Z</time>
      </trkpt>
      <trkpt lat="44.31988" lon="3.18146">
        <ele>922</ele>
        <time>2023-05-06T11:20:03Z</time>
      </trkpt>
      <trkpt lat="44.31979" lon="3.18137">
        <ele>920.79998779297</ele>
        <time>2023-05-06T11:20:06Z</time>
      </trkpt>
      <trkpt lat="44.31977" lon="3.18126">
        <ele>919.40002441406</ele>
        <time>2023-05-06T11:20:09Z</time>
      </trkpt>
      <trkpt lat="44.31978" lon="3.18123">
        <ele>919</ele>
        <time>2023-05-06T11:20:10Z</time>
      </trkpt>
      <trkpt lat="44.31981" lon="3.18107">
        <ele>917.40002441406</ele>
        <time>2023-05-06T11:20:15Z</time>
      </trkpt>
      <trkpt lat="44.31985" lon="3.18085">
        <ele>915</ele>
        <time>2023-05-06T11:20:23Z</time>
      </trkpt>
      <trkpt lat="44.31988" lon="3.18075">
        <ele>913.79998779297</ele>
        <time>2023-05-06T11:20:27Z</time>
      </trkpt>
      <trkpt lat="44.31994" lon="3.18057">
        <ele>911.79998779297</ele>
        <time>2023-05-06T11:20:32Z</time>
      </trkpt>
      <trkpt lat="44.31999" lon="3.18036">
        <ele>910.40002441406</ele>
        <time>2023-05-06T11:20:37Z</time>
      </trkpt>
      <trkpt lat="44.32008" lon="3.18013">
        <ele>908.79998779297</ele>
        <time>2023-05-06T11:20:43Z</time>
      </trkpt>
      <trkpt lat="44.32016" lon="3.17986">
        <ele>907.40002441406</ele>
        <time>2023-05-06T11:20:49Z</time>
      </trkpt>
      <trkpt lat="44.32025" lon="3.17962">
        <ele>906</ele>
        <time>2023-05-06T11:20:54Z</time>
      </trkpt>
      <trkpt lat="44.32025" lon="3.17957">
        <ele>905.79998779297</ele>
        <time>2023-05-06T11:20:55Z</time>
      </trkpt>
      <trkpt lat="44.32023" lon="3.17948">
        <ele>905.20001220703</ele>
        <time>2023-05-06T11:20:57Z</time>
      </trkpt>
      <trkpt lat="44.32019" lon="3.17933">
        <ele>903.79998779297</ele>
        <time>2023-05-06T11:21:01Z</time>
      </trkpt>
      <trkpt lat="44.32012" lon="3.17915">
        <ele>902.40002441406</ele>
        <time>2023-05-06T11:21:06Z</time>
      </trkpt>
      <trkpt lat="44.32006" lon="3.17903">
        <ele>901.79998779297</ele>
        <time>2023-05-06T11:21:10Z</time>
      </trkpt>
      <trkpt lat="44.32" lon="3.1789">
        <ele>901.20001220703</ele>
        <time>2023-05-06T11:21:14Z</time>
      </trkpt>
      <trkpt lat="44.31983" lon="3.17871">
        <ele>900.20001220703</ele>
        <time>2023-05-06T11:21:22Z</time>
      </trkpt>
      <trkpt lat="44.31979" lon="3.17867">
        <ele>899.59997558594</ele>
        <time>2023-05-06T11:21:24Z</time>
      </trkpt>
      <trkpt lat="44.31975" lon="3.17862">
        <ele>899.40002441406</ele>
        <time>2023-05-06T11:21:26Z</time>
      </trkpt>
      <trkpt lat="44.31965" lon="3.17846">
        <ele>898.79998779297</ele>
        <time>2023-05-06T11:21:32Z</time>
      </trkpt>
      <trkpt lat="44.31951" lon="3.17834">
        <ele>897.79998779297</ele>
        <time>2023-05-06T11:21:38Z</time>
      </trkpt>
      <trkpt lat="44.31933" lon="3.17825">
        <ele>897</ele>
        <time>2023-05-06T11:21:46Z</time>
      </trkpt>
      <trkpt lat="44.3192" lon="3.17817">
        <ele>896.40002441406</ele>
        <time>2023-05-06T11:21:52Z</time>
      </trkpt>
      <trkpt lat="44.31904" lon="3.17808">
        <ele>896</ele>
        <time>2023-05-06T11:21:57Z</time>
      </trkpt>
      <trkpt lat="44.31885" lon="3.17804">
        <ele>895.79998779297</ele>
        <time>2023-05-06T11:22:01Z</time>
      </trkpt>
      <trkpt lat="44.31867" lon="3.17801">
        <ele>895.59997558594</ele>
        <time>2023-05-06T11:22:04Z</time>
      </trkpt>
      <trkpt lat="44.31854" lon="3.17802">
        <ele>895.40002441406</ele>
        <time>2023-05-06T11:22:06Z</time>
      </trkpt>
      <trkpt lat="44.31808" lon="3.17798">
        <ele>894.79998779297</ele>
        <time>2023-05-06T11:22:13Z</time>
      </trkpt>
      <trkpt lat="44.31767" lon="3.17796">
        <ele>894</ele>
        <time>2023-05-06T11:22:19Z</time>
      </trkpt>
      <trkpt lat="44.31728" lon="3.17786">
        <ele>893.59997558594</ele>
        <time>2023-05-06T11:22:25Z</time>
      </trkpt>
      <trkpt lat="44.31679" lon="3.17766">
        <ele>892.40002441406</ele>
        <time>2023-05-06T11:22:33Z</time>
      </trkpt>
      <trkpt lat="44.31646" lon="3.17744">
        <ele>891.59997558594</ele>
        <time>2023-05-06T11:22:38Z</time>
      </trkpt>
      <trkpt lat="44.31624" lon="3.1773">
        <ele>891</ele>
        <time>2023-05-06T11:22:41Z</time>
      </trkpt>
      <trkpt lat="44.31607" lon="3.17723">
        <ele>890.59997558594</ele>
        <time>2023-05-06T11:22:43Z</time>
      </trkpt>
      <trkpt lat="44.31549" lon="3.17714">
        <ele>889.20001220703</ele>
        <time>2023-05-06T11:22:49Z</time>
      </trkpt>
      <trkpt lat="44.3149" lon="3.17705">
        <ele>888</ele>
        <time>2023-05-06T11:22:55Z</time>
      </trkpt>
      <trkpt lat="44.31471" lon="3.17705">
        <ele>887.59997558594</ele>
        <time>2023-05-06T11:22:57Z</time>
      </trkpt>
      <trkpt lat="44.31428" lon="3.17699">
        <ele>886.79998779297</ele>
        <time>2023-05-06T11:23:02Z</time>
      </trkpt>
      <trkpt lat="44.31385" lon="3.17685">
        <ele>886.40002441406</ele>
        <time>2023-05-06T11:23:08Z</time>
      </trkpt>
      <trkpt lat="44.31366" lon="3.17672">
        <ele>886.20001220703</ele>
        <time>2023-05-06T11:23:12Z</time>
      </trkpt>
      <trkpt lat="44.31362" lon="3.1767">
        <ele>886</ele>
        <time>2023-05-06T11:23:13Z</time>
      </trkpt>
      <trkpt lat="44.31347" lon="3.17662">
        <ele>885.79998779297</ele>
        <time>2023-05-06T11:23:18Z</time>
      </trkpt>
      <trkpt lat="44.31335" lon="3.17656">
        <ele>885.40002441406</ele>
        <time>2023-05-06T11:23:24Z</time>
      </trkpt>
      <trkpt lat="44.31323" lon="3.17648">
        <ele>885</ele>
        <time>2023-05-06T11:23:32Z</time>
      </trkpt>
      <trkpt lat="44.31322" lon="3.17647">
        <ele>885</ele>
        <time>2023-05-06T11:23:33Z</time>
      </trkpt>
      <trkpt lat="44.31317" lon="3.17645">
        <ele>885.20001220703</ele>
        <time>2023-05-06T11:23:36Z</time>
      </trkpt>
      <trkpt lat="44.31316" lon="3.17644">
        <ele>885.20001220703</ele>
        <time>2023-05-06T11:23:37Z</time>
      </trkpt>
      <trkpt lat="44.31309" lon="3.17643">
        <ele>885.59997558594</ele>
        <time>2023-05-06T11:23:42Z</time>
      </trkpt>
      <trkpt lat="44.31308" lon="3.17643">
        <ele>885.59997558594</ele>
        <time>2023-05-06T11:23:46Z</time>
      </trkpt>
      <trkpt lat="44.31308" lon="3.17643">
        <ele>885.40002441406</ele>
        <time>2023-05-06T11:24:01Z</time>
      </trkpt>
      <trkpt lat="44.31308" lon="3.17643">
        <ele>885.59997558594</ele>
        <time>2023-05-06T11:24:14Z</time>
      </trkpt>
      <trkpt lat="44.31307" lon="3.17643">
        <ele>885.59997558594</ele>
        <time>2023-05-06T11:24:30Z</time>
      </trkpt>
      <trkpt lat="44.31307" lon="3.17643">
        <ele>885.59997558594</ele>
        <time>2023-05-06T11:24:43Z</time>
      </trkpt>
      <trkpt lat="44.31299" lon="3.17642">
        <ele>885.79998779297</ele>
        <time>2023-05-06T11:24:48Z</time>
      </trkpt>
      <trkpt lat="44.31287" lon="3.17634">
        <ele>886</ele>
        <time>2023-05-06T11:24:54Z</time>
      </trkpt>
      <trkpt lat="44.31265" lon="3.17628">
        <ele>886.20001220703</ele>
        <time>2023-05-06T11:25:02Z</time>
      </trkpt>
      <trkpt lat="44.31244" lon="3.17626">
        <ele>886.20001220703</ele>
        <time>2023-05-06T11:25:09Z</time>
      </trkpt>
      <trkpt lat="44.31225" lon="3.17628">
        <ele>886.20001220703</ele>
        <time>2023-05-06T11:25:14Z</time>
      </trkpt>
      <trkpt lat="44.31197" lon="3.17629">
        <ele>886</ele>
        <time>2023-05-06T11:25:20Z</time>
      </trkpt>
      <trkpt lat="44.31182" lon="3.17631">
        <ele>885.59997558594</ele>
        <time>2023-05-06T11:25:23Z</time>
      </trkpt>
      <trkpt lat="44.31174" lon="3.1763">
        <ele>885.40002441406</ele>
        <time>2023-05-06T11:25:25Z</time>
      </trkpt>
      <trkpt lat="44.31165" lon="3.1763">
        <ele>885.40002441406</ele>
        <time>2023-05-06T11:25:27Z</time>
      </trkpt>
      <trkpt lat="44.31157" lon="3.17627">
        <ele>885.20001220703</ele>
        <time>2023-05-06T11:25:29Z</time>
      </trkpt>
      <trkpt lat="44.31151" lon="3.17619">
        <ele>885</ele>
        <time>2023-05-06T11:25:31Z</time>
      </trkpt>
      <trkpt lat="44.31145" lon="3.17608">
        <ele>884.79998779297</ele>
        <time>2023-05-06T11:25:33Z</time>
      </trkpt>
      <trkpt lat="44.31138" lon="3.17596">
        <ele>884.40002441406</ele>
        <time>2023-05-06T11:25:35Z</time>
      </trkpt>
      <trkpt lat="44.31132" lon="3.17582">
        <ele>884.20001220703</ele>
        <time>2023-05-06T11:25:37Z</time>
      </trkpt>
      <trkpt lat="44.31115" lon="3.17537">
        <ele>883.59997558594</ele>
        <time>2023-05-06T11:25:43Z</time>
      </trkpt>
      <trkpt lat="44.31113" lon="3.17528">
        <ele>883.40002441406</ele>
        <time>2023-05-06T11:25:44Z</time>
      </trkpt>
      <trkpt lat="44.31109" lon="3.17511">
        <ele>883</ele>
        <time>2023-05-06T11:25:46Z</time>
      </trkpt>
      <trkpt lat="44.31101" lon="3.17471">
        <ele>882.59997558594</ele>
        <time>2023-05-06T11:25:51Z</time>
      </trkpt>
      <trkpt lat="44.31097" lon="3.17453">
        <ele>882.40002441406</ele>
        <time>2023-05-06T11:25:54Z</time>
      </trkpt>
      <trkpt lat="44.31095" lon="3.17447">
        <ele>882.40002441406</ele>
        <time>2023-05-06T11:25:55Z</time>
      </trkpt>
      <trkpt lat="44.31093" lon="3.17442">
        <ele>882.40002441406</ele>
        <time>2023-05-06T11:25:56Z</time>
      </trkpt>
      <trkpt lat="44.31089" lon="3.17422">
        <ele>882.40002441406</ele>
        <time>2023-05-06T11:26:00Z</time>
      </trkpt>
      <trkpt lat="44.31081" lon="3.17405">
        <ele>882.40002441406</ele>
        <time>2023-05-06T11:26:05Z</time>
      </trkpt>
      <trkpt lat="44.31062" lon="3.17398">
        <ele>882.20001220703</ele>
        <time>2023-05-06T11:26:10Z</time>
      </trkpt>
      <trkpt lat="44.31041" lon="3.17396">
        <ele>881.79998779297</ele>
        <time>2023-05-06T11:26:15Z</time>
      </trkpt>
      <trkpt lat="44.31028" lon="3.17394">
        <ele>881.59997558594</ele>
        <time>2023-05-06T11:26:18Z</time>
      </trkpt>
      <trkpt lat="44.31015" lon="3.17395">
        <ele>881.59997558594</ele>
        <time>2023-05-06T11:26:21Z</time>
      </trkpt>
      <trkpt lat="44.30982" lon="3.17401">
        <ele>881</ele>
        <time>2023-05-06T11:26:29Z</time>
      </trkpt>
      <trkpt lat="44.30973" lon="3.17401">
        <ele>880.59997558594</ele>
        <time>2023-05-06T11:26:31Z</time>
      </trkpt>
      <trkpt lat="44.3097" lon="3.17395">
        <ele>880.40002441406</ele>
        <time>2023-05-06T11:26:33Z</time>
      </trkpt>
      <trkpt lat="44.30964" lon="3.17384">
        <ele>880.20001220703</ele>
        <time>2023-05-06T11:26:36Z</time>
      </trkpt>
      <trkpt lat="44.30956" lon="3.17376">
        <ele>880.20001220703</ele>
        <time>2023-05-06T11:26:39Z</time>
      </trkpt>
      <trkpt lat="44.30953" lon="3.17376">
        <ele>880</ele>
        <time>2023-05-06T11:26:40Z</time>
      </trkpt>
      <trkpt lat="44.30939" lon="3.17386">
        <ele>879.59997558594</ele>
        <time>2023-05-06T11:26:45Z</time>
      </trkpt>
      <trkpt lat="44.30916" lon="3.17396">
        <ele>878.79998779297</ele>
        <time>2023-05-06T11:26:51Z</time>
      </trkpt>
      <trkpt lat="44.309" lon="3.17399">
        <ele>878</ele>
        <time>2023-05-06T11:26:55Z</time>
      </trkpt>
      <trkpt lat="44.30896" lon="3.17401">
        <ele>878</ele>
        <time>2023-05-06T11:26:56Z</time>
      </trkpt>
      <trkpt lat="44.30888" lon="3.17403">
        <ele>877.79998779297</ele>
        <time>2023-05-06T11:26:58Z</time>
      </trkpt>
      <trkpt lat="44.30882" lon="3.17399">
        <ele>877.79998779297</ele>
        <time>2023-05-06T11:27:00Z</time>
      </trkpt>
      <trkpt lat="44.30879" lon="3.17387">
        <ele>877.79998779297</ele>
        <time>2023-05-06T11:27:03Z</time>
      </trkpt>
      <trkpt lat="44.3088" lon="3.17365">
        <ele>877.40002441406</ele>
        <time>2023-05-06T11:27:09Z</time>
      </trkpt>
      <trkpt lat="44.30882" lon="3.17336">
        <ele>876.79998779297</ele>
        <time>2023-05-06T11:27:17Z</time>
      </trkpt>
      <trkpt lat="44.30881" lon="3.17318">
        <ele>876.59997558594</ele>
        <time>2023-05-06T11:27:23Z</time>
      </trkpt>
      <trkpt lat="44.30878" lon="3.17306">
        <ele>876.79998779297</ele>
        <time>2023-05-06T11:27:28Z</time>
      </trkpt>
      <trkpt lat="44.30878" lon="3.17304">
        <ele>876.79998779297</ele>
        <time>2023-05-06T11:27:29Z</time>
      </trkpt>
      <trkpt lat="44.30877" lon="3.17304">
        <ele>876.59997558594</ele>
        <time>2023-05-06T11:27:33Z</time>
      </trkpt>
    </trkseg>
  </trk>
</gpx>